<?xml version="1.0" encoding="UTF-8" standalone="no" ?>
<gpx xmlns="http://www.topografix.com/GPX/1/1" xmlns:xsi="http://www.w3.org/2001/XMLSchema-instance" xsi:schemaLocation="http://www.topografix.com/GPX/1/1 http://www.topografix.com/GPX/1/1/gpx.xsd" version="1.1" creator="VisuGPX - https://www.visugpx.com">
  <metadata>
    <name>Pornichet 11/04/2021</name>
    <desc><![CDATA[Sortie "les pieds dans l'eau" dimanche 11 avril 2021]]></desc>
  </metadata>
  <trk>
    <name><![CDATA[Pornichet Cyclisme]]></name>
    <trkseg>
      <trkpt lat="47.26399" lon="-2.31575">
        <ele>9.4</ele>
        <time>2021-04-11T07:14:06.000Z</time>
      </trkpt>
      <trkpt lat="47.26399" lon="-2.3159">
        <ele>9.4</ele>
        <time>2021-04-11T07:14:09.000Z</time>
      </trkpt>
      <trkpt lat="47.26399" lon="-2.31594">
        <ele>9.4</ele>
        <time>2021-04-11T07:14:10.000Z</time>
      </trkpt>
      <trkpt lat="47.26398" lon="-2.31614">
        <ele>9.3</ele>
        <time>2021-04-11T07:14:14.000Z</time>
      </trkpt>
      <trkpt lat="47.26398" lon="-2.31656">
        <ele>8.4</ele>
        <time>2021-04-11T07:14:21.000Z</time>
      </trkpt>
      <trkpt lat="47.26397" lon="-2.31665">
        <ele>8.1</ele>
        <time>2021-04-11T07:14:24.000Z</time>
      </trkpt>
      <trkpt lat="47.26392" lon="-2.31667">
        <ele>8</ele>
        <time>2021-04-11T07:14:26.000Z</time>
      </trkpt>
      <trkpt lat="47.26388" lon="-2.31669">
        <ele>7.9</ele>
        <time>2021-04-11T07:14:28.000Z</time>
      </trkpt>
      <trkpt lat="47.26376" lon="-2.31673">
        <ele>7.8</ele>
        <time>2021-04-11T07:14:32.000Z</time>
      </trkpt>
      <trkpt lat="47.26361" lon="-2.31681">
        <ele>7.5</ele>
        <time>2021-04-11T07:14:36.000Z</time>
      </trkpt>
      <trkpt lat="47.26357" lon="-2.31683">
        <ele>7.3</ele>
        <time>2021-04-11T07:14:37.000Z</time>
      </trkpt>
      <trkpt lat="47.26331" lon="-2.31695">
        <ele>5.8</ele>
        <time>2021-04-11T07:14:44.000Z</time>
      </trkpt>
      <trkpt lat="47.26328" lon="-2.31698">
        <ele>-0.40000000596046</ele>
        <time>2021-04-11T07:14:45.000Z</time>
      </trkpt>
      <trkpt lat="47.26326" lon="-2.31701">
        <ele>-0.80000001192093</ele>
        <time>2021-04-11T07:14:46.000Z</time>
      </trkpt>
      <trkpt lat="47.26325" lon="-2.31707">
        <ele>-1.2000000476837</ele>
        <time>2021-04-11T07:14:47.000Z</time>
      </trkpt>
      <trkpt lat="47.26323" lon="-2.31711">
        <ele>-1.6000000238419</ele>
        <time>2021-04-11T07:14:48.000Z</time>
      </trkpt>
      <trkpt lat="47.2632" lon="-2.31712">
        <ele>-2.2000000476837</ele>
        <time>2021-04-11T07:14:49.000Z</time>
      </trkpt>
      <trkpt lat="47.26312" lon="-2.31716">
        <ele>-2.2000000476837</ele>
        <time>2021-04-11T07:14:51.000Z</time>
      </trkpt>
      <trkpt lat="47.26307" lon="-2.31718">
        <ele>-2.2000000476837</ele>
        <time>2021-04-11T07:14:52.000Z</time>
      </trkpt>
      <trkpt lat="47.26295" lon="-2.31726">
        <ele>-2.5999999046326</ele>
        <time>2021-04-11T07:14:55.000Z</time>
      </trkpt>
      <trkpt lat="47.26292" lon="-2.31732">
        <ele>-3</ele>
        <time>2021-04-11T07:14:56.000Z</time>
      </trkpt>
      <trkpt lat="47.26291" lon="-2.31738">
        <ele>-3.4000000953674</ele>
        <time>2021-04-11T07:14:57.000Z</time>
      </trkpt>
      <trkpt lat="47.26292" lon="-2.31745">
        <ele>-3.7999999523163</ele>
        <time>2021-04-11T07:14:58.000Z</time>
      </trkpt>
      <trkpt lat="47.26293" lon="-2.31751">
        <ele>-4.4000000953674</ele>
        <time>2021-04-11T07:14:59.000Z</time>
      </trkpt>
      <trkpt lat="47.26294" lon="-2.31758">
        <ele>-4.4000000953674</ele>
        <time>2021-04-11T07:15:00.000Z</time>
      </trkpt>
      <trkpt lat="47.26295" lon="-2.31778">
        <ele>-4.4000000953674</ele>
        <time>2021-04-11T07:15:03.000Z</time>
      </trkpt>
      <trkpt lat="47.26295" lon="-2.31791">
        <ele>-4.4000000953674</ele>
        <time>2021-04-11T07:15:05.000Z</time>
      </trkpt>
      <trkpt lat="47.26296" lon="-2.31797">
        <ele>-4.4000000953674</ele>
        <time>2021-04-11T07:15:06.000Z</time>
      </trkpt>
      <trkpt lat="47.26295" lon="-2.3181">
        <ele>-4.4000000953674</ele>
        <time>2021-04-11T07:15:08.000Z</time>
      </trkpt>
      <trkpt lat="47.26294" lon="-2.31829">
        <ele>-4.4000000953674</ele>
        <time>2021-04-11T07:15:11.000Z</time>
      </trkpt>
      <trkpt lat="47.26292" lon="-2.31848">
        <ele>-4.4000000953674</ele>
        <time>2021-04-11T07:15:14.000Z</time>
      </trkpt>
      <trkpt lat="47.26291" lon="-2.31868">
        <ele>-4.4000000953674</ele>
        <time>2021-04-11T07:15:17.000Z</time>
      </trkpt>
      <trkpt lat="47.26287" lon="-2.319">
        <ele>-4.4000000953674</ele>
        <time>2021-04-11T07:15:23.000Z</time>
      </trkpt>
      <trkpt lat="47.26274" lon="-2.31911">
        <ele>-4.4000000953674</ele>
        <time>2021-04-11T07:15:27.000Z</time>
      </trkpt>
      <trkpt lat="47.2626" lon="-2.31931">
        <ele>-4.4000000953674</ele>
        <time>2021-04-11T07:15:32.000Z</time>
      </trkpt>
      <trkpt lat="47.26246" lon="-2.31956">
        <ele>-4.4000000953674</ele>
        <time>2021-04-11T07:15:38.000Z</time>
      </trkpt>
      <trkpt lat="47.26241" lon="-2.31972">
        <ele>-4.4000000953674</ele>
        <time>2021-04-11T07:15:42.000Z</time>
      </trkpt>
      <trkpt lat="47.26239" lon="-2.31976">
        <ele>-4.8000001907349</ele>
        <time>2021-04-11T07:15:43.000Z</time>
      </trkpt>
      <trkpt lat="47.26236" lon="-2.31978">
        <ele>-5.1999998092651</ele>
        <time>2021-04-11T07:15:44.000Z</time>
      </trkpt>
      <trkpt lat="47.26233" lon="-2.31978">
        <ele>-5.5999999046326</ele>
        <time>2021-04-11T07:15:45.000Z</time>
      </trkpt>
      <trkpt lat="47.26229" lon="-2.31978">
        <ele>-6</ele>
        <time>2021-04-11T07:15:46.000Z</time>
      </trkpt>
      <trkpt lat="47.26226" lon="-2.31979">
        <ele>-6.4000000953674</ele>
        <time>2021-04-11T07:15:47.000Z</time>
      </trkpt>
      <trkpt lat="47.26221" lon="-2.31985">
        <ele>-6.4000000953674</ele>
        <time>2021-04-11T07:15:50.000Z</time>
      </trkpt>
      <trkpt lat="47.2621" lon="-2.31998">
        <ele>-6.4000000953674</ele>
        <time>2021-04-11T07:15:54.000Z</time>
      </trkpt>
      <trkpt lat="47.26207" lon="-2.32">
        <ele>-6.4000000953674</ele>
        <time>2021-04-11T07:15:55.000Z</time>
      </trkpt>
      <trkpt lat="47.26204" lon="-2.32002">
        <ele>-6.4000000953674</ele>
        <time>2021-04-11T07:15:56.000Z</time>
      </trkpt>
      <trkpt lat="47.26199" lon="-2.32007">
        <ele>-6.4000000953674</ele>
        <time>2021-04-11T07:15:58.000Z</time>
      </trkpt>
      <trkpt lat="47.26199" lon="-2.32012">
        <ele>-6.4000000953674</ele>
        <time>2021-04-11T07:15:59.000Z</time>
      </trkpt>
      <trkpt lat="47.26196" lon="-2.32023">
        <ele>-6.4000000953674</ele>
        <time>2021-04-11T07:16:03.000Z</time>
      </trkpt>
      <trkpt lat="47.26194" lon="-2.32023">
        <ele>-6.4000000953674</ele>
        <time>2021-04-11T07:16:04.000Z</time>
      </trkpt>
      <trkpt lat="47.26193" lon="-2.32023">
        <ele>-6.4000000953674</ele>
        <time>2021-04-11T07:16:05.000Z</time>
      </trkpt>
      <trkpt lat="47.26181" lon="-2.32024">
        <ele>-6.4000000953674</ele>
        <time>2021-04-11T07:16:09.000Z</time>
      </trkpt>
      <trkpt lat="47.26163" lon="-2.32033">
        <ele>-6.4000000953674</ele>
        <time>2021-04-11T07:16:14.000Z</time>
      </trkpt>
      <trkpt lat="47.2616" lon="-2.32038">
        <ele>-6.4000000953674</ele>
        <time>2021-04-11T07:16:15.000Z</time>
      </trkpt>
      <trkpt lat="47.26152" lon="-2.32054">
        <ele>-6.4000000953674</ele>
        <time>2021-04-11T07:16:18.000Z</time>
      </trkpt>
      <trkpt lat="47.26149" lon="-2.32059">
        <ele>-6.4000000953674</ele>
        <time>2021-04-11T07:16:19.000Z</time>
      </trkpt>
      <trkpt lat="47.26144" lon="-2.32078">
        <ele>-6.4000000953674</ele>
        <time>2021-04-11T07:16:22.000Z</time>
      </trkpt>
      <trkpt lat="47.2614" lon="-2.32089">
        <ele>-6.4000000953674</ele>
        <time>2021-04-11T07:16:24.000Z</time>
      </trkpt>
      <trkpt lat="47.26128" lon="-2.32132">
        <ele>-6.4000000953674</ele>
        <time>2021-04-11T07:16:31.000Z</time>
      </trkpt>
      <trkpt lat="47.26115" lon="-2.32166">
        <ele>-6.4000000953674</ele>
        <time>2021-04-11T07:16:37.000Z</time>
      </trkpt>
      <trkpt lat="47.26094" lon="-2.32215">
        <ele>-6.4000000953674</ele>
        <time>2021-04-11T07:16:46.000Z</time>
      </trkpt>
      <trkpt lat="47.26074" lon="-2.32242">
        <ele>-6.4000000953674</ele>
        <time>2021-04-11T07:16:52.000Z</time>
      </trkpt>
      <trkpt lat="47.26054" lon="-2.32266">
        <ele>-6.4000000953674</ele>
        <time>2021-04-11T07:16:58.000Z</time>
      </trkpt>
      <trkpt lat="47.26047" lon="-2.32274">
        <ele>-6.4000000953674</ele>
        <time>2021-04-11T07:17:00.000Z</time>
      </trkpt>
      <trkpt lat="47.26024" lon="-2.32299">
        <ele>-6.4000000953674</ele>
        <time>2021-04-11T07:17:06.000Z</time>
      </trkpt>
      <trkpt lat="47.26008" lon="-2.3232">
        <ele>-6.4000000953674</ele>
        <time>2021-04-11T07:17:11.000Z</time>
      </trkpt>
      <trkpt lat="47.25981" lon="-2.32357">
        <ele>-6.4000000953674</ele>
        <time>2021-04-11T07:17:19.000Z</time>
      </trkpt>
      <trkpt lat="47.25956" lon="-2.32388">
        <ele>-6.4000000953674</ele>
        <time>2021-04-11T07:17:26.000Z</time>
      </trkpt>
      <trkpt lat="47.2593" lon="-2.32424">
        <ele>-6.4000000953674</ele>
        <time>2021-04-11T07:17:34.000Z</time>
      </trkpt>
      <trkpt lat="47.25905" lon="-2.32456">
        <ele>-6.4000000953674</ele>
        <time>2021-04-11T07:17:42.000Z</time>
      </trkpt>
      <trkpt lat="47.25902" lon="-2.32464">
        <ele>-6.4000000953674</ele>
        <time>2021-04-11T07:17:44.000Z</time>
      </trkpt>
      <trkpt lat="47.25905" lon="-2.32472">
        <ele>-6.4000000953674</ele>
        <time>2021-04-11T07:17:46.000Z</time>
      </trkpt>
      <trkpt lat="47.25918" lon="-2.32483">
        <ele>-6.4000000953674</ele>
        <time>2021-04-11T07:17:50.000Z</time>
      </trkpt>
      <trkpt lat="47.25929" lon="-2.32504">
        <ele>-6.4000000953674</ele>
        <time>2021-04-11T07:17:54.000Z</time>
      </trkpt>
      <trkpt lat="47.25931" lon="-2.3251">
        <ele>-6.4000000953674</ele>
        <time>2021-04-11T07:17:55.000Z</time>
      </trkpt>
      <trkpt lat="47.25943" lon="-2.32545">
        <ele>-6.4000000953674</ele>
        <time>2021-04-11T07:18:01.000Z</time>
      </trkpt>
      <trkpt lat="47.25954" lon="-2.32594">
        <ele>-6.4000000953674</ele>
        <time>2021-04-11T07:18:09.000Z</time>
      </trkpt>
      <trkpt lat="47.25962" lon="-2.32629">
        <ele>-6.4000000953674</ele>
        <time>2021-04-11T07:18:15.000Z</time>
      </trkpt>
      <trkpt lat="47.25962" lon="-2.32635">
        <ele>-6.4000000953674</ele>
        <time>2021-04-11T07:18:16.000Z</time>
      </trkpt>
      <trkpt lat="47.25966" lon="-2.32659">
        <ele>-6.4000000953674</ele>
        <time>2021-04-11T07:18:21.000Z</time>
      </trkpt>
      <trkpt lat="47.25981" lon="-2.3266">
        <ele>-6.4000000953674</ele>
        <time>2021-04-11T07:18:24.000Z</time>
      </trkpt>
      <trkpt lat="47.25981" lon="-2.3266">
        <ele>-6.4000000953674</ele>
        <time>2021-04-11T07:18:25.000Z</time>
      </trkpt>
      <trkpt lat="47.26006" lon="-2.32659">
        <ele>-6.4000000953674</ele>
        <time>2021-04-11T07:18:31.000Z</time>
      </trkpt>
      <trkpt lat="47.26015" lon="-2.32657">
        <ele>-6</ele>
        <time>2021-04-11T07:18:33.000Z</time>
      </trkpt>
      <trkpt lat="47.2602" lon="-2.32656">
        <ele>-5.5999999046326</ele>
        <time>2021-04-11T07:18:34.000Z</time>
      </trkpt>
      <trkpt lat="47.26025" lon="-2.32655">
        <ele>-5.1999998092651</ele>
        <time>2021-04-11T07:18:35.000Z</time>
      </trkpt>
      <trkpt lat="47.2603" lon="-2.32655">
        <ele>-4.8000001907349</ele>
        <time>2021-04-11T07:18:36.000Z</time>
      </trkpt>
      <trkpt lat="47.26034" lon="-2.32654">
        <ele>-4.4000000953674</ele>
        <time>2021-04-11T07:18:37.000Z</time>
      </trkpt>
      <trkpt lat="47.26039" lon="-2.32654">
        <ele>-4.4000000953674</ele>
        <time>2021-04-11T07:18:38.000Z</time>
      </trkpt>
      <trkpt lat="47.26074" lon="-2.32645">
        <ele>-4.4000000953674</ele>
        <time>2021-04-11T07:18:46.000Z</time>
      </trkpt>
      <trkpt lat="47.26108" lon="-2.3264">
        <ele>-4.4000000953674</ele>
        <time>2021-04-11T07:18:54.000Z</time>
      </trkpt>
      <trkpt lat="47.26145" lon="-2.32644">
        <ele>-4.4000000953674</ele>
        <time>2021-04-11T07:19:03.000Z</time>
      </trkpt>
      <trkpt lat="47.26162" lon="-2.3265">
        <ele>-4.4000000953674</ele>
        <time>2021-04-11T07:19:07.000Z</time>
      </trkpt>
      <trkpt lat="47.26175" lon="-2.32657">
        <ele>-4.4000000953674</ele>
        <time>2021-04-11T07:19:10.000Z</time>
      </trkpt>
      <trkpt lat="47.26178" lon="-2.3266">
        <ele>-4.4000000953674</ele>
        <time>2021-04-11T07:19:11.000Z</time>
      </trkpt>
      <trkpt lat="47.26197" lon="-2.32677">
        <ele>-4.4000000953674</ele>
        <time>2021-04-11T07:19:16.000Z</time>
      </trkpt>
      <trkpt lat="47.26222" lon="-2.32706">
        <ele>-4.4000000953674</ele>
        <time>2021-04-11T07:19:23.000Z</time>
      </trkpt>
      <trkpt lat="47.26226" lon="-2.32711">
        <ele>-4.4000000953674</ele>
        <time>2021-04-11T07:19:24.000Z</time>
      </trkpt>
      <trkpt lat="47.2626" lon="-2.32762">
        <ele>-4.4000000953674</ele>
        <time>2021-04-11T07:19:33.000Z</time>
      </trkpt>
      <trkpt lat="47.26281" lon="-2.32807">
        <ele>-4.4000000953674</ele>
        <time>2021-04-11T07:19:40.000Z</time>
      </trkpt>
      <trkpt lat="47.26288" lon="-2.32836">
        <ele>-4.4000000953674</ele>
        <time>2021-04-11T07:19:44.000Z</time>
      </trkpt>
      <trkpt lat="47.2629" lon="-2.32851">
        <ele>-4.4000000953674</ele>
        <time>2021-04-11T07:19:46.000Z</time>
      </trkpt>
      <trkpt lat="47.26302" lon="-2.32864">
        <ele>-4.4000000953674</ele>
        <time>2021-04-11T07:19:49.000Z</time>
      </trkpt>
      <trkpt lat="47.2632" lon="-2.32878">
        <ele>-4.4000000953674</ele>
        <time>2021-04-11T07:19:53.000Z</time>
      </trkpt>
      <trkpt lat="47.26325" lon="-2.32891">
        <ele>-4.4000000953674</ele>
        <time>2021-04-11T07:19:55.000Z</time>
      </trkpt>
      <trkpt lat="47.26329" lon="-2.32904">
        <ele>-4.4000000953674</ele>
        <time>2021-04-11T07:19:57.000Z</time>
      </trkpt>
      <trkpt lat="47.26353" lon="-2.32974">
        <ele>-4.4000000953674</ele>
        <time>2021-04-11T07:20:08.000Z</time>
      </trkpt>
      <trkpt lat="47.26366" lon="-2.3299">
        <ele>-4.4000000953674</ele>
        <time>2021-04-11T07:20:12.000Z</time>
      </trkpt>
      <trkpt lat="47.26368" lon="-2.33018">
        <ele>-4.4000000953674</ele>
        <time>2021-04-11T07:20:16.000Z</time>
      </trkpt>
      <trkpt lat="47.26371" lon="-2.33088">
        <ele>-4.4000000953674</ele>
        <time>2021-04-11T07:20:26.000Z</time>
      </trkpt>
      <trkpt lat="47.26372" lon="-2.33109">
        <ele>-4.4000000953674</ele>
        <time>2021-04-11T07:20:29.000Z</time>
      </trkpt>
      <trkpt lat="47.26374" lon="-2.33136">
        <ele>-4.4000000953674</ele>
        <time>2021-04-11T07:20:33.000Z</time>
      </trkpt>
      <trkpt lat="47.26378" lon="-2.33203">
        <ele>-4.4000000953674</ele>
        <time>2021-04-11T07:20:43.000Z</time>
      </trkpt>
      <trkpt lat="47.26387" lon="-2.33257">
        <ele>-4.4000000953674</ele>
        <time>2021-04-11T07:20:51.000Z</time>
      </trkpt>
      <trkpt lat="47.26399" lon="-2.33267">
        <ele>-4.4000000953674</ele>
        <time>2021-04-11T07:20:54.000Z</time>
      </trkpt>
      <trkpt lat="47.26417" lon="-2.3327">
        <ele>-4.4000000953674</ele>
        <time>2021-04-11T07:20:58.000Z</time>
      </trkpt>
      <trkpt lat="47.26422" lon="-2.3327">
        <ele>-4.4000000953674</ele>
        <time>2021-04-11T07:20:59.000Z</time>
      </trkpt>
      <trkpt lat="47.26456" lon="-2.33275">
        <ele>-4.4000000953674</ele>
        <time>2021-04-11T07:21:07.000Z</time>
      </trkpt>
      <trkpt lat="47.2646" lon="-2.33276">
        <ele>-4.4000000953674</ele>
        <time>2021-04-11T07:21:08.000Z</time>
      </trkpt>
      <trkpt lat="47.26472" lon="-2.3328">
        <ele>-4.4000000953674</ele>
        <time>2021-04-11T07:21:11.000Z</time>
      </trkpt>
      <trkpt lat="47.26484" lon="-2.33281">
        <ele>-4.4000000953674</ele>
        <time>2021-04-11T07:21:14.000Z</time>
      </trkpt>
      <trkpt lat="47.26501" lon="-2.33282">
        <ele>-4.4000000953674</ele>
        <time>2021-04-11T07:21:18.000Z</time>
      </trkpt>
      <trkpt lat="47.26505" lon="-2.33284">
        <ele>-4.4000000953674</ele>
        <time>2021-04-11T07:21:19.000Z</time>
      </trkpt>
      <trkpt lat="47.26508" lon="-2.33287">
        <ele>-4.4000000953674</ele>
        <time>2021-04-11T07:21:20.000Z</time>
      </trkpt>
      <trkpt lat="47.26516" lon="-2.3329">
        <ele>-4.4000000953674</ele>
        <time>2021-04-11T07:21:22.000Z</time>
      </trkpt>
      <trkpt lat="47.26525" lon="-2.3329">
        <ele>-4.4000000953674</ele>
        <time>2021-04-11T07:21:24.000Z</time>
      </trkpt>
      <trkpt lat="47.26533" lon="-2.33291">
        <ele>-4.4000000953674</ele>
        <time>2021-04-11T07:21:26.000Z</time>
      </trkpt>
      <trkpt lat="47.26536" lon="-2.33296">
        <ele>-4.4000000953674</ele>
        <time>2021-04-11T07:21:27.000Z</time>
      </trkpt>
      <trkpt lat="47.26538" lon="-2.333">
        <ele>-4.4000000953674</ele>
        <time>2021-04-11T07:21:28.000Z</time>
      </trkpt>
      <trkpt lat="47.26547" lon="-2.33295">
        <ele>-4.4000000953674</ele>
        <time>2021-04-11T07:21:31.000Z</time>
      </trkpt>
      <trkpt lat="47.2655" lon="-2.33292">
        <ele>-4.4000000953674</ele>
        <time>2021-04-11T07:21:32.000Z</time>
      </trkpt>
      <trkpt lat="47.26568" lon="-2.3327">
        <ele>-4.4000000953674</ele>
        <time>2021-04-11T07:21:38.000Z</time>
      </trkpt>
      <trkpt lat="47.26593" lon="-2.33243">
        <ele>-4.4000000953674</ele>
        <time>2021-04-11T07:21:45.000Z</time>
      </trkpt>
      <trkpt lat="47.2662" lon="-2.33215">
        <ele>-4.4000000953674</ele>
        <time>2021-04-11T07:21:52.000Z</time>
      </trkpt>
      <trkpt lat="47.26629" lon="-2.33206">
        <ele>-4.4000000953674</ele>
        <time>2021-04-11T07:21:54.000Z</time>
      </trkpt>
      <trkpt lat="47.2664" lon="-2.33195">
        <ele>-4.4000000953674</ele>
        <time>2021-04-11T07:21:57.000Z</time>
      </trkpt>
      <trkpt lat="47.26652" lon="-2.33185">
        <ele>-4.4000000953674</ele>
        <time>2021-04-11T07:22:00.000Z</time>
      </trkpt>
      <trkpt lat="47.26678" lon="-2.33158">
        <ele>-4.4000000953674</ele>
        <time>2021-04-11T07:22:07.000Z</time>
      </trkpt>
      <trkpt lat="47.2669" lon="-2.33146">
        <ele>-4.4000000953674</ele>
        <time>2021-04-11T07:22:10.000Z</time>
      </trkpt>
      <trkpt lat="47.26701" lon="-2.33135">
        <ele>-4.4000000953674</ele>
        <time>2021-04-11T07:22:13.000Z</time>
      </trkpt>
      <trkpt lat="47.26734" lon="-2.33102">
        <ele>-4.4000000953674</ele>
        <time>2021-04-11T07:22:22.000Z</time>
      </trkpt>
      <trkpt lat="47.26755" lon="-2.33088">
        <ele>-4.4000000953674</ele>
        <time>2021-04-11T07:22:28.000Z</time>
      </trkpt>
      <trkpt lat="47.26765" lon="-2.33103">
        <ele>-4.4000000953674</ele>
        <time>2021-04-11T07:22:31.000Z</time>
      </trkpt>
      <trkpt lat="47.26766" lon="-2.33117">
        <ele>-4.4000000953674</ele>
        <time>2021-04-11T07:22:33.000Z</time>
      </trkpt>
      <trkpt lat="47.26766" lon="-2.33132">
        <ele>-4.4000000953674</ele>
        <time>2021-04-11T07:22:35.000Z</time>
      </trkpt>
      <trkpt lat="47.26763" lon="-2.33146">
        <ele>-4.4000000953674</ele>
        <time>2021-04-11T07:22:37.000Z</time>
      </trkpt>
      <trkpt lat="47.26756" lon="-2.33172">
        <ele>-4.4000000953674</ele>
        <time>2021-04-11T07:22:41.000Z</time>
      </trkpt>
      <trkpt lat="47.26754" lon="-2.33178">
        <ele>-4.4000000953674</ele>
        <time>2021-04-11T07:22:42.000Z</time>
      </trkpt>
      <trkpt lat="47.2675" lon="-2.33191">
        <ele>-4.4000000953674</ele>
        <time>2021-04-11T07:22:44.000Z</time>
      </trkpt>
      <trkpt lat="47.26747" lon="-2.33203">
        <ele>-4.4000000953674</ele>
        <time>2021-04-11T07:22:46.000Z</time>
      </trkpt>
      <trkpt lat="47.26743" lon="-2.33215">
        <ele>-4.4000000953674</ele>
        <time>2021-04-11T07:22:48.000Z</time>
      </trkpt>
      <trkpt lat="47.26731" lon="-2.33253">
        <ele>-4.4000000953674</ele>
        <time>2021-04-11T07:22:54.000Z</time>
      </trkpt>
      <trkpt lat="47.2673" lon="-2.33259">
        <ele>-4.4000000953674</ele>
        <time>2021-04-11T07:22:55.000Z</time>
      </trkpt>
      <trkpt lat="47.26732" lon="-2.33286">
        <ele>-4.4000000953674</ele>
        <time>2021-04-11T07:22:59.000Z</time>
      </trkpt>
      <trkpt lat="47.26733" lon="-2.33293">
        <ele>-4.4000000953674</ele>
        <time>2021-04-11T07:23:00.000Z</time>
      </trkpt>
      <trkpt lat="47.26741" lon="-2.3332">
        <ele>-4.4000000953674</ele>
        <time>2021-04-11T07:23:04.000Z</time>
      </trkpt>
      <trkpt lat="47.26745" lon="-2.33334">
        <ele>-4.4000000953674</ele>
        <time>2021-04-11T07:23:06.000Z</time>
      </trkpt>
      <trkpt lat="47.26749" lon="-2.33354">
        <ele>-4.4000000953674</ele>
        <time>2021-04-11T07:23:09.000Z</time>
      </trkpt>
      <trkpt lat="47.26755" lon="-2.3341">
        <ele>-4.4000000953674</ele>
        <time>2021-04-11T07:23:17.000Z</time>
      </trkpt>
      <trkpt lat="47.26761" lon="-2.33452">
        <ele>-4.4000000953674</ele>
        <time>2021-04-11T07:23:23.000Z</time>
      </trkpt>
      <trkpt lat="47.26769" lon="-2.33494">
        <ele>-4.4000000953674</ele>
        <time>2021-04-11T07:23:29.000Z</time>
      </trkpt>
      <trkpt lat="47.26777" lon="-2.33543">
        <ele>-4.4000000953674</ele>
        <time>2021-04-11T07:23:36.000Z</time>
      </trkpt>
      <trkpt lat="47.26781" lon="-2.33591">
        <ele>-4.4000000953674</ele>
        <time>2021-04-11T07:23:43.000Z</time>
      </trkpt>
      <trkpt lat="47.2678" lon="-2.33632">
        <ele>-4</ele>
        <time>2021-04-11T07:23:49.000Z</time>
      </trkpt>
      <trkpt lat="47.2678" lon="-2.33639">
        <ele>-3.4000000953674</ele>
        <time>2021-04-11T07:23:50.000Z</time>
      </trkpt>
      <trkpt lat="47.2678" lon="-2.33645">
        <ele>-3</ele>
        <time>2021-04-11T07:23:51.000Z</time>
      </trkpt>
      <trkpt lat="47.2678" lon="-2.33652">
        <ele>-2.2000000476837</ele>
        <time>2021-04-11T07:23:52.000Z</time>
      </trkpt>
      <trkpt lat="47.2678" lon="-2.33658">
        <ele>-2.2000000476837</ele>
        <time>2021-04-11T07:23:53.000Z</time>
      </trkpt>
      <trkpt lat="47.26781" lon="-2.33693">
        <ele>-2.2000000476837</ele>
        <time>2021-04-11T07:23:59.000Z</time>
      </trkpt>
      <trkpt lat="47.26787" lon="-2.33708">
        <ele>-2.2000000476837</ele>
        <time>2021-04-11T07:24:02.000Z</time>
      </trkpt>
      <trkpt lat="47.2679" lon="-2.33713">
        <ele>-2.2000000476837</ele>
        <time>2021-04-11T07:24:03.000Z</time>
      </trkpt>
      <trkpt lat="47.26793" lon="-2.33717">
        <ele>-1.7999999523163</ele>
        <time>2021-04-11T07:24:04.000Z</time>
      </trkpt>
      <trkpt lat="47.26796" lon="-2.33721">
        <ele>-1.3999999761581</ele>
        <time>2021-04-11T07:24:05.000Z</time>
      </trkpt>
      <trkpt lat="47.26799" lon="-2.33725">
        <ele>-1</ele>
        <time>2021-04-11T07:24:06.000Z</time>
      </trkpt>
      <trkpt lat="47.26803" lon="-2.33728">
        <ele>-0.40000000596046</ele>
        <time>2021-04-11T07:24:07.000Z</time>
      </trkpt>
      <trkpt lat="47.26806" lon="-2.33732">
        <ele>7.4</ele>
        <time>2021-04-11T07:24:08.000Z</time>
      </trkpt>
      <trkpt lat="47.26821" lon="-2.33748">
        <ele>7.4</ele>
        <time>2021-04-11T07:24:12.000Z</time>
      </trkpt>
      <trkpt lat="47.26842" lon="-2.33772">
        <ele>7</ele>
        <time>2021-04-11T07:24:18.000Z</time>
      </trkpt>
      <trkpt lat="47.26846" lon="-2.33775">
        <ele>7</ele>
        <time>2021-04-11T07:24:19.000Z</time>
      </trkpt>
      <trkpt lat="47.26854" lon="-2.33779">
        <ele>7</ele>
        <time>2021-04-11T07:24:21.000Z</time>
      </trkpt>
      <trkpt lat="47.26876" lon="-2.33787">
        <ele>7.4</ele>
        <time>2021-04-11T07:24:26.000Z</time>
      </trkpt>
      <trkpt lat="47.26895" lon="-2.338">
        <ele>7.6</ele>
        <time>2021-04-11T07:24:31.000Z</time>
      </trkpt>
      <trkpt lat="47.26897" lon="-2.33805">
        <ele>7.6</ele>
        <time>2021-04-11T07:24:32.000Z</time>
      </trkpt>
      <trkpt lat="47.26907" lon="-2.33848">
        <ele>8.4</ele>
        <time>2021-04-11T07:24:39.000Z</time>
      </trkpt>
      <trkpt lat="47.26913" lon="-2.33874">
        <ele>8.5</ele>
        <time>2021-04-11T07:24:43.000Z</time>
      </trkpt>
      <trkpt lat="47.26919" lon="-2.33898">
        <ele>8.1</ele>
        <time>2021-04-11T07:24:47.000Z</time>
      </trkpt>
      <trkpt lat="47.26925" lon="-2.33923">
        <ele>0.40000000596046</ele>
        <time>2021-04-11T07:24:51.000Z</time>
      </trkpt>
      <trkpt lat="47.26926" lon="-2.33929">
        <ele>0.80000001192093</ele>
        <time>2021-04-11T07:24:52.000Z</time>
      </trkpt>
      <trkpt lat="47.26928" lon="-2.33935">
        <ele>1.2000000476837</ele>
        <time>2021-04-11T07:24:53.000Z</time>
      </trkpt>
      <trkpt lat="47.26929" lon="-2.3394">
        <ele>1.6000000238419</ele>
        <time>2021-04-11T07:24:54.000Z</time>
      </trkpt>
      <trkpt lat="47.26931" lon="-2.33946">
        <ele>2</ele>
        <time>2021-04-11T07:24:55.000Z</time>
      </trkpt>
      <trkpt lat="47.26932" lon="-2.33953">
        <ele>2</ele>
        <time>2021-04-11T07:24:56.000Z</time>
      </trkpt>
      <trkpt lat="47.26944" lon="-2.34002">
        <ele>2</ele>
        <time>2021-04-11T07:25:04.000Z</time>
      </trkpt>
      <trkpt lat="47.26953" lon="-2.34044">
        <ele>2</ele>
        <time>2021-04-11T07:25:11.000Z</time>
      </trkpt>
      <trkpt lat="47.26967" lon="-2.34101">
        <ele>2</ele>
        <time>2021-04-11T07:25:20.000Z</time>
      </trkpt>
      <trkpt lat="47.26974" lon="-2.34132">
        <ele>2</ele>
        <time>2021-04-11T07:25:25.000Z</time>
      </trkpt>
      <trkpt lat="47.26978" lon="-2.34151">
        <ele>2</ele>
        <time>2021-04-11T07:25:28.000Z</time>
      </trkpt>
      <trkpt lat="47.26991" lon="-2.34207">
        <ele>2</ele>
        <time>2021-04-11T07:25:37.000Z</time>
      </trkpt>
      <trkpt lat="47.26997" lon="-2.34232">
        <ele>2</ele>
        <time>2021-04-11T07:25:41.000Z</time>
      </trkpt>
      <trkpt lat="47.27001" lon="-2.34251">
        <ele>2</ele>
        <time>2021-04-11T07:25:44.000Z</time>
      </trkpt>
      <trkpt lat="47.27009" lon="-2.34293">
        <ele>2</ele>
        <time>2021-04-11T07:25:51.000Z</time>
      </trkpt>
      <trkpt lat="47.27009" lon="-2.34314">
        <ele>2</ele>
        <time>2021-04-11T07:25:55.000Z</time>
      </trkpt>
      <trkpt lat="47.27011" lon="-2.34318">
        <ele>2</ele>
        <time>2021-04-11T07:25:56.000Z</time>
      </trkpt>
      <trkpt lat="47.27017" lon="-2.34321">
        <ele>2</ele>
        <time>2021-04-11T07:25:58.000Z</time>
      </trkpt>
      <trkpt lat="47.27028" lon="-2.34321">
        <ele>2.4000000953674</ele>
        <time>2021-04-11T07:26:01.000Z</time>
      </trkpt>
      <trkpt lat="47.27032" lon="-2.34321">
        <ele>2.7999999523163</ele>
        <time>2021-04-11T07:26:02.000Z</time>
      </trkpt>
      <trkpt lat="47.27036" lon="-2.34321">
        <ele>3.2000000476837</ele>
        <time>2021-04-11T07:26:03.000Z</time>
      </trkpt>
      <trkpt lat="47.2704" lon="-2.3432">
        <ele>3.5999999046326</ele>
        <time>2021-04-11T07:26:04.000Z</time>
      </trkpt>
      <trkpt lat="47.27045" lon="-2.3432">
        <ele>4</ele>
        <time>2021-04-11T07:26:05.000Z</time>
      </trkpt>
      <trkpt lat="47.2707" lon="-2.3432">
        <ele>4</ele>
        <time>2021-04-11T07:26:11.000Z</time>
      </trkpt>
      <trkpt lat="47.27108" lon="-2.3432">
        <ele>4</ele>
        <time>2021-04-11T07:26:20.000Z</time>
      </trkpt>
      <trkpt lat="47.27112" lon="-2.3432">
        <ele>4.4000000953674</ele>
        <time>2021-04-11T07:26:21.000Z</time>
      </trkpt>
      <trkpt lat="47.27116" lon="-2.3432">
        <ele>5</ele>
        <time>2021-04-11T07:26:22.000Z</time>
      </trkpt>
      <trkpt lat="47.2712" lon="-2.3432">
        <ele>5.4000000953674</ele>
        <time>2021-04-11T07:26:23.000Z</time>
      </trkpt>
      <trkpt lat="47.27124" lon="-2.34321">
        <ele>5.8000001907349</ele>
        <time>2021-04-11T07:26:24.000Z</time>
      </trkpt>
      <trkpt lat="47.27128" lon="-2.34321">
        <ele>6.1999998092651</ele>
        <time>2021-04-11T07:26:25.000Z</time>
      </trkpt>
      <trkpt lat="47.27131" lon="-2.34322">
        <ele>6.1999998092651</ele>
        <time>2021-04-11T07:26:26.000Z</time>
      </trkpt>
      <trkpt lat="47.27162" lon="-2.34322">
        <ele>6.1999998092651</ele>
        <time>2021-04-11T07:26:34.000Z</time>
      </trkpt>
      <trkpt lat="47.27175" lon="-2.34323">
        <ele>6.5999999046326</ele>
        <time>2021-04-11T07:26:37.000Z</time>
      </trkpt>
      <trkpt lat="47.27179" lon="-2.34323">
        <ele>7</ele>
        <time>2021-04-11T07:26:38.000Z</time>
      </trkpt>
      <trkpt lat="47.27183" lon="-2.34323">
        <ele>7.4000000953674</ele>
        <time>2021-04-11T07:26:39.000Z</time>
      </trkpt>
      <trkpt lat="47.27187" lon="-2.34323">
        <ele>7.8000001907349</ele>
        <time>2021-04-11T07:26:40.000Z</time>
      </trkpt>
      <trkpt lat="47.27191" lon="-2.34323">
        <ele>8.1999998092651</ele>
        <time>2021-04-11T07:26:41.000Z</time>
      </trkpt>
      <trkpt lat="47.27194" lon="-2.34324">
        <ele>8.1999998092651</ele>
        <time>2021-04-11T07:26:42.000Z</time>
      </trkpt>
      <trkpt lat="47.27223" lon="-2.34324">
        <ele>8.1999998092651</ele>
        <time>2021-04-11T07:26:49.000Z</time>
      </trkpt>
      <trkpt lat="47.27235" lon="-2.34323">
        <ele>8.6000003814697</ele>
        <time>2021-04-11T07:26:52.000Z</time>
      </trkpt>
      <trkpt lat="47.27239" lon="-2.34323">
        <ele>9</ele>
        <time>2021-04-11T07:26:53.000Z</time>
      </trkpt>
      <trkpt lat="47.27243" lon="-2.34323">
        <ele>9.3999996185303</ele>
        <time>2021-04-11T07:26:54.000Z</time>
      </trkpt>
      <trkpt lat="47.27247" lon="-2.34323">
        <ele>9.8000001907349</ele>
        <time>2021-04-11T07:26:55.000Z</time>
      </trkpt>
      <trkpt lat="47.27252" lon="-2.34324">
        <ele>10.39999961853</ele>
        <time>2021-04-11T07:26:56.000Z</time>
      </trkpt>
      <trkpt lat="47.27256" lon="-2.34324">
        <ele>10.39999961853</ele>
        <time>2021-04-11T07:26:57.000Z</time>
      </trkpt>
      <trkpt lat="47.27276" lon="-2.34322">
        <ele>10.39999961853</ele>
        <time>2021-04-11T07:27:02.000Z</time>
      </trkpt>
      <trkpt lat="47.27289" lon="-2.34317">
        <ele>10.39999961853</ele>
        <time>2021-04-11T07:27:05.000Z</time>
      </trkpt>
      <trkpt lat="47.27304" lon="-2.34311">
        <ele>10.800000190735</ele>
        <time>2021-04-11T07:27:09.000Z</time>
      </trkpt>
      <trkpt lat="47.27308" lon="-2.34309">
        <ele>11.60000038147</ele>
        <time>2021-04-11T07:27:10.000Z</time>
      </trkpt>
      <trkpt lat="47.27312" lon="-2.34306">
        <ele>12</ele>
        <time>2021-04-11T07:27:11.000Z</time>
      </trkpt>
      <trkpt lat="47.27316" lon="-2.34304">
        <ele>12.39999961853</ele>
        <time>2021-04-11T07:27:12.000Z</time>
      </trkpt>
      <trkpt lat="47.27341" lon="-2.34287">
        <ele>12.39999961853</ele>
        <time>2021-04-11T07:27:19.000Z</time>
      </trkpt>
      <trkpt lat="47.27348" lon="-2.34281">
        <ele>12.800000190735</ele>
        <time>2021-04-11T07:27:21.000Z</time>
      </trkpt>
      <trkpt lat="47.27351" lon="-2.34278">
        <ele>13.199999809265</ele>
        <time>2021-04-11T07:27:22.000Z</time>
      </trkpt>
      <trkpt lat="47.27355" lon="-2.34276">
        <ele>13.60000038147</ele>
        <time>2021-04-11T07:27:23.000Z</time>
      </trkpt>
      <trkpt lat="47.27358" lon="-2.34273">
        <ele>14.199999809265</ele>
        <time>2021-04-11T07:27:24.000Z</time>
      </trkpt>
      <trkpt lat="47.27362" lon="-2.34271">
        <ele>14.60000038147</ele>
        <time>2021-04-11T07:27:25.000Z</time>
      </trkpt>
      <trkpt lat="47.27388" lon="-2.34253">
        <ele>14.60000038147</ele>
        <time>2021-04-11T07:27:33.000Z</time>
      </trkpt>
      <trkpt lat="47.27412" lon="-2.34242">
        <ele>14.60000038147</ele>
        <time>2021-04-11T07:27:40.000Z</time>
      </trkpt>
      <trkpt lat="47.2742" lon="-2.34251">
        <ele>14.60000038147</ele>
        <time>2021-04-11T07:27:43.000Z</time>
      </trkpt>
      <trkpt lat="47.27421" lon="-2.34261">
        <ele>15</ele>
        <time>2021-04-11T07:27:45.000Z</time>
      </trkpt>
      <trkpt lat="47.27421" lon="-2.34267">
        <ele>15.39999961853</ele>
        <time>2021-04-11T07:27:46.000Z</time>
      </trkpt>
      <trkpt lat="47.27421" lon="-2.34273">
        <ele>15.800000190735</ele>
        <time>2021-04-11T07:27:47.000Z</time>
      </trkpt>
      <trkpt lat="47.27421" lon="-2.34279">
        <ele>16.200000762939</ele>
        <time>2021-04-11T07:27:48.000Z</time>
      </trkpt>
      <trkpt lat="47.27421" lon="-2.34285">
        <ele>16.60000038147</ele>
        <time>2021-04-11T07:27:49.000Z</time>
      </trkpt>
      <trkpt lat="47.2742" lon="-2.34317">
        <ele>16.60000038147</ele>
        <time>2021-04-11T07:27:54.000Z</time>
      </trkpt>
      <trkpt lat="47.2742" lon="-2.34324">
        <ele>16.60000038147</ele>
        <time>2021-04-11T07:27:55.000Z</time>
      </trkpt>
      <trkpt lat="47.2742" lon="-2.34356">
        <ele>16.60000038147</ele>
        <time>2021-04-11T07:28:00.000Z</time>
      </trkpt>
      <trkpt lat="47.27423" lon="-2.34394">
        <ele>17</ele>
        <time>2021-04-11T07:28:06.000Z</time>
      </trkpt>
      <trkpt lat="47.27424" lon="-2.344">
        <ele>17.39999961853</ele>
        <time>2021-04-11T07:28:07.000Z</time>
      </trkpt>
      <trkpt lat="47.27424" lon="-2.34406">
        <ele>17.799999237061</ele>
        <time>2021-04-11T07:28:08.000Z</time>
      </trkpt>
      <trkpt lat="47.27425" lon="-2.34412">
        <ele>18.200000762939</ele>
        <time>2021-04-11T07:28:09.000Z</time>
      </trkpt>
      <trkpt lat="47.27425" lon="-2.34418">
        <ele>18.60000038147</ele>
        <time>2021-04-11T07:28:10.000Z</time>
      </trkpt>
      <trkpt lat="47.27427" lon="-2.34461">
        <ele>18.60000038147</ele>
        <time>2021-04-11T07:28:17.000Z</time>
      </trkpt>
      <trkpt lat="47.27432" lon="-2.34504">
        <ele>18.60000038147</ele>
        <time>2021-04-11T07:28:24.000Z</time>
      </trkpt>
      <trkpt lat="47.27434" lon="-2.34509">
        <ele>18.60000038147</ele>
        <time>2021-04-11T07:28:25.000Z</time>
      </trkpt>
      <trkpt lat="47.27441" lon="-2.34537">
        <ele>18.60000038147</ele>
        <time>2021-04-11T07:28:30.000Z</time>
      </trkpt>
      <trkpt lat="47.27445" lon="-2.34548">
        <ele>19</ele>
        <time>2021-04-11T07:28:32.000Z</time>
      </trkpt>
      <trkpt lat="47.27446" lon="-2.34554">
        <ele>19.39999961853</ele>
        <time>2021-04-11T07:28:33.000Z</time>
      </trkpt>
      <trkpt lat="47.27447" lon="-2.3456">
        <ele>19.799999237061</ele>
        <time>2021-04-11T07:28:34.000Z</time>
      </trkpt>
      <trkpt lat="47.27449" lon="-2.34566">
        <ele>20.200000762939</ele>
        <time>2021-04-11T07:28:35.000Z</time>
      </trkpt>
      <trkpt lat="47.2745" lon="-2.34573">
        <ele>20.60000038147</ele>
        <time>2021-04-11T07:28:36.000Z</time>
      </trkpt>
      <trkpt lat="47.27453" lon="-2.34592">
        <ele>20.60000038147</ele>
        <time>2021-04-11T07:28:39.000Z</time>
      </trkpt>
      <trkpt lat="47.27459" lon="-2.34651">
        <ele>20.60000038147</ele>
        <time>2021-04-11T07:28:47.000Z</time>
      </trkpt>
      <trkpt lat="47.2746" lon="-2.34666">
        <ele>20.60000038147</ele>
        <time>2021-04-11T07:28:49.000Z</time>
      </trkpt>
      <trkpt lat="47.27461" lon="-2.34687">
        <ele>20.60000038147</ele>
        <time>2021-04-11T07:28:52.000Z</time>
      </trkpt>
      <trkpt lat="47.27469" lon="-2.34694">
        <ele>20.60000038147</ele>
        <time>2021-04-11T07:28:55.000Z</time>
      </trkpt>
      <trkpt lat="47.27483" lon="-2.34683">
        <ele>20.60000038147</ele>
        <time>2021-04-11T07:28:59.000Z</time>
      </trkpt>
      <trkpt lat="47.27492" lon="-2.3468">
        <ele>20.60000038147</ele>
        <time>2021-04-11T07:29:01.000Z</time>
      </trkpt>
      <trkpt lat="47.27506" lon="-2.34679">
        <ele>20.60000038147</ele>
        <time>2021-04-11T07:29:04.000Z</time>
      </trkpt>
      <trkpt lat="47.27539" lon="-2.34678">
        <ele>20.60000038147</ele>
        <time>2021-04-11T07:29:11.000Z</time>
      </trkpt>
      <trkpt lat="47.2755" lon="-2.34675">
        <ele>20.60000038147</ele>
        <time>2021-04-11T07:29:13.000Z</time>
      </trkpt>
      <trkpt lat="47.27569" lon="-2.34667">
        <ele>20.60000038147</ele>
        <time>2021-04-11T07:29:17.000Z</time>
      </trkpt>
      <trkpt lat="47.27574" lon="-2.34664">
        <ele>20.60000038147</ele>
        <time>2021-04-11T07:29:18.000Z</time>
      </trkpt>
      <trkpt lat="47.2759" lon="-2.34647">
        <ele>20.60000038147</ele>
        <time>2021-04-11T07:29:22.000Z</time>
      </trkpt>
      <trkpt lat="47.27598" lon="-2.34639">
        <ele>20.60000038147</ele>
        <time>2021-04-11T07:29:24.000Z</time>
      </trkpt>
      <trkpt lat="47.27611" lon="-2.34626">
        <ele>20.60000038147</ele>
        <time>2021-04-11T07:29:27.000Z</time>
      </trkpt>
      <trkpt lat="47.27615" lon="-2.34622">
        <ele>20.60000038147</ele>
        <time>2021-04-11T07:29:28.000Z</time>
      </trkpt>
      <trkpt lat="47.27624" lon="-2.34613">
        <ele>20.60000038147</ele>
        <time>2021-04-11T07:29:30.000Z</time>
      </trkpt>
      <trkpt lat="47.27636" lon="-2.34601">
        <ele>20.60000038147</ele>
        <time>2021-04-11T07:29:33.000Z</time>
      </trkpt>
      <trkpt lat="47.2764" lon="-2.34597">
        <ele>20.200000762939</ele>
        <time>2021-04-11T07:29:34.000Z</time>
      </trkpt>
      <trkpt lat="47.27645" lon="-2.34593">
        <ele>19.799999237061</ele>
        <time>2021-04-11T07:29:35.000Z</time>
      </trkpt>
      <trkpt lat="47.27649" lon="-2.34589">
        <ele>19.39999961853</ele>
        <time>2021-04-11T07:29:36.000Z</time>
      </trkpt>
      <trkpt lat="47.27653" lon="-2.34584">
        <ele>19</ele>
        <time>2021-04-11T07:29:37.000Z</time>
      </trkpt>
      <trkpt lat="47.27656" lon="-2.34579">
        <ele>18.60000038147</ele>
        <time>2021-04-11T07:29:38.000Z</time>
      </trkpt>
      <trkpt lat="47.27664" lon="-2.3457">
        <ele>18.60000038147</ele>
        <time>2021-04-11T07:29:40.000Z</time>
      </trkpt>
      <trkpt lat="47.27674" lon="-2.34561">
        <ele>18.60000038147</ele>
        <time>2021-04-11T07:29:43.000Z</time>
      </trkpt>
      <trkpt lat="47.27677" lon="-2.34563">
        <ele>18.60000038147</ele>
        <time>2021-04-11T07:29:44.000Z</time>
      </trkpt>
      <trkpt lat="47.27683" lon="-2.34579">
        <ele>18.60000038147</ele>
        <time>2021-04-11T07:29:48.000Z</time>
      </trkpt>
      <trkpt lat="47.27685" lon="-2.34584">
        <ele>18.60000038147</ele>
        <time>2021-04-11T07:29:49.000Z</time>
      </trkpt>
      <trkpt lat="47.27689" lon="-2.34597">
        <ele>18.60000038147</ele>
        <time>2021-04-11T07:29:51.000Z</time>
      </trkpt>
      <trkpt lat="47.2769" lon="-2.34604">
        <ele>18.60000038147</ele>
        <time>2021-04-11T07:29:52.000Z</time>
      </trkpt>
      <trkpt lat="47.27692" lon="-2.34619">
        <ele>18.60000038147</ele>
        <time>2021-04-11T07:29:54.000Z</time>
      </trkpt>
      <trkpt lat="47.27693" lon="-2.34648">
        <ele>18.60000038147</ele>
        <time>2021-04-11T07:29:58.000Z</time>
      </trkpt>
      <trkpt lat="47.277" lon="-2.34683">
        <ele>18.60000038147</ele>
        <time>2021-04-11T07:30:03.000Z</time>
      </trkpt>
      <trkpt lat="47.27715" lon="-2.34733">
        <ele>18.60000038147</ele>
        <time>2021-04-11T07:30:10.000Z</time>
      </trkpt>
      <trkpt lat="47.27718" lon="-2.3474">
        <ele>18.60000038147</ele>
        <time>2021-04-11T07:30:11.000Z</time>
      </trkpt>
      <trkpt lat="47.27732" lon="-2.34768">
        <ele>18.60000038147</ele>
        <time>2021-04-11T07:30:15.000Z</time>
      </trkpt>
      <trkpt lat="47.27749" lon="-2.34801">
        <ele>18.60000038147</ele>
        <time>2021-04-11T07:30:20.000Z</time>
      </trkpt>
      <trkpt lat="47.27757" lon="-2.34814">
        <ele>18.60000038147</ele>
        <time>2021-04-11T07:30:22.000Z</time>
      </trkpt>
      <trkpt lat="47.27777" lon="-2.34853">
        <ele>18.60000038147</ele>
        <time>2021-04-11T07:30:28.000Z</time>
      </trkpt>
      <trkpt lat="47.27787" lon="-2.34869">
        <ele>18.200000762939</ele>
        <time>2021-04-11T07:30:31.000Z</time>
      </trkpt>
      <trkpt lat="47.27789" lon="-2.34875">
        <ele>17.60000038147</ele>
        <time>2021-04-11T07:30:32.000Z</time>
      </trkpt>
      <trkpt lat="47.27789" lon="-2.34881">
        <ele>17.200000762939</ele>
        <time>2021-04-11T07:30:33.000Z</time>
      </trkpt>
      <trkpt lat="47.2779" lon="-2.34887">
        <ele>16.60000038147</ele>
        <time>2021-04-11T07:30:34.000Z</time>
      </trkpt>
      <trkpt lat="47.2779" lon="-2.34895">
        <ele>16.200000762939</ele>
        <time>2021-04-11T07:30:35.000Z</time>
      </trkpt>
      <trkpt lat="47.27789" lon="-2.34902">
        <ele>16.200000762939</ele>
        <time>2021-04-11T07:30:36.000Z</time>
      </trkpt>
      <trkpt lat="47.27787" lon="-2.34919">
        <ele>16.200000762939</ele>
        <time>2021-04-11T07:30:38.000Z</time>
      </trkpt>
      <trkpt lat="47.27782" lon="-2.34943">
        <ele>16.200000762939</ele>
        <time>2021-04-11T07:30:41.000Z</time>
      </trkpt>
      <trkpt lat="47.27769" lon="-2.35012">
        <ele>15.800000190735</ele>
        <time>2021-04-11T07:30:49.000Z</time>
      </trkpt>
      <trkpt lat="47.27768" lon="-2.35022">
        <ele>15.39999961853</ele>
        <time>2021-04-11T07:30:50.000Z</time>
      </trkpt>
      <trkpt lat="47.27767" lon="-2.35031">
        <ele>15</ele>
        <time>2021-04-11T07:30:51.000Z</time>
      </trkpt>
      <trkpt lat="47.27766" lon="-2.35042">
        <ele>14</ele>
        <time>2021-04-11T07:30:52.000Z</time>
      </trkpt>
      <trkpt lat="47.27767" lon="-2.35072">
        <ele>14</ele>
        <time>2021-04-11T07:30:55.000Z</time>
      </trkpt>
      <trkpt lat="47.27773" lon="-2.35151">
        <ele>13.60000038147</ele>
        <time>2021-04-11T07:31:03.000Z</time>
      </trkpt>
      <trkpt lat="47.27773" lon="-2.35161">
        <ele>13.199999809265</ele>
        <time>2021-04-11T07:31:04.000Z</time>
      </trkpt>
      <trkpt lat="47.27773" lon="-2.35171">
        <ele>12.800000190735</ele>
        <time>2021-04-11T07:31:05.000Z</time>
      </trkpt>
      <trkpt lat="47.27774" lon="-2.3518">
        <ele>12.39999961853</ele>
        <time>2021-04-11T07:31:06.000Z</time>
      </trkpt>
      <trkpt lat="47.27775" lon="-2.35189">
        <ele>12</ele>
        <time>2021-04-11T07:31:07.000Z</time>
      </trkpt>
      <trkpt lat="47.27777" lon="-2.35208">
        <ele>12</ele>
        <time>2021-04-11T07:31:09.000Z</time>
      </trkpt>
      <trkpt lat="47.27778" lon="-2.35217">
        <ele>12</ele>
        <time>2021-04-11T07:31:10.000Z</time>
      </trkpt>
      <trkpt lat="47.27788" lon="-2.35279">
        <ele>12</ele>
        <time>2021-04-11T07:31:17.000Z</time>
      </trkpt>
      <trkpt lat="47.27804" lon="-2.35346">
        <ele>12</ele>
        <time>2021-04-11T07:31:25.000Z</time>
      </trkpt>
      <trkpt lat="47.27816" lon="-2.35363">
        <ele>12</ele>
        <time>2021-04-11T07:31:28.000Z</time>
      </trkpt>
      <trkpt lat="47.27832" lon="-2.35363">
        <ele>12</ele>
        <time>2021-04-11T07:31:31.000Z</time>
      </trkpt>
      <trkpt lat="47.27842" lon="-2.35361">
        <ele>12</ele>
        <time>2021-04-11T07:31:33.000Z</time>
      </trkpt>
      <trkpt lat="47.27863" lon="-2.3536">
        <ele>12</ele>
        <time>2021-04-11T07:31:37.000Z</time>
      </trkpt>
      <trkpt lat="47.2788" lon="-2.35363">
        <ele>12</ele>
        <time>2021-04-11T07:31:41.000Z</time>
      </trkpt>
      <trkpt lat="47.27883" lon="-2.35366">
        <ele>12</ele>
        <time>2021-04-11T07:31:42.000Z</time>
      </trkpt>
      <trkpt lat="47.279" lon="-2.35391">
        <ele>12</ele>
        <time>2021-04-11T07:31:47.000Z</time>
      </trkpt>
      <trkpt lat="47.27933" lon="-2.35437">
        <ele>12</ele>
        <time>2021-04-11T07:31:56.000Z</time>
      </trkpt>
      <trkpt lat="47.27956" lon="-2.35458">
        <ele>12</ele>
        <time>2021-04-11T07:32:01.000Z</time>
      </trkpt>
      <trkpt lat="47.27961" lon="-2.35461">
        <ele>12</ele>
        <time>2021-04-11T07:32:02.000Z</time>
      </trkpt>
      <trkpt lat="47.27971" lon="-2.35464">
        <ele>12</ele>
        <time>2021-04-11T07:32:04.000Z</time>
      </trkpt>
      <trkpt lat="47.27982" lon="-2.35476">
        <ele>12</ele>
        <time>2021-04-11T07:32:07.000Z</time>
      </trkpt>
      <trkpt lat="47.27985" lon="-2.35483">
        <ele>12</ele>
        <time>2021-04-11T07:32:08.000Z</time>
      </trkpt>
      <trkpt lat="47.27988" lon="-2.3549">
        <ele>12</ele>
        <time>2021-04-11T07:32:09.000Z</time>
      </trkpt>
      <trkpt lat="47.27996" lon="-2.35507">
        <ele>12</ele>
        <time>2021-04-11T07:32:12.000Z</time>
      </trkpt>
      <trkpt lat="47.28007" lon="-2.35539">
        <ele>12</ele>
        <time>2021-04-11T07:32:18.000Z</time>
      </trkpt>
      <trkpt lat="47.28015" lon="-2.35554">
        <ele>12</ele>
        <time>2021-04-11T07:32:22.000Z</time>
      </trkpt>
      <trkpt lat="47.28018" lon="-2.35556">
        <ele>12</ele>
        <time>2021-04-11T07:32:23.000Z</time>
      </trkpt>
      <trkpt lat="47.28025" lon="-2.3556">
        <ele>12.39999961853</ele>
        <time>2021-04-11T07:32:25.000Z</time>
      </trkpt>
      <trkpt lat="47.28029" lon="-2.35563">
        <ele>12.800000190735</ele>
        <time>2021-04-11T07:32:26.000Z</time>
      </trkpt>
      <trkpt lat="47.28032" lon="-2.35567">
        <ele>13.199999809265</ele>
        <time>2021-04-11T07:32:27.000Z</time>
      </trkpt>
      <trkpt lat="47.28035" lon="-2.35571">
        <ele>13.60000038147</ele>
        <time>2021-04-11T07:32:28.000Z</time>
      </trkpt>
      <trkpt lat="47.28038" lon="-2.35574">
        <ele>14</ele>
        <time>2021-04-11T07:32:29.000Z</time>
      </trkpt>
      <trkpt lat="47.28048" lon="-2.35579">
        <ele>14</ele>
        <time>2021-04-11T07:32:32.000Z</time>
      </trkpt>
      <trkpt lat="47.28069" lon="-2.35589">
        <ele>14.39999961853</ele>
        <time>2021-04-11T07:32:39.000Z</time>
      </trkpt>
      <trkpt lat="47.28072" lon="-2.35591">
        <ele>14.800000190735</ele>
        <time>2021-04-11T07:32:40.000Z</time>
      </trkpt>
      <trkpt lat="47.28074" lon="-2.35595">
        <ele>15.199999809265</ele>
        <time>2021-04-11T07:32:41.000Z</time>
      </trkpt>
      <trkpt lat="47.28076" lon="-2.35598">
        <ele>15.60000038147</ele>
        <time>2021-04-11T07:32:42.000Z</time>
      </trkpt>
      <trkpt lat="47.28078" lon="-2.35602">
        <ele>16</ele>
        <time>2021-04-11T07:32:43.000Z</time>
      </trkpt>
      <trkpt lat="47.2808" lon="-2.35605">
        <ele>16</ele>
        <time>2021-04-11T07:32:44.000Z</time>
      </trkpt>
      <trkpt lat="47.28086" lon="-2.35613">
        <ele>16</ele>
        <time>2021-04-11T07:32:48.000Z</time>
      </trkpt>
      <trkpt lat="47.28086" lon="-2.35613">
        <ele>16</ele>
        <time>2021-04-11T07:32:50.000Z</time>
      </trkpt>
      <trkpt lat="47.28074" lon="-2.35604">
        <ele>16</ele>
        <time>2021-04-11T07:37:48.000Z</time>
      </trkpt>
      <trkpt lat="47.28073" lon="-2.35606">
        <ele>16</ele>
        <time>2021-04-11T07:37:49.000Z</time>
      </trkpt>
      <trkpt lat="47.28074" lon="-2.35615">
        <ele>16</ele>
        <time>2021-04-11T07:37:53.000Z</time>
      </trkpt>
      <trkpt lat="47.28075" lon="-2.35618">
        <ele>16</ele>
        <time>2021-04-11T07:37:54.000Z</time>
      </trkpt>
      <trkpt lat="47.28078" lon="-2.35629">
        <ele>16.60000038147</ele>
        <time>2021-04-11T07:37:58.000Z</time>
      </trkpt>
      <trkpt lat="47.28079" lon="-2.35632">
        <ele>17</ele>
        <time>2021-04-11T07:37:59.000Z</time>
      </trkpt>
      <trkpt lat="47.28079" lon="-2.35635">
        <ele>17.39999961853</ele>
        <time>2021-04-11T07:38:00.000Z</time>
      </trkpt>
      <trkpt lat="47.2808" lon="-2.35638">
        <ele>17.799999237061</ele>
        <time>2021-04-11T07:38:01.000Z</time>
      </trkpt>
      <trkpt lat="47.2808" lon="-2.3564">
        <ele>18.200000762939</ele>
        <time>2021-04-11T07:38:02.000Z</time>
      </trkpt>
      <trkpt lat="47.28081" lon="-2.35647">
        <ele>18.60000038147</ele>
        <time>2021-04-11T07:38:05.000Z</time>
      </trkpt>
      <trkpt lat="47.28082" lon="-2.35649">
        <ele>19</ele>
        <time>2021-04-11T07:38:06.000Z</time>
      </trkpt>
      <trkpt lat="47.28083" lon="-2.35651">
        <ele>19.60000038147</ele>
        <time>2021-04-11T07:38:07.000Z</time>
      </trkpt>
      <trkpt lat="47.28084" lon="-2.35655">
        <ele>20</ele>
        <time>2021-04-11T07:38:08.000Z</time>
      </trkpt>
      <trkpt lat="47.28085" lon="-2.35658">
        <ele>20.39999961853</ele>
        <time>2021-04-11T07:38:09.000Z</time>
      </trkpt>
      <trkpt lat="47.28087" lon="-2.35665">
        <ele>20.39999961853</ele>
        <time>2021-04-11T07:38:11.000Z</time>
      </trkpt>
      <trkpt lat="47.28089" lon="-2.35672">
        <ele>20.799999237061</ele>
        <time>2021-04-11T07:38:13.000Z</time>
      </trkpt>
      <trkpt lat="47.2809" lon="-2.35676">
        <ele>21.200000762939</ele>
        <time>2021-04-11T07:38:14.000Z</time>
      </trkpt>
      <trkpt lat="47.28091" lon="-2.3568">
        <ele>21.799999237061</ele>
        <time>2021-04-11T07:38:15.000Z</time>
      </trkpt>
      <trkpt lat="47.28091" lon="-2.35683">
        <ele>22.60000038147</ele>
        <time>2021-04-11T07:38:16.000Z</time>
      </trkpt>
      <trkpt lat="47.28093" lon="-2.3569">
        <ele>22.60000038147</ele>
        <time>2021-04-11T07:38:18.000Z</time>
      </trkpt>
      <trkpt lat="47.28096" lon="-2.35708">
        <ele>23</ele>
        <time>2021-04-11T07:38:23.000Z</time>
      </trkpt>
      <trkpt lat="47.28096" lon="-2.35711">
        <ele>23.39999961853</ele>
        <time>2021-04-11T07:38:24.000Z</time>
      </trkpt>
      <trkpt lat="47.28096" lon="-2.35715">
        <ele>23.799999237061</ele>
        <time>2021-04-11T07:38:25.000Z</time>
      </trkpt>
      <trkpt lat="47.28095" lon="-2.35719">
        <ele>24.200000762939</ele>
        <time>2021-04-11T07:38:26.000Z</time>
      </trkpt>
      <trkpt lat="47.28094" lon="-2.35724">
        <ele>24.60000038147</ele>
        <time>2021-04-11T07:38:27.000Z</time>
      </trkpt>
      <trkpt lat="47.28091" lon="-2.35737">
        <ele>24.60000038147</ele>
        <time>2021-04-11T07:38:30.000Z</time>
      </trkpt>
      <trkpt lat="47.2809" lon="-2.35744">
        <ele>24.60000038147</ele>
        <time>2021-04-11T07:38:31.000Z</time>
      </trkpt>
      <trkpt lat="47.28085" lon="-2.35766">
        <ele>24.60000038147</ele>
        <time>2021-04-11T07:38:34.000Z</time>
      </trkpt>
      <trkpt lat="47.28082" lon="-2.35782">
        <ele>24.200000762939</ele>
        <time>2021-04-11T07:38:37.000Z</time>
      </trkpt>
      <trkpt lat="47.2808" lon="-2.35788">
        <ele>23.799999237061</ele>
        <time>2021-04-11T07:38:38.000Z</time>
      </trkpt>
      <trkpt lat="47.28078" lon="-2.35793">
        <ele>23.39999961853</ele>
        <time>2021-04-11T07:38:39.000Z</time>
      </trkpt>
      <trkpt lat="47.28078" lon="-2.35799">
        <ele>23</ele>
        <time>2021-04-11T07:38:40.000Z</time>
      </trkpt>
      <trkpt lat="47.28078" lon="-2.35803">
        <ele>22.39999961853</ele>
        <time>2021-04-11T07:38:41.000Z</time>
      </trkpt>
      <trkpt lat="47.28079" lon="-2.35805">
        <ele>22</ele>
        <time>2021-04-11T07:38:42.000Z</time>
      </trkpt>
      <trkpt lat="47.28082" lon="-2.35806">
        <ele>21.60000038147</ele>
        <time>2021-04-11T07:38:43.000Z</time>
      </trkpt>
      <trkpt lat="47.28084" lon="-2.35806">
        <ele>21.200000762939</ele>
        <time>2021-04-11T07:38:44.000Z</time>
      </trkpt>
      <trkpt lat="47.28087" lon="-2.35807">
        <ele>20.799999237061</ele>
        <time>2021-04-11T07:38:45.000Z</time>
      </trkpt>
      <trkpt lat="47.2809" lon="-2.35808">
        <ele>20.200000762939</ele>
        <time>2021-04-11T07:38:46.000Z</time>
      </trkpt>
      <trkpt lat="47.28094" lon="-2.3581">
        <ele>20.200000762939</ele>
        <time>2021-04-11T07:38:48.000Z</time>
      </trkpt>
      <trkpt lat="47.28097" lon="-2.35811">
        <ele>19.799999237061</ele>
        <time>2021-04-11T07:38:50.000Z</time>
      </trkpt>
      <trkpt lat="47.28099" lon="-2.35813">
        <ele>19.39999961853</ele>
        <time>2021-04-11T07:38:51.000Z</time>
      </trkpt>
      <trkpt lat="47.28101" lon="-2.35814">
        <ele>19</ele>
        <time>2021-04-11T07:38:52.000Z</time>
      </trkpt>
      <trkpt lat="47.28102" lon="-2.35816">
        <ele>18.60000038147</ele>
        <time>2021-04-11T07:38:53.000Z</time>
      </trkpt>
      <trkpt lat="47.28104" lon="-2.35818">
        <ele>18.200000762939</ele>
        <time>2021-04-11T07:38:54.000Z</time>
      </trkpt>
      <trkpt lat="47.28112" lon="-2.35823">
        <ele>18.200000762939</ele>
        <time>2021-04-11T07:39:01.000Z</time>
      </trkpt>
      <trkpt lat="47.28117" lon="-2.35827">
        <ele>19</ele>
        <time>2021-04-11T07:39:06.000Z</time>
      </trkpt>
      <trkpt lat="47.28123" lon="-2.35829">
        <ele>20.39999961853</ele>
        <time>2021-04-11T07:39:18.000Z</time>
      </trkpt>
      <trkpt lat="47.28125" lon="-2.35827">
        <ele>20.39999961853</ele>
        <time>2021-04-11T07:39:19.000Z</time>
      </trkpt>
      <trkpt lat="47.28137" lon="-2.35816">
        <ele>20.39999961853</ele>
        <time>2021-04-11T07:39:25.000Z</time>
      </trkpt>
      <trkpt lat="47.28141" lon="-2.35816">
        <ele>20.39999961853</ele>
        <time>2021-04-11T07:39:26.000Z</time>
      </trkpt>
      <trkpt lat="47.2815" lon="-2.35821">
        <ele>20.39999961853</ele>
        <time>2021-04-11T07:39:30.000Z</time>
      </trkpt>
      <trkpt lat="47.28164" lon="-2.35833">
        <ele>20.39999961853</ele>
        <time>2021-04-11T07:39:36.000Z</time>
      </trkpt>
      <trkpt lat="47.28173" lon="-2.35842">
        <ele>20.39999961853</ele>
        <time>2021-04-11T07:39:39.000Z</time>
      </trkpt>
      <trkpt lat="47.28181" lon="-2.35851">
        <ele>20.39999961853</ele>
        <time>2021-04-11T07:39:42.000Z</time>
      </trkpt>
      <trkpt lat="47.28191" lon="-2.3587">
        <ele>20.39999961853</ele>
        <time>2021-04-11T07:39:48.000Z</time>
      </trkpt>
      <trkpt lat="47.28194" lon="-2.35879">
        <ele>20.39999961853</ele>
        <time>2021-04-11T07:39:53.000Z</time>
      </trkpt>
      <trkpt lat="47.28197" lon="-2.3589">
        <ele>20.39999961853</ele>
        <time>2021-04-11T07:40:30.000Z</time>
      </trkpt>
      <trkpt lat="47.28198" lon="-2.35914">
        <ele>20.39999961853</ele>
        <time>2021-04-11T07:40:36.000Z</time>
      </trkpt>
      <trkpt lat="47.28191" lon="-2.35932">
        <ele>20.39999961853</ele>
        <time>2021-04-11T07:40:41.000Z</time>
      </trkpt>
      <trkpt lat="47.2818" lon="-2.35943">
        <ele>20.39999961853</ele>
        <time>2021-04-11T07:40:46.000Z</time>
      </trkpt>
      <trkpt lat="47.2818" lon="-2.35947">
        <ele>20.39999961853</ele>
        <time>2021-04-11T07:40:48.000Z</time>
      </trkpt>
      <trkpt lat="47.28183" lon="-2.35952">
        <ele>20.39999961853</ele>
        <time>2021-04-11T07:40:50.000Z</time>
      </trkpt>
      <trkpt lat="47.28186" lon="-2.35959">
        <ele>20</ele>
        <time>2021-04-11T07:40:52.000Z</time>
      </trkpt>
      <trkpt lat="47.28186" lon="-2.35965">
        <ele>19.60000038147</ele>
        <time>2021-04-11T07:40:53.000Z</time>
      </trkpt>
      <trkpt lat="47.28187" lon="-2.35972">
        <ele>19.200000762939</ele>
        <time>2021-04-11T07:40:54.000Z</time>
      </trkpt>
      <trkpt lat="47.28189" lon="-2.35977">
        <ele>18.799999237061</ele>
        <time>2021-04-11T07:40:55.000Z</time>
      </trkpt>
      <trkpt lat="47.28191" lon="-2.35982">
        <ele>18.39999961853</ele>
        <time>2021-04-11T07:40:56.000Z</time>
      </trkpt>
      <trkpt lat="47.28198" lon="-2.36">
        <ele>18.39999961853</ele>
        <time>2021-04-11T07:41:00.000Z</time>
      </trkpt>
      <trkpt lat="47.28199" lon="-2.36007">
        <ele>18</ele>
        <time>2021-04-11T07:41:04.000Z</time>
      </trkpt>
      <trkpt lat="47.28204" lon="-2.3601">
        <ele>16.39999961853</ele>
        <time>2021-04-11T07:41:31.000Z</time>
      </trkpt>
      <trkpt lat="47.28212" lon="-2.36022">
        <ele>16.39999961853</ele>
        <time>2021-04-11T07:41:36.000Z</time>
      </trkpt>
      <trkpt lat="47.28215" lon="-2.36025">
        <ele>16.39999961853</ele>
        <time>2021-04-11T07:41:37.000Z</time>
      </trkpt>
      <trkpt lat="47.28225" lon="-2.36031">
        <ele>16.39999961853</ele>
        <time>2021-04-11T07:41:41.000Z</time>
      </trkpt>
      <trkpt lat="47.28239" lon="-2.36021">
        <ele>16.39999961853</ele>
        <time>2021-04-11T07:41:46.000Z</time>
      </trkpt>
      <trkpt lat="47.28246" lon="-2.36016">
        <ele>16.799999237061</ele>
        <time>2021-04-11T07:41:48.000Z</time>
      </trkpt>
      <trkpt lat="47.2825" lon="-2.36014">
        <ele>17.200000762939</ele>
        <time>2021-04-11T07:41:49.000Z</time>
      </trkpt>
      <trkpt lat="47.28253" lon="-2.36012">
        <ele>17.60000038147</ele>
        <time>2021-04-11T07:41:50.000Z</time>
      </trkpt>
      <trkpt lat="47.28256" lon="-2.3601">
        <ele>18</ele>
        <time>2021-04-11T07:41:51.000Z</time>
      </trkpt>
      <trkpt lat="47.28258" lon="-2.36008">
        <ele>18.60000038147</ele>
        <time>2021-04-11T07:41:52.000Z</time>
      </trkpt>
      <trkpt lat="47.28269" lon="-2.35998">
        <ele>18.60000038147</ele>
        <time>2021-04-11T07:41:56.000Z</time>
      </trkpt>
      <trkpt lat="47.28279" lon="-2.3599">
        <ele>19</ele>
        <time>2021-04-11T07:42:00.000Z</time>
      </trkpt>
      <trkpt lat="47.28282" lon="-2.35989">
        <ele>19.39999961853</ele>
        <time>2021-04-11T07:42:01.000Z</time>
      </trkpt>
      <trkpt lat="47.28284" lon="-2.35987">
        <ele>19.799999237061</ele>
        <time>2021-04-11T07:42:02.000Z</time>
      </trkpt>
      <trkpt lat="47.28286" lon="-2.35985">
        <ele>20.200000762939</ele>
        <time>2021-04-11T07:42:03.000Z</time>
      </trkpt>
      <trkpt lat="47.28288" lon="-2.35984">
        <ele>20.60000038147</ele>
        <time>2021-04-11T07:42:04.000Z</time>
      </trkpt>
      <trkpt lat="47.28296" lon="-2.35972">
        <ele>20.60000038147</ele>
        <time>2021-04-11T07:42:09.000Z</time>
      </trkpt>
      <trkpt lat="47.28308" lon="-2.3595">
        <ele>20.60000038147</ele>
        <time>2021-04-11T07:42:17.000Z</time>
      </trkpt>
      <trkpt lat="47.2831" lon="-2.35946">
        <ele>21</ele>
        <time>2021-04-11T07:42:18.000Z</time>
      </trkpt>
      <trkpt lat="47.28312" lon="-2.35943">
        <ele>21.39999961853</ele>
        <time>2021-04-11T07:42:19.000Z</time>
      </trkpt>
      <trkpt lat="47.28314" lon="-2.3594">
        <ele>21.799999237061</ele>
        <time>2021-04-11T07:42:20.000Z</time>
      </trkpt>
      <trkpt lat="47.28315" lon="-2.35938">
        <ele>22.200000762939</ele>
        <time>2021-04-11T07:42:21.000Z</time>
      </trkpt>
      <trkpt lat="47.28318" lon="-2.35936">
        <ele>22.60000038147</ele>
        <time>2021-04-11T07:42:22.000Z</time>
      </trkpt>
      <trkpt lat="47.2832" lon="-2.35933">
        <ele>22.60000038147</ele>
        <time>2021-04-11T07:42:23.000Z</time>
      </trkpt>
      <trkpt lat="47.28338" lon="-2.3592">
        <ele>23</ele>
        <time>2021-04-11T07:42:29.000Z</time>
      </trkpt>
      <trkpt lat="47.28341" lon="-2.35918">
        <ele>23.39999961853</ele>
        <time>2021-04-11T07:42:30.000Z</time>
      </trkpt>
      <trkpt lat="47.28345" lon="-2.35916">
        <ele>23.799999237061</ele>
        <time>2021-04-11T07:42:31.000Z</time>
      </trkpt>
      <trkpt lat="47.28347" lon="-2.35914">
        <ele>24.39999961853</ele>
        <time>2021-04-11T07:42:32.000Z</time>
      </trkpt>
      <trkpt lat="47.2835" lon="-2.35911">
        <ele>24.799999237061</ele>
        <time>2021-04-11T07:42:33.000Z</time>
      </trkpt>
      <trkpt lat="47.28355" lon="-2.35906">
        <ele>24.799999237061</ele>
        <time>2021-04-11T07:42:35.000Z</time>
      </trkpt>
      <trkpt lat="47.28372" lon="-2.35887">
        <ele>24.799999237061</ele>
        <time>2021-04-11T07:42:42.000Z</time>
      </trkpt>
      <trkpt lat="47.28401" lon="-2.35872">
        <ele>24.799999237061</ele>
        <time>2021-04-11T07:42:49.000Z</time>
      </trkpt>
      <trkpt lat="47.28409" lon="-2.35867">
        <ele>25.200000762939</ele>
        <time>2021-04-11T07:42:52.000Z</time>
      </trkpt>
      <trkpt lat="47.28412" lon="-2.35864">
        <ele>25.60000038147</ele>
        <time>2021-04-11T07:42:53.000Z</time>
      </trkpt>
      <trkpt lat="47.28414" lon="-2.35862">
        <ele>26</ele>
        <time>2021-04-11T07:42:54.000Z</time>
      </trkpt>
      <trkpt lat="47.28416" lon="-2.3586">
        <ele>26.39999961853</ele>
        <time>2021-04-11T07:42:55.000Z</time>
      </trkpt>
      <trkpt lat="47.28418" lon="-2.35858">
        <ele>26.799999237061</ele>
        <time>2021-04-11T07:42:56.000Z</time>
      </trkpt>
      <trkpt lat="47.28432" lon="-2.35849">
        <ele>26.799999237061</ele>
        <time>2021-04-11T07:43:01.000Z</time>
      </trkpt>
      <trkpt lat="47.28449" lon="-2.35838">
        <ele>26.799999237061</ele>
        <time>2021-04-11T07:43:07.000Z</time>
      </trkpt>
      <trkpt lat="47.2846" lon="-2.35826">
        <ele>26.799999237061</ele>
        <time>2021-04-11T07:43:14.000Z</time>
      </trkpt>
      <trkpt lat="47.28475" lon="-2.35814">
        <ele>26.799999237061</ele>
        <time>2021-04-11T07:43:20.000Z</time>
      </trkpt>
      <trkpt lat="47.28476" lon="-2.35811">
        <ele>26.799999237061</ele>
        <time>2021-04-11T07:43:21.000Z</time>
      </trkpt>
      <trkpt lat="47.28473" lon="-2.35801">
        <ele>26.799999237061</ele>
        <time>2021-04-11T07:43:24.000Z</time>
      </trkpt>
      <trkpt lat="47.2847" lon="-2.35788">
        <ele>26.799999237061</ele>
        <time>2021-04-11T07:43:27.000Z</time>
      </trkpt>
      <trkpt lat="47.28457" lon="-2.35764">
        <ele>26.799999237061</ele>
        <time>2021-04-11T07:43:33.000Z</time>
      </trkpt>
      <trkpt lat="47.28431" lon="-2.35735">
        <ele>26.799999237061</ele>
        <time>2021-04-11T07:43:40.000Z</time>
      </trkpt>
      <trkpt lat="47.28412" lon="-2.35708">
        <ele>26.799999237061</ele>
        <time>2021-04-11T07:43:46.000Z</time>
      </trkpt>
      <trkpt lat="47.28404" lon="-2.35686">
        <ele>26.799999237061</ele>
        <time>2021-04-11T07:43:51.000Z</time>
      </trkpt>
      <trkpt lat="47.28402" lon="-2.35658">
        <ele>26.799999237061</ele>
        <time>2021-04-11T07:43:57.000Z</time>
      </trkpt>
      <trkpt lat="47.28396" lon="-2.35637">
        <ele>26.799999237061</ele>
        <time>2021-04-11T07:44:01.000Z</time>
      </trkpt>
      <trkpt lat="47.28392" lon="-2.35634">
        <ele>26.799999237061</ele>
        <time>2021-04-11T07:44:02.000Z</time>
      </trkpt>
      <trkpt lat="47.28385" lon="-2.35616">
        <ele>26.799999237061</ele>
        <time>2021-04-11T07:44:06.000Z</time>
      </trkpt>
      <trkpt lat="47.28384" lon="-2.35609">
        <ele>26.799999237061</ele>
        <time>2021-04-11T07:44:07.000Z</time>
      </trkpt>
      <trkpt lat="47.28385" lon="-2.35576">
        <ele>26.799999237061</ele>
        <time>2021-04-11T07:44:12.000Z</time>
      </trkpt>
      <trkpt lat="47.28395" lon="-2.35538">
        <ele>26.799999237061</ele>
        <time>2021-04-11T07:44:18.000Z</time>
      </trkpt>
      <trkpt lat="47.28404" lon="-2.35509">
        <ele>26.799999237061</ele>
        <time>2021-04-11T07:44:23.000Z</time>
      </trkpt>
      <trkpt lat="47.28404" lon="-2.35477">
        <ele>26.799999237061</ele>
        <time>2021-04-11T07:44:29.000Z</time>
      </trkpt>
      <trkpt lat="47.28404" lon="-2.35454">
        <ele>27.200000762939</ele>
        <time>2021-04-11T07:44:34.000Z</time>
      </trkpt>
      <trkpt lat="47.28404" lon="-2.3545">
        <ele>27.60000038147</ele>
        <time>2021-04-11T07:44:35.000Z</time>
      </trkpt>
      <trkpt lat="47.28403" lon="-2.35446">
        <ele>28</ele>
        <time>2021-04-11T07:44:36.000Z</time>
      </trkpt>
      <trkpt lat="47.28402" lon="-2.35441">
        <ele>28.39999961853</ele>
        <time>2021-04-11T07:44:37.000Z</time>
      </trkpt>
      <trkpt lat="47.28402" lon="-2.35437">
        <ele>29</ele>
        <time>2021-04-11T07:44:38.000Z</time>
      </trkpt>
      <trkpt lat="47.28396" lon="-2.35423">
        <ele>29</ele>
        <time>2021-04-11T07:44:42.000Z</time>
      </trkpt>
      <trkpt lat="47.28383" lon="-2.35406">
        <ele>29</ele>
        <time>2021-04-11T07:44:49.000Z</time>
      </trkpt>
      <trkpt lat="47.28374" lon="-2.35387">
        <ele>29</ele>
        <time>2021-04-11T07:44:55.000Z</time>
      </trkpt>
      <trkpt lat="47.28373" lon="-2.35383">
        <ele>28.39999961853</ele>
        <time>2021-04-11T07:44:56.000Z</time>
      </trkpt>
      <trkpt lat="47.28372" lon="-2.3538">
        <ele>28</ele>
        <time>2021-04-11T07:44:57.000Z</time>
      </trkpt>
      <trkpt lat="47.28372" lon="-2.35378">
        <ele>27.60000038147</ele>
        <time>2021-04-11T07:44:58.000Z</time>
      </trkpt>
      <trkpt lat="47.28371" lon="-2.35376">
        <ele>27</ele>
        <time>2021-04-11T07:44:59.000Z</time>
      </trkpt>
      <trkpt lat="47.2837" lon="-2.35375">
        <ele>26.60000038147</ele>
        <time>2021-04-11T07:45:00.000Z</time>
      </trkpt>
      <trkpt lat="47.2837" lon="-2.35373">
        <ele>26</ele>
        <time>2021-04-11T07:45:01.000Z</time>
      </trkpt>
      <trkpt lat="47.28369" lon="-2.35369">
        <ele>25.39999961853</ele>
        <time>2021-04-11T07:45:02.000Z</time>
      </trkpt>
      <trkpt lat="47.28368" lon="-2.35366">
        <ele>25</ele>
        <time>2021-04-11T07:45:03.000Z</time>
      </trkpt>
      <trkpt lat="47.28367" lon="-2.35365">
        <ele>24.39999961853</ele>
        <time>2021-04-11T07:45:04.000Z</time>
      </trkpt>
      <trkpt lat="47.28364" lon="-2.35361">
        <ele>24.39999961853</ele>
        <time>2021-04-11T07:45:06.000Z</time>
      </trkpt>
      <trkpt lat="47.28358" lon="-2.3534">
        <ele>24</ele>
        <time>2021-04-11T07:45:10.000Z</time>
      </trkpt>
      <trkpt lat="47.28356" lon="-2.35334">
        <ele>23.60000038147</ele>
        <time>2021-04-11T07:45:11.000Z</time>
      </trkpt>
      <trkpt lat="47.28354" lon="-2.35328">
        <ele>23</ele>
        <time>2021-04-11T07:45:12.000Z</time>
      </trkpt>
      <trkpt lat="47.28352" lon="-2.35322">
        <ele>22.60000038147</ele>
        <time>2021-04-11T07:45:13.000Z</time>
      </trkpt>
      <trkpt lat="47.28351" lon="-2.35318">
        <ele>22.200000762939</ele>
        <time>2021-04-11T07:45:14.000Z</time>
      </trkpt>
      <trkpt lat="47.2835" lon="-2.35314">
        <ele>22.200000762939</ele>
        <time>2021-04-11T07:45:15.000Z</time>
      </trkpt>
      <trkpt lat="47.28346" lon="-2.35304">
        <ele>22.200000762939</ele>
        <time>2021-04-11T07:45:20.000Z</time>
      </trkpt>
      <trkpt lat="47.28346" lon="-2.35304">
        <ele>22.200000762939</ele>
        <time>2021-04-11T07:45:21.000Z</time>
      </trkpt>
      <trkpt lat="47.28338" lon="-2.35307">
        <ele>22.200000762939</ele>
        <time>2021-04-11T07:50:43.000Z</time>
      </trkpt>
      <trkpt lat="47.28335" lon="-2.35309">
        <ele>22.200000762939</ele>
        <time>2021-04-11T07:50:45.000Z</time>
      </trkpt>
      <trkpt lat="47.28332" lon="-2.35304">
        <ele>22.200000762939</ele>
        <time>2021-04-11T07:50:49.000Z</time>
      </trkpt>
      <trkpt lat="47.28337" lon="-2.35303">
        <ele>22.200000762939</ele>
        <time>2021-04-11T07:50:52.000Z</time>
      </trkpt>
      <trkpt lat="47.28346" lon="-2.35296">
        <ele>22.200000762939</ele>
        <time>2021-04-11T07:50:57.000Z</time>
      </trkpt>
      <trkpt lat="47.28348" lon="-2.35295">
        <ele>22.200000762939</ele>
        <time>2021-04-11T07:50:58.000Z</time>
      </trkpt>
      <trkpt lat="47.28358" lon="-2.35287">
        <ele>22.200000762939</ele>
        <time>2021-04-11T07:51:03.000Z</time>
      </trkpt>
      <trkpt lat="47.28363" lon="-2.3528">
        <ele>22.200000762939</ele>
        <time>2021-04-11T07:51:06.000Z</time>
      </trkpt>
      <trkpt lat="47.28367" lon="-2.35274">
        <ele>22.200000762939</ele>
        <time>2021-04-11T07:51:08.000Z</time>
      </trkpt>
      <trkpt lat="47.28372" lon="-2.35263">
        <ele>22.200000762939</ele>
        <time>2021-04-11T07:51:11.000Z</time>
      </trkpt>
      <trkpt lat="47.28378" lon="-2.3525">
        <ele>22.200000762939</ele>
        <time>2021-04-11T07:51:14.000Z</time>
      </trkpt>
      <trkpt lat="47.28387" lon="-2.35219">
        <ele>22.200000762939</ele>
        <time>2021-04-11T07:51:21.000Z</time>
      </trkpt>
      <trkpt lat="47.28378" lon="-2.35187">
        <ele>22.200000762939</ele>
        <time>2021-04-11T07:51:28.000Z</time>
      </trkpt>
      <trkpt lat="47.28369" lon="-2.35163">
        <ele>22.200000762939</ele>
        <time>2021-04-11T07:51:34.000Z</time>
      </trkpt>
      <trkpt lat="47.28367" lon="-2.35154">
        <ele>22.60000038147</ele>
        <time>2021-04-11T07:51:36.000Z</time>
      </trkpt>
      <trkpt lat="47.28367" lon="-2.35149">
        <ele>23</ele>
        <time>2021-04-11T07:51:37.000Z</time>
      </trkpt>
      <trkpt lat="47.28368" lon="-2.35145">
        <ele>23.39999961853</ele>
        <time>2021-04-11T07:51:38.000Z</time>
      </trkpt>
      <trkpt lat="47.28371" lon="-2.35142">
        <ele>23.799999237061</ele>
        <time>2021-04-11T07:51:39.000Z</time>
      </trkpt>
      <trkpt lat="47.28373" lon="-2.35139">
        <ele>24.200000762939</ele>
        <time>2021-04-11T07:51:40.000Z</time>
      </trkpt>
      <trkpt lat="47.28385" lon="-2.35129">
        <ele>24.200000762939</ele>
        <time>2021-04-11T07:51:44.000Z</time>
      </trkpt>
      <trkpt lat="47.28408" lon="-2.35108">
        <ele>24.200000762939</ele>
        <time>2021-04-11T07:51:51.000Z</time>
      </trkpt>
      <trkpt lat="47.28428" lon="-2.35092">
        <ele>24.200000762939</ele>
        <time>2021-04-11T07:51:58.000Z</time>
      </trkpt>
      <trkpt lat="47.28442" lon="-2.35074">
        <ele>24.200000762939</ele>
        <time>2021-04-11T07:52:04.000Z</time>
      </trkpt>
      <trkpt lat="47.28456" lon="-2.35062">
        <ele>24.200000762939</ele>
        <time>2021-04-11T07:52:10.000Z</time>
      </trkpt>
      <trkpt lat="47.28458" lon="-2.35062">
        <ele>24.200000762939</ele>
        <time>2021-04-11T07:52:11.000Z</time>
      </trkpt>
      <trkpt lat="47.28464" lon="-2.35072">
        <ele>24.200000762939</ele>
        <time>2021-04-11T07:52:14.000Z</time>
      </trkpt>
      <trkpt lat="47.28467" lon="-2.35077">
        <ele>24.200000762939</ele>
        <time>2021-04-11T07:52:15.000Z</time>
      </trkpt>
      <trkpt lat="47.28476" lon="-2.35098">
        <ele>24.200000762939</ele>
        <time>2021-04-11T07:52:18.000Z</time>
      </trkpt>
      <trkpt lat="47.28488" lon="-2.35136">
        <ele>24.200000762939</ele>
        <time>2021-04-11T07:52:23.000Z</time>
      </trkpt>
      <trkpt lat="47.28502" lon="-2.35196">
        <ele>24.200000762939</ele>
        <time>2021-04-11T07:52:30.000Z</time>
      </trkpt>
      <trkpt lat="47.28517" lon="-2.35247">
        <ele>24.200000762939</ele>
        <time>2021-04-11T07:52:37.000Z</time>
      </trkpt>
      <trkpt lat="47.28531" lon="-2.35299">
        <ele>24.200000762939</ele>
        <time>2021-04-11T07:52:44.000Z</time>
      </trkpt>
      <trkpt lat="47.28534" lon="-2.35306">
        <ele>24.200000762939</ele>
        <time>2021-04-11T07:52:45.000Z</time>
      </trkpt>
      <trkpt lat="47.28552" lon="-2.35354">
        <ele>24.200000762939</ele>
        <time>2021-04-11T07:52:52.000Z</time>
      </trkpt>
      <trkpt lat="47.28554" lon="-2.35361">
        <ele>24.200000762939</ele>
        <time>2021-04-11T07:52:53.000Z</time>
      </trkpt>
      <trkpt lat="47.28566" lon="-2.354">
        <ele>24.200000762939</ele>
        <time>2021-04-11T07:52:59.000Z</time>
      </trkpt>
      <trkpt lat="47.28574" lon="-2.35447">
        <ele>24.200000762939</ele>
        <time>2021-04-11T07:53:06.000Z</time>
      </trkpt>
      <trkpt lat="47.28578" lon="-2.35488">
        <ele>24.200000762939</ele>
        <time>2021-04-11T07:53:12.000Z</time>
      </trkpt>
      <trkpt lat="47.28578" lon="-2.35494">
        <ele>24.60000038147</ele>
        <time>2021-04-11T07:53:13.000Z</time>
      </trkpt>
      <trkpt lat="47.28579" lon="-2.35501">
        <ele>25</ele>
        <time>2021-04-11T07:53:14.000Z</time>
      </trkpt>
      <trkpt lat="47.28581" lon="-2.35509">
        <ele>25.39999961853</ele>
        <time>2021-04-11T07:53:15.000Z</time>
      </trkpt>
      <trkpt lat="47.28582" lon="-2.35516">
        <ele>25.799999237061</ele>
        <time>2021-04-11T07:53:16.000Z</time>
      </trkpt>
      <trkpt lat="47.28583" lon="-2.35524">
        <ele>26.200000762939</ele>
        <time>2021-04-11T07:53:17.000Z</time>
      </trkpt>
      <trkpt lat="47.28592" lon="-2.35583">
        <ele>26.200000762939</ele>
        <time>2021-04-11T07:53:25.000Z</time>
      </trkpt>
      <trkpt lat="47.28599" lon="-2.35643">
        <ele>26.200000762939</ele>
        <time>2021-04-11T07:53:34.000Z</time>
      </trkpt>
      <trkpt lat="47.28603" lon="-2.35669">
        <ele>26.200000762939</ele>
        <time>2021-04-11T07:53:38.000Z</time>
      </trkpt>
      <trkpt lat="47.28605" lon="-2.35689">
        <ele>26.200000762939</ele>
        <time>2021-04-11T07:53:41.000Z</time>
      </trkpt>
      <trkpt lat="47.28607" lon="-2.35702">
        <ele>26.799999237061</ele>
        <time>2021-04-11T07:53:43.000Z</time>
      </trkpt>
      <trkpt lat="47.28608" lon="-2.35708">
        <ele>27.200000762939</ele>
        <time>2021-04-11T07:53:44.000Z</time>
      </trkpt>
      <trkpt lat="47.28608" lon="-2.35715">
        <ele>27.60000038147</ele>
        <time>2021-04-11T07:53:45.000Z</time>
      </trkpt>
      <trkpt lat="47.2861" lon="-2.35722">
        <ele>28</ele>
        <time>2021-04-11T07:53:46.000Z</time>
      </trkpt>
      <trkpt lat="47.28612" lon="-2.35728">
        <ele>28.60000038147</ele>
        <time>2021-04-11T07:53:47.000Z</time>
      </trkpt>
      <trkpt lat="47.2862" lon="-2.35743">
        <ele>28.60000038147</ele>
        <time>2021-04-11T07:53:50.000Z</time>
      </trkpt>
      <trkpt lat="47.28632" lon="-2.35763">
        <ele>28.60000038147</ele>
        <time>2021-04-11T07:53:54.000Z</time>
      </trkpt>
      <trkpt lat="47.28635" lon="-2.35777">
        <ele>28.60000038147</ele>
        <time>2021-04-11T07:53:56.000Z</time>
      </trkpt>
      <trkpt lat="47.28643" lon="-2.35808">
        <ele>28.60000038147</ele>
        <time>2021-04-11T07:54:01.000Z</time>
      </trkpt>
      <trkpt lat="47.28644" lon="-2.35827">
        <ele>28.60000038147</ele>
        <time>2021-04-11T07:54:05.000Z</time>
      </trkpt>
      <trkpt lat="47.28647" lon="-2.35842">
        <ele>28.60000038147</ele>
        <time>2021-04-11T07:54:08.000Z</time>
      </trkpt>
      <trkpt lat="47.28649" lon="-2.3585">
        <ele>28.60000038147</ele>
        <time>2021-04-11T07:54:10.000Z</time>
      </trkpt>
      <trkpt lat="47.28661" lon="-2.35876">
        <ele>28.60000038147</ele>
        <time>2021-04-11T07:54:15.000Z</time>
      </trkpt>
      <trkpt lat="47.28663" lon="-2.35881">
        <ele>28.60000038147</ele>
        <time>2021-04-11T07:54:16.000Z</time>
      </trkpt>
      <trkpt lat="47.28667" lon="-2.35899">
        <ele>29.39999961853</ele>
        <time>2021-04-11T07:54:19.000Z</time>
      </trkpt>
      <trkpt lat="47.28669" lon="-2.35903">
        <ele>29.799999237061</ele>
        <time>2021-04-11T07:54:20.000Z</time>
      </trkpt>
      <trkpt lat="47.28671" lon="-2.35909">
        <ele>30.200000762939</ele>
        <time>2021-04-11T07:54:21.000Z</time>
      </trkpt>
      <trkpt lat="47.28672" lon="-2.35914">
        <ele>30.60000038147</ele>
        <time>2021-04-11T07:54:22.000Z</time>
      </trkpt>
      <trkpt lat="47.28677" lon="-2.35919">
        <ele>30.60000038147</ele>
        <time>2021-04-11T07:54:24.000Z</time>
      </trkpt>
      <trkpt lat="47.2868" lon="-2.35918">
        <ele>30.60000038147</ele>
        <time>2021-04-11T07:54:25.000Z</time>
      </trkpt>
      <trkpt lat="47.28688" lon="-2.35907">
        <ele>30.60000038147</ele>
        <time>2021-04-11T07:54:28.000Z</time>
      </trkpt>
      <trkpt lat="47.2871" lon="-2.35875">
        <ele>30.60000038147</ele>
        <time>2021-04-11T07:54:35.000Z</time>
      </trkpt>
      <trkpt lat="47.2873" lon="-2.35839">
        <ele>30.60000038147</ele>
        <time>2021-04-11T07:54:42.000Z</time>
      </trkpt>
      <trkpt lat="47.28744" lon="-2.35812">
        <ele>31</ele>
        <time>2021-04-11T07:54:47.000Z</time>
      </trkpt>
      <trkpt lat="47.28747" lon="-2.35806">
        <ele>31.39999961853</ele>
        <time>2021-04-11T07:54:48.000Z</time>
      </trkpt>
      <trkpt lat="47.2875" lon="-2.35801">
        <ele>31.799999237061</ele>
        <time>2021-04-11T07:54:49.000Z</time>
      </trkpt>
      <trkpt lat="47.28753" lon="-2.35796">
        <ele>32.200000762939</ele>
        <time>2021-04-11T07:54:50.000Z</time>
      </trkpt>
      <trkpt lat="47.28756" lon="-2.35791">
        <ele>32.599998474121</ele>
        <time>2021-04-11T07:54:51.000Z</time>
      </trkpt>
      <trkpt lat="47.28772" lon="-2.35758">
        <ele>32.599998474121</ele>
        <time>2021-04-11T07:54:57.000Z</time>
      </trkpt>
      <trkpt lat="47.28797" lon="-2.35711">
        <ele>32.599998474121</ele>
        <time>2021-04-11T07:55:05.000Z</time>
      </trkpt>
      <trkpt lat="47.28819" lon="-2.35671">
        <ele>32.599998474121</ele>
        <time>2021-04-11T07:55:12.000Z</time>
      </trkpt>
      <trkpt lat="47.28843" lon="-2.35644">
        <ele>32.599998474121</ele>
        <time>2021-04-11T07:55:18.000Z</time>
      </trkpt>
      <trkpt lat="47.28876" lon="-2.35608">
        <ele>32.599998474121</ele>
        <time>2021-04-11T07:55:26.000Z</time>
      </trkpt>
      <trkpt lat="47.28912" lon="-2.35569">
        <ele>32.599998474121</ele>
        <time>2021-04-11T07:55:35.000Z</time>
      </trkpt>
      <trkpt lat="47.28919" lon="-2.35561">
        <ele>32.599998474121</ele>
        <time>2021-04-11T07:55:37.000Z</time>
      </trkpt>
      <trkpt lat="47.28928" lon="-2.3556">
        <ele>32.599998474121</ele>
        <time>2021-04-11T07:55:40.000Z</time>
      </trkpt>
      <trkpt lat="47.2893" lon="-2.35569">
        <ele>32.599998474121</ele>
        <time>2021-04-11T07:55:44.000Z</time>
      </trkpt>
      <trkpt lat="47.28934" lon="-2.35579">
        <ele>32.599998474121</ele>
        <time>2021-04-11T07:55:49.000Z</time>
      </trkpt>
      <trkpt lat="47.28937" lon="-2.35583">
        <ele>32.599998474121</ele>
        <time>2021-04-11T07:55:51.000Z</time>
      </trkpt>
      <trkpt lat="47.28943" lon="-2.35602">
        <ele>32.599998474121</ele>
        <time>2021-04-11T07:55:59.000Z</time>
      </trkpt>
      <trkpt lat="47.28949" lon="-2.35616">
        <ele>32.599998474121</ele>
        <time>2021-04-11T07:56:05.000Z</time>
      </trkpt>
      <trkpt lat="47.28955" lon="-2.35631">
        <ele>32.599998474121</ele>
        <time>2021-04-11T07:56:12.000Z</time>
      </trkpt>
      <trkpt lat="47.28961" lon="-2.35644">
        <ele>32.599998474121</ele>
        <time>2021-04-11T07:56:18.000Z</time>
      </trkpt>
      <trkpt lat="47.28968" lon="-2.3566">
        <ele>32.599998474121</ele>
        <time>2021-04-11T07:56:26.000Z</time>
      </trkpt>
      <trkpt lat="47.28972" lon="-2.35671">
        <ele>32.599998474121</ele>
        <time>2021-04-11T07:56:30.000Z</time>
      </trkpt>
      <trkpt lat="47.28972" lon="-2.35674">
        <ele>32.599998474121</ele>
        <time>2021-04-11T07:56:31.000Z</time>
      </trkpt>
      <trkpt lat="47.28976" lon="-2.35682">
        <ele>32.599998474121</ele>
        <time>2021-04-11T07:56:34.000Z</time>
      </trkpt>
      <trkpt lat="47.28983" lon="-2.35692">
        <ele>32.599998474121</ele>
        <time>2021-04-11T07:56:38.000Z</time>
      </trkpt>
      <trkpt lat="47.28988" lon="-2.35699">
        <ele>32.599998474121</ele>
        <time>2021-04-11T07:56:41.000Z</time>
      </trkpt>
      <trkpt lat="47.28994" lon="-2.35701">
        <ele>32.599998474121</ele>
        <time>2021-04-11T07:56:44.000Z</time>
      </trkpt>
      <trkpt lat="47.29001" lon="-2.35704">
        <ele>32.599998474121</ele>
        <time>2021-04-11T07:56:48.000Z</time>
      </trkpt>
      <trkpt lat="47.29008" lon="-2.35705">
        <ele>32.599998474121</ele>
        <time>2021-04-11T07:56:52.000Z</time>
      </trkpt>
      <trkpt lat="47.29019" lon="-2.35702">
        <ele>32.599998474121</ele>
        <time>2021-04-11T07:56:57.000Z</time>
      </trkpt>
      <trkpt lat="47.29025" lon="-2.35698">
        <ele>32.599998474121</ele>
        <time>2021-04-11T07:56:59.000Z</time>
      </trkpt>
      <trkpt lat="47.29038" lon="-2.35688">
        <ele>32.599998474121</ele>
        <time>2021-04-11T07:57:03.000Z</time>
      </trkpt>
      <trkpt lat="47.29058" lon="-2.35666">
        <ele>32.599998474121</ele>
        <time>2021-04-11T07:57:11.000Z</time>
      </trkpt>
      <trkpt lat="47.29074" lon="-2.35649">
        <ele>32.599998474121</ele>
        <time>2021-04-11T07:57:19.000Z</time>
      </trkpt>
      <trkpt lat="47.29081" lon="-2.35641">
        <ele>32.599998474121</ele>
        <time>2021-04-11T07:57:25.000Z</time>
      </trkpt>
      <trkpt lat="47.29083" lon="-2.35641">
        <ele>32.599998474121</ele>
        <time>2021-04-11T07:57:27.000Z</time>
      </trkpt>
      <trkpt lat="47.29085" lon="-2.35643">
        <ele>32.599998474121</ele>
        <time>2021-04-11T07:57:29.000Z</time>
      </trkpt>
      <trkpt lat="47.29085" lon="-2.35643">
        <ele>32.599998474121</ele>
        <time>2021-04-11T07:57:31.000Z</time>
      </trkpt>
      <trkpt lat="47.29085" lon="-2.35647">
        <ele>32.599998474121</ele>
        <time>2021-04-11T07:58:07.000Z</time>
      </trkpt>
      <trkpt lat="47.29086" lon="-2.3565">
        <ele>32.599998474121</ele>
        <time>2021-04-11T07:58:10.000Z</time>
      </trkpt>
      <trkpt lat="47.29088" lon="-2.35655">
        <ele>32.599998474121</ele>
        <time>2021-04-11T07:58:18.000Z</time>
      </trkpt>
      <trkpt lat="47.29089" lon="-2.35661">
        <ele>32.599998474121</ele>
        <time>2021-04-11T07:58:20.000Z</time>
      </trkpt>
      <trkpt lat="47.29092" lon="-2.35685">
        <ele>32.599998474121</ele>
        <time>2021-04-11T07:58:25.000Z</time>
      </trkpt>
      <trkpt lat="47.29095" lon="-2.357">
        <ele>32.599998474121</ele>
        <time>2021-04-11T07:58:28.000Z</time>
      </trkpt>
      <trkpt lat="47.29099" lon="-2.35712">
        <ele>32.599998474121</ele>
        <time>2021-04-11T07:58:30.000Z</time>
      </trkpt>
      <trkpt lat="47.29112" lon="-2.35746">
        <ele>32.599998474121</ele>
        <time>2021-04-11T07:58:36.000Z</time>
      </trkpt>
      <trkpt lat="47.29119" lon="-2.35762">
        <ele>32.599998474121</ele>
        <time>2021-04-11T07:58:39.000Z</time>
      </trkpt>
      <trkpt lat="47.29127" lon="-2.35783">
        <ele>33</ele>
        <time>2021-04-11T07:58:43.000Z</time>
      </trkpt>
      <trkpt lat="47.29129" lon="-2.35788">
        <ele>33.400001525879</ele>
        <time>2021-04-11T07:58:44.000Z</time>
      </trkpt>
      <trkpt lat="47.29131" lon="-2.35793">
        <ele>33.799999237061</ele>
        <time>2021-04-11T07:58:45.000Z</time>
      </trkpt>
      <trkpt lat="47.29132" lon="-2.35798">
        <ele>34.200000762939</ele>
        <time>2021-04-11T07:58:46.000Z</time>
      </trkpt>
      <trkpt lat="47.29134" lon="-2.35802">
        <ele>34.599998474121</ele>
        <time>2021-04-11T07:58:47.000Z</time>
      </trkpt>
      <trkpt lat="47.29144" lon="-2.35827">
        <ele>34.599998474121</ele>
        <time>2021-04-11T07:58:53.000Z</time>
      </trkpt>
      <trkpt lat="47.29148" lon="-2.35828">
        <ele>34.599998474121</ele>
        <time>2021-04-11T07:58:54.000Z</time>
      </trkpt>
      <trkpt lat="47.29159" lon="-2.35823">
        <ele>34.599998474121</ele>
        <time>2021-04-11T07:58:57.000Z</time>
      </trkpt>
      <trkpt lat="47.29163" lon="-2.35821">
        <ele>34.599998474121</ele>
        <time>2021-04-11T07:58:58.000Z</time>
      </trkpt>
      <trkpt lat="47.29196" lon="-2.358">
        <ele>34.599998474121</ele>
        <time>2021-04-11T07:59:06.000Z</time>
      </trkpt>
      <trkpt lat="47.29229" lon="-2.35771">
        <ele>34.599998474121</ele>
        <time>2021-04-11T07:59:14.000Z</time>
      </trkpt>
      <trkpt lat="47.29244" lon="-2.35753">
        <ele>34.599998474121</ele>
        <time>2021-04-11T07:59:18.000Z</time>
      </trkpt>
      <trkpt lat="47.29249" lon="-2.35743">
        <ele>34.599998474121</ele>
        <time>2021-04-11T07:59:20.000Z</time>
      </trkpt>
      <trkpt lat="47.2925" lon="-2.35728">
        <ele>34.599998474121</ele>
        <time>2021-04-11T07:59:23.000Z</time>
      </trkpt>
      <trkpt lat="47.29238" lon="-2.35713">
        <ele>34.599998474121</ele>
        <time>2021-04-11T07:59:27.000Z</time>
      </trkpt>
      <trkpt lat="47.29231" lon="-2.35701">
        <ele>34.599998474121</ele>
        <time>2021-04-11T07:59:30.000Z</time>
      </trkpt>
      <trkpt lat="47.2923" lon="-2.35695">
        <ele>34.599998474121</ele>
        <time>2021-04-11T07:59:31.000Z</time>
      </trkpt>
      <trkpt lat="47.29237" lon="-2.35677">
        <ele>34.599998474121</ele>
        <time>2021-04-11T07:59:34.000Z</time>
      </trkpt>
      <trkpt lat="47.2925" lon="-2.35667">
        <ele>34.599998474121</ele>
        <time>2021-04-11T07:59:37.000Z</time>
      </trkpt>
      <trkpt lat="47.29254" lon="-2.35665">
        <ele>34.599998474121</ele>
        <time>2021-04-11T07:59:38.000Z</time>
      </trkpt>
      <trkpt lat="47.29295" lon="-2.35649">
        <ele>34.599998474121</ele>
        <time>2021-04-11T07:59:46.000Z</time>
      </trkpt>
      <trkpt lat="47.29339" lon="-2.35637">
        <ele>34.599998474121</ele>
        <time>2021-04-11T07:59:54.000Z</time>
      </trkpt>
      <trkpt lat="47.29378" lon="-2.35627">
        <ele>34.599998474121</ele>
        <time>2021-04-11T08:00:01.000Z</time>
      </trkpt>
      <trkpt lat="47.29427" lon="-2.35614">
        <ele>34.599998474121</ele>
        <time>2021-04-11T08:00:10.000Z</time>
      </trkpt>
      <trkpt lat="47.29455" lon="-2.35608">
        <ele>34.200000762939</ele>
        <time>2021-04-11T08:00:15.000Z</time>
      </trkpt>
      <trkpt lat="47.29461" lon="-2.35608">
        <ele>33.799999237061</ele>
        <time>2021-04-11T08:00:16.000Z</time>
      </trkpt>
      <trkpt lat="47.29466" lon="-2.35607">
        <ele>33.400001525879</ele>
        <time>2021-04-11T08:00:17.000Z</time>
      </trkpt>
      <trkpt lat="47.29473" lon="-2.35608">
        <ele>33</ele>
        <time>2021-04-11T08:00:18.000Z</time>
      </trkpt>
      <trkpt lat="47.29478" lon="-2.35608">
        <ele>32.599998474121</ele>
        <time>2021-04-11T08:00:19.000Z</time>
      </trkpt>
      <trkpt lat="47.295" lon="-2.35615">
        <ele>32.599998474121</ele>
        <time>2021-04-11T08:00:23.000Z</time>
      </trkpt>
      <trkpt lat="47.29532" lon="-2.35625">
        <ele>32.599998474121</ele>
        <time>2021-04-11T08:00:29.000Z</time>
      </trkpt>
      <trkpt lat="47.29551" lon="-2.35618">
        <ele>32.599998474121</ele>
        <time>2021-04-11T08:00:33.000Z</time>
      </trkpt>
      <trkpt lat="47.29561" lon="-2.35613">
        <ele>32.599998474121</ele>
        <time>2021-04-11T08:00:35.000Z</time>
      </trkpt>
      <trkpt lat="47.29566" lon="-2.35611">
        <ele>32.599998474121</ele>
        <time>2021-04-11T08:00:36.000Z</time>
      </trkpt>
      <trkpt lat="47.29571" lon="-2.35612">
        <ele>32.599998474121</ele>
        <time>2021-04-11T08:00:37.000Z</time>
      </trkpt>
      <trkpt lat="47.29584" lon="-2.35628">
        <ele>32.599998474121</ele>
        <time>2021-04-11T08:00:40.000Z</time>
      </trkpt>
      <trkpt lat="47.29586" lon="-2.35637">
        <ele>32.599998474121</ele>
        <time>2021-04-11T08:00:41.000Z</time>
      </trkpt>
      <trkpt lat="47.29605" lon="-2.3569">
        <ele>32.599998474121</ele>
        <time>2021-04-11T08:00:48.000Z</time>
      </trkpt>
      <trkpt lat="47.29626" lon="-2.35748">
        <ele>32.599998474121</ele>
        <time>2021-04-11T08:00:56.000Z</time>
      </trkpt>
      <trkpt lat="47.29631" lon="-2.35772">
        <ele>33</ele>
        <time>2021-04-11T08:00:59.000Z</time>
      </trkpt>
      <trkpt lat="47.29633" lon="-2.3578">
        <ele>33.400001525879</ele>
        <time>2021-04-11T08:01:00.000Z</time>
      </trkpt>
      <trkpt lat="47.29635" lon="-2.35787">
        <ele>33.799999237061</ele>
        <time>2021-04-11T08:01:01.000Z</time>
      </trkpt>
      <trkpt lat="47.29637" lon="-2.35794">
        <ele>34.200000762939</ele>
        <time>2021-04-11T08:01:02.000Z</time>
      </trkpt>
      <trkpt lat="47.2964" lon="-2.358">
        <ele>34.799999237061</ele>
        <time>2021-04-11T08:01:03.000Z</time>
      </trkpt>
      <trkpt lat="47.29653" lon="-2.35823">
        <ele>34.799999237061</ele>
        <time>2021-04-11T08:01:07.000Z</time>
      </trkpt>
      <trkpt lat="47.29657" lon="-2.35829">
        <ele>34.799999237061</ele>
        <time>2021-04-11T08:01:08.000Z</time>
      </trkpt>
      <trkpt lat="47.29666" lon="-2.35837">
        <ele>34.799999237061</ele>
        <time>2021-04-11T08:01:10.000Z</time>
      </trkpt>
      <trkpt lat="47.29689" lon="-2.35841">
        <ele>34.799999237061</ele>
        <time>2021-04-11T08:01:14.000Z</time>
      </trkpt>
      <trkpt lat="47.29712" lon="-2.35832">
        <ele>34.799999237061</ele>
        <time>2021-04-11T08:01:18.000Z</time>
      </trkpt>
      <trkpt lat="47.29742" lon="-2.35814">
        <ele>34.799999237061</ele>
        <time>2021-04-11T08:01:24.000Z</time>
      </trkpt>
      <trkpt lat="47.29746" lon="-2.35812">
        <ele>35.200000762939</ele>
        <time>2021-04-11T08:01:25.000Z</time>
      </trkpt>
      <trkpt lat="47.2975" lon="-2.3581">
        <ele>35.599998474121</ele>
        <time>2021-04-11T08:01:26.000Z</time>
      </trkpt>
      <trkpt lat="47.29755" lon="-2.35808">
        <ele>36</ele>
        <time>2021-04-11T08:01:27.000Z</time>
      </trkpt>
      <trkpt lat="47.29759" lon="-2.35806">
        <ele>36.400001525879</ele>
        <time>2021-04-11T08:01:28.000Z</time>
      </trkpt>
      <trkpt lat="47.29764" lon="-2.35804">
        <ele>36.799999237061</ele>
        <time>2021-04-11T08:01:29.000Z</time>
      </trkpt>
      <trkpt lat="47.29768" lon="-2.35803">
        <ele>36.799999237061</ele>
        <time>2021-04-11T08:01:30.000Z</time>
      </trkpt>
      <trkpt lat="47.29806" lon="-2.35789">
        <ele>36.799999237061</ele>
        <time>2021-04-11T08:01:38.000Z</time>
      </trkpt>
      <trkpt lat="47.29837" lon="-2.35777">
        <ele>36.799999237061</ele>
        <time>2021-04-11T08:01:44.000Z</time>
      </trkpt>
      <trkpt lat="47.29876" lon="-2.35764">
        <ele>36.799999237061</ele>
        <time>2021-04-11T08:01:50.000Z</time>
      </trkpt>
      <trkpt lat="47.29917" lon="-2.3574">
        <ele>36.799999237061</ele>
        <time>2021-04-11T08:01:57.000Z</time>
      </trkpt>
      <trkpt lat="47.29949" lon="-2.35715">
        <ele>36.799999237061</ele>
        <time>2021-04-11T08:02:03.000Z</time>
      </trkpt>
      <trkpt lat="47.29986" lon="-2.35692">
        <ele>36.799999237061</ele>
        <time>2021-04-11T08:02:10.000Z</time>
      </trkpt>
      <trkpt lat="47.30006" lon="-2.35679">
        <ele>36.799999237061</ele>
        <time>2021-04-11T08:02:14.000Z</time>
      </trkpt>
      <trkpt lat="47.30022" lon="-2.3567">
        <ele>36.799999237061</ele>
        <time>2021-04-11T08:02:17.000Z</time>
      </trkpt>
      <trkpt lat="47.30063" lon="-2.35645">
        <ele>36.799999237061</ele>
        <time>2021-04-11T08:02:25.000Z</time>
      </trkpt>
      <trkpt lat="47.30102" lon="-2.35621">
        <ele>36.799999237061</ele>
        <time>2021-04-11T08:02:33.000Z</time>
      </trkpt>
      <trkpt lat="47.30121" lon="-2.35606">
        <ele>37.200000762939</ele>
        <time>2021-04-11T08:02:37.000Z</time>
      </trkpt>
      <trkpt lat="47.30126" lon="-2.35601">
        <ele>37.599998474121</ele>
        <time>2021-04-11T08:02:38.000Z</time>
      </trkpt>
      <trkpt lat="47.3013" lon="-2.35598">
        <ele>38</ele>
        <time>2021-04-11T08:02:39.000Z</time>
      </trkpt>
      <trkpt lat="47.30136" lon="-2.35596">
        <ele>38.400001525879</ele>
        <time>2021-04-11T08:02:40.000Z</time>
      </trkpt>
      <trkpt lat="47.30141" lon="-2.35595">
        <ele>39</ele>
        <time>2021-04-11T08:02:41.000Z</time>
      </trkpt>
      <trkpt lat="47.30147" lon="-2.35593">
        <ele>39</ele>
        <time>2021-04-11T08:02:42.000Z</time>
      </trkpt>
      <trkpt lat="47.3017" lon="-2.35582">
        <ele>39</ele>
        <time>2021-04-11T08:02:46.000Z</time>
      </trkpt>
      <trkpt lat="47.30204" lon="-2.35572">
        <ele>39</ele>
        <time>2021-04-11T08:02:52.000Z</time>
      </trkpt>
      <trkpt lat="47.30221" lon="-2.3557">
        <ele>39</ele>
        <time>2021-04-11T08:02:55.000Z</time>
      </trkpt>
      <trkpt lat="47.30233" lon="-2.35572">
        <ele>39</ele>
        <time>2021-04-11T08:02:57.000Z</time>
      </trkpt>
      <trkpt lat="47.30273" lon="-2.35579">
        <ele>39</ele>
        <time>2021-04-11T08:03:04.000Z</time>
      </trkpt>
      <trkpt lat="47.30308" lon="-2.35587">
        <ele>39</ele>
        <time>2021-04-11T08:03:10.000Z</time>
      </trkpt>
      <trkpt lat="47.30349" lon="-2.35593">
        <ele>39</ele>
        <time>2021-04-11T08:03:17.000Z</time>
      </trkpt>
      <trkpt lat="47.30361" lon="-2.35594">
        <ele>39</ele>
        <time>2021-04-11T08:03:19.000Z</time>
      </trkpt>
      <trkpt lat="47.30373" lon="-2.35594">
        <ele>39</ele>
        <time>2021-04-11T08:03:21.000Z</time>
      </trkpt>
      <trkpt lat="47.30384" lon="-2.35593">
        <ele>39</ele>
        <time>2021-04-11T08:03:23.000Z</time>
      </trkpt>
      <trkpt lat="47.30399" lon="-2.35603">
        <ele>39</ele>
        <time>2021-04-11T08:03:26.000Z</time>
      </trkpt>
      <trkpt lat="47.30407" lon="-2.35616">
        <ele>39</ele>
        <time>2021-04-11T08:03:28.000Z</time>
      </trkpt>
      <trkpt lat="47.30411" lon="-2.35622">
        <ele>39</ele>
        <time>2021-04-11T08:03:29.000Z</time>
      </trkpt>
      <trkpt lat="47.30418" lon="-2.35635">
        <ele>39</ele>
        <time>2021-04-11T08:03:31.000Z</time>
      </trkpt>
      <trkpt lat="47.30427" lon="-2.35646">
        <ele>39</ele>
        <time>2021-04-11T08:03:33.000Z</time>
      </trkpt>
      <trkpt lat="47.30443" lon="-2.3566">
        <ele>39</ele>
        <time>2021-04-11T08:03:36.000Z</time>
      </trkpt>
      <trkpt lat="47.30476" lon="-2.35687">
        <ele>39</ele>
        <time>2021-04-11T08:03:42.000Z</time>
      </trkpt>
      <trkpt lat="47.30506" lon="-2.35725">
        <ele>39</ele>
        <time>2021-04-11T08:03:48.000Z</time>
      </trkpt>
      <trkpt lat="47.30546" lon="-2.3578">
        <ele>39</ele>
        <time>2021-04-11T08:03:56.000Z</time>
      </trkpt>
      <trkpt lat="47.30585" lon="-2.35827">
        <ele>39</ele>
        <time>2021-04-11T08:04:03.000Z</time>
      </trkpt>
      <trkpt lat="47.30627" lon="-2.35877">
        <ele>39</ele>
        <time>2021-04-11T08:04:11.000Z</time>
      </trkpt>
      <trkpt lat="47.30654" lon="-2.35899">
        <ele>39</ele>
        <time>2021-04-11T08:04:16.000Z</time>
      </trkpt>
      <trkpt lat="47.30661" lon="-2.359">
        <ele>39</ele>
        <time>2021-04-11T08:04:17.000Z</time>
      </trkpt>
      <trkpt lat="47.30677" lon="-2.35888">
        <ele>39</ele>
        <time>2021-04-11T08:04:20.000Z</time>
      </trkpt>
      <trkpt lat="47.30682" lon="-2.35882">
        <ele>39</ele>
        <time>2021-04-11T08:04:21.000Z</time>
      </trkpt>
      <trkpt lat="47.30713" lon="-2.35846">
        <ele>39</ele>
        <time>2021-04-11T08:04:27.000Z</time>
      </trkpt>
      <trkpt lat="47.30741" lon="-2.35813">
        <ele>39</ele>
        <time>2021-04-11T08:04:33.000Z</time>
      </trkpt>
      <trkpt lat="47.30745" lon="-2.35808">
        <ele>39.400001525879</ele>
        <time>2021-04-11T08:04:34.000Z</time>
      </trkpt>
      <trkpt lat="47.3075" lon="-2.35804">
        <ele>39.799999237061</ele>
        <time>2021-04-11T08:04:35.000Z</time>
      </trkpt>
      <trkpt lat="47.30755" lon="-2.35801">
        <ele>40.599998474121</ele>
        <time>2021-04-11T08:04:36.000Z</time>
      </trkpt>
      <trkpt lat="47.30761" lon="-2.35799">
        <ele>41</ele>
        <time>2021-04-11T08:04:37.000Z</time>
      </trkpt>
      <trkpt lat="47.30767" lon="-2.35798">
        <ele>41</ele>
        <time>2021-04-11T08:04:38.000Z</time>
      </trkpt>
      <trkpt lat="47.3079" lon="-2.35808">
        <ele>41</ele>
        <time>2021-04-11T08:04:42.000Z</time>
      </trkpt>
      <trkpt lat="47.3083" lon="-2.35835">
        <ele>41</ele>
        <time>2021-04-11T08:04:49.000Z</time>
      </trkpt>
      <trkpt lat="47.30874" lon="-2.35863">
        <ele>41</ele>
        <time>2021-04-11T08:04:57.000Z</time>
      </trkpt>
      <trkpt lat="47.30905" lon="-2.35865">
        <ele>41</ele>
        <time>2021-04-11T08:05:02.000Z</time>
      </trkpt>
      <trkpt lat="47.30922" lon="-2.35859">
        <ele>41</ele>
        <time>2021-04-11T08:05:05.000Z</time>
      </trkpt>
      <trkpt lat="47.30934" lon="-2.35854">
        <ele>41</ele>
        <time>2021-04-11T08:05:07.000Z</time>
      </trkpt>
      <trkpt lat="47.30985" lon="-2.35827">
        <ele>41</ele>
        <time>2021-04-11T08:05:16.000Z</time>
      </trkpt>
      <trkpt lat="47.31026" lon="-2.35808">
        <ele>41</ele>
        <time>2021-04-11T08:05:23.000Z</time>
      </trkpt>
      <trkpt lat="47.31055" lon="-2.35798">
        <ele>41</ele>
        <time>2021-04-11T08:05:28.000Z</time>
      </trkpt>
      <trkpt lat="47.31067" lon="-2.35794">
        <ele>41</ele>
        <time>2021-04-11T08:05:30.000Z</time>
      </trkpt>
      <trkpt lat="47.31086" lon="-2.3579">
        <ele>40.599998474121</ele>
        <time>2021-04-11T08:05:33.000Z</time>
      </trkpt>
      <trkpt lat="47.31092" lon="-2.35788">
        <ele>40.200000762939</ele>
        <time>2021-04-11T08:05:34.000Z</time>
      </trkpt>
      <trkpt lat="47.31098" lon="-2.35787">
        <ele>39.799999237061</ele>
        <time>2021-04-11T08:05:35.000Z</time>
      </trkpt>
      <trkpt lat="47.31104" lon="-2.35786">
        <ele>39.200000762939</ele>
        <time>2021-04-11T08:05:36.000Z</time>
      </trkpt>
      <trkpt lat="47.3111" lon="-2.35784">
        <ele>38.799999237061</ele>
        <time>2021-04-11T08:05:37.000Z</time>
      </trkpt>
      <trkpt lat="47.31151" lon="-2.35773">
        <ele>38.799999237061</ele>
        <time>2021-04-11T08:05:44.000Z</time>
      </trkpt>
      <trkpt lat="47.31171" lon="-2.35752">
        <ele>38.799999237061</ele>
        <time>2021-04-11T08:05:48.000Z</time>
      </trkpt>
      <trkpt lat="47.31179" lon="-2.35718">
        <ele>38.799999237061</ele>
        <time>2021-04-11T08:05:52.000Z</time>
      </trkpt>
      <trkpt lat="47.31186" lon="-2.35687">
        <ele>38.799999237061</ele>
        <time>2021-04-11T08:05:56.000Z</time>
      </trkpt>
      <trkpt lat="47.31193" lon="-2.35673">
        <ele>38.799999237061</ele>
        <time>2021-04-11T08:05:58.000Z</time>
      </trkpt>
      <trkpt lat="47.31202" lon="-2.3566">
        <ele>38.799999237061</ele>
        <time>2021-04-11T08:06:00.000Z</time>
      </trkpt>
      <trkpt lat="47.31207" lon="-2.35655">
        <ele>38.799999237061</ele>
        <time>2021-04-11T08:06:01.000Z</time>
      </trkpt>
      <trkpt lat="47.31218" lon="-2.35645">
        <ele>38.799999237061</ele>
        <time>2021-04-11T08:06:03.000Z</time>
      </trkpt>
      <trkpt lat="47.31267" lon="-2.35603">
        <ele>38.799999237061</ele>
        <time>2021-04-11T08:06:12.000Z</time>
      </trkpt>
      <trkpt lat="47.31288" lon="-2.35586">
        <ele>38.400001525879</ele>
        <time>2021-04-11T08:06:16.000Z</time>
      </trkpt>
      <trkpt lat="47.31293" lon="-2.35582">
        <ele>38</ele>
        <time>2021-04-11T08:06:17.000Z</time>
      </trkpt>
      <trkpt lat="47.31298" lon="-2.35579">
        <ele>37.599998474121</ele>
        <time>2021-04-11T08:06:18.000Z</time>
      </trkpt>
      <trkpt lat="47.31303" lon="-2.35575">
        <ele>37.200000762939</ele>
        <time>2021-04-11T08:06:19.000Z</time>
      </trkpt>
      <trkpt lat="47.31308" lon="-2.35572">
        <ele>36.799999237061</ele>
        <time>2021-04-11T08:06:20.000Z</time>
      </trkpt>
      <trkpt lat="47.31326" lon="-2.35565">
        <ele>36.799999237061</ele>
        <time>2021-04-11T08:06:25.000Z</time>
      </trkpt>
      <trkpt lat="47.31328" lon="-2.35578">
        <ele>36.799999237061</ele>
        <time>2021-04-11T08:06:28.000Z</time>
      </trkpt>
      <trkpt lat="47.31328" lon="-2.35582">
        <ele>36.799999237061</ele>
        <time>2021-04-11T08:06:29.000Z</time>
      </trkpt>
      <trkpt lat="47.31329" lon="-2.35606">
        <ele>36.799999237061</ele>
        <time>2021-04-11T08:06:33.000Z</time>
      </trkpt>
      <trkpt lat="47.3133" lon="-2.35619">
        <ele>36.799999237061</ele>
        <time>2021-04-11T08:06:35.000Z</time>
      </trkpt>
      <trkpt lat="47.31332" lon="-2.35641">
        <ele>36.799999237061</ele>
        <time>2021-04-11T08:06:38.000Z</time>
      </trkpt>
      <trkpt lat="47.31332" lon="-2.35648">
        <ele>36.799999237061</ele>
        <time>2021-04-11T08:06:39.000Z</time>
      </trkpt>
      <trkpt lat="47.31334" lon="-2.35678">
        <ele>36.799999237061</ele>
        <time>2021-04-11T08:06:43.000Z</time>
      </trkpt>
      <trkpt lat="47.31334" lon="-2.357">
        <ele>36.799999237061</ele>
        <time>2021-04-11T08:06:46.000Z</time>
      </trkpt>
      <trkpt lat="47.31333" lon="-2.35713">
        <ele>36.799999237061</ele>
        <time>2021-04-11T08:06:48.000Z</time>
      </trkpt>
      <trkpt lat="47.31333" lon="-2.35734">
        <ele>36.799999237061</ele>
        <time>2021-04-11T08:06:51.000Z</time>
      </trkpt>
      <trkpt lat="47.31333" lon="-2.35752">
        <ele>36.799999237061</ele>
        <time>2021-04-11T08:06:54.000Z</time>
      </trkpt>
      <trkpt lat="47.31333" lon="-2.35759">
        <ele>36.799999237061</ele>
        <time>2021-04-11T08:06:55.000Z</time>
      </trkpt>
      <trkpt lat="47.31336" lon="-2.35792">
        <ele>36.799999237061</ele>
        <time>2021-04-11T08:07:00.000Z</time>
      </trkpt>
      <trkpt lat="47.31339" lon="-2.35827">
        <ele>36.799999237061</ele>
        <time>2021-04-11T08:07:05.000Z</time>
      </trkpt>
      <trkpt lat="47.31339" lon="-2.35835">
        <ele>36.799999237061</ele>
        <time>2021-04-11T08:07:06.000Z</time>
      </trkpt>
      <trkpt lat="47.3134" lon="-2.3585">
        <ele>36.799999237061</ele>
        <time>2021-04-11T08:07:08.000Z</time>
      </trkpt>
      <trkpt lat="47.31347" lon="-2.35873">
        <ele>36.799999237061</ele>
        <time>2021-04-11T08:07:11.000Z</time>
      </trkpt>
      <trkpt lat="47.3135" lon="-2.35881">
        <ele>36.799999237061</ele>
        <time>2021-04-11T08:07:12.000Z</time>
      </trkpt>
      <trkpt lat="47.31354" lon="-2.35888">
        <ele>36.400001525879</ele>
        <time>2021-04-11T08:07:13.000Z</time>
      </trkpt>
      <trkpt lat="47.31357" lon="-2.35895">
        <ele>36</ele>
        <time>2021-04-11T08:07:14.000Z</time>
      </trkpt>
      <trkpt lat="47.31361" lon="-2.35903">
        <ele>35.599998474121</ele>
        <time>2021-04-11T08:07:15.000Z</time>
      </trkpt>
      <trkpt lat="47.31364" lon="-2.3591">
        <ele>35.200000762939</ele>
        <time>2021-04-11T08:07:16.000Z</time>
      </trkpt>
      <trkpt lat="47.31368" lon="-2.35917">
        <ele>34.799999237061</ele>
        <time>2021-04-11T08:07:17.000Z</time>
      </trkpt>
      <trkpt lat="47.31387" lon="-2.35948">
        <ele>34.799999237061</ele>
        <time>2021-04-11T08:07:22.000Z</time>
      </trkpt>
      <trkpt lat="47.31394" lon="-2.35961">
        <ele>34.799999237061</ele>
        <time>2021-04-11T08:07:24.000Z</time>
      </trkpt>
      <trkpt lat="47.31401" lon="-2.35982">
        <ele>34.799999237061</ele>
        <time>2021-04-11T08:07:27.000Z</time>
      </trkpt>
      <trkpt lat="47.31403" lon="-2.35988">
        <ele>34.799999237061</ele>
        <time>2021-04-11T08:07:28.000Z</time>
      </trkpt>
      <trkpt lat="47.31413" lon="-2.3601">
        <ele>34.799999237061</ele>
        <time>2021-04-11T08:07:32.000Z</time>
      </trkpt>
      <trkpt lat="47.31419" lon="-2.36026">
        <ele>34.799999237061</ele>
        <time>2021-04-11T08:07:35.000Z</time>
      </trkpt>
      <trkpt lat="47.31424" lon="-2.36043">
        <ele>35.200000762939</ele>
        <time>2021-04-11T08:07:38.000Z</time>
      </trkpt>
      <trkpt lat="47.31426" lon="-2.36048">
        <ele>35.599998474121</ele>
        <time>2021-04-11T08:07:39.000Z</time>
      </trkpt>
      <trkpt lat="47.31428" lon="-2.36053">
        <ele>36.200000762939</ele>
        <time>2021-04-11T08:07:40.000Z</time>
      </trkpt>
      <trkpt lat="47.31429" lon="-2.36058">
        <ele>36.599998474121</ele>
        <time>2021-04-11T08:07:41.000Z</time>
      </trkpt>
      <trkpt lat="47.31431" lon="-2.36063">
        <ele>37</ele>
        <time>2021-04-11T08:07:42.000Z</time>
      </trkpt>
      <trkpt lat="47.31439" lon="-2.36086">
        <ele>37</ele>
        <time>2021-04-11T08:07:46.000Z</time>
      </trkpt>
      <trkpt lat="47.31447" lon="-2.3611">
        <ele>37</ele>
        <time>2021-04-11T08:07:51.000Z</time>
      </trkpt>
      <trkpt lat="47.31451" lon="-2.36123">
        <ele>37.799999237061</ele>
        <time>2021-04-11T08:07:54.000Z</time>
      </trkpt>
      <trkpt lat="47.31452" lon="-2.36129">
        <ele>38.200000762939</ele>
        <time>2021-04-11T08:07:55.000Z</time>
      </trkpt>
      <trkpt lat="47.31453" lon="-2.36134">
        <ele>38.599998474121</ele>
        <time>2021-04-11T08:07:56.000Z</time>
      </trkpt>
      <trkpt lat="47.31454" lon="-2.36141">
        <ele>39</ele>
        <time>2021-04-11T08:07:57.000Z</time>
      </trkpt>
      <trkpt lat="47.31456" lon="-2.36147">
        <ele>39</ele>
        <time>2021-04-11T08:07:58.000Z</time>
      </trkpt>
      <trkpt lat="47.31465" lon="-2.36165">
        <ele>39</ele>
        <time>2021-04-11T08:08:02.000Z</time>
      </trkpt>
      <trkpt lat="47.31474" lon="-2.36162">
        <ele>39</ele>
        <time>2021-04-11T08:08:05.000Z</time>
      </trkpt>
      <trkpt lat="47.31492" lon="-2.36143">
        <ele>39</ele>
        <time>2021-04-11T08:08:10.000Z</time>
      </trkpt>
      <trkpt lat="47.31514" lon="-2.36118">
        <ele>39</ele>
        <time>2021-04-11T08:08:15.000Z</time>
      </trkpt>
      <trkpt lat="47.31532" lon="-2.36099">
        <ele>39</ele>
        <time>2021-04-11T08:08:19.000Z</time>
      </trkpt>
      <trkpt lat="47.31541" lon="-2.3609">
        <ele>39</ele>
        <time>2021-04-11T08:08:21.000Z</time>
      </trkpt>
      <trkpt lat="47.31572" lon="-2.36058">
        <ele>39</ele>
        <time>2021-04-11T08:08:28.000Z</time>
      </trkpt>
      <trkpt lat="47.31603" lon="-2.36031">
        <ele>39</ele>
        <time>2021-04-11T08:08:34.000Z</time>
      </trkpt>
      <trkpt lat="47.31635" lon="-2.35995">
        <ele>39</ele>
        <time>2021-04-11T08:08:41.000Z</time>
      </trkpt>
      <trkpt lat="47.3165" lon="-2.35981">
        <ele>38.599998474121</ele>
        <time>2021-04-11T08:08:44.000Z</time>
      </trkpt>
      <trkpt lat="47.31655" lon="-2.35978">
        <ele>38.200000762939</ele>
        <time>2021-04-11T08:08:45.000Z</time>
      </trkpt>
      <trkpt lat="47.3166" lon="-2.35974">
        <ele>37.799999237061</ele>
        <time>2021-04-11T08:08:46.000Z</time>
      </trkpt>
      <trkpt lat="47.31665" lon="-2.35971">
        <ele>37.200000762939</ele>
        <time>2021-04-11T08:08:47.000Z</time>
      </trkpt>
      <trkpt lat="47.3167" lon="-2.35968">
        <ele>36.799999237061</ele>
        <time>2021-04-11T08:08:48.000Z</time>
      </trkpt>
      <trkpt lat="47.31697" lon="-2.35951">
        <ele>36.799999237061</ele>
        <time>2021-04-11T08:08:53.000Z</time>
      </trkpt>
      <trkpt lat="47.31703" lon="-2.35949">
        <ele>36.799999237061</ele>
        <time>2021-04-11T08:08:54.000Z</time>
      </trkpt>
      <trkpt lat="47.31714" lon="-2.35944">
        <ele>36.799999237061</ele>
        <time>2021-04-11T08:08:56.000Z</time>
      </trkpt>
      <trkpt lat="47.31724" lon="-2.35938">
        <ele>36.799999237061</ele>
        <time>2021-04-11T08:08:58.000Z</time>
      </trkpt>
      <trkpt lat="47.31741" lon="-2.35927">
        <ele>36.400001525879</ele>
        <time>2021-04-11T08:09:01.000Z</time>
      </trkpt>
      <trkpt lat="47.31746" lon="-2.35923">
        <ele>36</ele>
        <time>2021-04-11T08:09:02.000Z</time>
      </trkpt>
      <trkpt lat="47.31751" lon="-2.3592">
        <ele>35.599998474121</ele>
        <time>2021-04-11T08:09:03.000Z</time>
      </trkpt>
      <trkpt lat="47.31757" lon="-2.35917">
        <ele>35.200000762939</ele>
        <time>2021-04-11T08:09:04.000Z</time>
      </trkpt>
      <trkpt lat="47.31762" lon="-2.35915">
        <ele>34.799999237061</ele>
        <time>2021-04-11T08:09:05.000Z</time>
      </trkpt>
      <trkpt lat="47.31782" lon="-2.35905">
        <ele>34.400001525879</ele>
        <time>2021-04-11T08:09:09.000Z</time>
      </trkpt>
      <trkpt lat="47.31786" lon="-2.35902">
        <ele>34</ele>
        <time>2021-04-11T08:09:10.000Z</time>
      </trkpt>
      <trkpt lat="47.3179" lon="-2.35899">
        <ele>33.599998474121</ele>
        <time>2021-04-11T08:09:11.000Z</time>
      </trkpt>
      <trkpt lat="47.31795" lon="-2.35897">
        <ele>33.200000762939</ele>
        <time>2021-04-11T08:09:12.000Z</time>
      </trkpt>
      <trkpt lat="47.31799" lon="-2.35894">
        <ele>32.799999237061</ele>
        <time>2021-04-11T08:09:13.000Z</time>
      </trkpt>
      <trkpt lat="47.31807" lon="-2.35889">
        <ele>32.799999237061</ele>
        <time>2021-04-11T08:09:15.000Z</time>
      </trkpt>
      <trkpt lat="47.31816" lon="-2.35885">
        <ele>32.799999237061</ele>
        <time>2021-04-11T08:09:17.000Z</time>
      </trkpt>
      <trkpt lat="47.31825" lon="-2.35874">
        <ele>32.799999237061</ele>
        <time>2021-04-11T08:09:20.000Z</time>
      </trkpt>
      <trkpt lat="47.31825" lon="-2.3586">
        <ele>32.799999237061</ele>
        <time>2021-04-11T08:09:23.000Z</time>
      </trkpt>
      <trkpt lat="47.31821" lon="-2.35849">
        <ele>32.799999237061</ele>
        <time>2021-04-11T08:09:27.000Z</time>
      </trkpt>
      <trkpt lat="47.3182" lon="-2.35846">
        <ele>32.799999237061</ele>
        <time>2021-04-11T08:09:28.000Z</time>
      </trkpt>
      <trkpt lat="47.3181" lon="-2.35833">
        <ele>32.799999237061</ele>
        <time>2021-04-11T08:09:32.000Z</time>
      </trkpt>
      <trkpt lat="47.31792" lon="-2.3581">
        <ele>32.799999237061</ele>
        <time>2021-04-11T08:09:38.000Z</time>
      </trkpt>
      <trkpt lat="47.31783" lon="-2.35788">
        <ele>32.799999237061</ele>
        <time>2021-04-11T08:09:42.000Z</time>
      </trkpt>
      <trkpt lat="47.31782" lon="-2.35782">
        <ele>32.799999237061</ele>
        <time>2021-04-11T08:09:43.000Z</time>
      </trkpt>
      <trkpt lat="47.31781" lon="-2.35767">
        <ele>32.799999237061</ele>
        <time>2021-04-11T08:09:45.000Z</time>
      </trkpt>
      <trkpt lat="47.3178" lon="-2.35752">
        <ele>32.799999237061</ele>
        <time>2021-04-11T08:09:47.000Z</time>
      </trkpt>
      <trkpt lat="47.3178" lon="-2.35744">
        <ele>32.799999237061</ele>
        <time>2021-04-11T08:09:48.000Z</time>
      </trkpt>
      <trkpt lat="47.31779" lon="-2.35729">
        <ele>32.799999237061</ele>
        <time>2021-04-11T08:09:50.000Z</time>
      </trkpt>
      <trkpt lat="47.31779" lon="-2.35701">
        <ele>32.799999237061</ele>
        <time>2021-04-11T08:09:53.000Z</time>
      </trkpt>
      <trkpt lat="47.31781" lon="-2.35684">
        <ele>32.400001525879</ele>
        <time>2021-04-11T08:09:55.000Z</time>
      </trkpt>
      <trkpt lat="47.31781" lon="-2.35676">
        <ele>32</ele>
        <time>2021-04-11T08:09:56.000Z</time>
      </trkpt>
      <trkpt lat="47.31781" lon="-2.35668">
        <ele>31.60000038147</ele>
        <time>2021-04-11T08:09:57.000Z</time>
      </trkpt>
      <trkpt lat="47.31781" lon="-2.35661">
        <ele>30.799999237061</ele>
        <time>2021-04-11T08:09:58.000Z</time>
      </trkpt>
      <trkpt lat="47.31782" lon="-2.35656">
        <ele>30.200000762939</ele>
        <time>2021-04-11T08:09:59.000Z</time>
      </trkpt>
      <trkpt lat="47.31782" lon="-2.35652">
        <ele>29.799999237061</ele>
        <time>2021-04-11T08:10:00.000Z</time>
      </trkpt>
      <trkpt lat="47.31783" lon="-2.35648">
        <ele>29.39999961853</ele>
        <time>2021-04-11T08:10:01.000Z</time>
      </trkpt>
      <trkpt lat="47.31784" lon="-2.35645">
        <ele>29</ele>
        <time>2021-04-11T08:10:02.000Z</time>
      </trkpt>
      <trkpt lat="47.31785" lon="-2.35641">
        <ele>28.60000038147</ele>
        <time>2021-04-11T08:10:03.000Z</time>
      </trkpt>
      <trkpt lat="47.31788" lon="-2.35625">
        <ele>28.60000038147</ele>
        <time>2021-04-11T08:10:07.000Z</time>
      </trkpt>
      <trkpt lat="47.31797" lon="-2.35608">
        <ele>28.60000038147</ele>
        <time>2021-04-11T08:10:12.000Z</time>
      </trkpt>
      <trkpt lat="47.31806" lon="-2.35591">
        <ele>28.60000038147</ele>
        <time>2021-04-11T08:10:17.000Z</time>
      </trkpt>
      <trkpt lat="47.31808" lon="-2.35586">
        <ele>28.200000762939</ele>
        <time>2021-04-11T08:10:19.000Z</time>
      </trkpt>
      <trkpt lat="47.31809" lon="-2.35584">
        <ele>27.799999237061</ele>
        <time>2021-04-11T08:10:20.000Z</time>
      </trkpt>
      <trkpt lat="47.3181" lon="-2.35582">
        <ele>27.39999961853</ele>
        <time>2021-04-11T08:10:21.000Z</time>
      </trkpt>
      <trkpt lat="47.31812" lon="-2.35581">
        <ele>26.39999961853</ele>
        <time>2021-04-11T08:10:22.000Z</time>
      </trkpt>
      <trkpt lat="47.31823" lon="-2.35572">
        <ele>26.39999961853</ele>
        <time>2021-04-11T08:10:28.000Z</time>
      </trkpt>
      <trkpt lat="47.3183" lon="-2.35564">
        <ele>26.39999961853</ele>
        <time>2021-04-11T08:10:32.000Z</time>
      </trkpt>
      <trkpt lat="47.31833" lon="-2.35552">
        <ele>26.39999961853</ele>
        <time>2021-04-11T08:10:38.000Z</time>
      </trkpt>
      <trkpt lat="47.31833" lon="-2.3555">
        <ele>26.39999961853</ele>
        <time>2021-04-11T08:10:45.000Z</time>
      </trkpt>
      <trkpt lat="47.31832" lon="-2.35535">
        <ele>26.39999961853</ele>
        <time>2021-04-11T08:11:00.000Z</time>
      </trkpt>
      <trkpt lat="47.31829" lon="-2.35523">
        <ele>26.39999961853</ele>
        <time>2021-04-11T08:11:03.000Z</time>
      </trkpt>
      <trkpt lat="47.31824" lon="-2.35504">
        <ele>26.39999961853</ele>
        <time>2021-04-11T08:11:09.000Z</time>
      </trkpt>
      <trkpt lat="47.31822" lon="-2.35501">
        <ele>26.39999961853</ele>
        <time>2021-04-11T08:11:12.000Z</time>
      </trkpt>
      <trkpt lat="47.31819" lon="-2.35494">
        <ele>26.39999961853</ele>
        <time>2021-04-11T08:11:15.000Z</time>
      </trkpt>
      <trkpt lat="47.31814" lon="-2.35483">
        <ele>26.39999961853</ele>
        <time>2021-04-11T08:11:21.000Z</time>
      </trkpt>
      <trkpt lat="47.31802" lon="-2.35463">
        <ele>26.39999961853</ele>
        <time>2021-04-11T08:11:27.000Z</time>
      </trkpt>
      <trkpt lat="47.31789" lon="-2.35441">
        <ele>26.39999961853</ele>
        <time>2021-04-11T08:11:33.000Z</time>
      </trkpt>
      <trkpt lat="47.31783" lon="-2.35435">
        <ele>26.799999237061</ele>
        <time>2021-04-11T08:11:35.000Z</time>
      </trkpt>
      <trkpt lat="47.3178" lon="-2.35431">
        <ele>27.799999237061</ele>
        <time>2021-04-11T08:11:36.000Z</time>
      </trkpt>
      <trkpt lat="47.31777" lon="-2.35428">
        <ele>28.200000762939</ele>
        <time>2021-04-11T08:11:37.000Z</time>
      </trkpt>
      <trkpt lat="47.31774" lon="-2.35422">
        <ele>28.60000038147</ele>
        <time>2021-04-11T08:11:38.000Z</time>
      </trkpt>
      <trkpt lat="47.31764" lon="-2.35404">
        <ele>28.60000038147</ele>
        <time>2021-04-11T08:11:42.000Z</time>
      </trkpt>
      <trkpt lat="47.31754" lon="-2.35385">
        <ele>29</ele>
        <time>2021-04-11T08:11:47.000Z</time>
      </trkpt>
      <trkpt lat="47.31752" lon="-2.35382">
        <ele>29.39999961853</ele>
        <time>2021-04-11T08:11:48.000Z</time>
      </trkpt>
      <trkpt lat="47.31752" lon="-2.3538">
        <ele>29.799999237061</ele>
        <time>2021-04-11T08:11:49.000Z</time>
      </trkpt>
      <trkpt lat="47.31751" lon="-2.35377">
        <ele>30.200000762939</ele>
        <time>2021-04-11T08:11:50.000Z</time>
      </trkpt>
      <trkpt lat="47.31752" lon="-2.35375">
        <ele>30.60000038147</ele>
        <time>2021-04-11T08:11:51.000Z</time>
      </trkpt>
      <trkpt lat="47.31752" lon="-2.35373">
        <ele>30.60000038147</ele>
        <time>2021-04-11T08:11:53.000Z</time>
      </trkpt>
      <trkpt lat="47.31754" lon="-2.35371">
        <ele>30.60000038147</ele>
        <time>2021-04-11T08:12:00.000Z</time>
      </trkpt>
      <trkpt lat="47.31759" lon="-2.35365">
        <ele>30.60000038147</ele>
        <time>2021-04-11T08:12:02.000Z</time>
      </trkpt>
      <trkpt lat="47.31776" lon="-2.35353">
        <ele>30.60000038147</ele>
        <time>2021-04-11T08:12:07.000Z</time>
      </trkpt>
      <trkpt lat="47.31791" lon="-2.35339">
        <ele>30.60000038147</ele>
        <time>2021-04-11T08:12:13.000Z</time>
      </trkpt>
      <trkpt lat="47.31812" lon="-2.35326">
        <ele>30.60000038147</ele>
        <time>2021-04-11T08:12:18.000Z</time>
      </trkpt>
      <trkpt lat="47.31822" lon="-2.3532">
        <ele>30.200000762939</ele>
        <time>2021-04-11T08:12:20.000Z</time>
      </trkpt>
      <trkpt lat="47.31827" lon="-2.35316">
        <ele>29.799999237061</ele>
        <time>2021-04-11T08:12:21.000Z</time>
      </trkpt>
      <trkpt lat="47.31832" lon="-2.35313">
        <ele>29.39999961853</ele>
        <time>2021-04-11T08:12:22.000Z</time>
      </trkpt>
      <trkpt lat="47.31837" lon="-2.35309">
        <ele>29</ele>
        <time>2021-04-11T08:12:23.000Z</time>
      </trkpt>
      <trkpt lat="47.31842" lon="-2.35305">
        <ele>28.60000038147</ele>
        <time>2021-04-11T08:12:24.000Z</time>
      </trkpt>
      <trkpt lat="47.31846" lon="-2.35301">
        <ele>28.60000038147</ele>
        <time>2021-04-11T08:12:25.000Z</time>
      </trkpt>
      <trkpt lat="47.31873" lon="-2.35279">
        <ele>28.60000038147</ele>
        <time>2021-04-11T08:12:31.000Z</time>
      </trkpt>
      <trkpt lat="47.31886" lon="-2.35267">
        <ele>28.200000762939</ele>
        <time>2021-04-11T08:12:34.000Z</time>
      </trkpt>
      <trkpt lat="47.31889" lon="-2.35264">
        <ele>27.799999237061</ele>
        <time>2021-04-11T08:12:35.000Z</time>
      </trkpt>
      <trkpt lat="47.31893" lon="-2.3526">
        <ele>27.200000762939</ele>
        <time>2021-04-11T08:12:36.000Z</time>
      </trkpt>
      <trkpt lat="47.31897" lon="-2.35256">
        <ele>26.799999237061</ele>
        <time>2021-04-11T08:12:37.000Z</time>
      </trkpt>
      <trkpt lat="47.31901" lon="-2.35251">
        <ele>26.39999961853</ele>
        <time>2021-04-11T08:12:38.000Z</time>
      </trkpt>
      <trkpt lat="47.31927" lon="-2.35225">
        <ele>26.39999961853</ele>
        <time>2021-04-11T08:12:44.000Z</time>
      </trkpt>
      <trkpt lat="47.31957" lon="-2.35198">
        <ele>26.39999961853</ele>
        <time>2021-04-11T08:12:50.000Z</time>
      </trkpt>
      <trkpt lat="47.31989" lon="-2.35163">
        <ele>26.39999961853</ele>
        <time>2021-04-11T08:12:57.000Z</time>
      </trkpt>
      <trkpt lat="47.31994" lon="-2.35158">
        <ele>26</ele>
        <time>2021-04-11T08:12:58.000Z</time>
      </trkpt>
      <trkpt lat="47.31998" lon="-2.35153">
        <ele>25.60000038147</ele>
        <time>2021-04-11T08:12:59.000Z</time>
      </trkpt>
      <trkpt lat="47.32003" lon="-2.35147">
        <ele>25.200000762939</ele>
        <time>2021-04-11T08:13:00.000Z</time>
      </trkpt>
      <trkpt lat="47.32008" lon="-2.35143">
        <ele>24.799999237061</ele>
        <time>2021-04-11T08:13:01.000Z</time>
      </trkpt>
      <trkpt lat="47.32013" lon="-2.35138">
        <ele>24.39999961853</ele>
        <time>2021-04-11T08:13:02.000Z</time>
      </trkpt>
      <trkpt lat="47.32017" lon="-2.35133">
        <ele>24.39999961853</ele>
        <time>2021-04-11T08:13:03.000Z</time>
      </trkpt>
      <trkpt lat="47.3202" lon="-2.35128">
        <ele>24.39999961853</ele>
        <time>2021-04-11T08:13:04.000Z</time>
      </trkpt>
      <trkpt lat="47.32028" lon="-2.35105">
        <ele>24.39999961853</ele>
        <time>2021-04-11T08:13:08.000Z</time>
      </trkpt>
      <trkpt lat="47.32029" lon="-2.35085">
        <ele>24.39999961853</ele>
        <time>2021-04-11T08:13:12.000Z</time>
      </trkpt>
      <trkpt lat="47.32031" lon="-2.35064">
        <ele>24.39999961853</ele>
        <time>2021-04-11T08:13:16.000Z</time>
      </trkpt>
      <trkpt lat="47.32045" lon="-2.35058">
        <ele>24.39999961853</ele>
        <time>2021-04-11T08:13:20.000Z</time>
      </trkpt>
      <trkpt lat="47.32051" lon="-2.35059">
        <ele>24.39999961853</ele>
        <time>2021-04-11T08:13:21.000Z</time>
      </trkpt>
      <trkpt lat="47.32072" lon="-2.35059">
        <ele>24.39999961853</ele>
        <time>2021-04-11T08:13:25.000Z</time>
      </trkpt>
      <trkpt lat="47.32108" lon="-2.3506">
        <ele>24.39999961853</ele>
        <time>2021-04-11T08:13:32.000Z</time>
      </trkpt>
      <trkpt lat="47.32138" lon="-2.35059">
        <ele>24.39999961853</ele>
        <time>2021-04-11T08:13:39.000Z</time>
      </trkpt>
      <trkpt lat="47.32171" lon="-2.35056">
        <ele>24.39999961853</ele>
        <time>2021-04-11T08:13:46.000Z</time>
      </trkpt>
      <trkpt lat="47.32181" lon="-2.35055">
        <ele>24.39999961853</ele>
        <time>2021-04-11T08:13:48.000Z</time>
      </trkpt>
      <trkpt lat="47.3219" lon="-2.35054">
        <ele>24.39999961853</ele>
        <time>2021-04-11T08:13:50.000Z</time>
      </trkpt>
      <trkpt lat="47.32205" lon="-2.35051">
        <ele>24.39999961853</ele>
        <time>2021-04-11T08:13:53.000Z</time>
      </trkpt>
      <trkpt lat="47.32221" lon="-2.3505">
        <ele>24.39999961853</ele>
        <time>2021-04-11T08:13:56.000Z</time>
      </trkpt>
      <trkpt lat="47.32236" lon="-2.3505">
        <ele>24.799999237061</ele>
        <time>2021-04-11T08:13:59.000Z</time>
      </trkpt>
      <trkpt lat="47.32241" lon="-2.35049">
        <ele>25.200000762939</ele>
        <time>2021-04-11T08:14:00.000Z</time>
      </trkpt>
      <trkpt lat="47.32246" lon="-2.35048">
        <ele>25.60000038147</ele>
        <time>2021-04-11T08:14:01.000Z</time>
      </trkpt>
      <trkpt lat="47.32251" lon="-2.35047">
        <ele>26</ele>
        <time>2021-04-11T08:14:02.000Z</time>
      </trkpt>
      <trkpt lat="47.32256" lon="-2.35046">
        <ele>26.39999961853</ele>
        <time>2021-04-11T08:14:03.000Z</time>
      </trkpt>
      <trkpt lat="47.32283" lon="-2.35045">
        <ele>26.39999961853</ele>
        <time>2021-04-11T08:14:08.000Z</time>
      </trkpt>
      <trkpt lat="47.32315" lon="-2.35045">
        <ele>26.799999237061</ele>
        <time>2021-04-11T08:14:14.000Z</time>
      </trkpt>
      <trkpt lat="47.3232" lon="-2.35045">
        <ele>27.39999961853</ele>
        <time>2021-04-11T08:14:15.000Z</time>
      </trkpt>
      <trkpt lat="47.32326" lon="-2.35046">
        <ele>27.799999237061</ele>
        <time>2021-04-11T08:14:16.000Z</time>
      </trkpt>
      <trkpt lat="47.32331" lon="-2.35046">
        <ele>28.200000762939</ele>
        <time>2021-04-11T08:14:17.000Z</time>
      </trkpt>
      <trkpt lat="47.32337" lon="-2.35047">
        <ele>28.60000038147</ele>
        <time>2021-04-11T08:14:18.000Z</time>
      </trkpt>
      <trkpt lat="47.32347" lon="-2.35047">
        <ele>28.60000038147</ele>
        <time>2021-04-11T08:14:20.000Z</time>
      </trkpt>
      <trkpt lat="47.32372" lon="-2.35048">
        <ele>28.60000038147</ele>
        <time>2021-04-11T08:14:26.000Z</time>
      </trkpt>
      <trkpt lat="47.32393" lon="-2.35045">
        <ele>28.60000038147</ele>
        <time>2021-04-11T08:14:31.000Z</time>
      </trkpt>
      <trkpt lat="47.32412" lon="-2.35043">
        <ele>28.60000038147</ele>
        <time>2021-04-11T08:14:35.000Z</time>
      </trkpt>
      <trkpt lat="47.3242" lon="-2.35043">
        <ele>28.60000038147</ele>
        <time>2021-04-11T08:14:37.000Z</time>
      </trkpt>
      <trkpt lat="47.32448" lon="-2.35037">
        <ele>28.60000038147</ele>
        <time>2021-04-11T08:14:44.000Z</time>
      </trkpt>
      <trkpt lat="47.32481" lon="-2.35029">
        <ele>28.60000038147</ele>
        <time>2021-04-11T08:14:51.000Z</time>
      </trkpt>
      <trkpt lat="47.32511" lon="-2.35024">
        <ele>28.60000038147</ele>
        <time>2021-04-11T08:14:58.000Z</time>
      </trkpt>
      <trkpt lat="47.3254" lon="-2.3502">
        <ele>28.60000038147</ele>
        <time>2021-04-11T08:15:04.000Z</time>
      </trkpt>
      <trkpt lat="47.32563" lon="-2.35009">
        <ele>28.60000038147</ele>
        <time>2021-04-11T08:15:09.000Z</time>
      </trkpt>
      <trkpt lat="47.32568" lon="-2.35007">
        <ele>28.60000038147</ele>
        <time>2021-04-11T08:15:10.000Z</time>
      </trkpt>
      <trkpt lat="47.32592" lon="-2.34994">
        <ele>28.60000038147</ele>
        <time>2021-04-11T08:15:15.000Z</time>
      </trkpt>
      <trkpt lat="47.32597" lon="-2.34992">
        <ele>28.60000038147</ele>
        <time>2021-04-11T08:15:16.000Z</time>
      </trkpt>
      <trkpt lat="47.32633" lon="-2.34974">
        <ele>28.60000038147</ele>
        <time>2021-04-11T08:15:23.000Z</time>
      </trkpt>
      <trkpt lat="47.32645" lon="-2.34968">
        <ele>28.60000038147</ele>
        <time>2021-04-11T08:15:27.000Z</time>
      </trkpt>
      <trkpt lat="47.32648" lon="-2.34965">
        <ele>28.60000038147</ele>
        <time>2021-04-11T08:15:30.000Z</time>
      </trkpt>
      <trkpt lat="47.3265" lon="-2.34963">
        <ele>28.60000038147</ele>
        <time>2021-04-11T08:15:34.000Z</time>
      </trkpt>
      <trkpt lat="47.32663" lon="-2.34954">
        <ele>28.60000038147</ele>
        <time>2021-04-11T08:15:39.000Z</time>
      </trkpt>
      <trkpt lat="47.32673" lon="-2.34944">
        <ele>28.60000038147</ele>
        <time>2021-04-11T08:15:42.000Z</time>
      </trkpt>
      <trkpt lat="47.32682" lon="-2.34937">
        <ele>28.60000038147</ele>
        <time>2021-04-11T08:15:44.000Z</time>
      </trkpt>
      <trkpt lat="47.32692" lon="-2.3493">
        <ele>28.200000762939</ele>
        <time>2021-04-11T08:15:46.000Z</time>
      </trkpt>
      <trkpt lat="47.32697" lon="-2.34927">
        <ele>27.799999237061</ele>
        <time>2021-04-11T08:15:47.000Z</time>
      </trkpt>
      <trkpt lat="47.32702" lon="-2.34923">
        <ele>27.39999961853</ele>
        <time>2021-04-11T08:15:48.000Z</time>
      </trkpt>
      <trkpt lat="47.32707" lon="-2.3492">
        <ele>27</ele>
        <time>2021-04-11T08:15:49.000Z</time>
      </trkpt>
      <trkpt lat="47.32712" lon="-2.34916">
        <ele>26.60000038147</ele>
        <time>2021-04-11T08:15:50.000Z</time>
      </trkpt>
      <trkpt lat="47.32717" lon="-2.34912">
        <ele>26.60000038147</ele>
        <time>2021-04-11T08:15:51.000Z</time>
      </trkpt>
      <trkpt lat="47.32753" lon="-2.34886">
        <ele>26.60000038147</ele>
        <time>2021-04-11T08:15:58.000Z</time>
      </trkpt>
      <trkpt lat="47.32786" lon="-2.34863">
        <ele>26.60000038147</ele>
        <time>2021-04-11T08:16:05.000Z</time>
      </trkpt>
      <trkpt lat="47.3281" lon="-2.34844">
        <ele>26.60000038147</ele>
        <time>2021-04-11T08:16:11.000Z</time>
      </trkpt>
      <trkpt lat="47.32839" lon="-2.34824">
        <ele>26.200000762939</ele>
        <time>2021-04-11T08:16:17.000Z</time>
      </trkpt>
      <trkpt lat="47.32844" lon="-2.34821">
        <ele>25.799999237061</ele>
        <time>2021-04-11T08:16:18.000Z</time>
      </trkpt>
      <trkpt lat="47.32849" lon="-2.34818">
        <ele>25.200000762939</ele>
        <time>2021-04-11T08:16:19.000Z</time>
      </trkpt>
      <trkpt lat="47.32854" lon="-2.34814">
        <ele>24.799999237061</ele>
        <time>2021-04-11T08:16:20.000Z</time>
      </trkpt>
      <trkpt lat="47.32859" lon="-2.3481">
        <ele>24.39999961853</ele>
        <time>2021-04-11T08:16:21.000Z</time>
      </trkpt>
      <trkpt lat="47.32875" lon="-2.34798">
        <ele>24.39999961853</ele>
        <time>2021-04-11T08:16:24.000Z</time>
      </trkpt>
      <trkpt lat="47.32906" lon="-2.34779">
        <ele>24.39999961853</ele>
        <time>2021-04-11T08:16:29.000Z</time>
      </trkpt>
      <trkpt lat="47.32929" lon="-2.34766">
        <ele>24.39999961853</ele>
        <time>2021-04-11T08:16:33.000Z</time>
      </trkpt>
      <trkpt lat="47.32942" lon="-2.3476">
        <ele>24.39999961853</ele>
        <time>2021-04-11T08:16:35.000Z</time>
      </trkpt>
      <trkpt lat="47.32949" lon="-2.34756">
        <ele>24.39999961853</ele>
        <time>2021-04-11T08:16:36.000Z</time>
      </trkpt>
      <trkpt lat="47.32955" lon="-2.34752">
        <ele>24</ele>
        <time>2021-04-11T08:16:37.000Z</time>
      </trkpt>
      <trkpt lat="47.32962" lon="-2.34747">
        <ele>23.60000038147</ele>
        <time>2021-04-11T08:16:38.000Z</time>
      </trkpt>
      <trkpt lat="47.32969" lon="-2.34742">
        <ele>23.200000762939</ele>
        <time>2021-04-11T08:16:39.000Z</time>
      </trkpt>
      <trkpt lat="47.32975" lon="-2.34737">
        <ele>22.799999237061</ele>
        <time>2021-04-11T08:16:40.000Z</time>
      </trkpt>
      <trkpt lat="47.32982" lon="-2.34732">
        <ele>22.39999961853</ele>
        <time>2021-04-11T08:16:41.000Z</time>
      </trkpt>
      <trkpt lat="47.33008" lon="-2.34711">
        <ele>22.39999961853</ele>
        <time>2021-04-11T08:16:45.000Z</time>
      </trkpt>
      <trkpt lat="47.33037" lon="-2.34684">
        <ele>22.39999961853</ele>
        <time>2021-04-11T08:16:50.000Z</time>
      </trkpt>
      <trkpt lat="47.33043" lon="-2.34679">
        <ele>22</ele>
        <time>2021-04-11T08:16:51.000Z</time>
      </trkpt>
      <trkpt lat="47.33048" lon="-2.34674">
        <ele>21.60000038147</ele>
        <time>2021-04-11T08:16:52.000Z</time>
      </trkpt>
      <trkpt lat="47.33053" lon="-2.34668">
        <ele>21.200000762939</ele>
        <time>2021-04-11T08:16:53.000Z</time>
      </trkpt>
      <trkpt lat="47.33059" lon="-2.34662">
        <ele>20.799999237061</ele>
        <time>2021-04-11T08:16:54.000Z</time>
      </trkpt>
      <trkpt lat="47.33065" lon="-2.34657">
        <ele>20.39999961853</ele>
        <time>2021-04-11T08:16:55.000Z</time>
      </trkpt>
      <trkpt lat="47.33071" lon="-2.34651">
        <ele>20.39999961853</ele>
        <time>2021-04-11T08:16:56.000Z</time>
      </trkpt>
      <trkpt lat="47.33096" lon="-2.34623">
        <ele>20.39999961853</ele>
        <time>2021-04-11T08:17:01.000Z</time>
      </trkpt>
      <trkpt lat="47.33135" lon="-2.34579">
        <ele>20.39999961853</ele>
        <time>2021-04-11T08:17:08.000Z</time>
      </trkpt>
      <trkpt lat="47.33175" lon="-2.3454">
        <ele>20.39999961853</ele>
        <time>2021-04-11T08:17:15.000Z</time>
      </trkpt>
      <trkpt lat="47.33206" lon="-2.34509">
        <ele>20.39999961853</ele>
        <time>2021-04-11T08:17:21.000Z</time>
      </trkpt>
      <trkpt lat="47.33239" lon="-2.34477">
        <ele>20.39999961853</ele>
        <time>2021-04-11T08:17:28.000Z</time>
      </trkpt>
      <trkpt lat="47.33244" lon="-2.34474">
        <ele>20.39999961853</ele>
        <time>2021-04-11T08:17:29.000Z</time>
      </trkpt>
      <trkpt lat="47.3326" lon="-2.3447">
        <ele>20.39999961853</ele>
        <time>2021-04-11T08:17:32.000Z</time>
      </trkpt>
      <trkpt lat="47.33271" lon="-2.34472">
        <ele>20.39999961853</ele>
        <time>2021-04-11T08:17:34.000Z</time>
      </trkpt>
      <trkpt lat="47.33288" lon="-2.34482">
        <ele>20.39999961853</ele>
        <time>2021-04-11T08:17:37.000Z</time>
      </trkpt>
      <trkpt lat="47.33315" lon="-2.34498">
        <ele>20.39999961853</ele>
        <time>2021-04-11T08:17:42.000Z</time>
      </trkpt>
      <trkpt lat="47.3332" lon="-2.34501">
        <ele>20.39999961853</ele>
        <time>2021-04-11T08:17:43.000Z</time>
      </trkpt>
      <trkpt lat="47.33338" lon="-2.34507">
        <ele>20.39999961853</ele>
        <time>2021-04-11T08:17:47.000Z</time>
      </trkpt>
      <trkpt lat="47.33346" lon="-2.34501">
        <ele>20.39999961853</ele>
        <time>2021-04-11T08:17:49.000Z</time>
      </trkpt>
      <trkpt lat="47.33353" lon="-2.34488">
        <ele>20.799999237061</ele>
        <time>2021-04-11T08:17:52.000Z</time>
      </trkpt>
      <trkpt lat="47.33355" lon="-2.34484">
        <ele>21.200000762939</ele>
        <time>2021-04-11T08:17:53.000Z</time>
      </trkpt>
      <trkpt lat="47.33357" lon="-2.34479">
        <ele>21.60000038147</ele>
        <time>2021-04-11T08:17:54.000Z</time>
      </trkpt>
      <trkpt lat="47.33358" lon="-2.34474">
        <ele>22</ele>
        <time>2021-04-11T08:17:55.000Z</time>
      </trkpt>
      <trkpt lat="47.3336" lon="-2.34469">
        <ele>22.39999961853</ele>
        <time>2021-04-11T08:17:56.000Z</time>
      </trkpt>
      <trkpt lat="47.33368" lon="-2.34448">
        <ele>22.39999961853</ele>
        <time>2021-04-11T08:18:00.000Z</time>
      </trkpt>
      <trkpt lat="47.33382" lon="-2.34407">
        <ele>22.39999961853</ele>
        <time>2021-04-11T08:18:08.000Z</time>
      </trkpt>
      <trkpt lat="47.33402" lon="-2.3435">
        <ele>22.39999961853</ele>
        <time>2021-04-11T08:18:17.000Z</time>
      </trkpt>
      <trkpt lat="47.33418" lon="-2.34298">
        <ele>22.39999961853</ele>
        <time>2021-04-11T08:18:24.000Z</time>
      </trkpt>
      <trkpt lat="47.33421" lon="-2.3429">
        <ele>22.39999961853</ele>
        <time>2021-04-11T08:18:25.000Z</time>
      </trkpt>
      <trkpt lat="47.33431" lon="-2.34258">
        <ele>22.39999961853</ele>
        <time>2021-04-11T08:18:29.000Z</time>
      </trkpt>
      <trkpt lat="47.33452" lon="-2.34221">
        <ele>22.39999961853</ele>
        <time>2021-04-11T08:18:34.000Z</time>
      </trkpt>
      <trkpt lat="47.33485" lon="-2.34185">
        <ele>22.39999961853</ele>
        <time>2021-04-11T08:18:40.000Z</time>
      </trkpt>
      <trkpt lat="47.33521" lon="-2.34158">
        <ele>22.39999961853</ele>
        <time>2021-04-11T08:18:46.000Z</time>
      </trkpt>
      <trkpt lat="47.33557" lon="-2.34135">
        <ele>22.39999961853</ele>
        <time>2021-04-11T08:18:52.000Z</time>
      </trkpt>
      <trkpt lat="47.33606" lon="-2.34098">
        <ele>22.39999961853</ele>
        <time>2021-04-11T08:19:00.000Z</time>
      </trkpt>
      <trkpt lat="47.33648" lon="-2.34063">
        <ele>22.39999961853</ele>
        <time>2021-04-11T08:19:07.000Z</time>
      </trkpt>
      <trkpt lat="47.33692" lon="-2.34024">
        <ele>22</ele>
        <time>2021-04-11T08:19:14.000Z</time>
      </trkpt>
      <trkpt lat="47.33699" lon="-2.34019">
        <ele>21.60000038147</ele>
        <time>2021-04-11T08:19:15.000Z</time>
      </trkpt>
      <trkpt lat="47.33705" lon="-2.34013">
        <ele>21.200000762939</ele>
        <time>2021-04-11T08:19:16.000Z</time>
      </trkpt>
      <trkpt lat="47.33712" lon="-2.34008">
        <ele>20.799999237061</ele>
        <time>2021-04-11T08:19:17.000Z</time>
      </trkpt>
      <trkpt lat="47.33718" lon="-2.34003">
        <ele>20.39999961853</ele>
        <time>2021-04-11T08:19:18.000Z</time>
      </trkpt>
      <trkpt lat="47.33745" lon="-2.33981">
        <ele>20.39999961853</ele>
        <time>2021-04-11T08:19:22.000Z</time>
      </trkpt>
      <trkpt lat="47.33777" lon="-2.33955">
        <ele>20</ele>
        <time>2021-04-11T08:19:27.000Z</time>
      </trkpt>
      <trkpt lat="47.33783" lon="-2.3395">
        <ele>19.60000038147</ele>
        <time>2021-04-11T08:19:28.000Z</time>
      </trkpt>
      <trkpt lat="47.3379" lon="-2.33945">
        <ele>19.200000762939</ele>
        <time>2021-04-11T08:19:29.000Z</time>
      </trkpt>
      <trkpt lat="47.33796" lon="-2.3394">
        <ele>18.799999237061</ele>
        <time>2021-04-11T08:19:30.000Z</time>
      </trkpt>
      <trkpt lat="47.33802" lon="-2.33935">
        <ele>18.39999961853</ele>
        <time>2021-04-11T08:19:31.000Z</time>
      </trkpt>
      <trkpt lat="47.33833" lon="-2.33912">
        <ele>18.39999961853</ele>
        <time>2021-04-11T08:19:37.000Z</time>
      </trkpt>
      <trkpt lat="47.3386" lon="-2.33889">
        <ele>18.39999961853</ele>
        <time>2021-04-11T08:19:43.000Z</time>
      </trkpt>
      <trkpt lat="47.33867" lon="-2.33883">
        <ele>18</ele>
        <time>2021-04-11T08:19:45.000Z</time>
      </trkpt>
      <trkpt lat="47.33868" lon="-2.33882">
        <ele>17.60000038147</ele>
        <time>2021-04-11T08:19:46.000Z</time>
      </trkpt>
      <trkpt lat="47.3387" lon="-2.33881">
        <ele>17.200000762939</ele>
        <time>2021-04-11T08:19:47.000Z</time>
      </trkpt>
      <trkpt lat="47.33872" lon="-2.3388">
        <ele>16.799999237061</ele>
        <time>2021-04-11T08:19:48.000Z</time>
      </trkpt>
      <trkpt lat="47.33873" lon="-2.33879">
        <ele>16.39999961853</ele>
        <time>2021-04-11T08:19:49.000Z</time>
      </trkpt>
      <trkpt lat="47.33874" lon="-2.33876">
        <ele>16.39999961853</ele>
        <time>2021-04-11T08:19:50.000Z</time>
      </trkpt>
      <trkpt lat="47.3388" lon="-2.33871">
        <ele>16.39999961853</ele>
        <time>2021-04-11T08:19:52.000Z</time>
      </trkpt>
      <trkpt lat="47.33893" lon="-2.33851">
        <ele>16.39999961853</ele>
        <time>2021-04-11T08:19:56.000Z</time>
      </trkpt>
      <trkpt lat="47.33905" lon="-2.3383">
        <ele>16.39999961853</ele>
        <time>2021-04-11T08:20:00.000Z</time>
      </trkpt>
      <trkpt lat="47.33911" lon="-2.3382">
        <ele>16.39999961853</ele>
        <time>2021-04-11T08:20:02.000Z</time>
      </trkpt>
      <trkpt lat="47.33932" lon="-2.3378">
        <ele>16.39999961853</ele>
        <time>2021-04-11T08:20:09.000Z</time>
      </trkpt>
      <trkpt lat="47.33957" lon="-2.33739">
        <ele>16.39999961853</ele>
        <time>2021-04-11T08:20:16.000Z</time>
      </trkpt>
      <trkpt lat="47.33963" lon="-2.33727">
        <ele>16.39999961853</ele>
        <time>2021-04-11T08:20:18.000Z</time>
      </trkpt>
      <trkpt lat="47.33965" lon="-2.33719">
        <ele>15.800000190735</ele>
        <time>2021-04-11T08:20:19.000Z</time>
      </trkpt>
      <trkpt lat="47.33968" lon="-2.33712">
        <ele>15.39999961853</ele>
        <time>2021-04-11T08:20:20.000Z</time>
      </trkpt>
      <trkpt lat="47.33971" lon="-2.33705">
        <ele>15</ele>
        <time>2021-04-11T08:20:21.000Z</time>
      </trkpt>
      <trkpt lat="47.33973" lon="-2.33699">
        <ele>14.60000038147</ele>
        <time>2021-04-11T08:20:22.000Z</time>
      </trkpt>
      <trkpt lat="47.33976" lon="-2.33691">
        <ele>14.199999809265</ele>
        <time>2021-04-11T08:20:23.000Z</time>
      </trkpt>
      <trkpt lat="47.3399" lon="-2.33662">
        <ele>14.199999809265</ele>
        <time>2021-04-11T08:20:27.000Z</time>
      </trkpt>
      <trkpt lat="47.33995" lon="-2.33656">
        <ele>14.199999809265</ele>
        <time>2021-04-11T08:20:28.000Z</time>
      </trkpt>
      <trkpt lat="47.34007" lon="-2.33634">
        <ele>14.199999809265</ele>
        <time>2021-04-11T08:20:31.000Z</time>
      </trkpt>
      <trkpt lat="47.34036" lon="-2.33586">
        <ele>14.199999809265</ele>
        <time>2021-04-11T08:20:38.000Z</time>
      </trkpt>
      <trkpt lat="47.34044" lon="-2.33573">
        <ele>13.800000190735</ele>
        <time>2021-04-11T08:20:40.000Z</time>
      </trkpt>
      <trkpt lat="47.34049" lon="-2.33567">
        <ele>13.39999961853</ele>
        <time>2021-04-11T08:20:41.000Z</time>
      </trkpt>
      <trkpt lat="47.34053" lon="-2.33559">
        <ele>13</ele>
        <time>2021-04-11T08:20:42.000Z</time>
      </trkpt>
      <trkpt lat="47.34056" lon="-2.33553">
        <ele>12.60000038147</ele>
        <time>2021-04-11T08:20:43.000Z</time>
      </trkpt>
      <trkpt lat="47.3406" lon="-2.33546">
        <ele>12</ele>
        <time>2021-04-11T08:20:44.000Z</time>
      </trkpt>
      <trkpt lat="47.34064" lon="-2.33541">
        <ele>12</ele>
        <time>2021-04-11T08:20:45.000Z</time>
      </trkpt>
      <trkpt lat="47.34078" lon="-2.33521">
        <ele>12</ele>
        <time>2021-04-11T08:20:49.000Z</time>
      </trkpt>
      <trkpt lat="47.34082" lon="-2.33514">
        <ele>12</ele>
        <time>2021-04-11T08:20:50.000Z</time>
      </trkpt>
      <trkpt lat="47.34094" lon="-2.33498">
        <ele>12</ele>
        <time>2021-04-11T08:20:54.000Z</time>
      </trkpt>
      <trkpt lat="47.3411" lon="-2.33471">
        <ele>12</ele>
        <time>2021-04-11T08:21:01.000Z</time>
      </trkpt>
      <trkpt lat="47.34125" lon="-2.33447">
        <ele>12</ele>
        <time>2021-04-11T08:21:05.000Z</time>
      </trkpt>
      <trkpt lat="47.34132" lon="-2.33434">
        <ele>12</ele>
        <time>2021-04-11T08:21:07.000Z</time>
      </trkpt>
      <trkpt lat="47.34136" lon="-2.33428">
        <ele>11.60000038147</ele>
        <time>2021-04-11T08:21:08.000Z</time>
      </trkpt>
      <trkpt lat="47.34141" lon="-2.33423">
        <ele>11.199999809265</ele>
        <time>2021-04-11T08:21:09.000Z</time>
      </trkpt>
      <trkpt lat="47.34146" lon="-2.33416">
        <ele>10.800000190735</ele>
        <time>2021-04-11T08:21:10.000Z</time>
      </trkpt>
      <trkpt lat="47.3415" lon="-2.3341">
        <ele>10.39999961853</ele>
        <time>2021-04-11T08:21:11.000Z</time>
      </trkpt>
      <trkpt lat="47.34153" lon="-2.33403">
        <ele>10</ele>
        <time>2021-04-11T08:21:12.000Z</time>
      </trkpt>
      <trkpt lat="47.34159" lon="-2.33388">
        <ele>10</ele>
        <time>2021-04-11T08:21:14.000Z</time>
      </trkpt>
      <trkpt lat="47.34164" lon="-2.33371">
        <ele>10</ele>
        <time>2021-04-11T08:21:16.000Z</time>
      </trkpt>
      <trkpt lat="47.34174" lon="-2.33336">
        <ele>10</ele>
        <time>2021-04-11T08:21:20.000Z</time>
      </trkpt>
      <trkpt lat="47.34188" lon="-2.33292">
        <ele>10</ele>
        <time>2021-04-11T08:21:25.000Z</time>
      </trkpt>
      <trkpt lat="47.34207" lon="-2.33229">
        <ele>10</ele>
        <time>2021-04-11T08:21:32.000Z</time>
      </trkpt>
      <trkpt lat="47.34223" lon="-2.33182">
        <ele>9.6000003814697</ele>
        <time>2021-04-11T08:21:37.000Z</time>
      </trkpt>
      <trkpt lat="47.34226" lon="-2.33173">
        <ele>9.1999998092651</ele>
        <time>2021-04-11T08:21:38.000Z</time>
      </trkpt>
      <trkpt lat="47.34229" lon="-2.33165">
        <ele>8.8000001907349</ele>
        <time>2021-04-11T08:21:39.000Z</time>
      </trkpt>
      <trkpt lat="47.34232" lon="-2.33155">
        <ele>8.3999996185303</ele>
        <time>2021-04-11T08:21:40.000Z</time>
      </trkpt>
      <trkpt lat="47.34235" lon="-2.33147">
        <ele>8</ele>
        <time>2021-04-11T08:21:41.000Z</time>
      </trkpt>
      <trkpt lat="47.34247" lon="-2.33109">
        <ele>8</ele>
        <time>2021-04-11T08:21:45.000Z</time>
      </trkpt>
      <trkpt lat="47.34256" lon="-2.33085">
        <ele>8</ele>
        <time>2021-04-11T08:21:48.000Z</time>
      </trkpt>
      <trkpt lat="47.34265" lon="-2.33074">
        <ele>8</ele>
        <time>2021-04-11T08:21:50.000Z</time>
      </trkpt>
      <trkpt lat="47.34283" lon="-2.33062">
        <ele>8</ele>
        <time>2021-04-11T08:21:53.000Z</time>
      </trkpt>
      <trkpt lat="47.34289" lon="-2.33059">
        <ele>8</ele>
        <time>2021-04-11T08:21:54.000Z</time>
      </trkpt>
      <trkpt lat="47.34296" lon="-2.33056">
        <ele>8</ele>
        <time>2021-04-11T08:21:55.000Z</time>
      </trkpt>
      <trkpt lat="47.34333" lon="-2.33042">
        <ele>8</ele>
        <time>2021-04-11T08:22:01.000Z</time>
      </trkpt>
      <trkpt lat="47.34344" lon="-2.33038">
        <ele>7.4000000953674</ele>
        <time>2021-04-11T08:22:03.000Z</time>
      </trkpt>
      <trkpt lat="47.34349" lon="-2.33034">
        <ele>7</ele>
        <time>2021-04-11T08:22:04.000Z</time>
      </trkpt>
      <trkpt lat="47.34354" lon="-2.33029">
        <ele>6.5999999046326</ele>
        <time>2021-04-11T08:22:05.000Z</time>
      </trkpt>
      <trkpt lat="47.34357" lon="-2.33024">
        <ele>6.1999998092651</ele>
        <time>2021-04-11T08:22:06.000Z</time>
      </trkpt>
      <trkpt lat="47.3436" lon="-2.33016">
        <ele>5.8000001907349</ele>
        <time>2021-04-11T08:22:07.000Z</time>
      </trkpt>
      <trkpt lat="47.34362" lon="-2.33008">
        <ele>5.8000001907349</ele>
        <time>2021-04-11T08:22:08.000Z</time>
      </trkpt>
      <trkpt lat="47.3436" lon="-2.3299">
        <ele>5.8000001907349</ele>
        <time>2021-04-11T08:22:10.000Z</time>
      </trkpt>
      <trkpt lat="47.34359" lon="-2.32982">
        <ele>5.8000001907349</ele>
        <time>2021-04-11T08:22:11.000Z</time>
      </trkpt>
      <trkpt lat="47.34347" lon="-2.32933">
        <ele>5.8000001907349</ele>
        <time>2021-04-11T08:22:17.000Z</time>
      </trkpt>
      <trkpt lat="47.34346" lon="-2.32925">
        <ele>5.8000001907349</ele>
        <time>2021-04-11T08:22:18.000Z</time>
      </trkpt>
      <trkpt lat="47.34351" lon="-2.32907">
        <ele>5.8000001907349</ele>
        <time>2021-04-11T08:22:21.000Z</time>
      </trkpt>
      <trkpt lat="47.34368" lon="-2.32887">
        <ele>5.8000001907349</ele>
        <time>2021-04-11T08:22:25.000Z</time>
      </trkpt>
      <trkpt lat="47.34374" lon="-2.32883">
        <ele>5.8000001907349</ele>
        <time>2021-04-11T08:22:26.000Z</time>
      </trkpt>
      <trkpt lat="47.34409" lon="-2.32858">
        <ele>5.8000001907349</ele>
        <time>2021-04-11T08:22:32.000Z</time>
      </trkpt>
      <trkpt lat="47.34443" lon="-2.32844">
        <ele>5.8000001907349</ele>
        <time>2021-04-11T08:22:38.000Z</time>
      </trkpt>
      <trkpt lat="47.34448" lon="-2.3284">
        <ele>5.8000001907349</ele>
        <time>2021-04-11T08:22:39.000Z</time>
      </trkpt>
      <trkpt lat="47.34458" lon="-2.32824">
        <ele>5.8000001907349</ele>
        <time>2021-04-11T08:22:42.000Z</time>
      </trkpt>
      <trkpt lat="47.34457" lon="-2.32817">
        <ele>6.4000000953674</ele>
        <time>2021-04-11T08:22:43.000Z</time>
      </trkpt>
      <trkpt lat="47.34455" lon="-2.32809">
        <ele>6.8000001907349</ele>
        <time>2021-04-11T08:22:44.000Z</time>
      </trkpt>
      <trkpt lat="47.34453" lon="-2.328">
        <ele>7.1999998092651</ele>
        <time>2021-04-11T08:22:45.000Z</time>
      </trkpt>
      <trkpt lat="47.34452" lon="-2.32791">
        <ele>7.5999999046326</ele>
        <time>2021-04-11T08:22:46.000Z</time>
      </trkpt>
      <trkpt lat="47.34451" lon="-2.32783">
        <ele>8</ele>
        <time>2021-04-11T08:22:47.000Z</time>
      </trkpt>
      <trkpt lat="47.34453" lon="-2.32771">
        <ele>8.3999996185303</ele>
        <time>2021-04-11T08:22:49.000Z</time>
      </trkpt>
      <trkpt lat="47.34455" lon="-2.32765">
        <ele>8.8000001907349</ele>
        <time>2021-04-11T08:22:50.000Z</time>
      </trkpt>
      <trkpt lat="47.34457" lon="-2.32759">
        <ele>9.1999998092651</ele>
        <time>2021-04-11T08:22:51.000Z</time>
      </trkpt>
      <trkpt lat="47.34459" lon="-2.32755">
        <ele>9.6000003814697</ele>
        <time>2021-04-11T08:22:52.000Z</time>
      </trkpt>
      <trkpt lat="47.34462" lon="-2.32752">
        <ele>10</ele>
        <time>2021-04-11T08:22:53.000Z</time>
      </trkpt>
      <trkpt lat="47.3447" lon="-2.32745">
        <ele>10</ele>
        <time>2021-04-11T08:22:55.000Z</time>
      </trkpt>
      <trkpt lat="47.34482" lon="-2.32739">
        <ele>10</ele>
        <time>2021-04-11T08:22:57.000Z</time>
      </trkpt>
      <trkpt lat="47.34498" lon="-2.32729">
        <ele>10</ele>
        <time>2021-04-11T08:23:00.000Z</time>
      </trkpt>
      <trkpt lat="47.34537" lon="-2.32704">
        <ele>10</ele>
        <time>2021-04-11T08:23:07.000Z</time>
      </trkpt>
      <trkpt lat="47.34548" lon="-2.32696">
        <ele>10</ele>
        <time>2021-04-11T08:23:09.000Z</time>
      </trkpt>
      <trkpt lat="47.3457" lon="-2.32677">
        <ele>10</ele>
        <time>2021-04-11T08:23:13.000Z</time>
      </trkpt>
      <trkpt lat="47.34609" lon="-2.32634">
        <ele>10</ele>
        <time>2021-04-11T08:23:20.000Z</time>
      </trkpt>
      <trkpt lat="47.34632" lon="-2.32603">
        <ele>9.6000003814697</ele>
        <time>2021-04-11T08:23:25.000Z</time>
      </trkpt>
      <trkpt lat="47.34636" lon="-2.32597">
        <ele>9.1999998092651</ele>
        <time>2021-04-11T08:23:26.000Z</time>
      </trkpt>
      <trkpt lat="47.34639" lon="-2.32591">
        <ele>8.8000001907349</ele>
        <time>2021-04-11T08:23:27.000Z</time>
      </trkpt>
      <trkpt lat="47.34642" lon="-2.32586">
        <ele>8.3999996185303</ele>
        <time>2021-04-11T08:23:28.000Z</time>
      </trkpt>
      <trkpt lat="47.34645" lon="-2.32581">
        <ele>8</ele>
        <time>2021-04-11T08:23:29.000Z</time>
      </trkpt>
      <trkpt lat="47.34647" lon="-2.32577">
        <ele>8</ele>
        <time>2021-04-11T08:23:30.000Z</time>
      </trkpt>
      <trkpt lat="47.3465" lon="-2.32571">
        <ele>8</ele>
        <time>2021-04-11T08:23:33.000Z</time>
      </trkpt>
      <trkpt lat="47.3465" lon="-2.32572">
        <ele>7.5999999046326</ele>
        <time>2021-04-11T08:23:34.000Z</time>
      </trkpt>
      <trkpt lat="47.34652" lon="-2.32566">
        <ele>6</ele>
        <time>2021-04-11T08:23:45.000Z</time>
      </trkpt>
      <trkpt lat="47.34655" lon="-2.32562">
        <ele>6</ele>
        <time>2021-04-11T08:23:47.000Z</time>
      </trkpt>
      <trkpt lat="47.34658" lon="-2.32554">
        <ele>6</ele>
        <time>2021-04-11T08:23:52.000Z</time>
      </trkpt>
      <trkpt lat="47.34658" lon="-2.32553">
        <ele>6</ele>
        <time>2021-04-11T08:24:05.000Z</time>
      </trkpt>
      <trkpt lat="47.3466" lon="-2.32548">
        <ele>6</ele>
        <time>2021-04-11T08:24:10.000Z</time>
      </trkpt>
      <trkpt lat="47.34664" lon="-2.3254">
        <ele>6</ele>
        <time>2021-04-11T08:24:18.000Z</time>
      </trkpt>
      <trkpt lat="47.34667" lon="-2.32539">
        <ele>6</ele>
        <time>2021-04-11T08:24:20.000Z</time>
      </trkpt>
      <trkpt lat="47.34677" lon="-2.32535">
        <ele>6</ele>
        <time>2021-04-11T08:24:23.000Z</time>
      </trkpt>
      <trkpt lat="47.34689" lon="-2.32529">
        <ele>6</ele>
        <time>2021-04-11T08:24:28.000Z</time>
      </trkpt>
      <trkpt lat="47.34702" lon="-2.32521">
        <ele>6</ele>
        <time>2021-04-11T08:24:34.000Z</time>
      </trkpt>
      <trkpt lat="47.34706" lon="-2.3252">
        <ele>6</ele>
        <time>2021-04-11T08:24:39.000Z</time>
      </trkpt>
      <trkpt lat="47.34716" lon="-2.32515">
        <ele>6</ele>
        <time>2021-04-11T08:25:05.000Z</time>
      </trkpt>
      <trkpt lat="47.34731" lon="-2.32504">
        <ele>6</ele>
        <time>2021-04-11T08:25:10.000Z</time>
      </trkpt>
      <trkpt lat="47.34736" lon="-2.32497">
        <ele>6</ele>
        <time>2021-04-11T08:25:12.000Z</time>
      </trkpt>
      <trkpt lat="47.34742" lon="-2.32491">
        <ele>6</ele>
        <time>2021-04-11T08:25:14.000Z</time>
      </trkpt>
      <trkpt lat="47.34768" lon="-2.32469">
        <ele>6</ele>
        <time>2021-04-11T08:25:21.000Z</time>
      </trkpt>
      <trkpt lat="47.34785" lon="-2.3245">
        <ele>6</ele>
        <time>2021-04-11T08:25:26.000Z</time>
      </trkpt>
      <trkpt lat="47.34801" lon="-2.32432">
        <ele>6</ele>
        <time>2021-04-11T08:25:31.000Z</time>
      </trkpt>
      <trkpt lat="47.34816" lon="-2.32405">
        <ele>6</ele>
        <time>2021-04-11T08:25:37.000Z</time>
      </trkpt>
      <trkpt lat="47.34826" lon="-2.32392">
        <ele>6</ele>
        <time>2021-04-11T08:25:41.000Z</time>
      </trkpt>
      <trkpt lat="47.34845" lon="-2.32367">
        <ele>6</ele>
        <time>2021-04-11T08:25:47.000Z</time>
      </trkpt>
      <trkpt lat="47.34858" lon="-2.32342">
        <ele>6</ele>
        <time>2021-04-11T08:25:52.000Z</time>
      </trkpt>
      <trkpt lat="47.34858" lon="-2.32323">
        <ele>6</ele>
        <time>2021-04-11T08:25:55.000Z</time>
      </trkpt>
      <trkpt lat="47.34847" lon="-2.32306">
        <ele>6</ele>
        <time>2021-04-11T08:25:59.000Z</time>
      </trkpt>
      <trkpt lat="47.34845" lon="-2.32302">
        <ele>6</ele>
        <time>2021-04-11T08:26:00.000Z</time>
      </trkpt>
      <trkpt lat="47.3483" lon="-2.32278">
        <ele>6</ele>
        <time>2021-04-11T08:26:06.000Z</time>
      </trkpt>
      <trkpt lat="47.34822" lon="-2.32265">
        <ele>6</ele>
        <time>2021-04-11T08:26:11.000Z</time>
      </trkpt>
      <trkpt lat="47.34818" lon="-2.32256">
        <ele>6</ele>
        <time>2021-04-11T08:26:15.000Z</time>
      </trkpt>
      <trkpt lat="47.34808" lon="-2.32246">
        <ele>6</ele>
        <time>2021-04-11T08:26:21.000Z</time>
      </trkpt>
      <trkpt lat="47.34796" lon="-2.32227">
        <ele>6</ele>
        <time>2021-04-11T08:26:25.000Z</time>
      </trkpt>
      <trkpt lat="47.34782" lon="-2.322">
        <ele>6</ele>
        <time>2021-04-11T08:26:31.000Z</time>
      </trkpt>
      <trkpt lat="47.34771" lon="-2.32179">
        <ele>6</ele>
        <time>2021-04-11T08:26:36.000Z</time>
      </trkpt>
      <trkpt lat="47.34764" lon="-2.32152">
        <ele>6</ele>
        <time>2021-04-11T08:26:42.000Z</time>
      </trkpt>
      <trkpt lat="47.34758" lon="-2.32125">
        <ele>6</ele>
        <time>2021-04-11T08:26:49.000Z</time>
      </trkpt>
      <trkpt lat="47.34756" lon="-2.32123">
        <ele>6</ele>
        <time>2021-04-11T08:26:50.000Z</time>
      </trkpt>
      <trkpt lat="47.34751" lon="-2.32121">
        <ele>6</ele>
        <time>2021-04-11T08:26:53.000Z</time>
      </trkpt>
      <trkpt lat="47.34745" lon="-2.32123">
        <ele>6</ele>
        <time>2021-04-11T08:26:59.000Z</time>
      </trkpt>
      <trkpt lat="47.34745" lon="-2.32123">
        <ele>6</ele>
        <time>2021-04-11T08:27:01.000Z</time>
      </trkpt>
      <trkpt lat="47.34746" lon="-2.32127">
        <ele>6</ele>
        <time>2021-04-11T08:28:19.000Z</time>
      </trkpt>
      <trkpt lat="47.34748" lon="-2.32126">
        <ele>6</ele>
        <time>2021-04-11T08:28:21.000Z</time>
      </trkpt>
      <trkpt lat="47.34745" lon="-2.32119">
        <ele>6</ele>
        <time>2021-04-11T08:28:24.000Z</time>
      </trkpt>
      <trkpt lat="47.3474" lon="-2.32114">
        <ele>6</ele>
        <time>2021-04-11T08:28:26.000Z</time>
      </trkpt>
      <trkpt lat="47.3473" lon="-2.32111">
        <ele>6</ele>
        <time>2021-04-11T08:28:29.000Z</time>
      </trkpt>
      <trkpt lat="47.34717" lon="-2.3212">
        <ele>6</ele>
        <time>2021-04-11T08:28:34.000Z</time>
      </trkpt>
      <trkpt lat="47.34716" lon="-2.32122">
        <ele>6</ele>
        <time>2021-04-11T08:28:35.000Z</time>
      </trkpt>
      <trkpt lat="47.34715" lon="-2.32126">
        <ele>6</ele>
        <time>2021-04-11T08:28:38.000Z</time>
      </trkpt>
      <trkpt lat="47.34711" lon="-2.32128">
        <ele>6</ele>
        <time>2021-04-11T08:28:48.000Z</time>
      </trkpt>
      <trkpt lat="47.34706" lon="-2.32129">
        <ele>6</ele>
        <time>2021-04-11T08:28:51.000Z</time>
      </trkpt>
      <trkpt lat="47.34704" lon="-2.3212">
        <ele>6</ele>
        <time>2021-04-11T08:28:55.000Z</time>
      </trkpt>
      <trkpt lat="47.34706" lon="-2.32115">
        <ele>6</ele>
        <time>2021-04-11T08:28:57.000Z</time>
      </trkpt>
      <trkpt lat="47.34709" lon="-2.32107">
        <ele>6</ele>
        <time>2021-04-11T08:29:00.000Z</time>
      </trkpt>
      <trkpt lat="47.34713" lon="-2.32089">
        <ele>6</ele>
        <time>2021-04-11T08:29:06.000Z</time>
      </trkpt>
      <trkpt lat="47.34716" lon="-2.32063">
        <ele>6</ele>
        <time>2021-04-11T08:29:12.000Z</time>
      </trkpt>
      <trkpt lat="47.34717" lon="-2.32058">
        <ele>5.5999999046326</ele>
        <time>2021-04-11T08:29:13.000Z</time>
      </trkpt>
      <trkpt lat="47.34718" lon="-2.32054">
        <ele>5.1999998092651</ele>
        <time>2021-04-11T08:29:14.000Z</time>
      </trkpt>
      <trkpt lat="47.34718" lon="-2.3205">
        <ele>4.8000001907349</ele>
        <time>2021-04-11T08:29:15.000Z</time>
      </trkpt>
      <trkpt lat="47.34718" lon="-2.32047">
        <ele>4.4000000953674</ele>
        <time>2021-04-11T08:29:16.000Z</time>
      </trkpt>
      <trkpt lat="47.34717" lon="-2.32044">
        <ele>4</ele>
        <time>2021-04-11T08:29:17.000Z</time>
      </trkpt>
      <trkpt lat="47.34717" lon="-2.32045">
        <ele>4</ele>
        <time>2021-04-11T08:29:18.000Z</time>
      </trkpt>
      <trkpt lat="47.34715" lon="-2.32043">
        <ele>4</ele>
        <time>2021-04-11T08:29:19.000Z</time>
      </trkpt>
      <trkpt lat="47.34709" lon="-2.32042">
        <ele>4</ele>
        <time>2021-04-11T08:29:22.000Z</time>
      </trkpt>
      <trkpt lat="47.34694" lon="-2.32035">
        <ele>4</ele>
        <time>2021-04-11T08:29:28.000Z</time>
      </trkpt>
      <trkpt lat="47.3468" lon="-2.32027">
        <ele>4</ele>
        <time>2021-04-11T08:29:34.000Z</time>
      </trkpt>
      <trkpt lat="47.34664" lon="-2.32018">
        <ele>4</ele>
        <time>2021-04-11T08:29:42.000Z</time>
      </trkpt>
      <trkpt lat="47.34656" lon="-2.32017">
        <ele>4</ele>
        <time>2021-04-11T08:29:47.000Z</time>
      </trkpt>
      <trkpt lat="47.34655" lon="-2.32016">
        <ele>4</ele>
        <time>2021-04-11T08:29:48.000Z</time>
      </trkpt>
      <trkpt lat="47.34645" lon="-2.32009">
        <ele>4</ele>
        <time>2021-04-11T08:29:54.000Z</time>
      </trkpt>
      <trkpt lat="47.34631" lon="-2.32004">
        <ele>4</ele>
        <time>2021-04-11T08:30:02.000Z</time>
      </trkpt>
      <trkpt lat="47.34622" lon="-2.31995">
        <ele>4</ele>
        <time>2021-04-11T08:30:08.000Z</time>
      </trkpt>
      <trkpt lat="47.34618" lon="-2.31987">
        <ele>4</ele>
        <time>2021-04-11T08:30:12.000Z</time>
      </trkpt>
      <trkpt lat="47.34617" lon="-2.31986">
        <ele>4</ele>
        <time>2021-04-11T08:30:14.000Z</time>
      </trkpt>
      <trkpt lat="47.34616" lon="-2.31985">
        <ele>4</ele>
        <time>2021-04-11T08:30:16.000Z</time>
      </trkpt>
      <trkpt lat="47.3461" lon="-2.31985">
        <ele>4</ele>
        <time>2021-04-11T08:30:25.000Z</time>
      </trkpt>
      <trkpt lat="47.34606" lon="-2.31984">
        <ele>4</ele>
        <time>2021-04-11T08:30:27.000Z</time>
      </trkpt>
      <trkpt lat="47.34602" lon="-2.3198">
        <ele>4</ele>
        <time>2021-04-11T08:30:29.000Z</time>
      </trkpt>
      <trkpt lat="47.34597" lon="-2.31973">
        <ele>4</ele>
        <time>2021-04-11T08:30:32.000Z</time>
      </trkpt>
      <trkpt lat="47.34588" lon="-2.31968">
        <ele>4</ele>
        <time>2021-04-11T08:30:38.000Z</time>
      </trkpt>
      <trkpt lat="47.34586" lon="-2.31964">
        <ele>4</ele>
        <time>2021-04-11T08:30:40.000Z</time>
      </trkpt>
      <trkpt lat="47.34582" lon="-2.31959">
        <ele>4</ele>
        <time>2021-04-11T08:30:43.000Z</time>
      </trkpt>
      <trkpt lat="47.3458" lon="-2.31957">
        <ele>4</ele>
        <time>2021-04-11T08:30:44.000Z</time>
      </trkpt>
      <trkpt lat="47.34572" lon="-2.31944">
        <ele>4</ele>
        <time>2021-04-11T08:30:50.000Z</time>
      </trkpt>
      <trkpt lat="47.34562" lon="-2.31939">
        <ele>4</ele>
        <time>2021-04-11T08:30:56.000Z</time>
      </trkpt>
      <trkpt lat="47.3456" lon="-2.31939">
        <ele>4</ele>
        <time>2021-04-11T08:30:57.000Z</time>
      </trkpt>
      <trkpt lat="47.34549" lon="-2.31942">
        <ele>4</ele>
        <time>2021-04-11T08:31:03.000Z</time>
      </trkpt>
      <trkpt lat="47.34543" lon="-2.3194">
        <ele>4</ele>
        <time>2021-04-11T08:31:06.000Z</time>
      </trkpt>
      <trkpt lat="47.34537" lon="-2.31934">
        <ele>4</ele>
        <time>2021-04-11T08:31:09.000Z</time>
      </trkpt>
      <trkpt lat="47.34521" lon="-2.31929">
        <ele>4</ele>
        <time>2021-04-11T08:31:15.000Z</time>
      </trkpt>
      <trkpt lat="47.3451" lon="-2.31931">
        <ele>4</ele>
        <time>2021-04-11T08:31:20.000Z</time>
      </trkpt>
      <trkpt lat="47.34508" lon="-2.3193">
        <ele>4</ele>
        <time>2021-04-11T08:31:21.000Z</time>
      </trkpt>
      <trkpt lat="47.34504" lon="-2.31923">
        <ele>4</ele>
        <time>2021-04-11T08:31:24.000Z</time>
      </trkpt>
      <trkpt lat="47.34498" lon="-2.31919">
        <ele>4</ele>
        <time>2021-04-11T08:31:26.000Z</time>
      </trkpt>
      <trkpt lat="47.34492" lon="-2.31915">
        <ele>4</ele>
        <time>2021-04-11T08:31:29.000Z</time>
      </trkpt>
      <trkpt lat="47.3448" lon="-2.3191">
        <ele>4</ele>
        <time>2021-04-11T08:31:35.000Z</time>
      </trkpt>
      <trkpt lat="47.34467" lon="-2.31912">
        <ele>4</ele>
        <time>2021-04-11T08:31:41.000Z</time>
      </trkpt>
      <trkpt lat="47.34464" lon="-2.31916">
        <ele>4</ele>
        <time>2021-04-11T08:31:43.000Z</time>
      </trkpt>
      <trkpt lat="47.34463" lon="-2.3192">
        <ele>4</ele>
        <time>2021-04-11T08:31:45.000Z</time>
      </trkpt>
      <trkpt lat="47.34458" lon="-2.31928">
        <ele>4</ele>
        <time>2021-04-11T08:31:51.000Z</time>
      </trkpt>
      <trkpt lat="47.34456" lon="-2.31932">
        <ele>4</ele>
        <time>2021-04-11T08:32:10.000Z</time>
      </trkpt>
      <trkpt lat="47.34455" lon="-2.3194">
        <ele>4</ele>
        <time>2021-04-11T08:32:13.000Z</time>
      </trkpt>
      <trkpt lat="47.34454" lon="-2.31944">
        <ele>4</ele>
        <time>2021-04-11T08:32:15.000Z</time>
      </trkpt>
      <trkpt lat="47.34454" lon="-2.31949">
        <ele>4</ele>
        <time>2021-04-11T08:32:17.000Z</time>
      </trkpt>
      <trkpt lat="47.34454" lon="-2.31953">
        <ele>4</ele>
        <time>2021-04-11T08:32:18.000Z</time>
      </trkpt>
      <trkpt lat="47.34452" lon="-2.31958">
        <ele>4</ele>
        <time>2021-04-11T08:32:20.000Z</time>
      </trkpt>
      <trkpt lat="47.34451" lon="-2.31965">
        <ele>4</ele>
        <time>2021-04-11T08:32:22.000Z</time>
      </trkpt>
      <trkpt lat="47.34448" lon="-2.31972">
        <ele>4</ele>
        <time>2021-04-11T08:32:24.000Z</time>
      </trkpt>
      <trkpt lat="47.34448" lon="-2.31985">
        <ele>4</ele>
        <time>2021-04-11T08:32:27.000Z</time>
      </trkpt>
      <trkpt lat="47.34446" lon="-2.31992">
        <ele>4</ele>
        <time>2021-04-11T08:32:29.000Z</time>
      </trkpt>
      <trkpt lat="47.34444" lon="-2.31997">
        <ele>4</ele>
        <time>2021-04-11T08:32:31.000Z</time>
      </trkpt>
      <trkpt lat="47.34444" lon="-2.32005">
        <ele>4</ele>
        <time>2021-04-11T08:32:34.000Z</time>
      </trkpt>
      <trkpt lat="47.34442" lon="-2.32009">
        <ele>4</ele>
        <time>2021-04-11T08:32:36.000Z</time>
      </trkpt>
      <trkpt lat="47.34442" lon="-2.32019">
        <ele>4</ele>
        <time>2021-04-11T08:32:40.000Z</time>
      </trkpt>
      <trkpt lat="47.34442" lon="-2.32021">
        <ele>4</ele>
        <time>2021-04-11T08:32:41.000Z</time>
      </trkpt>
      <trkpt lat="47.34442" lon="-2.32023">
        <ele>4</ele>
        <time>2021-04-11T08:32:43.000Z</time>
      </trkpt>
      <trkpt lat="47.34442" lon="-2.32024">
        <ele>4</ele>
        <time>2021-04-11T08:32:55.000Z</time>
      </trkpt>
      <trkpt lat="47.34441" lon="-2.32026">
        <ele>4</ele>
        <time>2021-04-11T08:32:56.000Z</time>
      </trkpt>
      <trkpt lat="47.34436" lon="-2.32034">
        <ele>4</ele>
        <time>2021-04-11T08:33:02.000Z</time>
      </trkpt>
      <trkpt lat="47.34435" lon="-2.32035">
        <ele>4</ele>
        <time>2021-04-11T08:33:03.000Z</time>
      </trkpt>
      <trkpt lat="47.34431" lon="-2.32041">
        <ele>4</ele>
        <time>2021-04-11T08:33:07.000Z</time>
      </trkpt>
      <trkpt lat="47.34429" lon="-2.32043">
        <ele>4</ele>
        <time>2021-04-11T08:33:08.000Z</time>
      </trkpt>
      <trkpt lat="47.34421" lon="-2.32059">
        <ele>4</ele>
        <time>2021-04-11T08:33:13.000Z</time>
      </trkpt>
      <trkpt lat="47.34413" lon="-2.32081">
        <ele>4</ele>
        <time>2021-04-11T08:33:19.000Z</time>
      </trkpt>
      <trkpt lat="47.34409" lon="-2.32092">
        <ele>4</ele>
        <time>2021-04-11T08:33:25.000Z</time>
      </trkpt>
      <trkpt lat="47.34394" lon="-2.32125">
        <ele>4</ele>
        <time>2021-04-11T08:35:04.000Z</time>
      </trkpt>
      <trkpt lat="47.34379" lon="-2.32143">
        <ele>4</ele>
        <time>2021-04-11T08:35:12.000Z</time>
      </trkpt>
      <trkpt lat="47.3437" lon="-2.32152">
        <ele>4</ele>
        <time>2021-04-11T08:35:18.000Z</time>
      </trkpt>
      <trkpt lat="47.34364" lon="-2.32157">
        <ele>4</ele>
        <time>2021-04-11T08:35:23.000Z</time>
      </trkpt>
      <trkpt lat="47.34358" lon="-2.32168">
        <ele>4</ele>
        <time>2021-04-11T08:35:33.000Z</time>
      </trkpt>
      <trkpt lat="47.34347" lon="-2.32177">
        <ele>4</ele>
        <time>2021-04-11T08:35:38.000Z</time>
      </trkpt>
      <trkpt lat="47.34336" lon="-2.32179">
        <ele>4</ele>
        <time>2021-04-11T08:35:44.000Z</time>
      </trkpt>
      <trkpt lat="47.34334" lon="-2.32179">
        <ele>4</ele>
        <time>2021-04-11T08:35:48.000Z</time>
      </trkpt>
      <trkpt lat="47.34329" lon="-2.32175">
        <ele>4</ele>
        <time>2021-04-11T08:35:56.000Z</time>
      </trkpt>
      <trkpt lat="47.34327" lon="-2.32173">
        <ele>4</ele>
        <time>2021-04-11T08:35:57.000Z</time>
      </trkpt>
      <trkpt lat="47.34324" lon="-2.32171">
        <ele>4</ele>
        <time>2021-04-11T08:35:59.000Z</time>
      </trkpt>
      <trkpt lat="47.34317" lon="-2.3217">
        <ele>4</ele>
        <time>2021-04-11T08:36:03.000Z</time>
      </trkpt>
      <trkpt lat="47.34308" lon="-2.3216">
        <ele>4</ele>
        <time>2021-04-11T08:36:09.000Z</time>
      </trkpt>
      <trkpt lat="47.34303" lon="-2.32157">
        <ele>4</ele>
        <time>2021-04-11T08:36:13.000Z</time>
      </trkpt>
      <trkpt lat="47.34289" lon="-2.32138">
        <ele>4.4000000953674</ele>
        <time>2021-04-11T08:36:44.000Z</time>
      </trkpt>
      <trkpt lat="47.34287" lon="-2.32137">
        <ele>4.8000001907349</ele>
        <time>2021-04-11T08:36:45.000Z</time>
      </trkpt>
      <trkpt lat="47.34285" lon="-2.32134">
        <ele>5.1999998092651</ele>
        <time>2021-04-11T08:36:46.000Z</time>
      </trkpt>
      <trkpt lat="47.34282" lon="-2.32132">
        <ele>5.5999999046326</ele>
        <time>2021-04-11T08:36:47.000Z</time>
      </trkpt>
      <trkpt lat="47.34279" lon="-2.32129">
        <ele>6</ele>
        <time>2021-04-11T08:36:48.000Z</time>
      </trkpt>
      <trkpt lat="47.34272" lon="-2.32125">
        <ele>6</ele>
        <time>2021-04-11T08:36:51.000Z</time>
      </trkpt>
      <trkpt lat="47.34268" lon="-2.32123">
        <ele>6</ele>
        <time>2021-04-11T08:36:53.000Z</time>
      </trkpt>
      <trkpt lat="47.34262" lon="-2.32117">
        <ele>6</ele>
        <time>2021-04-11T08:36:56.000Z</time>
      </trkpt>
      <trkpt lat="47.34253" lon="-2.32107">
        <ele>6</ele>
        <time>2021-04-11T08:37:02.000Z</time>
      </trkpt>
      <trkpt lat="47.3424" lon="-2.32093">
        <ele>6</ele>
        <time>2021-04-11T08:37:09.000Z</time>
      </trkpt>
      <trkpt lat="47.34223" lon="-2.32076">
        <ele>6</ele>
        <time>2021-04-11T08:37:16.000Z</time>
      </trkpt>
      <trkpt lat="47.34205" lon="-2.32058">
        <ele>6</ele>
        <time>2021-04-11T08:37:24.000Z</time>
      </trkpt>
      <trkpt lat="47.34194" lon="-2.32048">
        <ele>6</ele>
        <time>2021-04-11T08:37:30.000Z</time>
      </trkpt>
      <trkpt lat="47.34186" lon="-2.32036">
        <ele>6</ele>
        <time>2021-04-11T08:37:36.000Z</time>
      </trkpt>
      <trkpt lat="47.34185" lon="-2.32036">
        <ele>6</ele>
        <time>2021-04-11T08:37:37.000Z</time>
      </trkpt>
      <trkpt lat="47.3418" lon="-2.32042">
        <ele>6</ele>
        <time>2021-04-11T08:37:41.000Z</time>
      </trkpt>
      <trkpt lat="47.34178" lon="-2.32044">
        <ele>6</ele>
        <time>2021-04-11T08:37:42.000Z</time>
      </trkpt>
      <trkpt lat="47.34163" lon="-2.32053">
        <ele>6</ele>
        <time>2021-04-11T08:37:48.000Z</time>
      </trkpt>
      <trkpt lat="47.34142" lon="-2.32065">
        <ele>6</ele>
        <time>2021-04-11T08:37:55.000Z</time>
      </trkpt>
      <trkpt lat="47.34127" lon="-2.32073">
        <ele>6</ele>
        <time>2021-04-11T08:38:01.000Z</time>
      </trkpt>
      <trkpt lat="47.34117" lon="-2.32078">
        <ele>6</ele>
        <time>2021-04-11T08:38:06.000Z</time>
      </trkpt>
      <trkpt lat="47.34102" lon="-2.32089">
        <ele>6</ele>
        <time>2021-04-11T08:38:12.000Z</time>
      </trkpt>
      <trkpt lat="47.34083" lon="-2.32101">
        <ele>6</ele>
        <time>2021-04-11T08:38:19.000Z</time>
      </trkpt>
      <trkpt lat="47.34067" lon="-2.32112">
        <ele>6</ele>
        <time>2021-04-11T08:38:25.000Z</time>
      </trkpt>
      <trkpt lat="47.34048" lon="-2.32125">
        <ele>6</ele>
        <time>2021-04-11T08:38:33.000Z</time>
      </trkpt>
      <trkpt lat="47.34037" lon="-2.32135">
        <ele>6</ele>
        <time>2021-04-11T08:38:38.000Z</time>
      </trkpt>
      <trkpt lat="47.34021" lon="-2.32144">
        <ele>6</ele>
        <time>2021-04-11T08:38:44.000Z</time>
      </trkpt>
      <trkpt lat="47.34" lon="-2.32157">
        <ele>6</ele>
        <time>2021-04-11T08:38:52.000Z</time>
      </trkpt>
      <trkpt lat="47.33982" lon="-2.32169">
        <ele>6</ele>
        <time>2021-04-11T08:38:59.000Z</time>
      </trkpt>
      <trkpt lat="47.33964" lon="-2.3218">
        <ele>6</ele>
        <time>2021-04-11T08:39:06.000Z</time>
      </trkpt>
      <trkpt lat="47.3395" lon="-2.32189">
        <ele>6</ele>
        <time>2021-04-11T08:39:12.000Z</time>
      </trkpt>
      <trkpt lat="47.33941" lon="-2.32194">
        <ele>6</ele>
        <time>2021-04-11T08:39:19.000Z</time>
      </trkpt>
      <trkpt lat="47.33937" lon="-2.32195">
        <ele>8</ele>
        <time>2021-04-11T08:40:52.000Z</time>
      </trkpt>
      <trkpt lat="47.33923" lon="-2.32197">
        <ele>8</ele>
        <time>2021-04-11T08:40:56.000Z</time>
      </trkpt>
      <trkpt lat="47.33905" lon="-2.32201">
        <ele>8</ele>
        <time>2021-04-11T08:41:01.000Z</time>
      </trkpt>
      <trkpt lat="47.33875" lon="-2.322">
        <ele>8</ele>
        <time>2021-04-11T08:41:08.000Z</time>
      </trkpt>
      <trkpt lat="47.33844" lon="-2.32203">
        <ele>8</ele>
        <time>2021-04-11T08:41:14.000Z</time>
      </trkpt>
      <trkpt lat="47.33822" lon="-2.32204">
        <ele>8.3999996185303</ele>
        <time>2021-04-11T08:41:18.000Z</time>
      </trkpt>
      <trkpt lat="47.33817" lon="-2.32204">
        <ele>8.8000001907349</ele>
        <time>2021-04-11T08:41:19.000Z</time>
      </trkpt>
      <trkpt lat="47.33812" lon="-2.32205">
        <ele>9.1999998092651</ele>
        <time>2021-04-11T08:41:20.000Z</time>
      </trkpt>
      <trkpt lat="47.33807" lon="-2.32205">
        <ele>9.6000003814697</ele>
        <time>2021-04-11T08:41:21.000Z</time>
      </trkpt>
      <trkpt lat="47.33801" lon="-2.32206">
        <ele>10</ele>
        <time>2021-04-11T08:41:22.000Z</time>
      </trkpt>
      <trkpt lat="47.33768" lon="-2.32218">
        <ele>10</ele>
        <time>2021-04-11T08:41:28.000Z</time>
      </trkpt>
      <trkpt lat="47.3374" lon="-2.32231">
        <ele>10</ele>
        <time>2021-04-11T08:41:33.000Z</time>
      </trkpt>
      <trkpt lat="47.33714" lon="-2.32245">
        <ele>10</ele>
        <time>2021-04-11T08:41:38.000Z</time>
      </trkpt>
      <trkpt lat="47.33674" lon="-2.32267">
        <ele>10</ele>
        <time>2021-04-11T08:41:45.000Z</time>
      </trkpt>
      <trkpt lat="47.33641" lon="-2.32281">
        <ele>10</ele>
        <time>2021-04-11T08:41:51.000Z</time>
      </trkpt>
      <trkpt lat="47.33601" lon="-2.32292">
        <ele>10</ele>
        <time>2021-04-11T08:41:58.000Z</time>
      </trkpt>
      <trkpt lat="47.33559" lon="-2.32303">
        <ele>10</ele>
        <time>2021-04-11T08:42:05.000Z</time>
      </trkpt>
      <trkpt lat="47.33546" lon="-2.32305">
        <ele>10</ele>
        <time>2021-04-11T08:42:07.000Z</time>
      </trkpt>
      <trkpt lat="47.33524" lon="-2.32306">
        <ele>10</ele>
        <time>2021-04-11T08:42:10.000Z</time>
      </trkpt>
      <trkpt lat="47.33488" lon="-2.32323">
        <ele>10</ele>
        <time>2021-04-11T08:42:15.000Z</time>
      </trkpt>
      <trkpt lat="47.33441" lon="-2.32349">
        <ele>10</ele>
        <time>2021-04-11T08:42:22.000Z</time>
      </trkpt>
      <trkpt lat="47.33435" lon="-2.32354">
        <ele>10</ele>
        <time>2021-04-11T08:42:23.000Z</time>
      </trkpt>
      <trkpt lat="47.33411" lon="-2.32374">
        <ele>10</ele>
        <time>2021-04-11T08:42:27.000Z</time>
      </trkpt>
      <trkpt lat="47.33393" lon="-2.32391">
        <ele>10</ele>
        <time>2021-04-11T08:42:30.000Z</time>
      </trkpt>
      <trkpt lat="47.33381" lon="-2.32401">
        <ele>10</ele>
        <time>2021-04-11T08:42:32.000Z</time>
      </trkpt>
      <trkpt lat="47.33353" lon="-2.32428">
        <ele>10</ele>
        <time>2021-04-11T08:42:37.000Z</time>
      </trkpt>
      <trkpt lat="47.33349" lon="-2.32434">
        <ele>10</ele>
        <time>2021-04-11T08:42:38.000Z</time>
      </trkpt>
      <trkpt lat="47.33333" lon="-2.32454">
        <ele>10</ele>
        <time>2021-04-11T08:42:42.000Z</time>
      </trkpt>
      <trkpt lat="47.33325" lon="-2.32457">
        <ele>10</ele>
        <time>2021-04-11T08:42:44.000Z</time>
      </trkpt>
      <trkpt lat="47.33315" lon="-2.32461">
        <ele>10</ele>
        <time>2021-04-11T08:42:46.000Z</time>
      </trkpt>
      <trkpt lat="47.33304" lon="-2.32465">
        <ele>10</ele>
        <time>2021-04-11T08:42:48.000Z</time>
      </trkpt>
      <trkpt lat="47.33286" lon="-2.32473">
        <ele>10</ele>
        <time>2021-04-11T08:42:51.000Z</time>
      </trkpt>
      <trkpt lat="47.33246" lon="-2.32492">
        <ele>10</ele>
        <time>2021-04-11T08:42:58.000Z</time>
      </trkpt>
      <trkpt lat="47.33213" lon="-2.32508">
        <ele>10</ele>
        <time>2021-04-11T08:43:04.000Z</time>
      </trkpt>
      <trkpt lat="47.33174" lon="-2.32525">
        <ele>10</ele>
        <time>2021-04-11T08:43:11.000Z</time>
      </trkpt>
      <trkpt lat="47.33144" lon="-2.32544">
        <ele>10</ele>
        <time>2021-04-11T08:43:16.000Z</time>
      </trkpt>
      <trkpt lat="47.33099" lon="-2.3258">
        <ele>10</ele>
        <time>2021-04-11T08:43:23.000Z</time>
      </trkpt>
      <trkpt lat="47.33048" lon="-2.32625">
        <ele>10</ele>
        <time>2021-04-11T08:43:31.000Z</time>
      </trkpt>
      <trkpt lat="47.33034" lon="-2.32635">
        <ele>9.6000003814697</ele>
        <time>2021-04-11T08:43:33.000Z</time>
      </trkpt>
      <trkpt lat="47.33027" lon="-2.32639">
        <ele>9.1999998092651</ele>
        <time>2021-04-11T08:43:34.000Z</time>
      </trkpt>
      <trkpt lat="47.33019" lon="-2.32639">
        <ele>8.8000001907349</ele>
        <time>2021-04-11T08:43:35.000Z</time>
      </trkpt>
      <trkpt lat="47.33012" lon="-2.32637">
        <ele>8.3999996185303</ele>
        <time>2021-04-11T08:43:36.000Z</time>
      </trkpt>
      <trkpt lat="47.33006" lon="-2.32634">
        <ele>8</ele>
        <time>2021-04-11T08:43:37.000Z</time>
      </trkpt>
      <trkpt lat="47.32999" lon="-2.32631">
        <ele>8</ele>
        <time>2021-04-11T08:43:38.000Z</time>
      </trkpt>
      <trkpt lat="47.32977" lon="-2.32634">
        <ele>8</ele>
        <time>2021-04-11T08:43:41.000Z</time>
      </trkpt>
      <trkpt lat="47.32966" lon="-2.3264">
        <ele>8</ele>
        <time>2021-04-11T08:43:43.000Z</time>
      </trkpt>
      <trkpt lat="47.32947" lon="-2.32646">
        <ele>8</ele>
        <time>2021-04-11T08:43:46.000Z</time>
      </trkpt>
      <trkpt lat="47.3294" lon="-2.32647">
        <ele>8</ele>
        <time>2021-04-11T08:43:47.000Z</time>
      </trkpt>
      <trkpt lat="47.32934" lon="-2.32647">
        <ele>8</ele>
        <time>2021-04-11T08:43:48.000Z</time>
      </trkpt>
      <trkpt lat="47.32922" lon="-2.32641">
        <ele>8</ele>
        <time>2021-04-11T08:43:50.000Z</time>
      </trkpt>
      <trkpt lat="47.32914" lon="-2.3262">
        <ele>8</ele>
        <time>2021-04-11T08:43:53.000Z</time>
      </trkpt>
      <trkpt lat="47.32914" lon="-2.32612">
        <ele>8</ele>
        <time>2021-04-11T08:43:54.000Z</time>
      </trkpt>
      <trkpt lat="47.32914" lon="-2.32604">
        <ele>8</ele>
        <time>2021-04-11T08:43:55.000Z</time>
      </trkpt>
      <trkpt lat="47.32915" lon="-2.32577">
        <ele>8</ele>
        <time>2021-04-11T08:43:58.000Z</time>
      </trkpt>
      <trkpt lat="47.32915" lon="-2.3255">
        <ele>8.3999996185303</ele>
        <time>2021-04-11T08:44:01.000Z</time>
      </trkpt>
      <trkpt lat="47.32914" lon="-2.3254">
        <ele>8.8000001907349</ele>
        <time>2021-04-11T08:44:02.000Z</time>
      </trkpt>
      <trkpt lat="47.32913" lon="-2.32531">
        <ele>9.1999998092651</ele>
        <time>2021-04-11T08:44:03.000Z</time>
      </trkpt>
      <trkpt lat="47.32911" lon="-2.32521">
        <ele>9.6000003814697</ele>
        <time>2021-04-11T08:44:04.000Z</time>
      </trkpt>
      <trkpt lat="47.32909" lon="-2.32512">
        <ele>10</ele>
        <time>2021-04-11T08:44:05.000Z</time>
      </trkpt>
      <trkpt lat="47.32905" lon="-2.32494">
        <ele>10</ele>
        <time>2021-04-11T08:44:07.000Z</time>
      </trkpt>
      <trkpt lat="47.32893" lon="-2.32463">
        <ele>10</ele>
        <time>2021-04-11T08:44:11.000Z</time>
      </trkpt>
      <trkpt lat="47.32872" lon="-2.32448">
        <ele>10</ele>
        <time>2021-04-11T08:44:15.000Z</time>
      </trkpt>
      <trkpt lat="47.32835" lon="-2.3242">
        <ele>10</ele>
        <time>2021-04-11T08:44:21.000Z</time>
      </trkpt>
      <trkpt lat="47.32792" lon="-2.3238">
        <ele>10</ele>
        <time>2021-04-11T08:44:28.000Z</time>
      </trkpt>
      <trkpt lat="47.32763" lon="-2.3236">
        <ele>10</ele>
        <time>2021-04-11T08:44:33.000Z</time>
      </trkpt>
      <trkpt lat="47.32728" lon="-2.32341">
        <ele>10</ele>
        <time>2021-04-11T08:44:40.000Z</time>
      </trkpt>
      <trkpt lat="47.32691" lon="-2.32323">
        <ele>10</ele>
        <time>2021-04-11T08:44:46.000Z</time>
      </trkpt>
      <trkpt lat="47.3266" lon="-2.32313">
        <ele>10</ele>
        <time>2021-04-11T08:44:51.000Z</time>
      </trkpt>
      <trkpt lat="47.32648" lon="-2.32311">
        <ele>10</ele>
        <time>2021-04-11T08:44:53.000Z</time>
      </trkpt>
      <trkpt lat="47.32635" lon="-2.32311">
        <ele>10.60000038147</ele>
        <time>2021-04-11T08:44:55.000Z</time>
      </trkpt>
      <trkpt lat="47.32629" lon="-2.32311">
        <ele>11.39999961853</ele>
        <time>2021-04-11T08:44:56.000Z</time>
      </trkpt>
      <trkpt lat="47.32622" lon="-2.32311">
        <ele>11.800000190735</ele>
        <time>2021-04-11T08:44:57.000Z</time>
      </trkpt>
      <trkpt lat="47.32616" lon="-2.32311">
        <ele>12.199999809265</ele>
        <time>2021-04-11T08:44:58.000Z</time>
      </trkpt>
      <trkpt lat="47.32609" lon="-2.32311">
        <ele>12.199999809265</ele>
        <time>2021-04-11T08:44:59.000Z</time>
      </trkpt>
      <trkpt lat="47.32576" lon="-2.32314">
        <ele>12.199999809265</ele>
        <time>2021-04-11T08:45:05.000Z</time>
      </trkpt>
      <trkpt lat="47.32556" lon="-2.32316">
        <ele>12.199999809265</ele>
        <time>2021-04-11T08:45:10.000Z</time>
      </trkpt>
      <trkpt lat="47.32543" lon="-2.32317">
        <ele>12.199999809265</ele>
        <time>2021-04-11T08:45:15.000Z</time>
      </trkpt>
      <trkpt lat="47.32535" lon="-2.32312">
        <ele>12.199999809265</ele>
        <time>2021-04-11T08:45:18.000Z</time>
      </trkpt>
      <trkpt lat="47.32535" lon="-2.32307">
        <ele>12.199999809265</ele>
        <time>2021-04-11T08:45:19.000Z</time>
      </trkpt>
      <trkpt lat="47.32538" lon="-2.32288">
        <ele>12.199999809265</ele>
        <time>2021-04-11T08:45:22.000Z</time>
      </trkpt>
      <trkpt lat="47.3254" lon="-2.3228">
        <ele>12.199999809265</ele>
        <time>2021-04-11T08:45:23.000Z</time>
      </trkpt>
      <trkpt lat="47.32554" lon="-2.32232">
        <ele>11.800000190735</ele>
        <time>2021-04-11T08:45:28.000Z</time>
      </trkpt>
      <trkpt lat="47.32557" lon="-2.32222">
        <ele>11.39999961853</ele>
        <time>2021-04-11T08:45:29.000Z</time>
      </trkpt>
      <trkpt lat="47.3256" lon="-2.32212">
        <ele>11</ele>
        <time>2021-04-11T08:45:30.000Z</time>
      </trkpt>
      <trkpt lat="47.32563" lon="-2.32202">
        <ele>10.39999961853</ele>
        <time>2021-04-11T08:45:31.000Z</time>
      </trkpt>
      <trkpt lat="47.32566" lon="-2.32193">
        <ele>10</ele>
        <time>2021-04-11T08:45:32.000Z</time>
      </trkpt>
      <trkpt lat="47.32573" lon="-2.32165">
        <ele>10</ele>
        <time>2021-04-11T08:45:35.000Z</time>
      </trkpt>
      <trkpt lat="47.32585" lon="-2.32119">
        <ele>10</ele>
        <time>2021-04-11T08:45:41.000Z</time>
      </trkpt>
      <trkpt lat="47.32585" lon="-2.32105">
        <ele>10</ele>
        <time>2021-04-11T08:45:43.000Z</time>
      </trkpt>
      <trkpt lat="47.32583" lon="-2.321">
        <ele>10</ele>
        <time>2021-04-11T08:45:44.000Z</time>
      </trkpt>
      <trkpt lat="47.32576" lon="-2.32094">
        <ele>10.39999961853</ele>
        <time>2021-04-11T08:45:46.000Z</time>
      </trkpt>
      <trkpt lat="47.32572" lon="-2.32093">
        <ele>11</ele>
        <time>2021-04-11T08:45:47.000Z</time>
      </trkpt>
      <trkpt lat="47.32567" lon="-2.32093">
        <ele>11.39999961853</ele>
        <time>2021-04-11T08:45:48.000Z</time>
      </trkpt>
      <trkpt lat="47.32562" lon="-2.32093">
        <ele>11.800000190735</ele>
        <time>2021-04-11T08:45:49.000Z</time>
      </trkpt>
      <trkpt lat="47.32557" lon="-2.32092">
        <ele>12.39999961853</ele>
        <time>2021-04-11T08:45:50.000Z</time>
      </trkpt>
      <trkpt lat="47.32547" lon="-2.32093">
        <ele>12.39999961853</ele>
        <time>2021-04-11T08:45:52.000Z</time>
      </trkpt>
      <trkpt lat="47.32513" lon="-2.321">
        <ele>12.39999961853</ele>
        <time>2021-04-11T08:46:00.000Z</time>
      </trkpt>
      <trkpt lat="47.32501" lon="-2.32099">
        <ele>12.39999961853</ele>
        <time>2021-04-11T08:46:03.000Z</time>
      </trkpt>
      <trkpt lat="47.32498" lon="-2.3209">
        <ele>12.39999961853</ele>
        <time>2021-04-11T08:46:05.000Z</time>
      </trkpt>
      <trkpt lat="47.32499" lon="-2.32067">
        <ele>12.39999961853</ele>
        <time>2021-04-11T08:46:09.000Z</time>
      </trkpt>
      <trkpt lat="47.325" lon="-2.32059">
        <ele>12.39999961853</ele>
        <time>2021-04-11T08:46:10.000Z</time>
      </trkpt>
      <trkpt lat="47.32502" lon="-2.32011">
        <ele>12.39999961853</ele>
        <time>2021-04-11T08:46:16.000Z</time>
      </trkpt>
      <trkpt lat="47.32505" lon="-2.31967">
        <ele>12.39999961853</ele>
        <time>2021-04-11T08:46:21.000Z</time>
      </trkpt>
      <trkpt lat="47.32509" lon="-2.31939">
        <ele>12.800000190735</ele>
        <time>2021-04-11T08:46:24.000Z</time>
      </trkpt>
      <trkpt lat="47.3251" lon="-2.31929">
        <ele>13.199999809265</ele>
        <time>2021-04-11T08:46:25.000Z</time>
      </trkpt>
      <trkpt lat="47.32511" lon="-2.3192">
        <ele>13.60000038147</ele>
        <time>2021-04-11T08:46:26.000Z</time>
      </trkpt>
      <trkpt lat="47.32512" lon="-2.3191">
        <ele>14</ele>
        <time>2021-04-11T08:46:27.000Z</time>
      </trkpt>
      <trkpt lat="47.32513" lon="-2.319">
        <ele>14.39999961853</ele>
        <time>2021-04-11T08:46:28.000Z</time>
      </trkpt>
      <trkpt lat="47.32518" lon="-2.31849">
        <ele>14.39999961853</ele>
        <time>2021-04-11T08:46:34.000Z</time>
      </trkpt>
      <trkpt lat="47.32518" lon="-2.31835">
        <ele>14.39999961853</ele>
        <time>2021-04-11T08:46:36.000Z</time>
      </trkpt>
      <trkpt lat="47.32517" lon="-2.31817">
        <ele>14.39999961853</ele>
        <time>2021-04-11T08:46:39.000Z</time>
      </trkpt>
      <trkpt lat="47.32513" lon="-2.31781">
        <ele>14.39999961853</ele>
        <time>2021-04-11T08:46:45.000Z</time>
      </trkpt>
      <trkpt lat="47.32512" lon="-2.31774">
        <ele>14.39999961853</ele>
        <time>2021-04-11T08:46:46.000Z</time>
      </trkpt>
      <trkpt lat="47.32511" lon="-2.31741">
        <ele>14.39999961853</ele>
        <time>2021-04-11T08:46:50.000Z</time>
      </trkpt>
      <trkpt lat="47.32505" lon="-2.31681">
        <ele>14.39999961853</ele>
        <time>2021-04-11T08:46:57.000Z</time>
      </trkpt>
      <trkpt lat="47.32506" lon="-2.31657">
        <ele>14.39999961853</ele>
        <time>2021-04-11T08:47:00.000Z</time>
      </trkpt>
      <trkpt lat="47.32508" lon="-2.31651">
        <ele>14.39999961853</ele>
        <time>2021-04-11T08:47:01.000Z</time>
      </trkpt>
      <trkpt lat="47.32514" lon="-2.31644">
        <ele>14.39999961853</ele>
        <time>2021-04-11T08:47:04.000Z</time>
      </trkpt>
      <trkpt lat="47.3252" lon="-2.31635">
        <ele>14.39999961853</ele>
        <time>2021-04-11T08:47:08.000Z</time>
      </trkpt>
      <trkpt lat="47.32522" lon="-2.31632">
        <ele>14.39999961853</ele>
        <time>2021-04-11T08:47:09.000Z</time>
      </trkpt>
      <trkpt lat="47.32534" lon="-2.31616">
        <ele>14.39999961853</ele>
        <time>2021-04-11T08:47:15.000Z</time>
      </trkpt>
      <trkpt lat="47.32542" lon="-2.31604">
        <ele>14.39999961853</ele>
        <time>2021-04-11T08:47:18.000Z</time>
      </trkpt>
      <trkpt lat="47.32546" lon="-2.31599">
        <ele>14.39999961853</ele>
        <time>2021-04-11T08:47:19.000Z</time>
      </trkpt>
      <trkpt lat="47.32565" lon="-2.31584">
        <ele>14.39999961853</ele>
        <time>2021-04-11T08:47:24.000Z</time>
      </trkpt>
      <trkpt lat="47.32584" lon="-2.31575">
        <ele>14.39999961853</ele>
        <time>2021-04-11T08:47:29.000Z</time>
      </trkpt>
      <trkpt lat="47.32596" lon="-2.31569">
        <ele>14.39999961853</ele>
        <time>2021-04-11T08:47:34.000Z</time>
      </trkpt>
      <trkpt lat="47.32605" lon="-2.31563">
        <ele>14.39999961853</ele>
        <time>2021-04-11T08:47:41.000Z</time>
      </trkpt>
      <trkpt lat="47.32618" lon="-2.31557">
        <ele>14.39999961853</ele>
        <time>2021-04-11T08:47:47.000Z</time>
      </trkpt>
      <trkpt lat="47.32633" lon="-2.31548">
        <ele>14.39999961853</ele>
        <time>2021-04-11T08:47:54.000Z</time>
      </trkpt>
      <trkpt lat="47.32655" lon="-2.31542">
        <ele>14</ele>
        <time>2021-04-11T08:48:00.000Z</time>
      </trkpt>
      <trkpt lat="47.32659" lon="-2.31541">
        <ele>13.60000038147</ele>
        <time>2021-04-11T08:48:01.000Z</time>
      </trkpt>
      <trkpt lat="47.32662" lon="-2.31539">
        <ele>13.199999809265</ele>
        <time>2021-04-11T08:48:02.000Z</time>
      </trkpt>
      <trkpt lat="47.32665" lon="-2.31537">
        <ele>12.800000190735</ele>
        <time>2021-04-11T08:48:03.000Z</time>
      </trkpt>
      <trkpt lat="47.32668" lon="-2.31536">
        <ele>12.39999961853</ele>
        <time>2021-04-11T08:48:04.000Z</time>
      </trkpt>
      <trkpt lat="47.32672" lon="-2.31533">
        <ele>12.39999961853</ele>
        <time>2021-04-11T08:48:06.000Z</time>
      </trkpt>
      <trkpt lat="47.32692" lon="-2.31521">
        <ele>12.39999961853</ele>
        <time>2021-04-11T08:48:12.000Z</time>
      </trkpt>
      <trkpt lat="47.32713" lon="-2.31505">
        <ele>12.39999961853</ele>
        <time>2021-04-11T08:48:18.000Z</time>
      </trkpt>
      <trkpt lat="47.3273" lon="-2.31486">
        <ele>12.39999961853</ele>
        <time>2021-04-11T08:48:23.000Z</time>
      </trkpt>
      <trkpt lat="47.32736" lon="-2.31478">
        <ele>12.39999961853</ele>
        <time>2021-04-11T08:48:25.000Z</time>
      </trkpt>
      <trkpt lat="47.32741" lon="-2.31469">
        <ele>12</ele>
        <time>2021-04-11T08:48:27.000Z</time>
      </trkpt>
      <trkpt lat="47.32744" lon="-2.31464">
        <ele>11.60000038147</ele>
        <time>2021-04-11T08:48:28.000Z</time>
      </trkpt>
      <trkpt lat="47.32746" lon="-2.3146">
        <ele>11.199999809265</ele>
        <time>2021-04-11T08:48:29.000Z</time>
      </trkpt>
      <trkpt lat="47.32749" lon="-2.31455">
        <ele>10.800000190735</ele>
        <time>2021-04-11T08:48:30.000Z</time>
      </trkpt>
      <trkpt lat="47.32752" lon="-2.3145">
        <ele>10.39999961853</ele>
        <time>2021-04-11T08:48:31.000Z</time>
      </trkpt>
      <trkpt lat="47.32754" lon="-2.31445">
        <ele>10.39999961853</ele>
        <time>2021-04-11T08:48:32.000Z</time>
      </trkpt>
      <trkpt lat="47.32756" lon="-2.31439">
        <ele>10.39999961853</ele>
        <time>2021-04-11T08:48:33.000Z</time>
      </trkpt>
      <trkpt lat="47.32758" lon="-2.31419">
        <ele>10.39999961853</ele>
        <time>2021-04-11T08:48:36.000Z</time>
      </trkpt>
      <trkpt lat="47.32758" lon="-2.31408">
        <ele>10.39999961853</ele>
        <time>2021-04-11T08:48:38.000Z</time>
      </trkpt>
      <trkpt lat="47.32755" lon="-2.31388">
        <ele>10.39999961853</ele>
        <time>2021-04-11T08:48:42.000Z</time>
      </trkpt>
      <trkpt lat="47.32755" lon="-2.3136">
        <ele>10.39999961853</ele>
        <time>2021-04-11T08:48:49.000Z</time>
      </trkpt>
      <trkpt lat="47.32755" lon="-2.3136">
        <ele>10.39999961853</ele>
        <time>2021-04-11T08:48:50.000Z</time>
      </trkpt>
      <trkpt lat="47.32756" lon="-2.31357">
        <ele>10.39999961853</ele>
        <time>2021-04-11T08:48:54.000Z</time>
      </trkpt>
      <trkpt lat="47.32757" lon="-2.31354">
        <ele>10.39999961853</ele>
        <time>2021-04-11T08:48:55.000Z</time>
      </trkpt>
      <trkpt lat="47.32769" lon="-2.31343">
        <ele>10.39999961853</ele>
        <time>2021-04-11T08:48:59.000Z</time>
      </trkpt>
      <trkpt lat="47.32794" lon="-2.31333">
        <ele>10.39999961853</ele>
        <time>2021-04-11T08:49:04.000Z</time>
      </trkpt>
      <trkpt lat="47.32829" lon="-2.3132">
        <ele>10.39999961853</ele>
        <time>2021-04-11T08:49:11.000Z</time>
      </trkpt>
      <trkpt lat="47.32861" lon="-2.31307">
        <ele>10.39999961853</ele>
        <time>2021-04-11T08:49:18.000Z</time>
      </trkpt>
      <trkpt lat="47.32883" lon="-2.31298">
        <ele>10</ele>
        <time>2021-04-11T08:49:23.000Z</time>
      </trkpt>
      <trkpt lat="47.32888" lon="-2.31296">
        <ele>9.6000003814697</ele>
        <time>2021-04-11T08:49:24.000Z</time>
      </trkpt>
      <trkpt lat="47.32893" lon="-2.31294">
        <ele>9.1999998092651</ele>
        <time>2021-04-11T08:49:25.000Z</time>
      </trkpt>
      <trkpt lat="47.32898" lon="-2.31292">
        <ele>8.8000001907349</ele>
        <time>2021-04-11T08:49:26.000Z</time>
      </trkpt>
      <trkpt lat="47.32903" lon="-2.3129">
        <ele>8.3999996185303</ele>
        <time>2021-04-11T08:49:27.000Z</time>
      </trkpt>
      <trkpt lat="47.32924" lon="-2.31281">
        <ele>8.3999996185303</ele>
        <time>2021-04-11T08:49:31.000Z</time>
      </trkpt>
      <trkpt lat="47.32936" lon="-2.31259">
        <ele>8.3999996185303</ele>
        <time>2021-04-11T08:49:35.000Z</time>
      </trkpt>
      <trkpt lat="47.32933" lon="-2.31236">
        <ele>8.3999996185303</ele>
        <time>2021-04-11T08:49:38.000Z</time>
      </trkpt>
      <trkpt lat="47.32923" lon="-2.31202">
        <ele>8</ele>
        <time>2021-04-11T08:49:43.000Z</time>
      </trkpt>
      <trkpt lat="47.32921" lon="-2.31195">
        <ele>7.5999999046326</ele>
        <time>2021-04-11T08:49:44.000Z</time>
      </trkpt>
      <trkpt lat="47.32919" lon="-2.31187">
        <ele>7.1999998092651</ele>
        <time>2021-04-11T08:49:45.000Z</time>
      </trkpt>
      <trkpt lat="47.32917" lon="-2.31179">
        <ele>6.8000001907349</ele>
        <time>2021-04-11T08:49:46.000Z</time>
      </trkpt>
      <trkpt lat="47.32915" lon="-2.31171">
        <ele>6.4000000953674</ele>
        <time>2021-04-11T08:49:47.000Z</time>
      </trkpt>
      <trkpt lat="47.3291" lon="-2.31154">
        <ele>6.4000000953674</ele>
        <time>2021-04-11T08:49:49.000Z</time>
      </trkpt>
      <trkpt lat="47.32897" lon="-2.31094">
        <ele>6.4000000953674</ele>
        <time>2021-04-11T08:49:55.000Z</time>
      </trkpt>
      <trkpt lat="47.32892" lon="-2.31042">
        <ele>6.4000000953674</ele>
        <time>2021-04-11T08:50:00.000Z</time>
      </trkpt>
      <trkpt lat="47.32893" lon="-2.30998">
        <ele>6.4000000953674</ele>
        <time>2021-04-11T08:50:05.000Z</time>
      </trkpt>
      <trkpt lat="47.32896" lon="-2.30951">
        <ele>6.8000001907349</ele>
        <time>2021-04-11T08:50:10.000Z</time>
      </trkpt>
      <trkpt lat="47.32898" lon="-2.30942">
        <ele>7.4000000953674</ele>
        <time>2021-04-11T08:50:11.000Z</time>
      </trkpt>
      <trkpt lat="47.32899" lon="-2.30932">
        <ele>7.8000001907349</ele>
        <time>2021-04-11T08:50:12.000Z</time>
      </trkpt>
      <trkpt lat="47.329" lon="-2.30924">
        <ele>8.1999998092651</ele>
        <time>2021-04-11T08:50:13.000Z</time>
      </trkpt>
      <trkpt lat="47.329" lon="-2.30915">
        <ele>8.6000003814697</ele>
        <time>2021-04-11T08:50:14.000Z</time>
      </trkpt>
      <trkpt lat="47.32902" lon="-2.3089">
        <ele>8.6000003814697</ele>
        <time>2021-04-11T08:50:17.000Z</time>
      </trkpt>
      <trkpt lat="47.32908" lon="-2.3083">
        <ele>8.6000003814697</ele>
        <time>2021-04-11T08:50:25.000Z</time>
      </trkpt>
      <trkpt lat="47.32909" lon="-2.30824">
        <ele>8.6000003814697</ele>
        <time>2021-04-11T08:50:26.000Z</time>
      </trkpt>
      <trkpt lat="47.32917" lon="-2.30809">
        <ele>8.6000003814697</ele>
        <time>2021-04-11T08:50:29.000Z</time>
      </trkpt>
      <trkpt lat="47.32931" lon="-2.30808">
        <ele>8.6000003814697</ele>
        <time>2021-04-11T08:50:32.000Z</time>
      </trkpt>
      <trkpt lat="47.32936" lon="-2.30809">
        <ele>8.6000003814697</ele>
        <time>2021-04-11T08:50:33.000Z</time>
      </trkpt>
      <trkpt lat="47.32961" lon="-2.30807">
        <ele>8.6000003814697</ele>
        <time>2021-04-11T08:50:38.000Z</time>
      </trkpt>
      <trkpt lat="47.32996" lon="-2.30806">
        <ele>8.6000003814697</ele>
        <time>2021-04-11T08:50:45.000Z</time>
      </trkpt>
      <trkpt lat="47.33002" lon="-2.30806">
        <ele>8.1999998092651</ele>
        <time>2021-04-11T08:50:46.000Z</time>
      </trkpt>
      <trkpt lat="47.33008" lon="-2.30806">
        <ele>7.8000001907349</ele>
        <time>2021-04-11T08:50:47.000Z</time>
      </trkpt>
      <trkpt lat="47.33013" lon="-2.30807">
        <ele>7.4000000953674</ele>
        <time>2021-04-11T08:50:48.000Z</time>
      </trkpt>
      <trkpt lat="47.33019" lon="-2.30807">
        <ele>7</ele>
        <time>2021-04-11T08:50:49.000Z</time>
      </trkpt>
      <trkpt lat="47.33025" lon="-2.30807">
        <ele>6.5999999046326</ele>
        <time>2021-04-11T08:50:50.000Z</time>
      </trkpt>
      <trkpt lat="47.33037" lon="-2.30807">
        <ele>6.5999999046326</ele>
        <time>2021-04-11T08:50:52.000Z</time>
      </trkpt>
      <trkpt lat="47.33043" lon="-2.30806">
        <ele>6.5999999046326</ele>
        <time>2021-04-11T08:50:53.000Z</time>
      </trkpt>
      <trkpt lat="47.33053" lon="-2.30796">
        <ele>6.5999999046326</ele>
        <time>2021-04-11T08:50:55.000Z</time>
      </trkpt>
      <trkpt lat="47.33061" lon="-2.30773">
        <ele>6.5999999046326</ele>
        <time>2021-04-11T08:50:58.000Z</time>
      </trkpt>
      <trkpt lat="47.33063" lon="-2.30755">
        <ele>6.5999999046326</ele>
        <time>2021-04-11T08:51:00.000Z</time>
      </trkpt>
      <trkpt lat="47.33066" lon="-2.3073">
        <ele>6.5999999046326</ele>
        <time>2021-04-11T08:51:03.000Z</time>
      </trkpt>
      <trkpt lat="47.33078" lon="-2.30682">
        <ele>6.5999999046326</ele>
        <time>2021-04-11T08:51:10.000Z</time>
      </trkpt>
      <trkpt lat="47.33087" lon="-2.30622">
        <ele>6.5999999046326</ele>
        <time>2021-04-11T08:51:17.000Z</time>
      </trkpt>
      <trkpt lat="47.33093" lon="-2.30591">
        <ele>6.5999999046326</ele>
        <time>2021-04-11T08:51:21.000Z</time>
      </trkpt>
      <trkpt lat="47.33098" lon="-2.30578">
        <ele>6.5999999046326</ele>
        <time>2021-04-11T08:51:23.000Z</time>
      </trkpt>
      <trkpt lat="47.33112" lon="-2.3056">
        <ele>6.5999999046326</ele>
        <time>2021-04-11T08:51:27.000Z</time>
      </trkpt>
      <trkpt lat="47.33117" lon="-2.30556">
        <ele>6.5999999046326</ele>
        <time>2021-04-11T08:51:28.000Z</time>
      </trkpt>
      <trkpt lat="47.33136" lon="-2.30549">
        <ele>6.5999999046326</ele>
        <time>2021-04-11T08:51:31.000Z</time>
      </trkpt>
      <trkpt lat="47.33173" lon="-2.30537">
        <ele>6.5999999046326</ele>
        <time>2021-04-11T08:51:37.000Z</time>
      </trkpt>
      <trkpt lat="47.33208" lon="-2.30525">
        <ele>6.5999999046326</ele>
        <time>2021-04-11T08:51:43.000Z</time>
      </trkpt>
      <trkpt lat="47.33241" lon="-2.30514">
        <ele>6.5999999046326</ele>
        <time>2021-04-11T08:51:49.000Z</time>
      </trkpt>
      <trkpt lat="47.33273" lon="-2.30505">
        <ele>6.5999999046326</ele>
        <time>2021-04-11T08:51:55.000Z</time>
      </trkpt>
      <trkpt lat="47.33288" lon="-2.30503">
        <ele>6.1999998092651</ele>
        <time>2021-04-11T08:51:58.000Z</time>
      </trkpt>
      <trkpt lat="47.33293" lon="-2.30503">
        <ele>5.8000001907349</ele>
        <time>2021-04-11T08:51:59.000Z</time>
      </trkpt>
      <trkpt lat="47.33297" lon="-2.30503">
        <ele>5.1999998092651</ele>
        <time>2021-04-11T08:52:00.000Z</time>
      </trkpt>
      <trkpt lat="47.33302" lon="-2.30503">
        <ele>4.8000001907349</ele>
        <time>2021-04-11T08:52:01.000Z</time>
      </trkpt>
      <trkpt lat="47.33305" lon="-2.30502">
        <ele>4.4000000953674</ele>
        <time>2021-04-11T08:52:02.000Z</time>
      </trkpt>
      <trkpt lat="47.33313" lon="-2.30502">
        <ele>4.4000000953674</ele>
        <time>2021-04-11T08:52:05.000Z</time>
      </trkpt>
      <trkpt lat="47.33324" lon="-2.30504">
        <ele>4.4000000953674</ele>
        <time>2021-04-11T08:52:11.000Z</time>
      </trkpt>
      <trkpt lat="47.33326" lon="-2.30504">
        <ele>4.4000000953674</ele>
        <time>2021-04-11T08:52:13.000Z</time>
      </trkpt>
      <trkpt lat="47.33339" lon="-2.30497">
        <ele>4.4000000953674</ele>
        <time>2021-04-11T08:52:28.000Z</time>
      </trkpt>
      <trkpt lat="47.33341" lon="-2.30495">
        <ele>4.4000000953674</ele>
        <time>2021-04-11T08:52:30.000Z</time>
      </trkpt>
      <trkpt lat="47.33343" lon="-2.30493">
        <ele>4.4000000953674</ele>
        <time>2021-04-11T08:52:32.000Z</time>
      </trkpt>
      <trkpt lat="47.33344" lon="-2.30485">
        <ele>4.4000000953674</ele>
        <time>2021-04-11T08:52:36.000Z</time>
      </trkpt>
      <trkpt lat="47.33345" lon="-2.30481">
        <ele>4.4000000953674</ele>
        <time>2021-04-11T08:52:39.000Z</time>
      </trkpt>
      <trkpt lat="47.33344" lon="-2.30479">
        <ele>4.4000000953674</ele>
        <time>2021-04-11T08:52:52.000Z</time>
      </trkpt>
      <trkpt lat="47.33345" lon="-2.30476">
        <ele>4.4000000953674</ele>
        <time>2021-04-11T08:52:54.000Z</time>
      </trkpt>
      <trkpt lat="47.33345" lon="-2.3047">
        <ele>4.4000000953674</ele>
        <time>2021-04-11T08:52:57.000Z</time>
      </trkpt>
      <trkpt lat="47.33345" lon="-2.30457">
        <ele>4.4000000953674</ele>
        <time>2021-04-11T08:53:03.000Z</time>
      </trkpt>
      <trkpt lat="47.33349" lon="-2.30435">
        <ele>4.4000000953674</ele>
        <time>2021-04-11T08:53:09.000Z</time>
      </trkpt>
      <trkpt lat="47.33356" lon="-2.30406">
        <ele>4.4000000953674</ele>
        <time>2021-04-11T08:53:15.000Z</time>
      </trkpt>
      <trkpt lat="47.33372" lon="-2.30393">
        <ele>4.4000000953674</ele>
        <time>2021-04-11T08:53:21.000Z</time>
      </trkpt>
      <trkpt lat="47.33384" lon="-2.30383">
        <ele>4.4000000953674</ele>
        <time>2021-04-11T08:53:27.000Z</time>
      </trkpt>
      <trkpt lat="47.33387" lon="-2.30377">
        <ele>4</ele>
        <time>2021-04-11T08:53:29.000Z</time>
      </trkpt>
      <trkpt lat="47.33388" lon="-2.30375">
        <ele>3.5999999046326</ele>
        <time>2021-04-11T08:53:30.000Z</time>
      </trkpt>
      <trkpt lat="47.33388" lon="-2.30372">
        <ele>3.2000000476837</ele>
        <time>2021-04-11T08:53:31.000Z</time>
      </trkpt>
      <trkpt lat="47.33389" lon="-2.30369">
        <ele>2.7999999523163</ele>
        <time>2021-04-11T08:53:32.000Z</time>
      </trkpt>
      <trkpt lat="47.3339" lon="-2.30366">
        <ele>2.4000000953674</ele>
        <time>2021-04-11T08:53:33.000Z</time>
      </trkpt>
      <trkpt lat="47.33391" lon="-2.30352">
        <ele>2.4000000953674</ele>
        <time>2021-04-11T08:53:38.000Z</time>
      </trkpt>
      <trkpt lat="47.33391" lon="-2.30333">
        <ele>2.4000000953674</ele>
        <time>2021-04-11T08:53:44.000Z</time>
      </trkpt>
      <trkpt lat="47.3339" lon="-2.30309">
        <ele>2.4000000953674</ele>
        <time>2021-04-11T08:53:50.000Z</time>
      </trkpt>
      <trkpt lat="47.3339" lon="-2.3028">
        <ele>2.4000000953674</ele>
        <time>2021-04-11T08:53:56.000Z</time>
      </trkpt>
      <trkpt lat="47.33395" lon="-2.30245">
        <ele>2.4000000953674</ele>
        <time>2021-04-11T08:54:03.000Z</time>
      </trkpt>
      <trkpt lat="47.33406" lon="-2.30211">
        <ele>2.4000000953674</ele>
        <time>2021-04-11T08:54:10.000Z</time>
      </trkpt>
      <trkpt lat="47.33417" lon="-2.3018">
        <ele>2.4000000953674</ele>
        <time>2021-04-11T08:54:17.000Z</time>
      </trkpt>
      <trkpt lat="47.33429" lon="-2.3016">
        <ele>2.4000000953674</ele>
        <time>2021-04-11T08:54:23.000Z</time>
      </trkpt>
      <trkpt lat="47.33435" lon="-2.30155">
        <ele>2.4000000953674</ele>
        <time>2021-04-11T08:54:26.000Z</time>
      </trkpt>
      <trkpt lat="47.33439" lon="-2.30152">
        <ele>2.4000000953674</ele>
        <time>2021-04-11T08:54:28.000Z</time>
      </trkpt>
      <trkpt lat="47.33441" lon="-2.30148">
        <ele>2.4000000953674</ele>
        <time>2021-04-11T08:54:30.000Z</time>
      </trkpt>
      <trkpt lat="47.33445" lon="-2.30139">
        <ele>2.4000000953674</ele>
        <time>2021-04-11T08:54:34.000Z</time>
      </trkpt>
      <trkpt lat="47.33445" lon="-2.30139">
        <ele>2.4000000953674</ele>
        <time>2021-04-11T08:54:35.000Z</time>
      </trkpt>
      <trkpt lat="47.33457" lon="-2.30089">
        <ele>0.80000001192093</ele>
        <time>2021-04-11T09:00:22.000Z</time>
      </trkpt>
      <trkpt lat="47.33458" lon="-2.30087">
        <ele>0.80000001192093</ele>
        <time>2021-04-11T09:00:23.000Z</time>
      </trkpt>
      <trkpt lat="47.33465" lon="-2.30067">
        <ele>0.80000001192093</ele>
        <time>2021-04-11T09:00:29.000Z</time>
      </trkpt>
      <trkpt lat="47.33469" lon="-2.30053">
        <ele>0.80000001192093</ele>
        <time>2021-04-11T09:00:34.000Z</time>
      </trkpt>
      <trkpt lat="47.33473" lon="-2.30036">
        <ele>0.80000001192093</ele>
        <time>2021-04-11T09:00:39.000Z</time>
      </trkpt>
      <trkpt lat="47.33476" lon="-2.3003">
        <ele>0.80000001192093</ele>
        <time>2021-04-11T09:00:41.000Z</time>
      </trkpt>
      <trkpt lat="47.33478" lon="-2.30022">
        <ele>0.80000001192093</ele>
        <time>2021-04-11T09:00:43.000Z</time>
      </trkpt>
      <trkpt lat="47.33486" lon="-2.30004">
        <ele>0.80000001192093</ele>
        <time>2021-04-11T09:00:48.000Z</time>
      </trkpt>
      <trkpt lat="47.33494" lon="-2.3">
        <ele>0.80000001192093</ele>
        <time>2021-04-11T09:00:51.000Z</time>
      </trkpt>
      <trkpt lat="47.33498" lon="-2.3">
        <ele>0.80000001192093</ele>
        <time>2021-04-11T09:00:52.000Z</time>
      </trkpt>
      <trkpt lat="47.33519" lon="-2.29999">
        <ele>0.80000001192093</ele>
        <time>2021-04-11T09:00:58.000Z</time>
      </trkpt>
      <trkpt lat="47.33523" lon="-2.3">
        <ele>0.80000001192093</ele>
        <time>2021-04-11T09:00:59.000Z</time>
      </trkpt>
      <trkpt lat="47.3354" lon="-2.30004">
        <ele>0.80000001192093</ele>
        <time>2021-04-11T09:01:04.000Z</time>
      </trkpt>
      <trkpt lat="47.33563" lon="-2.30005">
        <ele>0.80000001192093</ele>
        <time>2021-04-11T09:01:10.000Z</time>
      </trkpt>
      <trkpt lat="47.33579" lon="-2.29991">
        <ele>0.80000001192093</ele>
        <time>2021-04-11T09:01:15.000Z</time>
      </trkpt>
      <trkpt lat="47.33601" lon="-2.29964">
        <ele>0.80000001192093</ele>
        <time>2021-04-11T09:01:22.000Z</time>
      </trkpt>
      <trkpt lat="47.33628" lon="-2.29931">
        <ele>0.80000001192093</ele>
        <time>2021-04-11T09:01:30.000Z</time>
      </trkpt>
      <trkpt lat="47.33635" lon="-2.29922">
        <ele>0.80000001192093</ele>
        <time>2021-04-11T09:01:32.000Z</time>
      </trkpt>
      <trkpt lat="47.33647" lon="-2.29905">
        <ele>0.80000001192093</ele>
        <time>2021-04-11T09:01:36.000Z</time>
      </trkpt>
      <trkpt lat="47.33652" lon="-2.29886">
        <ele>0.80000001192093</ele>
        <time>2021-04-11T09:01:40.000Z</time>
      </trkpt>
      <trkpt lat="47.33647" lon="-2.29864">
        <ele>0.80000001192093</ele>
        <time>2021-04-11T09:01:44.000Z</time>
      </trkpt>
      <trkpt lat="47.33636" lon="-2.29836">
        <ele>0.80000001192093</ele>
        <time>2021-04-11T09:01:50.000Z</time>
      </trkpt>
      <trkpt lat="47.33639" lon="-2.29817">
        <ele>0.80000001192093</ele>
        <time>2021-04-11T09:01:54.000Z</time>
      </trkpt>
      <trkpt lat="47.33653" lon="-2.29808">
        <ele>0.80000001192093</ele>
        <time>2021-04-11T09:01:58.000Z</time>
      </trkpt>
      <trkpt lat="47.33665" lon="-2.29804">
        <ele>0.80000001192093</ele>
        <time>2021-04-11T09:02:01.000Z</time>
      </trkpt>
      <trkpt lat="47.33673" lon="-2.298">
        <ele>0.80000001192093</ele>
        <time>2021-04-11T09:02:03.000Z</time>
      </trkpt>
      <trkpt lat="47.33689" lon="-2.29792">
        <ele>0.80000001192093</ele>
        <time>2021-04-11T09:02:08.000Z</time>
      </trkpt>
      <trkpt lat="47.33708" lon="-2.29795">
        <ele>0.80000001192093</ele>
        <time>2021-04-11T09:02:14.000Z</time>
      </trkpt>
      <trkpt lat="47.33732" lon="-2.29803">
        <ele>0.80000001192093</ele>
        <time>2021-04-11T09:02:21.000Z</time>
      </trkpt>
      <trkpt lat="47.33749" lon="-2.29808">
        <ele>0.80000001192093</ele>
        <time>2021-04-11T09:02:26.000Z</time>
      </trkpt>
      <trkpt lat="47.33773" lon="-2.29813">
        <ele>0.80000001192093</ele>
        <time>2021-04-11T09:02:32.000Z</time>
      </trkpt>
      <trkpt lat="47.33777" lon="-2.29814">
        <ele>0.80000001192093</ele>
        <time>2021-04-11T09:02:33.000Z</time>
      </trkpt>
      <trkpt lat="47.3379" lon="-2.29817">
        <ele>0.80000001192093</ele>
        <time>2021-04-11T09:02:36.000Z</time>
      </trkpt>
      <trkpt lat="47.33803" lon="-2.29817">
        <ele>0.80000001192093</ele>
        <time>2021-04-11T09:02:39.000Z</time>
      </trkpt>
      <trkpt lat="47.33811" lon="-2.29816">
        <ele>1.2000000476837</ele>
        <time>2021-04-11T09:02:41.000Z</time>
      </trkpt>
      <trkpt lat="47.33815" lon="-2.29814">
        <ele>1.6000000238419</ele>
        <time>2021-04-11T09:02:42.000Z</time>
      </trkpt>
      <trkpt lat="47.33819" lon="-2.29812">
        <ele>2</ele>
        <time>2021-04-11T09:02:43.000Z</time>
      </trkpt>
      <trkpt lat="47.33823" lon="-2.2981">
        <ele>2.4000000953674</ele>
        <time>2021-04-11T09:02:44.000Z</time>
      </trkpt>
      <trkpt lat="47.33826" lon="-2.29808">
        <ele>2.7999999523163</ele>
        <time>2021-04-11T09:02:45.000Z</time>
      </trkpt>
      <trkpt lat="47.33841" lon="-2.29801">
        <ele>2.7999999523163</ele>
        <time>2021-04-11T09:02:50.000Z</time>
      </trkpt>
      <trkpt lat="47.33848" lon="-2.29799">
        <ele>2.7999999523163</ele>
        <time>2021-04-11T09:02:54.000Z</time>
      </trkpt>
      <trkpt lat="47.33848" lon="-2.29799">
        <ele>2.7999999523163</ele>
        <time>2021-04-11T09:02:55.000Z</time>
      </trkpt>
      <trkpt lat="47.33848" lon="-2.29799">
        <ele>2.7999999523163</ele>
        <time>2021-04-11T09:02:56.000Z</time>
      </trkpt>
      <trkpt lat="47.3385" lon="-2.29792">
        <ele>2.7999999523163</ele>
        <time>2021-04-11T09:03:10.000Z</time>
      </trkpt>
      <trkpt lat="47.33848" lon="-2.29786">
        <ele>2.7999999523163</ele>
        <time>2021-04-11T09:03:12.000Z</time>
      </trkpt>
      <trkpt lat="47.33847" lon="-2.29768">
        <ele>2.7999999523163</ele>
        <time>2021-04-11T09:03:16.000Z</time>
      </trkpt>
      <trkpt lat="47.33845" lon="-2.29735">
        <ele>2.7999999523163</ele>
        <time>2021-04-11T09:03:22.000Z</time>
      </trkpt>
      <trkpt lat="47.33843" lon="-2.29692">
        <ele>2.7999999523163</ele>
        <time>2021-04-11T09:03:29.000Z</time>
      </trkpt>
      <trkpt lat="47.33841" lon="-2.29659">
        <ele>2.7999999523163</ele>
        <time>2021-04-11T09:03:34.000Z</time>
      </trkpt>
      <trkpt lat="47.3384" lon="-2.29642">
        <ele>2.7999999523163</ele>
        <time>2021-04-11T09:03:37.000Z</time>
      </trkpt>
      <trkpt lat="47.33837" lon="-2.29615">
        <ele>2.7999999523163</ele>
        <time>2021-04-11T09:03:42.000Z</time>
      </trkpt>
      <trkpt lat="47.33831" lon="-2.29581">
        <ele>2.7999999523163</ele>
        <time>2021-04-11T09:03:48.000Z</time>
      </trkpt>
      <trkpt lat="47.33829" lon="-2.29553">
        <ele>2.7999999523163</ele>
        <time>2021-04-11T09:03:53.000Z</time>
      </trkpt>
      <trkpt lat="47.33836" lon="-2.29536">
        <ele>2.7999999523163</ele>
        <time>2021-04-11T09:03:57.000Z</time>
      </trkpt>
      <trkpt lat="47.33853" lon="-2.29527">
        <ele>2.7999999523163</ele>
        <time>2021-04-11T09:04:01.000Z</time>
      </trkpt>
      <trkpt lat="47.33883" lon="-2.29512">
        <ele>2.7999999523163</ele>
        <time>2021-04-11T09:04:07.000Z</time>
      </trkpt>
      <trkpt lat="47.33915" lon="-2.29496">
        <ele>2.7999999523163</ele>
        <time>2021-04-11T09:04:13.000Z</time>
      </trkpt>
      <trkpt lat="47.3392" lon="-2.29492">
        <ele>2.7999999523163</ele>
        <time>2021-04-11T09:04:14.000Z</time>
      </trkpt>
      <trkpt lat="47.33925" lon="-2.29487">
        <ele>2.7999999523163</ele>
        <time>2021-04-11T09:04:15.000Z</time>
      </trkpt>
      <trkpt lat="47.33937" lon="-2.29473">
        <ele>2.7999999523163</ele>
        <time>2021-04-11T09:04:18.000Z</time>
      </trkpt>
      <trkpt lat="47.33947" lon="-2.29456">
        <ele>2.7999999523163</ele>
        <time>2021-04-11T09:04:21.000Z</time>
      </trkpt>
      <trkpt lat="47.33948" lon="-2.29441">
        <ele>2.7999999523163</ele>
        <time>2021-04-11T09:04:23.000Z</time>
      </trkpt>
      <trkpt lat="47.3394" lon="-2.29423">
        <ele>2.7999999523163</ele>
        <time>2021-04-11T09:04:26.000Z</time>
      </trkpt>
      <trkpt lat="47.33936" lon="-2.29417">
        <ele>2.7999999523163</ele>
        <time>2021-04-11T09:04:27.000Z</time>
      </trkpt>
      <trkpt lat="47.33912" lon="-2.29393">
        <ele>2.7999999523163</ele>
        <time>2021-04-11T09:04:32.000Z</time>
      </trkpt>
      <trkpt lat="47.3388" lon="-2.29361">
        <ele>2.7999999523163</ele>
        <time>2021-04-11T09:04:38.000Z</time>
      </trkpt>
      <trkpt lat="47.33858" lon="-2.29344">
        <ele>3.2000000476837</ele>
        <time>2021-04-11T09:04:42.000Z</time>
      </trkpt>
      <trkpt lat="47.33853" lon="-2.2934">
        <ele>3.5999999046326</ele>
        <time>2021-04-11T09:04:43.000Z</time>
      </trkpt>
      <trkpt lat="47.33848" lon="-2.29335">
        <ele>4</ele>
        <time>2021-04-11T09:04:44.000Z</time>
      </trkpt>
      <trkpt lat="47.33844" lon="-2.2933">
        <ele>4.5999999046326</ele>
        <time>2021-04-11T09:04:45.000Z</time>
      </trkpt>
      <trkpt lat="47.33839" lon="-2.29326">
        <ele>5</ele>
        <time>2021-04-11T09:04:46.000Z</time>
      </trkpt>
      <trkpt lat="47.33821" lon="-2.29309">
        <ele>5</ele>
        <time>2021-04-11T09:04:50.000Z</time>
      </trkpt>
      <trkpt lat="47.33807" lon="-2.29297">
        <ele>5</ele>
        <time>2021-04-11T09:04:53.000Z</time>
      </trkpt>
      <trkpt lat="47.33801" lon="-2.29284">
        <ele>5</ele>
        <time>2021-04-11T09:04:55.000Z</time>
      </trkpt>
      <trkpt lat="47.33798" lon="-2.29269">
        <ele>5</ele>
        <time>2021-04-11T09:04:57.000Z</time>
      </trkpt>
      <trkpt lat="47.33801" lon="-2.29242">
        <ele>5</ele>
        <time>2021-04-11T09:05:00.000Z</time>
      </trkpt>
      <trkpt lat="47.33803" lon="-2.29233">
        <ele>5</ele>
        <time>2021-04-11T09:05:01.000Z</time>
      </trkpt>
      <trkpt lat="47.3381" lon="-2.29185">
        <ele>5</ele>
        <time>2021-04-11T09:05:06.000Z</time>
      </trkpt>
      <trkpt lat="47.33812" lon="-2.29157">
        <ele>5</ele>
        <time>2021-04-11T09:05:09.000Z</time>
      </trkpt>
      <trkpt lat="47.33816" lon="-2.29141">
        <ele>5</ele>
        <time>2021-04-11T09:05:11.000Z</time>
      </trkpt>
      <trkpt lat="47.3382" lon="-2.2912">
        <ele>5</ele>
        <time>2021-04-11T09:05:14.000Z</time>
      </trkpt>
      <trkpt lat="47.33826" lon="-2.29112">
        <ele>5</ele>
        <time>2021-04-11T09:05:16.000Z</time>
      </trkpt>
      <trkpt lat="47.3384" lon="-2.29102">
        <ele>5</ele>
        <time>2021-04-11T09:05:19.000Z</time>
      </trkpt>
      <trkpt lat="47.3385" lon="-2.29095">
        <ele>5</ele>
        <time>2021-04-11T09:05:22.000Z</time>
      </trkpt>
      <trkpt lat="47.33855" lon="-2.29091">
        <ele>5</ele>
        <time>2021-04-11T09:05:24.000Z</time>
      </trkpt>
      <trkpt lat="47.33869" lon="-2.29079">
        <ele>4.5999999046326</ele>
        <time>2021-04-11T09:05:29.000Z</time>
      </trkpt>
      <trkpt lat="47.33872" lon="-2.29075">
        <ele>4.1999998092651</ele>
        <time>2021-04-11T09:05:30.000Z</time>
      </trkpt>
      <trkpt lat="47.33875" lon="-2.2907">
        <ele>3.2000000476837</ele>
        <time>2021-04-11T09:05:31.000Z</time>
      </trkpt>
      <trkpt lat="47.33878" lon="-2.29066">
        <ele>2.7999999523163</ele>
        <time>2021-04-11T09:05:32.000Z</time>
      </trkpt>
      <trkpt lat="47.3389" lon="-2.29055">
        <ele>2.7999999523163</ele>
        <time>2021-04-11T09:05:35.000Z</time>
      </trkpt>
      <trkpt lat="47.33918" lon="-2.29031">
        <ele>2.7999999523163</ele>
        <time>2021-04-11T09:05:41.000Z</time>
      </trkpt>
      <trkpt lat="47.33949" lon="-2.29008">
        <ele>2.7999999523163</ele>
        <time>2021-04-11T09:05:47.000Z</time>
      </trkpt>
      <trkpt lat="47.33966" lon="-2.28994">
        <ele>2.7999999523163</ele>
        <time>2021-04-11T09:05:50.000Z</time>
      </trkpt>
      <trkpt lat="47.33983" lon="-2.2898">
        <ele>2.7999999523163</ele>
        <time>2021-04-11T09:05:53.000Z</time>
      </trkpt>
      <trkpt lat="47.34" lon="-2.28968">
        <ele>2.7999999523163</ele>
        <time>2021-04-11T09:05:56.000Z</time>
      </trkpt>
      <trkpt lat="47.34024" lon="-2.28956">
        <ele>2.7999999523163</ele>
        <time>2021-04-11T09:06:00.000Z</time>
      </trkpt>
      <trkpt lat="47.34058" lon="-2.28937">
        <ele>2.7999999523163</ele>
        <time>2021-04-11T09:06:06.000Z</time>
      </trkpt>
      <trkpt lat="47.34086" lon="-2.28908">
        <ele>2.7999999523163</ele>
        <time>2021-04-11T09:06:12.000Z</time>
      </trkpt>
      <trkpt lat="47.34093" lon="-2.28894">
        <ele>2.7999999523163</ele>
        <time>2021-04-11T09:06:14.000Z</time>
      </trkpt>
      <trkpt lat="47.34096" lon="-2.28877">
        <ele>2.7999999523163</ele>
        <time>2021-04-11T09:06:16.000Z</time>
      </trkpt>
      <trkpt lat="47.34095" lon="-2.2886">
        <ele>2.7999999523163</ele>
        <time>2021-04-11T09:06:18.000Z</time>
      </trkpt>
      <trkpt lat="47.34095" lon="-2.28842">
        <ele>2.7999999523163</ele>
        <time>2021-04-11T09:06:20.000Z</time>
      </trkpt>
      <trkpt lat="47.34096" lon="-2.28834">
        <ele>2.7999999523163</ele>
        <time>2021-04-11T09:06:21.000Z</time>
      </trkpt>
      <trkpt lat="47.34097" lon="-2.288">
        <ele>2.7999999523163</ele>
        <time>2021-04-11T09:06:25.000Z</time>
      </trkpt>
      <trkpt lat="47.34097" lon="-2.28763">
        <ele>2.7999999523163</ele>
        <time>2021-04-11T09:06:29.000Z</time>
      </trkpt>
      <trkpt lat="47.34093" lon="-2.28749">
        <ele>2.7999999523163</ele>
        <time>2021-04-11T09:06:31.000Z</time>
      </trkpt>
      <trkpt lat="47.3408" lon="-2.28734">
        <ele>2.7999999523163</ele>
        <time>2021-04-11T09:06:34.000Z</time>
      </trkpt>
      <trkpt lat="47.34053" lon="-2.2872">
        <ele>2.7999999523163</ele>
        <time>2021-04-11T09:06:39.000Z</time>
      </trkpt>
      <trkpt lat="47.34043" lon="-2.28719">
        <ele>2.7999999523163</ele>
        <time>2021-04-11T09:06:41.000Z</time>
      </trkpt>
      <trkpt lat="47.3403" lon="-2.28713">
        <ele>2.7999999523163</ele>
        <time>2021-04-11T09:06:44.000Z</time>
      </trkpt>
      <trkpt lat="47.34005" lon="-2.287">
        <ele>2.7999999523163</ele>
        <time>2021-04-11T09:06:51.000Z</time>
      </trkpt>
      <trkpt lat="47.3399" lon="-2.28686">
        <ele>2.7999999523163</ele>
        <time>2021-04-11T09:06:57.000Z</time>
      </trkpt>
      <trkpt lat="47.33989" lon="-2.28682">
        <ele>2.7999999523163</ele>
        <time>2021-04-11T09:06:58.000Z</time>
      </trkpt>
      <trkpt lat="47.3399" lon="-2.28671">
        <ele>2.7999999523163</ele>
        <time>2021-04-11T09:07:01.000Z</time>
      </trkpt>
      <trkpt lat="47.33992" lon="-2.28649">
        <ele>2.7999999523163</ele>
        <time>2021-04-11T09:07:08.000Z</time>
      </trkpt>
      <trkpt lat="47.34" lon="-2.28638">
        <ele>2.7999999523163</ele>
        <time>2021-04-11T09:07:13.000Z</time>
      </trkpt>
      <trkpt lat="47.34006" lon="-2.28635">
        <ele>2.7999999523163</ele>
        <time>2021-04-11T09:07:19.000Z</time>
      </trkpt>
      <trkpt lat="47.34002" lon="-2.28636">
        <ele>0.80000001192093</ele>
        <time>2021-04-11T09:18:51.000Z</time>
      </trkpt>
      <trkpt lat="47.33998" lon="-2.28638">
        <ele>0.80000001192093</ele>
        <time>2021-04-11T09:18:54.000Z</time>
      </trkpt>
      <trkpt lat="47.33989" lon="-2.28639">
        <ele>0.80000001192093</ele>
        <time>2021-04-11T09:19:00.000Z</time>
      </trkpt>
      <trkpt lat="47.33988" lon="-2.28639">
        <ele>0.80000001192093</ele>
        <time>2021-04-11T09:19:01.000Z</time>
      </trkpt>
      <trkpt lat="47.33979" lon="-2.28633">
        <ele>0.80000001192093</ele>
        <time>2021-04-11T09:19:07.000Z</time>
      </trkpt>
      <trkpt lat="47.3397" lon="-2.28623">
        <ele>0.80000001192093</ele>
        <time>2021-04-11T09:19:12.000Z</time>
      </trkpt>
      <trkpt lat="47.33965" lon="-2.28615">
        <ele>0.80000001192093</ele>
        <time>2021-04-11T09:19:15.000Z</time>
      </trkpt>
      <trkpt lat="47.33957" lon="-2.28604">
        <ele>0.80000001192093</ele>
        <time>2021-04-11T09:19:19.000Z</time>
      </trkpt>
      <trkpt lat="47.33935" lon="-2.28577">
        <ele>0.80000001192093</ele>
        <time>2021-04-11T09:19:26.000Z</time>
      </trkpt>
      <trkpt lat="47.33911" lon="-2.28546">
        <ele>0.80000001192093</ele>
        <time>2021-04-11T09:19:33.000Z</time>
      </trkpt>
      <trkpt lat="47.33887" lon="-2.28516">
        <ele>0.80000001192093</ele>
        <time>2021-04-11T09:19:40.000Z</time>
      </trkpt>
      <trkpt lat="47.33866" lon="-2.28491">
        <ele>0.80000001192093</ele>
        <time>2021-04-11T09:19:46.000Z</time>
      </trkpt>
      <trkpt lat="47.33844" lon="-2.28467">
        <ele>0.80000001192093</ele>
        <time>2021-04-11T09:19:52.000Z</time>
      </trkpt>
      <trkpt lat="47.33829" lon="-2.28461">
        <ele>0.80000001192093</ele>
        <time>2021-04-11T09:19:56.000Z</time>
      </trkpt>
      <trkpt lat="47.33808" lon="-2.28469">
        <ele>0.80000001192093</ele>
        <time>2021-04-11T09:20:01.000Z</time>
      </trkpt>
      <trkpt lat="47.33783" lon="-2.28486">
        <ele>0.80000001192093</ele>
        <time>2021-04-11T09:20:07.000Z</time>
      </trkpt>
      <trkpt lat="47.33758" lon="-2.28508">
        <ele>0.80000001192093</ele>
        <time>2021-04-11T09:20:14.000Z</time>
      </trkpt>
      <trkpt lat="47.33734" lon="-2.28531">
        <ele>0.80000001192093</ele>
        <time>2021-04-11T09:20:20.000Z</time>
      </trkpt>
      <trkpt lat="47.3373" lon="-2.28535">
        <ele>0.80000001192093</ele>
        <time>2021-04-11T09:20:21.000Z</time>
      </trkpt>
      <trkpt lat="47.33702" lon="-2.28558">
        <ele>0.80000001192093</ele>
        <time>2021-04-11T09:20:28.000Z</time>
      </trkpt>
      <trkpt lat="47.33695" lon="-2.28565">
        <ele>0.80000001192093</ele>
        <time>2021-04-11T09:20:30.000Z</time>
      </trkpt>
      <trkpt lat="47.3368" lon="-2.2858">
        <ele>0.80000001192093</ele>
        <time>2021-04-11T09:20:34.000Z</time>
      </trkpt>
      <trkpt lat="47.33662" lon="-2.28601">
        <ele>0.80000001192093</ele>
        <time>2021-04-11T09:20:39.000Z</time>
      </trkpt>
      <trkpt lat="47.33655" lon="-2.28611">
        <ele>0.80000001192093</ele>
        <time>2021-04-11T09:20:41.000Z</time>
      </trkpt>
      <trkpt lat="47.33629" lon="-2.28635">
        <ele>0.80000001192093</ele>
        <time>2021-04-11T09:20:46.000Z</time>
      </trkpt>
      <trkpt lat="47.33594" lon="-2.28651">
        <ele>0.80000001192093</ele>
        <time>2021-04-11T09:20:53.000Z</time>
      </trkpt>
      <trkpt lat="47.33564" lon="-2.28668">
        <ele>0.80000001192093</ele>
        <time>2021-04-11T09:20:59.000Z</time>
      </trkpt>
      <trkpt lat="47.33533" lon="-2.28681">
        <ele>0.80000001192093</ele>
        <time>2021-04-11T09:21:05.000Z</time>
      </trkpt>
      <trkpt lat="47.33523" lon="-2.28687">
        <ele>0.80000001192093</ele>
        <time>2021-04-11T09:21:07.000Z</time>
      </trkpt>
      <trkpt lat="47.33509" lon="-2.287">
        <ele>0.80000001192093</ele>
        <time>2021-04-11T09:21:10.000Z</time>
      </trkpt>
      <trkpt lat="47.33501" lon="-2.28711">
        <ele>1.2000000476837</ele>
        <time>2021-04-11T09:21:12.000Z</time>
      </trkpt>
      <trkpt lat="47.33497" lon="-2.28716">
        <ele>1.6000000238419</ele>
        <time>2021-04-11T09:21:13.000Z</time>
      </trkpt>
      <trkpt lat="47.33493" lon="-2.28721">
        <ele>2</ele>
        <time>2021-04-11T09:21:14.000Z</time>
      </trkpt>
      <trkpt lat="47.3349" lon="-2.28727">
        <ele>2.4000000953674</ele>
        <time>2021-04-11T09:21:15.000Z</time>
      </trkpt>
      <trkpt lat="47.33486" lon="-2.28733">
        <ele>2.7999999523163</ele>
        <time>2021-04-11T09:21:16.000Z</time>
      </trkpt>
      <trkpt lat="47.33471" lon="-2.28767">
        <ele>2.7999999523163</ele>
        <time>2021-04-11T09:21:21.000Z</time>
      </trkpt>
      <trkpt lat="47.33456" lon="-2.28799">
        <ele>2.7999999523163</ele>
        <time>2021-04-11T09:21:26.000Z</time>
      </trkpt>
      <trkpt lat="47.33453" lon="-2.28806">
        <ele>2.7999999523163</ele>
        <time>2021-04-11T09:21:27.000Z</time>
      </trkpt>
      <trkpt lat="47.33429" lon="-2.2884">
        <ele>2.7999999523163</ele>
        <time>2021-04-11T09:21:33.000Z</time>
      </trkpt>
      <trkpt lat="47.33408" lon="-2.28863">
        <ele>2.7999999523163</ele>
        <time>2021-04-11T09:21:38.000Z</time>
      </trkpt>
      <trkpt lat="47.33403" lon="-2.28867">
        <ele>2.7999999523163</ele>
        <time>2021-04-11T09:21:39.000Z</time>
      </trkpt>
      <trkpt lat="47.3337" lon="-2.28883">
        <ele>3.2000000476837</ele>
        <time>2021-04-11T09:21:45.000Z</time>
      </trkpt>
      <trkpt lat="47.33364" lon="-2.28885">
        <ele>3.5999999046326</ele>
        <time>2021-04-11T09:21:46.000Z</time>
      </trkpt>
      <trkpt lat="47.33359" lon="-2.28887">
        <ele>4.1999998092651</ele>
        <time>2021-04-11T09:21:47.000Z</time>
      </trkpt>
      <trkpt lat="47.33353" lon="-2.2889">
        <ele>4.5999999046326</ele>
        <time>2021-04-11T09:21:48.000Z</time>
      </trkpt>
      <trkpt lat="47.33348" lon="-2.28892">
        <ele>5</ele>
        <time>2021-04-11T09:21:49.000Z</time>
      </trkpt>
      <trkpt lat="47.3332" lon="-2.28906">
        <ele>5</ele>
        <time>2021-04-11T09:21:54.000Z</time>
      </trkpt>
      <trkpt lat="47.33305" lon="-2.28917">
        <ele>5</ele>
        <time>2021-04-11T09:21:57.000Z</time>
      </trkpt>
      <trkpt lat="47.33292" lon="-2.28925">
        <ele>5</ele>
        <time>2021-04-11T09:22:00.000Z</time>
      </trkpt>
      <trkpt lat="47.33258" lon="-2.28949">
        <ele>5</ele>
        <time>2021-04-11T09:22:08.000Z</time>
      </trkpt>
      <trkpt lat="47.3325" lon="-2.28958">
        <ele>5</ele>
        <time>2021-04-11T09:22:10.000Z</time>
      </trkpt>
      <trkpt lat="47.33242" lon="-2.28979">
        <ele>5</ele>
        <time>2021-04-11T09:22:13.000Z</time>
      </trkpt>
      <trkpt lat="47.33241" lon="-2.28987">
        <ele>5</ele>
        <time>2021-04-11T09:22:14.000Z</time>
      </trkpt>
      <trkpt lat="47.33238" lon="-2.29009">
        <ele>5.8000001907349</ele>
        <time>2021-04-11T09:22:17.000Z</time>
      </trkpt>
      <trkpt lat="47.33238" lon="-2.29016">
        <ele>6.1999998092651</ele>
        <time>2021-04-11T09:22:18.000Z</time>
      </trkpt>
      <trkpt lat="47.33238" lon="-2.29023">
        <ele>6.5999999046326</ele>
        <time>2021-04-11T09:22:19.000Z</time>
      </trkpt>
      <trkpt lat="47.33238" lon="-2.29029">
        <ele>7</ele>
        <time>2021-04-11T09:22:20.000Z</time>
      </trkpt>
      <trkpt lat="47.33235" lon="-2.29064">
        <ele>7</ele>
        <time>2021-04-11T09:22:26.000Z</time>
      </trkpt>
      <trkpt lat="47.33225" lon="-2.29071">
        <ele>7</ele>
        <time>2021-04-11T09:22:30.000Z</time>
      </trkpt>
      <trkpt lat="47.33197" lon="-2.29067">
        <ele>7</ele>
        <time>2021-04-11T09:22:36.000Z</time>
      </trkpt>
      <trkpt lat="47.33155" lon="-2.29058">
        <ele>7</ele>
        <time>2021-04-11T09:22:45.000Z</time>
      </trkpt>
      <trkpt lat="47.33129" lon="-2.29061">
        <ele>7.4000000953674</ele>
        <time>2021-04-11T09:22:51.000Z</time>
      </trkpt>
      <trkpt lat="47.33125" lon="-2.29062">
        <ele>7.8000001907349</ele>
        <time>2021-04-11T09:22:52.000Z</time>
      </trkpt>
      <trkpt lat="47.33121" lon="-2.29064">
        <ele>8.1999998092651</ele>
        <time>2021-04-11T09:22:53.000Z</time>
      </trkpt>
      <trkpt lat="47.33117" lon="-2.29065">
        <ele>8.6000003814697</ele>
        <time>2021-04-11T09:22:54.000Z</time>
      </trkpt>
      <trkpt lat="47.33113" lon="-2.29066">
        <ele>9.1999998092651</ele>
        <time>2021-04-11T09:22:55.000Z</time>
      </trkpt>
      <trkpt lat="47.33102" lon="-2.29068">
        <ele>9.1999998092651</ele>
        <time>2021-04-11T09:22:58.000Z</time>
      </trkpt>
      <trkpt lat="47.33094" lon="-2.29066">
        <ele>9.1999998092651</ele>
        <time>2021-04-11T09:23:01.000Z</time>
      </trkpt>
      <trkpt lat="47.3309" lon="-2.29059">
        <ele>9.1999998092651</ele>
        <time>2021-04-11T09:23:03.000Z</time>
      </trkpt>
      <trkpt lat="47.33088" lon="-2.29035">
        <ele>9.1999998092651</ele>
        <time>2021-04-11T09:23:07.000Z</time>
      </trkpt>
      <trkpt lat="47.33095" lon="-2.29012">
        <ele>9.1999998092651</ele>
        <time>2021-04-11T09:23:11.000Z</time>
      </trkpt>
      <trkpt lat="47.331" lon="-2.28977">
        <ele>9.1999998092651</ele>
        <time>2021-04-11T09:23:16.000Z</time>
      </trkpt>
      <trkpt lat="47.33107" lon="-2.28937">
        <ele>9.1999998092651</ele>
        <time>2021-04-11T09:23:22.000Z</time>
      </trkpt>
      <trkpt lat="47.33112" lon="-2.28907">
        <ele>9.1999998092651</ele>
        <time>2021-04-11T09:23:26.000Z</time>
      </trkpt>
      <trkpt lat="47.33113" lon="-2.28892">
        <ele>9.1999998092651</ele>
        <time>2021-04-11T09:23:28.000Z</time>
      </trkpt>
      <trkpt lat="47.33112" lon="-2.28875">
        <ele>9.1999998092651</ele>
        <time>2021-04-11T09:23:30.000Z</time>
      </trkpt>
      <trkpt lat="47.3311" lon="-2.28859">
        <ele>9.1999998092651</ele>
        <time>2021-04-11T09:23:32.000Z</time>
      </trkpt>
      <trkpt lat="47.33103" lon="-2.28824">
        <ele>9.1999998092651</ele>
        <time>2021-04-11T09:23:36.000Z</time>
      </trkpt>
      <trkpt lat="47.33099" lon="-2.28819">
        <ele>9.1999998092651</ele>
        <time>2021-04-11T09:23:37.000Z</time>
      </trkpt>
      <trkpt lat="47.33089" lon="-2.2882">
        <ele>9.1999998092651</ele>
        <time>2021-04-11T09:23:39.000Z</time>
      </trkpt>
      <trkpt lat="47.33078" lon="-2.28825">
        <ele>9.1999998092651</ele>
        <time>2021-04-11T09:23:41.000Z</time>
      </trkpt>
      <trkpt lat="47.33065" lon="-2.28831">
        <ele>9.1999998092651</ele>
        <time>2021-04-11T09:23:43.000Z</time>
      </trkpt>
      <trkpt lat="47.33027" lon="-2.2885">
        <ele>9.1999998092651</ele>
        <time>2021-04-11T09:23:49.000Z</time>
      </trkpt>
      <trkpt lat="47.32977" lon="-2.28886">
        <ele>9.1999998092651</ele>
        <time>2021-04-11T09:23:57.000Z</time>
      </trkpt>
      <trkpt lat="47.3293" lon="-2.28927">
        <ele>9.1999998092651</ele>
        <time>2021-04-11T09:24:05.000Z</time>
      </trkpt>
      <trkpt lat="47.32918" lon="-2.28937">
        <ele>9.1999998092651</ele>
        <time>2021-04-11T09:24:07.000Z</time>
      </trkpt>
      <trkpt lat="47.32901" lon="-2.28946">
        <ele>9.1999998092651</ele>
        <time>2021-04-11T09:24:10.000Z</time>
      </trkpt>
      <trkpt lat="47.3288" lon="-2.28942">
        <ele>8.6000003814697</ele>
        <time>2021-04-11T09:24:13.000Z</time>
      </trkpt>
      <trkpt lat="47.32872" lon="-2.28942">
        <ele>8.1999998092651</ele>
        <time>2021-04-11T09:24:14.000Z</time>
      </trkpt>
      <trkpt lat="47.32864" lon="-2.28944">
        <ele>7.8000001907349</ele>
        <time>2021-04-11T09:24:15.000Z</time>
      </trkpt>
      <trkpt lat="47.32857" lon="-2.28947">
        <ele>7.4000000953674</ele>
        <time>2021-04-11T09:24:16.000Z</time>
      </trkpt>
      <trkpt lat="47.32851" lon="-2.28953">
        <ele>7</ele>
        <time>2021-04-11T09:24:17.000Z</time>
      </trkpt>
      <trkpt lat="47.32845" lon="-2.28959">
        <ele>7</ele>
        <time>2021-04-11T09:24:18.000Z</time>
      </trkpt>
      <trkpt lat="47.32831" lon="-2.2897">
        <ele>7</ele>
        <time>2021-04-11T09:24:20.000Z</time>
      </trkpt>
      <trkpt lat="47.32798" lon="-2.28994">
        <ele>6.5999999046326</ele>
        <time>2021-04-11T09:24:25.000Z</time>
      </trkpt>
      <trkpt lat="47.32792" lon="-2.28997">
        <ele>6.1999998092651</ele>
        <time>2021-04-11T09:24:26.000Z</time>
      </trkpt>
      <trkpt lat="47.32785" lon="-2.29">
        <ele>5.8000001907349</ele>
        <time>2021-04-11T09:24:27.000Z</time>
      </trkpt>
      <trkpt lat="47.32778" lon="-2.29003">
        <ele>5.4000000953674</ele>
        <time>2021-04-11T09:24:28.000Z</time>
      </trkpt>
      <trkpt lat="47.32773" lon="-2.29005">
        <ele>5</ele>
        <time>2021-04-11T09:24:29.000Z</time>
      </trkpt>
      <trkpt lat="47.32769" lon="-2.29008">
        <ele>5</ele>
        <time>2021-04-11T09:24:30.000Z</time>
      </trkpt>
      <trkpt lat="47.32767" lon="-2.29012">
        <ele>5</ele>
        <time>2021-04-11T09:24:31.000Z</time>
      </trkpt>
      <trkpt lat="47.32762" lon="-2.29017">
        <ele>5</ele>
        <time>2021-04-11T09:24:35.000Z</time>
      </trkpt>
      <trkpt lat="47.32761" lon="-2.2901">
        <ele>5</ele>
        <time>2021-04-11T09:24:38.000Z</time>
      </trkpt>
      <trkpt lat="47.32762" lon="-2.29006">
        <ele>5</ele>
        <time>2021-04-11T09:24:39.000Z</time>
      </trkpt>
      <trkpt lat="47.32764" lon="-2.28988">
        <ele>5</ele>
        <time>2021-04-11T09:24:43.000Z</time>
      </trkpt>
      <trkpt lat="47.32765" lon="-2.28949">
        <ele>5</ele>
        <time>2021-04-11T09:24:50.000Z</time>
      </trkpt>
      <trkpt lat="47.32768" lon="-2.28911">
        <ele>5</ele>
        <time>2021-04-11T09:24:56.000Z</time>
      </trkpt>
      <trkpt lat="47.32776" lon="-2.28872">
        <ele>5</ele>
        <time>2021-04-11T09:25:02.000Z</time>
      </trkpt>
      <trkpt lat="47.32777" lon="-2.28866">
        <ele>5</ele>
        <time>2021-04-11T09:25:03.000Z</time>
      </trkpt>
      <trkpt lat="47.32793" lon="-2.28807">
        <ele>5</ele>
        <time>2021-04-11T09:25:12.000Z</time>
      </trkpt>
      <trkpt lat="47.32796" lon="-2.28771">
        <ele>5</ele>
        <time>2021-04-11T09:25:17.000Z</time>
      </trkpt>
      <trkpt lat="47.32794" lon="-2.28755">
        <ele>5</ele>
        <time>2021-04-11T09:25:19.000Z</time>
      </trkpt>
      <trkpt lat="47.3279" lon="-2.28715">
        <ele>5</ele>
        <time>2021-04-11T09:25:24.000Z</time>
      </trkpt>
      <trkpt lat="47.32785" lon="-2.28683">
        <ele>5</ele>
        <time>2021-04-11T09:25:28.000Z</time>
      </trkpt>
      <trkpt lat="47.32776" lon="-2.2866">
        <ele>5</ele>
        <time>2021-04-11T09:25:31.000Z</time>
      </trkpt>
      <trkpt lat="47.32749" lon="-2.28607">
        <ele>5</ele>
        <time>2021-04-11T09:25:38.000Z</time>
      </trkpt>
      <trkpt lat="47.32728" lon="-2.28557">
        <ele>5</ele>
        <time>2021-04-11T09:25:44.000Z</time>
      </trkpt>
      <trkpt lat="47.32726" lon="-2.28548">
        <ele>5</ele>
        <time>2021-04-11T09:25:45.000Z</time>
      </trkpt>
      <trkpt lat="47.32722" lon="-2.28518">
        <ele>5</ele>
        <time>2021-04-11T09:25:48.000Z</time>
      </trkpt>
      <trkpt lat="47.32717" lon="-2.2845">
        <ele>5</ele>
        <time>2021-04-11T09:25:55.000Z</time>
      </trkpt>
      <trkpt lat="47.32708" lon="-2.28366">
        <ele>5</ele>
        <time>2021-04-11T09:26:03.000Z</time>
      </trkpt>
      <trkpt lat="47.32706" lon="-2.28335">
        <ele>4.4000000953674</ele>
        <time>2021-04-11T09:26:06.000Z</time>
      </trkpt>
      <trkpt lat="47.32705" lon="-2.28326">
        <ele>4</ele>
        <time>2021-04-11T09:26:07.000Z</time>
      </trkpt>
      <trkpt lat="47.32704" lon="-2.28319">
        <ele>3.5999999046326</ele>
        <time>2021-04-11T09:26:08.000Z</time>
      </trkpt>
      <trkpt lat="47.327" lon="-2.28313">
        <ele>3.2000000476837</ele>
        <time>2021-04-11T09:26:09.000Z</time>
      </trkpt>
      <trkpt lat="47.32696" lon="-2.28312">
        <ele>2.7999999523163</ele>
        <time>2021-04-11T09:26:10.000Z</time>
      </trkpt>
      <trkpt lat="47.32691" lon="-2.28313">
        <ele>2.7999999523163</ele>
        <time>2021-04-11T09:26:11.000Z</time>
      </trkpt>
      <trkpt lat="47.32669" lon="-2.28327">
        <ele>2.7999999523163</ele>
        <time>2021-04-11T09:26:15.000Z</time>
      </trkpt>
      <trkpt lat="47.32646" lon="-2.28343">
        <ele>2.7999999523163</ele>
        <time>2021-04-11T09:26:19.000Z</time>
      </trkpt>
      <trkpt lat="47.3264" lon="-2.28344">
        <ele>2.7999999523163</ele>
        <time>2021-04-11T09:26:20.000Z</time>
      </trkpt>
      <trkpt lat="47.3262" lon="-2.28329">
        <ele>2.7999999523163</ele>
        <time>2021-04-11T09:26:23.000Z</time>
      </trkpt>
      <trkpt lat="47.32603" lon="-2.28296">
        <ele>2.7999999523163</ele>
        <time>2021-04-11T09:26:27.000Z</time>
      </trkpt>
      <trkpt lat="47.32596" lon="-2.28263">
        <ele>2.7999999523163</ele>
        <time>2021-04-11T09:26:30.000Z</time>
      </trkpt>
      <trkpt lat="47.32595" lon="-2.28251">
        <ele>2.7999999523163</ele>
        <time>2021-04-11T09:26:31.000Z</time>
      </trkpt>
      <trkpt lat="47.32581" lon="-2.28171">
        <ele>2.4000000953674</ele>
        <time>2021-04-11T09:26:38.000Z</time>
      </trkpt>
      <trkpt lat="47.32579" lon="-2.28159">
        <ele>1.7999999523163</ele>
        <time>2021-04-11T09:26:39.000Z</time>
      </trkpt>
      <trkpt lat="47.32577" lon="-2.28147">
        <ele>1.3999999761581</ele>
        <time>2021-04-11T09:26:40.000Z</time>
      </trkpt>
      <trkpt lat="47.32575" lon="-2.28135">
        <ele>1</ele>
        <time>2021-04-11T09:26:41.000Z</time>
      </trkpt>
      <trkpt lat="47.32572" lon="-2.28123">
        <ele>0.40000000596046</ele>
        <time>2021-04-11T09:26:42.000Z</time>
      </trkpt>
      <trkpt lat="47.32564" lon="-2.28086">
        <ele>0.40000000596046</ele>
        <time>2021-04-11T09:26:45.000Z</time>
      </trkpt>
      <trkpt lat="47.32553" lon="-2.28015">
        <ele>0.40000000596046</ele>
        <time>2021-04-11T09:26:51.000Z</time>
      </trkpt>
      <trkpt lat="47.32536" lon="-2.27933">
        <ele>0.40000000596046</ele>
        <time>2021-04-11T09:26:58.000Z</time>
      </trkpt>
      <trkpt lat="47.32533" lon="-2.27921">
        <ele>0.40000000596046</ele>
        <time>2021-04-11T09:26:59.000Z</time>
      </trkpt>
      <trkpt lat="47.32514" lon="-2.27847">
        <ele>0.40000000596046</ele>
        <time>2021-04-11T09:27:06.000Z</time>
      </trkpt>
      <trkpt lat="47.32495" lon="-2.27829">
        <ele>0.40000000596046</ele>
        <time>2021-04-11T09:27:09.000Z</time>
      </trkpt>
      <trkpt lat="47.32471" lon="-2.27829">
        <ele>0.40000000596046</ele>
        <time>2021-04-11T09:27:12.000Z</time>
      </trkpt>
      <trkpt lat="47.32463" lon="-2.27829">
        <ele>0.40000000596046</ele>
        <time>2021-04-11T09:27:13.000Z</time>
      </trkpt>
      <trkpt lat="47.32413" lon="-2.27831">
        <ele>0.40000000596046</ele>
        <time>2021-04-11T09:27:19.000Z</time>
      </trkpt>
      <trkpt lat="47.32364" lon="-2.27832">
        <ele>0.40000000596046</ele>
        <time>2021-04-11T09:27:25.000Z</time>
      </trkpt>
      <trkpt lat="47.32334" lon="-2.27835">
        <ele>0.40000000596046</ele>
        <time>2021-04-11T09:27:30.000Z</time>
      </trkpt>
      <trkpt lat="47.32304" lon="-2.27836">
        <ele>0.40000000596046</ele>
        <time>2021-04-11T09:27:37.000Z</time>
      </trkpt>
      <trkpt lat="47.32279" lon="-2.27834">
        <ele>0.40000000596046</ele>
        <time>2021-04-11T09:27:44.000Z</time>
      </trkpt>
      <trkpt lat="47.32274" lon="-2.27834">
        <ele>0.40000000596046</ele>
        <time>2021-04-11T09:27:45.000Z</time>
      </trkpt>
      <trkpt lat="47.32256" lon="-2.2783">
        <ele>0.40000000596046</ele>
        <time>2021-04-11T09:27:49.000Z</time>
      </trkpt>
      <trkpt lat="47.32234" lon="-2.27822">
        <ele>0.40000000596046</ele>
        <time>2021-04-11T09:27:54.000Z</time>
      </trkpt>
      <trkpt lat="47.32224" lon="-2.27819">
        <ele>0.40000000596046</ele>
        <time>2021-04-11T09:27:56.000Z</time>
      </trkpt>
      <trkpt lat="47.32184" lon="-2.27807">
        <ele>0.40000000596046</ele>
        <time>2021-04-11T09:28:04.000Z</time>
      </trkpt>
      <trkpt lat="47.32158" lon="-2.27803">
        <ele>0.40000000596046</ele>
        <time>2021-04-11T09:28:09.000Z</time>
      </trkpt>
      <trkpt lat="47.32148" lon="-2.27812">
        <ele>0.40000000596046</ele>
        <time>2021-04-11T09:28:11.000Z</time>
      </trkpt>
      <trkpt lat="47.32144" lon="-2.27828">
        <ele>1</ele>
        <time>2021-04-11T09:28:13.000Z</time>
      </trkpt>
      <trkpt lat="47.32142" lon="-2.27837">
        <ele>1.3999999761581</ele>
        <time>2021-04-11T09:28:14.000Z</time>
      </trkpt>
      <trkpt lat="47.32141" lon="-2.27846">
        <ele>1.7999999523163</ele>
        <time>2021-04-11T09:28:15.000Z</time>
      </trkpt>
      <trkpt lat="47.32139" lon="-2.27855">
        <ele>2.2000000476837</ele>
        <time>2021-04-11T09:28:16.000Z</time>
      </trkpt>
      <trkpt lat="47.32137" lon="-2.27864">
        <ele>2.7999999523163</ele>
        <time>2021-04-11T09:28:17.000Z</time>
      </trkpt>
      <trkpt lat="47.3213" lon="-2.279">
        <ele>2.7999999523163</ele>
        <time>2021-04-11T09:28:21.000Z</time>
      </trkpt>
      <trkpt lat="47.32128" lon="-2.27909">
        <ele>2.7999999523163</ele>
        <time>2021-04-11T09:28:22.000Z</time>
      </trkpt>
      <trkpt lat="47.32118" lon="-2.2795">
        <ele>2.7999999523163</ele>
        <time>2021-04-11T09:28:27.000Z</time>
      </trkpt>
      <trkpt lat="47.32114" lon="-2.27956">
        <ele>2.7999999523163</ele>
        <time>2021-04-11T09:28:28.000Z</time>
      </trkpt>
      <trkpt lat="47.32096" lon="-2.27963">
        <ele>2.7999999523163</ele>
        <time>2021-04-11T09:28:31.000Z</time>
      </trkpt>
      <trkpt lat="47.32091" lon="-2.27965">
        <ele>2.7999999523163</ele>
        <time>2021-04-11T09:28:32.000Z</time>
      </trkpt>
      <trkpt lat="47.32059" lon="-2.2798">
        <ele>2.7999999523163</ele>
        <time>2021-04-11T09:28:38.000Z</time>
      </trkpt>
      <trkpt lat="47.32044" lon="-2.28003">
        <ele>2.7999999523163</ele>
        <time>2021-04-11T09:28:42.000Z</time>
      </trkpt>
      <trkpt lat="47.32041" lon="-2.28028">
        <ele>2.7999999523163</ele>
        <time>2021-04-11T09:28:45.000Z</time>
      </trkpt>
      <trkpt lat="47.32041" lon="-2.28055">
        <ele>2.7999999523163</ele>
        <time>2021-04-11T09:28:48.000Z</time>
      </trkpt>
      <trkpt lat="47.32041" lon="-2.28073">
        <ele>2.7999999523163</ele>
        <time>2021-04-11T09:28:50.000Z</time>
      </trkpt>
      <trkpt lat="47.32036" lon="-2.28119">
        <ele>2.7999999523163</ele>
        <time>2021-04-11T09:28:56.000Z</time>
      </trkpt>
      <trkpt lat="47.32025" lon="-2.28128">
        <ele>2.7999999523163</ele>
        <time>2021-04-11T09:28:59.000Z</time>
      </trkpt>
      <trkpt lat="47.32014" lon="-2.28131">
        <ele>2.7999999523163</ele>
        <time>2021-04-11T09:29:01.000Z</time>
      </trkpt>
      <trkpt lat="47.32009" lon="-2.28131">
        <ele>2.7999999523163</ele>
        <time>2021-04-11T09:29:02.000Z</time>
      </trkpt>
      <trkpt lat="47.31998" lon="-2.28134">
        <ele>2.7999999523163</ele>
        <time>2021-04-11T09:29:04.000Z</time>
      </trkpt>
      <trkpt lat="47.31975" lon="-2.28138">
        <ele>2.7999999523163</ele>
        <time>2021-04-11T09:29:08.000Z</time>
      </trkpt>
      <trkpt lat="47.31969" lon="-2.28137">
        <ele>3.2000000476837</ele>
        <time>2021-04-11T09:29:09.000Z</time>
      </trkpt>
      <trkpt lat="47.31963" lon="-2.28138">
        <ele>3.5999999046326</ele>
        <time>2021-04-11T09:29:10.000Z</time>
      </trkpt>
      <trkpt lat="47.31957" lon="-2.28138">
        <ele>4</ele>
        <time>2021-04-11T09:29:11.000Z</time>
      </trkpt>
      <trkpt lat="47.3195" lon="-2.28138">
        <ele>4.4000000953674</ele>
        <time>2021-04-11T09:29:12.000Z</time>
      </trkpt>
      <trkpt lat="47.31944" lon="-2.28138">
        <ele>4.8000001907349</ele>
        <time>2021-04-11T09:29:13.000Z</time>
      </trkpt>
      <trkpt lat="47.31901" lon="-2.2814">
        <ele>4.8000001907349</ele>
        <time>2021-04-11T09:29:20.000Z</time>
      </trkpt>
      <trkpt lat="47.31869" lon="-2.28146">
        <ele>4.8000001907349</ele>
        <time>2021-04-11T09:29:25.000Z</time>
      </trkpt>
      <trkpt lat="47.31864" lon="-2.28152">
        <ele>4.8000001907349</ele>
        <time>2021-04-11T09:29:26.000Z</time>
      </trkpt>
      <trkpt lat="47.31857" lon="-2.28179">
        <ele>4.8000001907349</ele>
        <time>2021-04-11T09:29:29.000Z</time>
      </trkpt>
      <trkpt lat="47.31859" lon="-2.28218">
        <ele>4.8000001907349</ele>
        <time>2021-04-11T09:29:33.000Z</time>
      </trkpt>
      <trkpt lat="47.31869" lon="-2.2828">
        <ele>4.8000001907349</ele>
        <time>2021-04-11T09:29:40.000Z</time>
      </trkpt>
      <trkpt lat="47.31884" lon="-2.28357">
        <ele>4.8000001907349</ele>
        <time>2021-04-11T09:29:50.000Z</time>
      </trkpt>
      <trkpt lat="47.31898" lon="-2.28425">
        <ele>4.8000001907349</ele>
        <time>2021-04-11T09:29:58.000Z</time>
      </trkpt>
      <trkpt lat="47.31898" lon="-2.2847">
        <ele>4.8000001907349</ele>
        <time>2021-04-11T09:30:03.000Z</time>
      </trkpt>
      <trkpt lat="47.31897" lon="-2.28533">
        <ele>4.8000001907349</ele>
        <time>2021-04-11T09:30:10.000Z</time>
      </trkpt>
      <trkpt lat="47.31898" lon="-2.28541">
        <ele>4.8000001907349</ele>
        <time>2021-04-11T09:30:11.000Z</time>
      </trkpt>
      <trkpt lat="47.31899" lon="-2.28569">
        <ele>4.8000001907349</ele>
        <time>2021-04-11T09:30:14.000Z</time>
      </trkpt>
      <trkpt lat="47.31897" lon="-2.28606">
        <ele>4.8000001907349</ele>
        <time>2021-04-11T09:30:18.000Z</time>
      </trkpt>
      <trkpt lat="47.31895" lon="-2.28615">
        <ele>4.8000001907349</ele>
        <time>2021-04-11T09:30:19.000Z</time>
      </trkpt>
      <trkpt lat="47.31888" lon="-2.28666">
        <ele>4.8000001907349</ele>
        <time>2021-04-11T09:30:25.000Z</time>
      </trkpt>
      <trkpt lat="47.31883" lon="-2.28717">
        <ele>4.8000001907349</ele>
        <time>2021-04-11T09:30:31.000Z</time>
      </trkpt>
      <trkpt lat="47.31878" lon="-2.28775">
        <ele>4.8000001907349</ele>
        <time>2021-04-11T09:30:38.000Z</time>
      </trkpt>
      <trkpt lat="47.31871" lon="-2.28831">
        <ele>4.8000001907349</ele>
        <time>2021-04-11T09:30:45.000Z</time>
      </trkpt>
      <trkpt lat="47.31868" lon="-2.28841">
        <ele>4.8000001907349</ele>
        <time>2021-04-11T09:30:48.000Z</time>
      </trkpt>
      <trkpt lat="47.31868" lon="-2.28864">
        <ele>4.8000001907349</ele>
        <time>2021-04-11T09:30:52.000Z</time>
      </trkpt>
      <trkpt lat="47.31869" lon="-2.28878">
        <ele>4.8000001907349</ele>
        <time>2021-04-11T09:30:54.000Z</time>
      </trkpt>
      <trkpt lat="47.31869" lon="-2.28895">
        <ele>4.8000001907349</ele>
        <time>2021-04-11T09:30:56.000Z</time>
      </trkpt>
      <trkpt lat="47.31869" lon="-2.28911">
        <ele>4.8000001907349</ele>
        <time>2021-04-11T09:30:58.000Z</time>
      </trkpt>
      <trkpt lat="47.31866" lon="-2.28952">
        <ele>4.8000001907349</ele>
        <time>2021-04-11T09:31:03.000Z</time>
      </trkpt>
      <trkpt lat="47.31865" lon="-2.28969">
        <ele>4.8000001907349</ele>
        <time>2021-04-11T09:31:05.000Z</time>
      </trkpt>
      <trkpt lat="47.31857" lon="-2.29019">
        <ele>4.8000001907349</ele>
        <time>2021-04-11T09:31:11.000Z</time>
      </trkpt>
      <trkpt lat="47.31843" lon="-2.29084">
        <ele>4.8000001907349</ele>
        <time>2021-04-11T09:31:19.000Z</time>
      </trkpt>
      <trkpt lat="47.31836" lon="-2.29124">
        <ele>4.8000001907349</ele>
        <time>2021-04-11T09:31:24.000Z</time>
      </trkpt>
      <trkpt lat="47.31835" lon="-2.29132">
        <ele>4.8000001907349</ele>
        <time>2021-04-11T09:31:25.000Z</time>
      </trkpt>
      <trkpt lat="47.31829" lon="-2.2917">
        <ele>5.1999998092651</ele>
        <time>2021-04-11T09:31:30.000Z</time>
      </trkpt>
      <trkpt lat="47.31828" lon="-2.29177">
        <ele>5.5999999046326</ele>
        <time>2021-04-11T09:31:31.000Z</time>
      </trkpt>
      <trkpt lat="47.31828" lon="-2.29185">
        <ele>6</ele>
        <time>2021-04-11T09:31:32.000Z</time>
      </trkpt>
      <trkpt lat="47.31827" lon="-2.29193">
        <ele>6.4000000953674</ele>
        <time>2021-04-11T09:31:33.000Z</time>
      </trkpt>
      <trkpt lat="47.31826" lon="-2.292">
        <ele>6.8000001907349</ele>
        <time>2021-04-11T09:31:34.000Z</time>
      </trkpt>
      <trkpt lat="47.31827" lon="-2.29215">
        <ele>6.8000001907349</ele>
        <time>2021-04-11T09:31:36.000Z</time>
      </trkpt>
      <trkpt lat="47.31828" lon="-2.29237">
        <ele>6.8000001907349</ele>
        <time>2021-04-11T09:31:39.000Z</time>
      </trkpt>
      <trkpt lat="47.31829" lon="-2.29244">
        <ele>7.1999998092651</ele>
        <time>2021-04-11T09:31:40.000Z</time>
      </trkpt>
      <trkpt lat="47.3183" lon="-2.29252">
        <ele>7.5999999046326</ele>
        <time>2021-04-11T09:31:41.000Z</time>
      </trkpt>
      <trkpt lat="47.31831" lon="-2.29259">
        <ele>8</ele>
        <time>2021-04-11T09:31:42.000Z</time>
      </trkpt>
      <trkpt lat="47.31832" lon="-2.29266">
        <ele>8.3999996185303</ele>
        <time>2021-04-11T09:31:43.000Z</time>
      </trkpt>
      <trkpt lat="47.31833" lon="-2.29273">
        <ele>8.8000001907349</ele>
        <time>2021-04-11T09:31:44.000Z</time>
      </trkpt>
      <trkpt lat="47.31833" lon="-2.2928">
        <ele>8.8000001907349</ele>
        <time>2021-04-11T09:31:45.000Z</time>
      </trkpt>
      <trkpt lat="47.31836" lon="-2.29316">
        <ele>9.1999998092651</ele>
        <time>2021-04-11T09:31:50.000Z</time>
      </trkpt>
      <trkpt lat="47.31836" lon="-2.29323">
        <ele>9.8000001907349</ele>
        <time>2021-04-11T09:31:51.000Z</time>
      </trkpt>
      <trkpt lat="47.31838" lon="-2.2933">
        <ele>10.199999809265</ele>
        <time>2021-04-11T09:31:52.000Z</time>
      </trkpt>
      <trkpt lat="47.31839" lon="-2.29337">
        <ele>10.60000038147</ele>
        <time>2021-04-11T09:31:53.000Z</time>
      </trkpt>
      <trkpt lat="47.3184" lon="-2.29344">
        <ele>11</ele>
        <time>2021-04-11T09:31:54.000Z</time>
      </trkpt>
      <trkpt lat="47.31848" lon="-2.29381">
        <ele>11</ele>
        <time>2021-04-11T09:31:59.000Z</time>
      </trkpt>
      <trkpt lat="47.31853" lon="-2.29422">
        <ele>11</ele>
        <time>2021-04-11T09:32:04.000Z</time>
      </trkpt>
      <trkpt lat="47.31853" lon="-2.2943">
        <ele>11</ele>
        <time>2021-04-11T09:32:05.000Z</time>
      </trkpt>
      <trkpt lat="47.3185" lon="-2.2946">
        <ele>11.39999961853</ele>
        <time>2021-04-11T09:32:09.000Z</time>
      </trkpt>
      <trkpt lat="47.31849" lon="-2.29468">
        <ele>11.800000190735</ele>
        <time>2021-04-11T09:32:10.000Z</time>
      </trkpt>
      <trkpt lat="47.31848" lon="-2.29477">
        <ele>12.199999809265</ele>
        <time>2021-04-11T09:32:11.000Z</time>
      </trkpt>
      <trkpt lat="47.31848" lon="-2.29485">
        <ele>12.60000038147</ele>
        <time>2021-04-11T09:32:12.000Z</time>
      </trkpt>
      <trkpt lat="47.31849" lon="-2.29493">
        <ele>13</ele>
        <time>2021-04-11T09:32:13.000Z</time>
      </trkpt>
      <trkpt lat="47.31855" lon="-2.29517">
        <ele>13</ele>
        <time>2021-04-11T09:32:16.000Z</time>
      </trkpt>
      <trkpt lat="47.31868" lon="-2.29561">
        <ele>13</ele>
        <time>2021-04-11T09:32:22.000Z</time>
      </trkpt>
      <trkpt lat="47.31873" lon="-2.29592">
        <ele>13</ele>
        <time>2021-04-11T09:32:26.000Z</time>
      </trkpt>
      <trkpt lat="47.3187" lon="-2.29599">
        <ele>13</ele>
        <time>2021-04-11T09:32:27.000Z</time>
      </trkpt>
      <trkpt lat="47.31856" lon="-2.29622">
        <ele>13</ele>
        <time>2021-04-11T09:32:31.000Z</time>
      </trkpt>
      <trkpt lat="47.3185" lon="-2.29627">
        <ele>13</ele>
        <time>2021-04-11T09:32:32.000Z</time>
      </trkpt>
      <trkpt lat="47.31834" lon="-2.29637">
        <ele>13</ele>
        <time>2021-04-11T09:32:35.000Z</time>
      </trkpt>
      <trkpt lat="47.31795" lon="-2.29662">
        <ele>13</ele>
        <time>2021-04-11T09:32:42.000Z</time>
      </trkpt>
      <trkpt lat="47.31764" lon="-2.29686">
        <ele>13</ele>
        <time>2021-04-11T09:32:48.000Z</time>
      </trkpt>
      <trkpt lat="47.31735" lon="-2.29707">
        <ele>13</ele>
        <time>2021-04-11T09:32:54.000Z</time>
      </trkpt>
      <trkpt lat="47.31721" lon="-2.29717">
        <ele>13</ele>
        <time>2021-04-11T09:32:57.000Z</time>
      </trkpt>
      <trkpt lat="47.31716" lon="-2.29719">
        <ele>14</ele>
        <time>2021-04-11T09:32:58.000Z</time>
      </trkpt>
      <trkpt lat="47.31711" lon="-2.29723">
        <ele>14.39999961853</ele>
        <time>2021-04-11T09:32:59.000Z</time>
      </trkpt>
      <trkpt lat="47.31706" lon="-2.29727">
        <ele>14.800000190735</ele>
        <time>2021-04-11T09:33:00.000Z</time>
      </trkpt>
      <trkpt lat="47.31701" lon="-2.2973">
        <ele>15.199999809265</ele>
        <time>2021-04-11T09:33:01.000Z</time>
      </trkpt>
      <trkpt lat="47.31691" lon="-2.29734">
        <ele>15.199999809265</ele>
        <time>2021-04-11T09:33:03.000Z</time>
      </trkpt>
      <trkpt lat="47.31679" lon="-2.29737">
        <ele>15.199999809265</ele>
        <time>2021-04-11T09:33:05.000Z</time>
      </trkpt>
      <trkpt lat="47.31656" lon="-2.29724">
        <ele>15.199999809265</ele>
        <time>2021-04-11T09:33:09.000Z</time>
      </trkpt>
      <trkpt lat="47.31642" lon="-2.2969">
        <ele>15.199999809265</ele>
        <time>2021-04-11T09:33:13.000Z</time>
      </trkpt>
      <trkpt lat="47.31628" lon="-2.29656">
        <ele>15.199999809265</ele>
        <time>2021-04-11T09:33:17.000Z</time>
      </trkpt>
      <trkpt lat="47.3162" lon="-2.29639">
        <ele>15.199999809265</ele>
        <time>2021-04-11T09:33:19.000Z</time>
      </trkpt>
      <trkpt lat="47.31603" lon="-2.29608">
        <ele>15.199999809265</ele>
        <time>2021-04-11T09:33:23.000Z</time>
      </trkpt>
      <trkpt lat="47.31598" lon="-2.29603">
        <ele>15.199999809265</ele>
        <time>2021-04-11T09:33:24.000Z</time>
      </trkpt>
      <trkpt lat="47.3157" lon="-2.29574">
        <ele>15.199999809265</ele>
        <time>2021-04-11T09:33:29.000Z</time>
      </trkpt>
      <trkpt lat="47.31545" lon="-2.29531">
        <ele>15.199999809265</ele>
        <time>2021-04-11T09:33:35.000Z</time>
      </trkpt>
      <trkpt lat="47.31537" lon="-2.29506">
        <ele>15.199999809265</ele>
        <time>2021-04-11T09:33:38.000Z</time>
      </trkpt>
      <trkpt lat="47.31536" lon="-2.29498">
        <ele>15.199999809265</ele>
        <time>2021-04-11T09:33:39.000Z</time>
      </trkpt>
      <trkpt lat="47.31535" lon="-2.2949">
        <ele>15.199999809265</ele>
        <time>2021-04-11T09:33:40.000Z</time>
      </trkpt>
      <trkpt lat="47.31529" lon="-2.29465">
        <ele>15.199999809265</ele>
        <time>2021-04-11T09:33:43.000Z</time>
      </trkpt>
      <trkpt lat="47.31523" lon="-2.29446">
        <ele>14.800000190735</ele>
        <time>2021-04-11T09:33:45.000Z</time>
      </trkpt>
      <trkpt lat="47.3152" lon="-2.29437">
        <ele>13.800000190735</ele>
        <time>2021-04-11T09:33:46.000Z</time>
      </trkpt>
      <trkpt lat="47.31516" lon="-2.29429">
        <ele>13.39999961853</ele>
        <time>2021-04-11T09:33:47.000Z</time>
      </trkpt>
      <trkpt lat="47.31512" lon="-2.2942">
        <ele>13</ele>
        <time>2021-04-11T09:33:48.000Z</time>
      </trkpt>
      <trkpt lat="47.31501" lon="-2.294">
        <ele>13</ele>
        <time>2021-04-11T09:33:51.000Z</time>
      </trkpt>
      <trkpt lat="47.3149" lon="-2.29395">
        <ele>12.39999961853</ele>
        <time>2021-04-11T09:33:53.000Z</time>
      </trkpt>
      <trkpt lat="47.31484" lon="-2.29396">
        <ele>12</ele>
        <time>2021-04-11T09:33:54.000Z</time>
      </trkpt>
      <trkpt lat="47.31477" lon="-2.29399">
        <ele>11.60000038147</ele>
        <time>2021-04-11T09:33:55.000Z</time>
      </trkpt>
      <trkpt lat="47.31471" lon="-2.29402">
        <ele>11.199999809265</ele>
        <time>2021-04-11T09:33:56.000Z</time>
      </trkpt>
      <trkpt lat="47.31465" lon="-2.29404">
        <ele>10.800000190735</ele>
        <time>2021-04-11T09:33:57.000Z</time>
      </trkpt>
      <trkpt lat="47.31453" lon="-2.29403">
        <ele>10.800000190735</ele>
        <time>2021-04-11T09:33:59.000Z</time>
      </trkpt>
      <trkpt lat="47.31448" lon="-2.29399">
        <ele>10.800000190735</ele>
        <time>2021-04-11T09:34:00.000Z</time>
      </trkpt>
      <trkpt lat="47.31429" lon="-2.29375">
        <ele>10.800000190735</ele>
        <time>2021-04-11T09:34:03.000Z</time>
      </trkpt>
      <trkpt lat="47.31424" lon="-2.29367">
        <ele>10.800000190735</ele>
        <time>2021-04-11T09:34:04.000Z</time>
      </trkpt>
      <trkpt lat="47.31413" lon="-2.29341">
        <ele>10.800000190735</ele>
        <time>2021-04-11T09:34:07.000Z</time>
      </trkpt>
      <trkpt lat="47.31408" lon="-2.29334">
        <ele>10.800000190735</ele>
        <time>2021-04-11T09:34:08.000Z</time>
      </trkpt>
      <trkpt lat="47.31394" lon="-2.29322">
        <ele>10.800000190735</ele>
        <time>2021-04-11T09:34:10.000Z</time>
      </trkpt>
      <trkpt lat="47.31368" lon="-2.29313">
        <ele>10.800000190735</ele>
        <time>2021-04-11T09:34:13.000Z</time>
      </trkpt>
      <trkpt lat="47.31351" lon="-2.29307">
        <ele>10.800000190735</ele>
        <time>2021-04-11T09:34:15.000Z</time>
      </trkpt>
      <trkpt lat="47.31334" lon="-2.293">
        <ele>10.39999961853</ele>
        <time>2021-04-11T09:34:17.000Z</time>
      </trkpt>
      <trkpt lat="47.31326" lon="-2.29297">
        <ele>10</ele>
        <time>2021-04-11T09:34:18.000Z</time>
      </trkpt>
      <trkpt lat="47.31317" lon="-2.29295">
        <ele>9.6000003814697</ele>
        <time>2021-04-11T09:34:19.000Z</time>
      </trkpt>
      <trkpt lat="47.31309" lon="-2.29295">
        <ele>9.1999998092651</ele>
        <time>2021-04-11T09:34:20.000Z</time>
      </trkpt>
      <trkpt lat="47.31299" lon="-2.29296">
        <ele>8.8000001907349</ele>
        <time>2021-04-11T09:34:21.000Z</time>
      </trkpt>
      <trkpt lat="47.31284" lon="-2.29305">
        <ele>8.8000001907349</ele>
        <time>2021-04-11T09:34:23.000Z</time>
      </trkpt>
      <trkpt lat="47.31267" lon="-2.29335">
        <ele>8.8000001907349</ele>
        <time>2021-04-11T09:34:26.000Z</time>
      </trkpt>
      <trkpt lat="47.31263" lon="-2.29345">
        <ele>8.8000001907349</ele>
        <time>2021-04-11T09:34:27.000Z</time>
      </trkpt>
      <trkpt lat="47.31259" lon="-2.29356">
        <ele>8.8000001907349</ele>
        <time>2021-04-11T09:34:28.000Z</time>
      </trkpt>
      <trkpt lat="47.31252" lon="-2.29377">
        <ele>8.8000001907349</ele>
        <time>2021-04-11T09:34:30.000Z</time>
      </trkpt>
      <trkpt lat="47.31233" lon="-2.29396">
        <ele>8.8000001907349</ele>
        <time>2021-04-11T09:34:33.000Z</time>
      </trkpt>
      <trkpt lat="47.31219" lon="-2.29407">
        <ele>8.8000001907349</ele>
        <time>2021-04-11T09:34:35.000Z</time>
      </trkpt>
      <trkpt lat="47.31188" lon="-2.29428">
        <ele>8.1999998092651</ele>
        <time>2021-04-11T09:34:39.000Z</time>
      </trkpt>
      <trkpt lat="47.31181" lon="-2.29433">
        <ele>7.8000001907349</ele>
        <time>2021-04-11T09:34:40.000Z</time>
      </trkpt>
      <trkpt lat="47.31173" lon="-2.29439">
        <ele>7.4000000953674</ele>
        <time>2021-04-11T09:34:41.000Z</time>
      </trkpt>
      <trkpt lat="47.31166" lon="-2.29445">
        <ele>7</ele>
        <time>2021-04-11T09:34:42.000Z</time>
      </trkpt>
      <trkpt lat="47.31159" lon="-2.29451">
        <ele>6.5999999046326</ele>
        <time>2021-04-11T09:34:43.000Z</time>
      </trkpt>
      <trkpt lat="47.31138" lon="-2.29469">
        <ele>6.1999998092651</ele>
        <time>2021-04-11T09:34:46.000Z</time>
      </trkpt>
      <trkpt lat="47.31135" lon="-2.29479">
        <ele>5.8000001907349</ele>
        <time>2021-04-11T09:34:47.000Z</time>
      </trkpt>
      <trkpt lat="47.31135" lon="-2.29489">
        <ele>5.1999998092651</ele>
        <time>2021-04-11T09:34:48.000Z</time>
      </trkpt>
      <trkpt lat="47.31136" lon="-2.29498">
        <ele>4.8000001907349</ele>
        <time>2021-04-11T09:34:49.000Z</time>
      </trkpt>
      <trkpt lat="47.31138" lon="-2.29506">
        <ele>4.4000000953674</ele>
        <time>2021-04-11T09:34:50.000Z</time>
      </trkpt>
      <trkpt lat="47.31141" lon="-2.29515">
        <ele>4.4000000953674</ele>
        <time>2021-04-11T09:34:51.000Z</time>
      </trkpt>
      <trkpt lat="47.31145" lon="-2.29523">
        <ele>4.4000000953674</ele>
        <time>2021-04-11T09:34:52.000Z</time>
      </trkpt>
      <trkpt lat="47.31163" lon="-2.29566">
        <ele>4.4000000953674</ele>
        <time>2021-04-11T09:34:57.000Z</time>
      </trkpt>
      <trkpt lat="47.31165" lon="-2.29575">
        <ele>4.4000000953674</ele>
        <time>2021-04-11T09:34:58.000Z</time>
      </trkpt>
      <trkpt lat="47.3116" lon="-2.29589">
        <ele>4.4000000953674</ele>
        <time>2021-04-11T09:35:00.000Z</time>
      </trkpt>
      <trkpt lat="47.31146" lon="-2.29602">
        <ele>4.4000000953674</ele>
        <time>2021-04-11T09:35:03.000Z</time>
      </trkpt>
      <trkpt lat="47.31141" lon="-2.29606">
        <ele>4.4000000953674</ele>
        <time>2021-04-11T09:35:04.000Z</time>
      </trkpt>
      <trkpt lat="47.31115" lon="-2.29627">
        <ele>4.4000000953674</ele>
        <time>2021-04-11T09:35:09.000Z</time>
      </trkpt>
      <trkpt lat="47.31099" lon="-2.29646">
        <ele>4.4000000953674</ele>
        <time>2021-04-11T09:35:13.000Z</time>
      </trkpt>
      <trkpt lat="47.31091" lon="-2.29656">
        <ele>4.4000000953674</ele>
        <time>2021-04-11T09:35:15.000Z</time>
      </trkpt>
      <trkpt lat="47.31079" lon="-2.2967">
        <ele>4.4000000953674</ele>
        <time>2021-04-11T09:35:18.000Z</time>
      </trkpt>
      <trkpt lat="47.31071" lon="-2.29677">
        <ele>4.4000000953674</ele>
        <time>2021-04-11T09:35:20.000Z</time>
      </trkpt>
      <trkpt lat="47.31063" lon="-2.29684">
        <ele>4.4000000953674</ele>
        <time>2021-04-11T09:35:22.000Z</time>
      </trkpt>
      <trkpt lat="47.31049" lon="-2.29694">
        <ele>4.4000000953674</ele>
        <time>2021-04-11T09:35:26.000Z</time>
      </trkpt>
      <trkpt lat="47.31042" lon="-2.297">
        <ele>4.4000000953674</ele>
        <time>2021-04-11T09:35:30.000Z</time>
      </trkpt>
      <trkpt lat="47.31042" lon="-2.29703">
        <ele>4.4000000953674</ele>
        <time>2021-04-11T09:35:31.000Z</time>
      </trkpt>
      <trkpt lat="47.31044" lon="-2.29711">
        <ele>4.4000000953674</ele>
        <time>2021-04-11T09:35:34.000Z</time>
      </trkpt>
      <trkpt lat="47.31046" lon="-2.29716">
        <ele>4.4000000953674</ele>
        <time>2021-04-11T09:35:36.000Z</time>
      </trkpt>
      <trkpt lat="47.31054" lon="-2.2974">
        <ele>4.4000000953674</ele>
        <time>2021-04-11T09:35:43.000Z</time>
      </trkpt>
      <trkpt lat="47.31061" lon="-2.29761">
        <ele>4.4000000953674</ele>
        <time>2021-04-11T09:35:48.000Z</time>
      </trkpt>
      <trkpt lat="47.31067" lon="-2.29785">
        <ele>4.4000000953674</ele>
        <time>2021-04-11T09:35:53.000Z</time>
      </trkpt>
      <trkpt lat="47.31068" lon="-2.29789">
        <ele>4.8000001907349</ele>
        <time>2021-04-11T09:35:54.000Z</time>
      </trkpt>
      <trkpt lat="47.31069" lon="-2.29793">
        <ele>5.1999998092651</ele>
        <time>2021-04-11T09:35:55.000Z</time>
      </trkpt>
      <trkpt lat="47.3107" lon="-2.29798">
        <ele>5.5999999046326</ele>
        <time>2021-04-11T09:35:56.000Z</time>
      </trkpt>
      <trkpt lat="47.31071" lon="-2.29802">
        <ele>6</ele>
        <time>2021-04-11T09:35:57.000Z</time>
      </trkpt>
      <trkpt lat="47.31073" lon="-2.29807">
        <ele>6.5999999046326</ele>
        <time>2021-04-11T09:35:58.000Z</time>
      </trkpt>
      <trkpt lat="47.31077" lon="-2.29824">
        <ele>6.5999999046326</ele>
        <time>2021-04-11T09:36:02.000Z</time>
      </trkpt>
      <trkpt lat="47.31087" lon="-2.29856">
        <ele>6.5999999046326</ele>
        <time>2021-04-11T09:36:09.000Z</time>
      </trkpt>
      <trkpt lat="47.31095" lon="-2.29882">
        <ele>7.4000000953674</ele>
        <time>2021-04-11T09:36:14.000Z</time>
      </trkpt>
      <trkpt lat="47.31097" lon="-2.29888">
        <ele>7.8000001907349</ele>
        <time>2021-04-11T09:36:15.000Z</time>
      </trkpt>
      <trkpt lat="47.31098" lon="-2.29894">
        <ele>8.1999998092651</ele>
        <time>2021-04-11T09:36:16.000Z</time>
      </trkpt>
      <trkpt lat="47.311" lon="-2.299">
        <ele>8.8000001907349</ele>
        <time>2021-04-11T09:36:17.000Z</time>
      </trkpt>
      <trkpt lat="47.31101" lon="-2.29906">
        <ele>8.8000001907349</ele>
        <time>2021-04-11T09:36:18.000Z</time>
      </trkpt>
      <trkpt lat="47.31115" lon="-2.29958">
        <ele>8.8000001907349</ele>
        <time>2021-04-11T09:36:26.000Z</time>
      </trkpt>
      <trkpt lat="47.31132" lon="-2.3002">
        <ele>8.8000001907349</ele>
        <time>2021-04-11T09:36:35.000Z</time>
      </trkpt>
      <trkpt lat="47.31146" lon="-2.30072">
        <ele>8.8000001907349</ele>
        <time>2021-04-11T09:36:42.000Z</time>
      </trkpt>
      <trkpt lat="47.31148" lon="-2.30079">
        <ele>9.1999998092651</ele>
        <time>2021-04-11T09:36:43.000Z</time>
      </trkpt>
      <trkpt lat="47.3115" lon="-2.30086">
        <ele>9.6000003814697</ele>
        <time>2021-04-11T09:36:44.000Z</time>
      </trkpt>
      <trkpt lat="47.31151" lon="-2.30093">
        <ele>10</ele>
        <time>2021-04-11T09:36:45.000Z</time>
      </trkpt>
      <trkpt lat="47.31153" lon="-2.30101">
        <ele>10.39999961853</ele>
        <time>2021-04-11T09:36:46.000Z</time>
      </trkpt>
      <trkpt lat="47.31154" lon="-2.30107">
        <ele>10.800000190735</ele>
        <time>2021-04-11T09:36:47.000Z</time>
      </trkpt>
      <trkpt lat="47.3116" lon="-2.30134">
        <ele>10.800000190735</ele>
        <time>2021-04-11T09:36:51.000Z</time>
      </trkpt>
      <trkpt lat="47.31172" lon="-2.30191">
        <ele>10.800000190735</ele>
        <time>2021-04-11T09:36:59.000Z</time>
      </trkpt>
      <trkpt lat="47.31185" lon="-2.30246">
        <ele>10.800000190735</ele>
        <time>2021-04-11T09:37:07.000Z</time>
      </trkpt>
      <trkpt lat="47.31185" lon="-2.30253">
        <ele>11.199999809265</ele>
        <time>2021-04-11T09:37:08.000Z</time>
      </trkpt>
      <trkpt lat="47.31185" lon="-2.30261">
        <ele>11.60000038147</ele>
        <time>2021-04-11T09:37:09.000Z</time>
      </trkpt>
      <trkpt lat="47.31183" lon="-2.30271">
        <ele>12</ele>
        <time>2021-04-11T09:37:10.000Z</time>
      </trkpt>
      <trkpt lat="47.31181" lon="-2.30279">
        <ele>12.39999961853</ele>
        <time>2021-04-11T09:37:11.000Z</time>
      </trkpt>
      <trkpt lat="47.3118" lon="-2.30287">
        <ele>12.800000190735</ele>
        <time>2021-04-11T09:37:12.000Z</time>
      </trkpt>
      <trkpt lat="47.31169" lon="-2.30347">
        <ele>12.800000190735</ele>
        <time>2021-04-11T09:37:19.000Z</time>
      </trkpt>
      <trkpt lat="47.31168" lon="-2.30356">
        <ele>12.800000190735</ele>
        <time>2021-04-11T09:37:20.000Z</time>
      </trkpt>
      <trkpt lat="47.31174" lon="-2.30411">
        <ele>12.800000190735</ele>
        <time>2021-04-11T09:37:26.000Z</time>
      </trkpt>
      <trkpt lat="47.31184" lon="-2.30468">
        <ele>12.39999961853</ele>
        <time>2021-04-11T09:37:32.000Z</time>
      </trkpt>
      <trkpt lat="47.31186" lon="-2.30477">
        <ele>12</ele>
        <time>2021-04-11T09:37:33.000Z</time>
      </trkpt>
      <trkpt lat="47.31188" lon="-2.30486">
        <ele>11.60000038147</ele>
        <time>2021-04-11T09:37:34.000Z</time>
      </trkpt>
      <trkpt lat="47.31189" lon="-2.30495">
        <ele>11.199999809265</ele>
        <time>2021-04-11T09:37:35.000Z</time>
      </trkpt>
      <trkpt lat="47.31191" lon="-2.30503">
        <ele>10.800000190735</ele>
        <time>2021-04-11T09:37:36.000Z</time>
      </trkpt>
      <trkpt lat="47.31202" lon="-2.30554">
        <ele>10.800000190735</ele>
        <time>2021-04-11T09:37:42.000Z</time>
      </trkpt>
      <trkpt lat="47.31215" lon="-2.3062">
        <ele>10.800000190735</ele>
        <time>2021-04-11T09:37:50.000Z</time>
      </trkpt>
      <trkpt lat="47.31224" lon="-2.30668">
        <ele>10.800000190735</ele>
        <time>2021-04-11T09:37:56.000Z</time>
      </trkpt>
      <trkpt lat="47.31227" lon="-2.30685">
        <ele>10.800000190735</ele>
        <time>2021-04-11T09:37:58.000Z</time>
      </trkpt>
      <trkpt lat="47.31236" lon="-2.30723">
        <ele>10.800000190735</ele>
        <time>2021-04-11T09:38:03.000Z</time>
      </trkpt>
      <trkpt lat="47.31248" lon="-2.30773">
        <ele>10.800000190735</ele>
        <time>2021-04-11T09:38:10.000Z</time>
      </trkpt>
      <trkpt lat="47.31256" lon="-2.30802">
        <ele>10.800000190735</ele>
        <time>2021-04-11T09:38:14.000Z</time>
      </trkpt>
      <trkpt lat="47.31261" lon="-2.30817">
        <ele>11.60000038147</ele>
        <time>2021-04-11T09:38:16.000Z</time>
      </trkpt>
      <trkpt lat="47.31264" lon="-2.30823">
        <ele>12</ele>
        <time>2021-04-11T09:38:17.000Z</time>
      </trkpt>
      <trkpt lat="47.31267" lon="-2.3083">
        <ele>12.39999961853</ele>
        <time>2021-04-11T09:38:18.000Z</time>
      </trkpt>
      <trkpt lat="47.31269" lon="-2.30837">
        <ele>12.800000190735</ele>
        <time>2021-04-11T09:38:19.000Z</time>
      </trkpt>
      <trkpt lat="47.31284" lon="-2.3087">
        <ele>12.800000190735</ele>
        <time>2021-04-11T09:38:24.000Z</time>
      </trkpt>
      <trkpt lat="47.31291" lon="-2.3089">
        <ele>13.199999809265</ele>
        <time>2021-04-11T09:38:27.000Z</time>
      </trkpt>
      <trkpt lat="47.31294" lon="-2.30897">
        <ele>13.60000038147</ele>
        <time>2021-04-11T09:38:28.000Z</time>
      </trkpt>
      <trkpt lat="47.31296" lon="-2.30903">
        <ele>14</ele>
        <time>2021-04-11T09:38:29.000Z</time>
      </trkpt>
      <trkpt lat="47.31299" lon="-2.30909">
        <ele>14.39999961853</ele>
        <time>2021-04-11T09:38:30.000Z</time>
      </trkpt>
      <trkpt lat="47.31302" lon="-2.30915">
        <ele>14.800000190735</ele>
        <time>2021-04-11T09:38:31.000Z</time>
      </trkpt>
      <trkpt lat="47.31308" lon="-2.30934">
        <ele>14.800000190735</ele>
        <time>2021-04-11T09:38:35.000Z</time>
      </trkpt>
      <trkpt lat="47.31309" lon="-2.30937">
        <ele>15.199999809265</ele>
        <time>2021-04-11T09:38:36.000Z</time>
      </trkpt>
      <trkpt lat="47.31309" lon="-2.30938">
        <ele>15.60000038147</ele>
        <time>2021-04-11T09:38:37.000Z</time>
      </trkpt>
      <trkpt lat="47.3131" lon="-2.3094">
        <ele>16</ele>
        <time>2021-04-11T09:38:38.000Z</time>
      </trkpt>
      <trkpt lat="47.3131" lon="-2.30942">
        <ele>16.39999961853</ele>
        <time>2021-04-11T09:38:39.000Z</time>
      </trkpt>
      <trkpt lat="47.31311" lon="-2.30943">
        <ele>17</ele>
        <time>2021-04-11T09:38:40.000Z</time>
      </trkpt>
      <trkpt lat="47.31312" lon="-2.30945">
        <ele>17</ele>
        <time>2021-04-11T09:38:42.000Z</time>
      </trkpt>
      <trkpt lat="47.31313" lon="-2.30947">
        <ele>17</ele>
        <time>2021-04-11T09:38:49.000Z</time>
      </trkpt>
      <trkpt lat="47.31315" lon="-2.30949">
        <ele>17</ele>
        <time>2021-04-11T09:38:50.000Z</time>
      </trkpt>
      <trkpt lat="47.31322" lon="-2.30959">
        <ele>17</ele>
        <time>2021-04-11T09:38:54.000Z</time>
      </trkpt>
      <trkpt lat="47.31323" lon="-2.30965">
        <ele>17</ele>
        <time>2021-04-11T09:38:55.000Z</time>
      </trkpt>
      <trkpt lat="47.31324" lon="-2.30978">
        <ele>17</ele>
        <time>2021-04-11T09:38:57.000Z</time>
      </trkpt>
      <trkpt lat="47.31325" lon="-2.30992">
        <ele>17</ele>
        <time>2021-04-11T09:38:59.000Z</time>
      </trkpt>
      <trkpt lat="47.31326" lon="-2.30999">
        <ele>17</ele>
        <time>2021-04-11T09:39:00.000Z</time>
      </trkpt>
      <trkpt lat="47.3133" lon="-2.31014">
        <ele>17.39999961853</ele>
        <time>2021-04-11T09:39:02.000Z</time>
      </trkpt>
      <trkpt lat="47.31331" lon="-2.31021">
        <ele>17.799999237061</ele>
        <time>2021-04-11T09:39:03.000Z</time>
      </trkpt>
      <trkpt lat="47.31333" lon="-2.31028">
        <ele>18.200000762939</ele>
        <time>2021-04-11T09:39:04.000Z</time>
      </trkpt>
      <trkpt lat="47.31335" lon="-2.31035">
        <ele>18.60000038147</ele>
        <time>2021-04-11T09:39:05.000Z</time>
      </trkpt>
      <trkpt lat="47.31337" lon="-2.31042">
        <ele>19</ele>
        <time>2021-04-11T09:39:06.000Z</time>
      </trkpt>
      <trkpt lat="47.31346" lon="-2.31073">
        <ele>19</ele>
        <time>2021-04-11T09:39:11.000Z</time>
      </trkpt>
      <trkpt lat="47.31351" lon="-2.31097">
        <ele>19</ele>
        <time>2021-04-11T09:39:17.000Z</time>
      </trkpt>
      <trkpt lat="47.31353" lon="-2.31106">
        <ele>19</ele>
        <time>2021-04-11T09:39:22.000Z</time>
      </trkpt>
      <trkpt lat="47.31356" lon="-2.3112">
        <ele>19</ele>
        <time>2021-04-11T09:39:26.000Z</time>
      </trkpt>
      <trkpt lat="47.31365" lon="-2.31137">
        <ele>19</ele>
        <time>2021-04-11T09:39:30.000Z</time>
      </trkpt>
      <trkpt lat="47.31382" lon="-2.31181">
        <ele>19</ele>
        <time>2021-04-11T09:39:37.000Z</time>
      </trkpt>
      <trkpt lat="47.31397" lon="-2.31223">
        <ele>19</ele>
        <time>2021-04-11T09:39:44.000Z</time>
      </trkpt>
      <trkpt lat="47.31392" lon="-2.31238">
        <ele>19</ele>
        <time>2021-04-11T09:39:47.000Z</time>
      </trkpt>
      <trkpt lat="47.31379" lon="-2.31258">
        <ele>19</ele>
        <time>2021-04-11T09:39:51.000Z</time>
      </trkpt>
      <trkpt lat="47.31377" lon="-2.31265">
        <ele>19</ele>
        <time>2021-04-11T09:39:52.000Z</time>
      </trkpt>
      <trkpt lat="47.31369" lon="-2.31293">
        <ele>20</ele>
        <time>2021-04-11T09:39:56.000Z</time>
      </trkpt>
      <trkpt lat="47.31369" lon="-2.31301">
        <ele>20.39999961853</ele>
        <time>2021-04-11T09:39:57.000Z</time>
      </trkpt>
      <trkpt lat="47.3137" lon="-2.31308">
        <ele>20.799999237061</ele>
        <time>2021-04-11T09:39:58.000Z</time>
      </trkpt>
      <trkpt lat="47.3137" lon="-2.31316">
        <ele>21.200000762939</ele>
        <time>2021-04-11T09:39:59.000Z</time>
      </trkpt>
      <trkpt lat="47.31371" lon="-2.31333">
        <ele>21.200000762939</ele>
        <time>2021-04-11T09:40:01.000Z</time>
      </trkpt>
      <trkpt lat="47.31372" lon="-2.31341">
        <ele>21.200000762939</ele>
        <time>2021-04-11T09:40:02.000Z</time>
      </trkpt>
      <trkpt lat="47.3138" lon="-2.31375">
        <ele>21.200000762939</ele>
        <time>2021-04-11T09:40:06.000Z</time>
      </trkpt>
      <trkpt lat="47.31392" lon="-2.31406">
        <ele>21.200000762939</ele>
        <time>2021-04-11T09:40:10.000Z</time>
      </trkpt>
      <trkpt lat="47.3141" lon="-2.3145">
        <ele>21.200000762939</ele>
        <time>2021-04-11T09:40:16.000Z</time>
      </trkpt>
      <trkpt lat="47.31413" lon="-2.31457">
        <ele>21.200000762939</ele>
        <time>2021-04-11T09:40:17.000Z</time>
      </trkpt>
      <trkpt lat="47.31418" lon="-2.31481">
        <ele>21.200000762939</ele>
        <time>2021-04-11T09:40:20.000Z</time>
      </trkpt>
      <trkpt lat="47.31422" lon="-2.31507">
        <ele>21.60000038147</ele>
        <time>2021-04-11T09:40:23.000Z</time>
      </trkpt>
      <trkpt lat="47.31424" lon="-2.31516">
        <ele>22</ele>
        <time>2021-04-11T09:40:24.000Z</time>
      </trkpt>
      <trkpt lat="47.31426" lon="-2.31525">
        <ele>22.39999961853</ele>
        <time>2021-04-11T09:40:25.000Z</time>
      </trkpt>
      <trkpt lat="47.31427" lon="-2.31534">
        <ele>23</ele>
        <time>2021-04-11T09:40:26.000Z</time>
      </trkpt>
      <trkpt lat="47.31428" lon="-2.31544">
        <ele>23.39999961853</ele>
        <time>2021-04-11T09:40:27.000Z</time>
      </trkpt>
      <trkpt lat="47.31438" lon="-2.31613">
        <ele>23.39999961853</ele>
        <time>2021-04-11T09:40:35.000Z</time>
      </trkpt>
      <trkpt lat="47.3145" lon="-2.31674">
        <ele>23.39999961853</ele>
        <time>2021-04-11T09:40:42.000Z</time>
      </trkpt>
      <trkpt lat="47.31453" lon="-2.31682">
        <ele>23.39999961853</ele>
        <time>2021-04-11T09:40:43.000Z</time>
      </trkpt>
      <trkpt lat="47.3146" lon="-2.31715">
        <ele>23.39999961853</ele>
        <time>2021-04-11T09:40:47.000Z</time>
      </trkpt>
      <trkpt lat="47.31469" lon="-2.31768">
        <ele>23.39999961853</ele>
        <time>2021-04-11T09:40:54.000Z</time>
      </trkpt>
      <trkpt lat="47.31468" lon="-2.31775">
        <ele>23.39999961853</ele>
        <time>2021-04-11T09:40:55.000Z</time>
      </trkpt>
      <trkpt lat="47.31461" lon="-2.31795">
        <ele>23.39999961853</ele>
        <time>2021-04-11T09:40:58.000Z</time>
      </trkpt>
      <trkpt lat="47.31458" lon="-2.31802">
        <ele>23.39999961853</ele>
        <time>2021-04-11T09:40:59.000Z</time>
      </trkpt>
      <trkpt lat="47.31447" lon="-2.31823">
        <ele>23.799999237061</ele>
        <time>2021-04-11T09:41:02.000Z</time>
      </trkpt>
      <trkpt lat="47.31444" lon="-2.3183">
        <ele>24.200000762939</ele>
        <time>2021-04-11T09:41:03.000Z</time>
      </trkpt>
      <trkpt lat="47.3144" lon="-2.31837">
        <ele>24.60000038147</ele>
        <time>2021-04-11T09:41:04.000Z</time>
      </trkpt>
      <trkpt lat="47.31437" lon="-2.31845">
        <ele>25</ele>
        <time>2021-04-11T09:41:05.000Z</time>
      </trkpt>
      <trkpt lat="47.31434" lon="-2.31852">
        <ele>25.39999961853</ele>
        <time>2021-04-11T09:41:06.000Z</time>
      </trkpt>
      <trkpt lat="47.31421" lon="-2.31893">
        <ele>25.39999961853</ele>
        <time>2021-04-11T09:41:11.000Z</time>
      </trkpt>
      <trkpt lat="47.31418" lon="-2.31946">
        <ele>25.39999961853</ele>
        <time>2021-04-11T09:41:17.000Z</time>
      </trkpt>
      <trkpt lat="47.31428" lon="-2.31987">
        <ele>25.39999961853</ele>
        <time>2021-04-11T09:41:22.000Z</time>
      </trkpt>
      <trkpt lat="47.31448" lon="-2.32046">
        <ele>25.39999961853</ele>
        <time>2021-04-11T09:41:29.000Z</time>
      </trkpt>
      <trkpt lat="47.31455" lon="-2.32064">
        <ele>25</ele>
        <time>2021-04-11T09:41:31.000Z</time>
      </trkpt>
      <trkpt lat="47.31458" lon="-2.32073">
        <ele>24.60000038147</ele>
        <time>2021-04-11T09:41:32.000Z</time>
      </trkpt>
      <trkpt lat="47.31462" lon="-2.32082">
        <ele>24.200000762939</ele>
        <time>2021-04-11T09:41:33.000Z</time>
      </trkpt>
      <trkpt lat="47.31465" lon="-2.32091">
        <ele>23.799999237061</ele>
        <time>2021-04-11T09:41:34.000Z</time>
      </trkpt>
      <trkpt lat="47.31481" lon="-2.3213">
        <ele>23.39999961853</ele>
        <time>2021-04-11T09:41:39.000Z</time>
      </trkpt>
      <trkpt lat="47.31484" lon="-2.32136">
        <ele>23.39999961853</ele>
        <time>2021-04-11T09:41:40.000Z</time>
      </trkpt>
      <trkpt lat="47.3149" lon="-2.32147">
        <ele>23.39999961853</ele>
        <time>2021-04-11T09:41:42.000Z</time>
      </trkpt>
      <trkpt lat="47.31496" lon="-2.32158">
        <ele>23.39999961853</ele>
        <time>2021-04-11T09:41:44.000Z</time>
      </trkpt>
      <trkpt lat="47.31513" lon="-2.32177">
        <ele>23.799999237061</ele>
        <time>2021-04-11T09:41:49.000Z</time>
      </trkpt>
      <trkpt lat="47.31516" lon="-2.32177">
        <ele>24.39999961853</ele>
        <time>2021-04-11T09:41:50.000Z</time>
      </trkpt>
      <trkpt lat="47.31519" lon="-2.32174">
        <ele>24.799999237061</ele>
        <time>2021-04-11T09:41:51.000Z</time>
      </trkpt>
      <trkpt lat="47.31519" lon="-2.3217">
        <ele>25.200000762939</ele>
        <time>2021-04-11T09:41:52.000Z</time>
      </trkpt>
      <trkpt lat="47.31518" lon="-2.32165">
        <ele>25.799999237061</ele>
        <time>2021-04-11T09:41:53.000Z</time>
      </trkpt>
      <trkpt lat="47.31513" lon="-2.32154">
        <ele>25.799999237061</ele>
        <time>2021-04-11T09:41:55.000Z</time>
      </trkpt>
      <trkpt lat="47.31496" lon="-2.32118">
        <ele>25.799999237061</ele>
        <time>2021-04-11T09:42:01.000Z</time>
      </trkpt>
      <trkpt lat="47.31495" lon="-2.32112">
        <ele>25.799999237061</ele>
        <time>2021-04-11T09:42:02.000Z</time>
      </trkpt>
      <trkpt lat="47.31499" lon="-2.32105">
        <ele>25.799999237061</ele>
        <time>2021-04-11T09:42:05.000Z</time>
      </trkpt>
      <trkpt lat="47.31507" lon="-2.32105">
        <ele>25.799999237061</ele>
        <time>2021-04-11T09:42:10.000Z</time>
      </trkpt>
      <trkpt lat="47.31512" lon="-2.32109">
        <ele>25.799999237061</ele>
        <time>2021-04-11T09:42:12.000Z</time>
      </trkpt>
      <trkpt lat="47.31519" lon="-2.32112">
        <ele>25.799999237061</ele>
        <time>2021-04-11T09:42:14.000Z</time>
      </trkpt>
      <trkpt lat="47.3154" lon="-2.32116">
        <ele>25.799999237061</ele>
        <time>2021-04-11T09:42:19.000Z</time>
      </trkpt>
      <trkpt lat="47.3155" lon="-2.32118">
        <ele>26.200000762939</ele>
        <time>2021-04-11T09:42:21.000Z</time>
      </trkpt>
      <trkpt lat="47.31555" lon="-2.32119">
        <ele>26.60000038147</ele>
        <time>2021-04-11T09:42:22.000Z</time>
      </trkpt>
      <trkpt lat="47.3156" lon="-2.3212">
        <ele>27</ele>
        <time>2021-04-11T09:42:23.000Z</time>
      </trkpt>
      <trkpt lat="47.31565" lon="-2.32121">
        <ele>27.799999237061</ele>
        <time>2021-04-11T09:42:24.000Z</time>
      </trkpt>
      <trkpt lat="47.31571" lon="-2.32123">
        <ele>27.799999237061</ele>
        <time>2021-04-11T09:42:25.000Z</time>
      </trkpt>
      <trkpt lat="47.31621" lon="-2.32136">
        <ele>27.799999237061</ele>
        <time>2021-04-11T09:42:34.000Z</time>
      </trkpt>
      <trkpt lat="47.31643" lon="-2.32141">
        <ele>27.799999237061</ele>
        <time>2021-04-11T09:42:38.000Z</time>
      </trkpt>
      <trkpt lat="47.31653" lon="-2.32144">
        <ele>27.799999237061</ele>
        <time>2021-04-11T09:42:40.000Z</time>
      </trkpt>
      <trkpt lat="47.31658" lon="-2.32146">
        <ele>28.200000762939</ele>
        <time>2021-04-11T09:42:41.000Z</time>
      </trkpt>
      <trkpt lat="47.31663" lon="-2.32147">
        <ele>28.60000038147</ele>
        <time>2021-04-11T09:42:42.000Z</time>
      </trkpt>
      <trkpt lat="47.31668" lon="-2.32149">
        <ele>29</ele>
        <time>2021-04-11T09:42:43.000Z</time>
      </trkpt>
      <trkpt lat="47.31673" lon="-2.32151">
        <ele>29.60000038147</ele>
        <time>2021-04-11T09:42:44.000Z</time>
      </trkpt>
      <trkpt lat="47.31678" lon="-2.32152">
        <ele>30</ele>
        <time>2021-04-11T09:42:45.000Z</time>
      </trkpt>
      <trkpt lat="47.31694" lon="-2.32156">
        <ele>30</ele>
        <time>2021-04-11T09:42:48.000Z</time>
      </trkpt>
      <trkpt lat="47.31704" lon="-2.32158">
        <ele>30</ele>
        <time>2021-04-11T09:42:50.000Z</time>
      </trkpt>
      <trkpt lat="47.31734" lon="-2.32165">
        <ele>30</ele>
        <time>2021-04-11T09:42:56.000Z</time>
      </trkpt>
      <trkpt lat="47.31768" lon="-2.32174">
        <ele>30</ele>
        <time>2021-04-11T09:43:02.000Z</time>
      </trkpt>
      <trkpt lat="47.31808" lon="-2.32183">
        <ele>30</ele>
        <time>2021-04-11T09:43:08.000Z</time>
      </trkpt>
      <trkpt lat="47.31844" lon="-2.32191">
        <ele>29.60000038147</ele>
        <time>2021-04-11T09:43:13.000Z</time>
      </trkpt>
      <trkpt lat="47.31851" lon="-2.32193">
        <ele>28.60000038147</ele>
        <time>2021-04-11T09:43:14.000Z</time>
      </trkpt>
      <trkpt lat="47.31859" lon="-2.32194">
        <ele>28.200000762939</ele>
        <time>2021-04-11T09:43:15.000Z</time>
      </trkpt>
      <trkpt lat="47.31866" lon="-2.32196">
        <ele>27.799999237061</ele>
        <time>2021-04-11T09:43:16.000Z</time>
      </trkpt>
      <trkpt lat="47.31873" lon="-2.32198">
        <ele>27.200000762939</ele>
        <time>2021-04-11T09:43:17.000Z</time>
      </trkpt>
      <trkpt lat="47.3188" lon="-2.32199">
        <ele>26.799999237061</ele>
        <time>2021-04-11T09:43:18.000Z</time>
      </trkpt>
      <trkpt lat="47.31885" lon="-2.32199">
        <ele>26.200000762939</ele>
        <time>2021-04-11T09:43:19.000Z</time>
      </trkpt>
      <trkpt lat="47.31889" lon="-2.32199">
        <ele>25.60000038147</ele>
        <time>2021-04-11T09:43:20.000Z</time>
      </trkpt>
      <trkpt lat="47.31891" lon="-2.32201">
        <ele>25</ele>
        <time>2021-04-11T09:43:21.000Z</time>
      </trkpt>
      <trkpt lat="47.31891" lon="-2.32204">
        <ele>24.39999961853</ele>
        <time>2021-04-11T09:43:22.000Z</time>
      </trkpt>
      <trkpt lat="47.3189" lon="-2.32207">
        <ele>23.799999237061</ele>
        <time>2021-04-11T09:43:23.000Z</time>
      </trkpt>
      <trkpt lat="47.31887" lon="-2.32209">
        <ele>23.200000762939</ele>
        <time>2021-04-11T09:43:24.000Z</time>
      </trkpt>
      <trkpt lat="47.31883" lon="-2.3221">
        <ele>22.799999237061</ele>
        <time>2021-04-11T09:43:25.000Z</time>
      </trkpt>
      <trkpt lat="47.3188" lon="-2.32211">
        <ele>22.200000762939</ele>
        <time>2021-04-11T09:43:26.000Z</time>
      </trkpt>
      <trkpt lat="47.31875" lon="-2.32212">
        <ele>21.60000038147</ele>
        <time>2021-04-11T09:43:27.000Z</time>
      </trkpt>
      <trkpt lat="47.31871" lon="-2.32213">
        <ele>21.200000762939</ele>
        <time>2021-04-11T09:43:28.000Z</time>
      </trkpt>
      <trkpt lat="47.31856" lon="-2.32217">
        <ele>21.200000762939</ele>
        <time>2021-04-11T09:43:31.000Z</time>
      </trkpt>
      <trkpt lat="47.31836" lon="-2.32222">
        <ele>21.60000038147</ele>
        <time>2021-04-11T09:43:35.000Z</time>
      </trkpt>
      <trkpt lat="47.31832" lon="-2.32223">
        <ele>22</ele>
        <time>2021-04-11T09:43:36.000Z</time>
      </trkpt>
      <trkpt lat="47.31828" lon="-2.32224">
        <ele>22.60000038147</ele>
        <time>2021-04-11T09:43:37.000Z</time>
      </trkpt>
      <trkpt lat="47.31823" lon="-2.32225">
        <ele>23.39999961853</ele>
        <time>2021-04-11T09:43:38.000Z</time>
      </trkpt>
      <trkpt lat="47.31809" lon="-2.32227">
        <ele>24</ele>
        <time>2021-04-11T09:43:41.000Z</time>
      </trkpt>
      <trkpt lat="47.31804" lon="-2.32228">
        <ele>24.39999961853</ele>
        <time>2021-04-11T09:43:42.000Z</time>
      </trkpt>
      <trkpt lat="47.31799" lon="-2.32228">
        <ele>24.799999237061</ele>
        <time>2021-04-11T09:43:43.000Z</time>
      </trkpt>
      <trkpt lat="47.31794" lon="-2.32228">
        <ele>25.200000762939</ele>
        <time>2021-04-11T09:43:44.000Z</time>
      </trkpt>
      <trkpt lat="47.31789" lon="-2.32228">
        <ele>25.60000038147</ele>
        <time>2021-04-11T09:43:45.000Z</time>
      </trkpt>
      <trkpt lat="47.31769" lon="-2.32229">
        <ele>26</ele>
        <time>2021-04-11T09:43:49.000Z</time>
      </trkpt>
      <trkpt lat="47.31764" lon="-2.3223">
        <ele>26.60000038147</ele>
        <time>2021-04-11T09:43:50.000Z</time>
      </trkpt>
      <trkpt lat="47.31759" lon="-2.3223">
        <ele>27</ele>
        <time>2021-04-11T09:43:51.000Z</time>
      </trkpt>
      <trkpt lat="47.31755" lon="-2.32231">
        <ele>27.39999961853</ele>
        <time>2021-04-11T09:43:52.000Z</time>
      </trkpt>
      <trkpt lat="47.31752" lon="-2.32234">
        <ele>27.799999237061</ele>
        <time>2021-04-11T09:43:53.000Z</time>
      </trkpt>
      <trkpt lat="47.3175" lon="-2.3224">
        <ele>27.799999237061</ele>
        <time>2021-04-11T09:43:54.000Z</time>
      </trkpt>
      <trkpt lat="47.31753" lon="-2.32268">
        <ele>27.799999237061</ele>
        <time>2021-04-11T09:43:58.000Z</time>
      </trkpt>
      <trkpt lat="47.31764" lon="-2.32327">
        <ele>27.799999237061</ele>
        <time>2021-04-11T09:44:05.000Z</time>
      </trkpt>
      <trkpt lat="47.31776" lon="-2.32391">
        <ele>27.799999237061</ele>
        <time>2021-04-11T09:44:12.000Z</time>
      </trkpt>
      <trkpt lat="47.31789" lon="-2.32458">
        <ele>27.39999961853</ele>
        <time>2021-04-11T09:44:19.000Z</time>
      </trkpt>
      <trkpt lat="47.31791" lon="-2.32469">
        <ele>27</ele>
        <time>2021-04-11T09:44:20.000Z</time>
      </trkpt>
      <trkpt lat="47.31793" lon="-2.32479">
        <ele>26.60000038147</ele>
        <time>2021-04-11T09:44:21.000Z</time>
      </trkpt>
      <trkpt lat="47.31796" lon="-2.32489">
        <ele>26.200000762939</ele>
        <time>2021-04-11T09:44:22.000Z</time>
      </trkpt>
      <trkpt lat="47.31798" lon="-2.32498">
        <ele>25.799999237061</ele>
        <time>2021-04-11T09:44:23.000Z</time>
      </trkpt>
      <trkpt lat="47.31801" lon="-2.32508">
        <ele>25.39999961853</ele>
        <time>2021-04-11T09:44:24.000Z</time>
      </trkpt>
      <trkpt lat="47.31804" lon="-2.32518">
        <ele>25</ele>
        <time>2021-04-11T09:44:25.000Z</time>
      </trkpt>
      <trkpt lat="47.31806" lon="-2.32528">
        <ele>24.60000038147</ele>
        <time>2021-04-11T09:44:26.000Z</time>
      </trkpt>
      <trkpt lat="47.31809" lon="-2.32538">
        <ele>23.799999237061</ele>
        <time>2021-04-11T09:44:27.000Z</time>
      </trkpt>
      <trkpt lat="47.31811" lon="-2.32548">
        <ele>23.39999961853</ele>
        <time>2021-04-11T09:44:28.000Z</time>
      </trkpt>
      <trkpt lat="47.31814" lon="-2.32557">
        <ele>22.799999237061</ele>
        <time>2021-04-11T09:44:29.000Z</time>
      </trkpt>
      <trkpt lat="47.31816" lon="-2.32567">
        <ele>22.39999961853</ele>
        <time>2021-04-11T09:44:30.000Z</time>
      </trkpt>
      <trkpt lat="47.31818" lon="-2.32577">
        <ele>22</ele>
        <time>2021-04-11T09:44:31.000Z</time>
      </trkpt>
      <trkpt lat="47.31821" lon="-2.32587">
        <ele>21.60000038147</ele>
        <time>2021-04-11T09:44:32.000Z</time>
      </trkpt>
      <trkpt lat="47.3183" lon="-2.32627">
        <ele>21.60000038147</ele>
        <time>2021-04-11T09:44:36.000Z</time>
      </trkpt>
      <trkpt lat="47.31832" lon="-2.32637">
        <ele>21.200000762939</ele>
        <time>2021-04-11T09:44:37.000Z</time>
      </trkpt>
      <trkpt lat="47.31835" lon="-2.32647">
        <ele>20.799999237061</ele>
        <time>2021-04-11T09:44:38.000Z</time>
      </trkpt>
      <trkpt lat="47.31838" lon="-2.32656">
        <ele>20.39999961853</ele>
        <time>2021-04-11T09:44:39.000Z</time>
      </trkpt>
      <trkpt lat="47.31841" lon="-2.32665">
        <ele>20</ele>
        <time>2021-04-11T09:44:40.000Z</time>
      </trkpt>
      <trkpt lat="47.31843" lon="-2.32673">
        <ele>19.60000038147</ele>
        <time>2021-04-11T09:44:41.000Z</time>
      </trkpt>
      <trkpt lat="47.31852" lon="-2.32698">
        <ele>19.60000038147</ele>
        <time>2021-04-11T09:44:44.000Z</time>
      </trkpt>
      <trkpt lat="47.31858" lon="-2.32715">
        <ele>19.200000762939</ele>
        <time>2021-04-11T09:44:46.000Z</time>
      </trkpt>
      <trkpt lat="47.31861" lon="-2.32724">
        <ele>18.60000038147</ele>
        <time>2021-04-11T09:44:47.000Z</time>
      </trkpt>
      <trkpt lat="47.31864" lon="-2.32734">
        <ele>18.200000762939</ele>
        <time>2021-04-11T09:44:48.000Z</time>
      </trkpt>
      <trkpt lat="47.31867" lon="-2.32743">
        <ele>17.799999237061</ele>
        <time>2021-04-11T09:44:49.000Z</time>
      </trkpt>
      <trkpt lat="47.3187" lon="-2.32752">
        <ele>17.39999961853</ele>
        <time>2021-04-11T09:44:50.000Z</time>
      </trkpt>
      <trkpt lat="47.31873" lon="-2.32761">
        <ele>17.39999961853</ele>
        <time>2021-04-11T09:44:51.000Z</time>
      </trkpt>
      <trkpt lat="47.31879" lon="-2.32794">
        <ele>17.39999961853</ele>
        <time>2021-04-11T09:44:54.000Z</time>
      </trkpt>
      <trkpt lat="47.31881" lon="-2.32815">
        <ele>17</ele>
        <time>2021-04-11T09:44:56.000Z</time>
      </trkpt>
      <trkpt lat="47.31883" lon="-2.32826">
        <ele>16.39999961853</ele>
        <time>2021-04-11T09:44:57.000Z</time>
      </trkpt>
      <trkpt lat="47.31883" lon="-2.32836">
        <ele>16</ele>
        <time>2021-04-11T09:44:58.000Z</time>
      </trkpt>
      <trkpt lat="47.31884" lon="-2.32846">
        <ele>15.60000038147</ele>
        <time>2021-04-11T09:44:59.000Z</time>
      </trkpt>
      <trkpt lat="47.31885" lon="-2.32857">
        <ele>15.199999809265</ele>
        <time>2021-04-11T09:45:00.000Z</time>
      </trkpt>
      <trkpt lat="47.31886" lon="-2.32906">
        <ele>15.199999809265</ele>
        <time>2021-04-11T09:45:05.000Z</time>
      </trkpt>
      <trkpt lat="47.31885" lon="-2.32935">
        <ele>15.199999809265</ele>
        <time>2021-04-11T09:45:08.000Z</time>
      </trkpt>
      <trkpt lat="47.31881" lon="-2.32964">
        <ele>15.199999809265</ele>
        <time>2021-04-11T09:45:11.000Z</time>
      </trkpt>
      <trkpt lat="47.31878" lon="-2.33">
        <ele>15.199999809265</ele>
        <time>2021-04-11T09:45:15.000Z</time>
      </trkpt>
      <trkpt lat="47.31878" lon="-2.33009">
        <ele>15.199999809265</ele>
        <time>2021-04-11T09:45:16.000Z</time>
      </trkpt>
      <trkpt lat="47.31879" lon="-2.33018">
        <ele>14.199999809265</ele>
        <time>2021-04-11T09:45:17.000Z</time>
      </trkpt>
      <trkpt lat="47.3188" lon="-2.33028">
        <ele>13.800000190735</ele>
        <time>2021-04-11T09:45:18.000Z</time>
      </trkpt>
      <trkpt lat="47.31881" lon="-2.33036">
        <ele>13.199999809265</ele>
        <time>2021-04-11T09:45:19.000Z</time>
      </trkpt>
      <trkpt lat="47.31881" lon="-2.33045">
        <ele>12.800000190735</ele>
        <time>2021-04-11T09:45:20.000Z</time>
      </trkpt>
      <trkpt lat="47.3188" lon="-2.33062">
        <ele>12.800000190735</ele>
        <time>2021-04-11T09:45:22.000Z</time>
      </trkpt>
      <trkpt lat="47.31878" lon="-2.33085">
        <ele>12.800000190735</ele>
        <time>2021-04-11T09:45:25.000Z</time>
      </trkpt>
      <trkpt lat="47.31878" lon="-2.331">
        <ele>12.800000190735</ele>
        <time>2021-04-11T09:45:27.000Z</time>
      </trkpt>
      <trkpt lat="47.31878" lon="-2.33119">
        <ele>12.800000190735</ele>
        <time>2021-04-11T09:45:30.000Z</time>
      </trkpt>
      <trkpt lat="47.31878" lon="-2.33126">
        <ele>12.800000190735</ele>
        <time>2021-04-11T09:45:31.000Z</time>
      </trkpt>
      <trkpt lat="47.31876" lon="-2.33139">
        <ele>13.199999809265</ele>
        <time>2021-04-11T09:45:33.000Z</time>
      </trkpt>
      <trkpt lat="47.31874" lon="-2.33145">
        <ele>13.60000038147</ele>
        <time>2021-04-11T09:45:34.000Z</time>
      </trkpt>
      <trkpt lat="47.31873" lon="-2.3315">
        <ele>14</ele>
        <time>2021-04-11T09:45:35.000Z</time>
      </trkpt>
      <trkpt lat="47.31871" lon="-2.33155">
        <ele>14.39999961853</ele>
        <time>2021-04-11T09:45:36.000Z</time>
      </trkpt>
      <trkpt lat="47.31868" lon="-2.33161">
        <ele>14.800000190735</ele>
        <time>2021-04-11T09:45:37.000Z</time>
      </trkpt>
      <trkpt lat="47.31866" lon="-2.3318">
        <ele>14.800000190735</ele>
        <time>2021-04-11T09:45:40.000Z</time>
      </trkpt>
      <trkpt lat="47.31864" lon="-2.33194">
        <ele>15.199999809265</ele>
        <time>2021-04-11T09:45:42.000Z</time>
      </trkpt>
      <trkpt lat="47.31863" lon="-2.33201">
        <ele>15.800000190735</ele>
        <time>2021-04-11T09:45:43.000Z</time>
      </trkpt>
      <trkpt lat="47.31862" lon="-2.33207">
        <ele>16.200000762939</ele>
        <time>2021-04-11T09:45:44.000Z</time>
      </trkpt>
      <trkpt lat="47.31861" lon="-2.33213">
        <ele>16.60000038147</ele>
        <time>2021-04-11T09:45:45.000Z</time>
      </trkpt>
      <trkpt lat="47.31861" lon="-2.33221">
        <ele>17</ele>
        <time>2021-04-11T09:45:46.000Z</time>
      </trkpt>
      <trkpt lat="47.31855" lon="-2.3325">
        <ele>17</ele>
        <time>2021-04-11T09:45:51.000Z</time>
      </trkpt>
      <trkpt lat="47.31843" lon="-2.33273">
        <ele>17</ele>
        <time>2021-04-11T09:45:56.000Z</time>
      </trkpt>
      <trkpt lat="47.31831" lon="-2.33284">
        <ele>17</ele>
        <time>2021-04-11T09:46:00.000Z</time>
      </trkpt>
      <trkpt lat="47.31821" lon="-2.3329">
        <ele>17.39999961853</ele>
        <time>2021-04-11T09:46:03.000Z</time>
      </trkpt>
      <trkpt lat="47.31819" lon="-2.33293">
        <ele>17.799999237061</ele>
        <time>2021-04-11T09:46:04.000Z</time>
      </trkpt>
      <trkpt lat="47.31816" lon="-2.33295">
        <ele>18.60000038147</ele>
        <time>2021-04-11T09:46:05.000Z</time>
      </trkpt>
      <trkpt lat="47.31814" lon="-2.33298">
        <ele>19.200000762939</ele>
        <time>2021-04-11T09:46:06.000Z</time>
      </trkpt>
      <trkpt lat="47.31802" lon="-2.33307">
        <ele>19.60000038147</ele>
        <time>2021-04-11T09:46:10.000Z</time>
      </trkpt>
      <trkpt lat="47.31798" lon="-2.33309">
        <ele>20</ele>
        <time>2021-04-11T09:46:11.000Z</time>
      </trkpt>
      <trkpt lat="47.31795" lon="-2.33311">
        <ele>20.39999961853</ele>
        <time>2021-04-11T09:46:12.000Z</time>
      </trkpt>
      <trkpt lat="47.31792" lon="-2.33313">
        <ele>20.799999237061</ele>
        <time>2021-04-11T09:46:13.000Z</time>
      </trkpt>
      <trkpt lat="47.31789" lon="-2.33315">
        <ele>21.200000762939</ele>
        <time>2021-04-11T09:46:14.000Z</time>
      </trkpt>
      <trkpt lat="47.31783" lon="-2.33319">
        <ele>21.200000762939</ele>
        <time>2021-04-11T09:46:16.000Z</time>
      </trkpt>
      <trkpt lat="47.31776" lon="-2.33317">
        <ele>21.60000038147</ele>
        <time>2021-04-11T09:46:18.000Z</time>
      </trkpt>
      <trkpt lat="47.31773" lon="-2.33315">
        <ele>22</ele>
        <time>2021-04-11T09:46:19.000Z</time>
      </trkpt>
      <trkpt lat="47.31769" lon="-2.33312">
        <ele>22.39999961853</ele>
        <time>2021-04-11T09:46:20.000Z</time>
      </trkpt>
      <trkpt lat="47.31766" lon="-2.3331">
        <ele>22.799999237061</ele>
        <time>2021-04-11T09:46:21.000Z</time>
      </trkpt>
      <trkpt lat="47.31763" lon="-2.33308">
        <ele>23.200000762939</ele>
        <time>2021-04-11T09:46:22.000Z</time>
      </trkpt>
      <trkpt lat="47.3176" lon="-2.33304">
        <ele>23.200000762939</ele>
        <time>2021-04-11T09:46:23.000Z</time>
      </trkpt>
      <trkpt lat="47.31749" lon="-2.3329">
        <ele>23.200000762939</ele>
        <time>2021-04-11T09:46:28.000Z</time>
      </trkpt>
      <trkpt lat="47.31747" lon="-2.33286">
        <ele>23.60000038147</ele>
        <time>2021-04-11T09:46:29.000Z</time>
      </trkpt>
      <trkpt lat="47.31746" lon="-2.33281">
        <ele>24.39999961853</ele>
        <time>2021-04-11T09:46:30.000Z</time>
      </trkpt>
      <trkpt lat="47.31744" lon="-2.33276">
        <ele>24.799999237061</ele>
        <time>2021-04-11T09:46:31.000Z</time>
      </trkpt>
      <trkpt lat="47.31743" lon="-2.33271">
        <ele>25.200000762939</ele>
        <time>2021-04-11T09:46:32.000Z</time>
      </trkpt>
      <trkpt lat="47.31741" lon="-2.33266">
        <ele>25.200000762939</ele>
        <time>2021-04-11T09:46:33.000Z</time>
      </trkpt>
      <trkpt lat="47.31735" lon="-2.33254">
        <ele>25.200000762939</ele>
        <time>2021-04-11T09:46:36.000Z</time>
      </trkpt>
      <trkpt lat="47.31733" lon="-2.33254">
        <ele>25.200000762939</ele>
        <time>2021-04-11T09:46:37.000Z</time>
      </trkpt>
      <trkpt lat="47.31719" lon="-2.33258">
        <ele>25.200000762939</ele>
        <time>2021-04-11T09:46:41.000Z</time>
      </trkpt>
      <trkpt lat="47.31713" lon="-2.33261">
        <ele>25.200000762939</ele>
        <time>2021-04-11T09:46:43.000Z</time>
      </trkpt>
      <trkpt lat="47.31703" lon="-2.33263">
        <ele>25.799999237061</ele>
        <time>2021-04-11T09:46:46.000Z</time>
      </trkpt>
      <trkpt lat="47.317" lon="-2.33264">
        <ele>26.200000762939</ele>
        <time>2021-04-11T09:46:47.000Z</time>
      </trkpt>
      <trkpt lat="47.31698" lon="-2.33266">
        <ele>26.60000038147</ele>
        <time>2021-04-11T09:46:48.000Z</time>
      </trkpt>
      <trkpt lat="47.31695" lon="-2.33268">
        <ele>27.200000762939</ele>
        <time>2021-04-11T09:46:49.000Z</time>
      </trkpt>
      <trkpt lat="47.31691" lon="-2.33269">
        <ele>27.60000038147</ele>
        <time>2021-04-11T09:46:50.000Z</time>
      </trkpt>
      <trkpt lat="47.31674" lon="-2.33273">
        <ele>27.60000038147</ele>
        <time>2021-04-11T09:46:54.000Z</time>
      </trkpt>
      <trkpt lat="47.31669" lon="-2.33275">
        <ele>28</ele>
        <time>2021-04-11T09:46:55.000Z</time>
      </trkpt>
      <trkpt lat="47.31665" lon="-2.33276">
        <ele>28.39999961853</ele>
        <time>2021-04-11T09:46:56.000Z</time>
      </trkpt>
      <trkpt lat="47.31661" lon="-2.33278">
        <ele>29</ele>
        <time>2021-04-11T09:46:57.000Z</time>
      </trkpt>
      <trkpt lat="47.31657" lon="-2.33281">
        <ele>29.39999961853</ele>
        <time>2021-04-11T09:46:58.000Z</time>
      </trkpt>
      <trkpt lat="47.31653" lon="-2.33283">
        <ele>29.799999237061</ele>
        <time>2021-04-11T09:46:59.000Z</time>
      </trkpt>
      <trkpt lat="47.31649" lon="-2.33285">
        <ele>29.799999237061</ele>
        <time>2021-04-11T09:47:00.000Z</time>
      </trkpt>
      <trkpt lat="47.31625" lon="-2.33298">
        <ele>29.799999237061</ele>
        <time>2021-04-11T09:47:06.000Z</time>
      </trkpt>
      <trkpt lat="47.31601" lon="-2.3331">
        <ele>29.799999237061</ele>
        <time>2021-04-11T09:47:12.000Z</time>
      </trkpt>
      <trkpt lat="47.31571" lon="-2.33326">
        <ele>29.799999237061</ele>
        <time>2021-04-11T09:47:19.000Z</time>
      </trkpt>
      <trkpt lat="47.31536" lon="-2.33341">
        <ele>29.799999237061</ele>
        <time>2021-04-11T09:47:26.000Z</time>
      </trkpt>
      <trkpt lat="47.315" lon="-2.33359">
        <ele>29.799999237061</ele>
        <time>2021-04-11T09:47:34.000Z</time>
      </trkpt>
      <trkpt lat="47.31485" lon="-2.33366">
        <ele>29.799999237061</ele>
        <time>2021-04-11T09:47:37.000Z</time>
      </trkpt>
      <trkpt lat="47.31476" lon="-2.33361">
        <ele>29.799999237061</ele>
        <time>2021-04-11T09:47:39.000Z</time>
      </trkpt>
      <trkpt lat="47.31465" lon="-2.33343">
        <ele>29.799999237061</ele>
        <time>2021-04-11T09:47:42.000Z</time>
      </trkpt>
      <trkpt lat="47.31461" lon="-2.33337">
        <ele>29.799999237061</ele>
        <time>2021-04-11T09:47:43.000Z</time>
      </trkpt>
      <trkpt lat="47.31455" lon="-2.33326">
        <ele>29.799999237061</ele>
        <time>2021-04-11T09:47:45.000Z</time>
      </trkpt>
      <trkpt lat="47.3144" lon="-2.33304">
        <ele>29.799999237061</ele>
        <time>2021-04-11T09:47:49.000Z</time>
      </trkpt>
      <trkpt lat="47.31421" lon="-2.33278">
        <ele>29.799999237061</ele>
        <time>2021-04-11T09:47:54.000Z</time>
      </trkpt>
      <trkpt lat="47.31412" lon="-2.3327">
        <ele>29.799999237061</ele>
        <time>2021-04-11T09:47:56.000Z</time>
      </trkpt>
      <trkpt lat="47.31383" lon="-2.33244">
        <ele>29.799999237061</ele>
        <time>2021-04-11T09:48:03.000Z</time>
      </trkpt>
      <trkpt lat="47.31354" lon="-2.33226">
        <ele>29.799999237061</ele>
        <time>2021-04-11T09:48:10.000Z</time>
      </trkpt>
      <trkpt lat="47.3133" lon="-2.33205">
        <ele>29.799999237061</ele>
        <time>2021-04-11T09:48:17.000Z</time>
      </trkpt>
      <trkpt lat="47.31323" lon="-2.33198">
        <ele>29.39999961853</ele>
        <time>2021-04-11T09:48:19.000Z</time>
      </trkpt>
      <trkpt lat="47.3132" lon="-2.33195">
        <ele>29</ele>
        <time>2021-04-11T09:48:20.000Z</time>
      </trkpt>
      <trkpt lat="47.31316" lon="-2.33192">
        <ele>28.60000038147</ele>
        <time>2021-04-11T09:48:21.000Z</time>
      </trkpt>
      <trkpt lat="47.31313" lon="-2.33189">
        <ele>28.200000762939</ele>
        <time>2021-04-11T09:48:22.000Z</time>
      </trkpt>
      <trkpt lat="47.31309" lon="-2.33186">
        <ele>27.60000038147</ele>
        <time>2021-04-11T09:48:23.000Z</time>
      </trkpt>
      <trkpt lat="47.31306" lon="-2.33183">
        <ele>27.60000038147</ele>
        <time>2021-04-11T09:48:24.000Z</time>
      </trkpt>
      <trkpt lat="47.31279" lon="-2.33163">
        <ele>27.60000038147</ele>
        <time>2021-04-11T09:48:32.000Z</time>
      </trkpt>
      <trkpt lat="47.3126" lon="-2.33155">
        <ele>27.60000038147</ele>
        <time>2021-04-11T09:48:38.000Z</time>
      </trkpt>
      <trkpt lat="47.31244" lon="-2.33152">
        <ele>27.60000038147</ele>
        <time>2021-04-11T09:48:43.000Z</time>
      </trkpt>
      <trkpt lat="47.3123" lon="-2.3315">
        <ele>27.60000038147</ele>
        <time>2021-04-11T09:48:48.000Z</time>
      </trkpt>
      <trkpt lat="47.31211" lon="-2.33149">
        <ele>27.60000038147</ele>
        <time>2021-04-11T09:48:54.000Z</time>
      </trkpt>
      <trkpt lat="47.3119" lon="-2.33159">
        <ele>27.60000038147</ele>
        <time>2021-04-11T09:49:01.000Z</time>
      </trkpt>
      <trkpt lat="47.3118" lon="-2.33169">
        <ele>27.60000038147</ele>
        <time>2021-04-11T09:49:05.000Z</time>
      </trkpt>
      <trkpt lat="47.31161" lon="-2.33179">
        <ele>27.60000038147</ele>
        <time>2021-04-11T09:49:12.000Z</time>
      </trkpt>
      <trkpt lat="47.3114" lon="-2.33191">
        <ele>27.60000038147</ele>
        <time>2021-04-11T09:49:19.000Z</time>
      </trkpt>
      <trkpt lat="47.31126" lon="-2.332">
        <ele>27.60000038147</ele>
        <time>2021-04-11T09:49:26.000Z</time>
      </trkpt>
      <trkpt lat="47.31116" lon="-2.33204">
        <ele>27.60000038147</ele>
        <time>2021-04-11T09:49:32.000Z</time>
      </trkpt>
      <trkpt lat="47.31115" lon="-2.33206">
        <ele>27.60000038147</ele>
        <time>2021-04-11T09:49:33.000Z</time>
      </trkpt>
      <trkpt lat="47.3111" lon="-2.33213">
        <ele>27.60000038147</ele>
        <time>2021-04-11T09:49:37.000Z</time>
      </trkpt>
      <trkpt lat="47.31109" lon="-2.33217">
        <ele>27.60000038147</ele>
        <time>2021-04-11T09:49:39.000Z</time>
      </trkpt>
      <trkpt lat="47.31107" lon="-2.33225">
        <ele>27.60000038147</ele>
        <time>2021-04-11T09:49:42.000Z</time>
      </trkpt>
      <trkpt lat="47.31107" lon="-2.33227">
        <ele>27.60000038147</ele>
        <time>2021-04-11T09:49:43.000Z</time>
      </trkpt>
      <trkpt lat="47.31107" lon="-2.33232">
        <ele>27.60000038147</ele>
        <time>2021-04-11T09:49:46.000Z</time>
      </trkpt>
      <trkpt lat="47.31107" lon="-2.33234">
        <ele>27.60000038147</ele>
        <time>2021-04-11T09:49:48.000Z</time>
      </trkpt>
      <trkpt lat="47.31106" lon="-2.33235">
        <ele>27.60000038147</ele>
        <time>2021-04-11T09:49:51.000Z</time>
      </trkpt>
      <trkpt lat="47.31106" lon="-2.33239">
        <ele>27.60000038147</ele>
        <time>2021-04-11T09:50:38.000Z</time>
      </trkpt>
      <trkpt lat="47.31105" lon="-2.33242">
        <ele>27.60000038147</ele>
        <time>2021-04-11T09:50:39.000Z</time>
      </trkpt>
      <trkpt lat="47.31101" lon="-2.33262">
        <ele>27.60000038147</ele>
        <time>2021-04-11T09:50:45.000Z</time>
      </trkpt>
      <trkpt lat="47.31099" lon="-2.33285">
        <ele>27.60000038147</ele>
        <time>2021-04-11T09:50:51.000Z</time>
      </trkpt>
      <trkpt lat="47.31097" lon="-2.33311">
        <ele>27.60000038147</ele>
        <time>2021-04-11T09:50:56.000Z</time>
      </trkpt>
      <trkpt lat="47.31095" lon="-2.33338">
        <ele>28.200000762939</ele>
        <time>2021-04-11T09:51:00.000Z</time>
      </trkpt>
      <trkpt lat="47.31095" lon="-2.33345">
        <ele>28.60000038147</ele>
        <time>2021-04-11T09:51:01.000Z</time>
      </trkpt>
      <trkpt lat="47.31094" lon="-2.33352">
        <ele>29</ele>
        <time>2021-04-11T09:51:02.000Z</time>
      </trkpt>
      <trkpt lat="47.31095" lon="-2.33358">
        <ele>29.39999961853</ele>
        <time>2021-04-11T09:51:03.000Z</time>
      </trkpt>
      <trkpt lat="47.31095" lon="-2.33364">
        <ele>29.799999237061</ele>
        <time>2021-04-11T09:51:04.000Z</time>
      </trkpt>
      <trkpt lat="47.31095" lon="-2.33396">
        <ele>29.799999237061</ele>
        <time>2021-04-11T09:51:09.000Z</time>
      </trkpt>
      <trkpt lat="47.31095" lon="-2.33457">
        <ele>29.799999237061</ele>
        <time>2021-04-11T09:51:19.000Z</time>
      </trkpt>
      <trkpt lat="47.31096" lon="-2.33477">
        <ele>30.200000762939</ele>
        <time>2021-04-11T09:51:22.000Z</time>
      </trkpt>
      <trkpt lat="47.31096" lon="-2.33483">
        <ele>30.60000038147</ele>
        <time>2021-04-11T09:51:23.000Z</time>
      </trkpt>
      <trkpt lat="47.31096" lon="-2.33489">
        <ele>31</ele>
        <time>2021-04-11T09:51:24.000Z</time>
      </trkpt>
      <trkpt lat="47.31096" lon="-2.33496">
        <ele>31.799999237061</ele>
        <time>2021-04-11T09:51:25.000Z</time>
      </trkpt>
      <trkpt lat="47.311" lon="-2.3352">
        <ele>31.799999237061</ele>
        <time>2021-04-11T09:51:29.000Z</time>
      </trkpt>
      <trkpt lat="47.31107" lon="-2.3356">
        <ele>31.799999237061</ele>
        <time>2021-04-11T09:51:35.000Z</time>
      </trkpt>
      <trkpt lat="47.31108" lon="-2.33567">
        <ele>31.799999237061</ele>
        <time>2021-04-11T09:51:36.000Z</time>
      </trkpt>
      <trkpt lat="47.31107" lon="-2.33611">
        <ele>31.799999237061</ele>
        <time>2021-04-11T09:51:42.000Z</time>
      </trkpt>
      <trkpt lat="47.31106" lon="-2.33618">
        <ele>31.799999237061</ele>
        <time>2021-04-11T09:51:43.000Z</time>
      </trkpt>
      <trkpt lat="47.31101" lon="-2.33655">
        <ele>31.799999237061</ele>
        <time>2021-04-11T09:51:48.000Z</time>
      </trkpt>
      <trkpt lat="47.31095" lon="-2.337">
        <ele>31.799999237061</ele>
        <time>2021-04-11T09:51:54.000Z</time>
      </trkpt>
      <trkpt lat="47.31088" lon="-2.33752">
        <ele>31.799999237061</ele>
        <time>2021-04-11T09:52:01.000Z</time>
      </trkpt>
      <trkpt lat="47.31086" lon="-2.33759">
        <ele>31.799999237061</ele>
        <time>2021-04-11T09:52:02.000Z</time>
      </trkpt>
      <trkpt lat="47.31078" lon="-2.33778">
        <ele>31.799999237061</ele>
        <time>2021-04-11T09:52:05.000Z</time>
      </trkpt>
      <trkpt lat="47.31076" lon="-2.33784">
        <ele>31.799999237061</ele>
        <time>2021-04-11T09:52:06.000Z</time>
      </trkpt>
      <trkpt lat="47.31071" lon="-2.33797">
        <ele>31.799999237061</ele>
        <time>2021-04-11T09:52:08.000Z</time>
      </trkpt>
      <trkpt lat="47.31065" lon="-2.33819">
        <ele>31.799999237061</ele>
        <time>2021-04-11T09:52:11.000Z</time>
      </trkpt>
      <trkpt lat="47.31065" lon="-2.33827">
        <ele>31.799999237061</ele>
        <time>2021-04-11T09:52:12.000Z</time>
      </trkpt>
      <trkpt lat="47.31064" lon="-2.33834">
        <ele>31.799999237061</ele>
        <time>2021-04-11T09:52:13.000Z</time>
      </trkpt>
      <trkpt lat="47.31063" lon="-2.3385">
        <ele>32.200000762939</ele>
        <time>2021-04-11T09:52:15.000Z</time>
      </trkpt>
      <trkpt lat="47.31063" lon="-2.33857">
        <ele>32.799999237061</ele>
        <time>2021-04-11T09:52:16.000Z</time>
      </trkpt>
      <trkpt lat="47.31062" lon="-2.33865">
        <ele>33.200000762939</ele>
        <time>2021-04-11T09:52:17.000Z</time>
      </trkpt>
      <trkpt lat="47.31062" lon="-2.33873">
        <ele>33.599998474121</ele>
        <time>2021-04-11T09:52:18.000Z</time>
      </trkpt>
      <trkpt lat="47.31062" lon="-2.3388">
        <ele>34</ele>
        <time>2021-04-11T09:52:19.000Z</time>
      </trkpt>
      <trkpt lat="47.31061" lon="-2.3392">
        <ele>34</ele>
        <time>2021-04-11T09:52:24.000Z</time>
      </trkpt>
      <trkpt lat="47.31059" lon="-2.33935">
        <ele>34</ele>
        <time>2021-04-11T09:52:26.000Z</time>
      </trkpt>
      <trkpt lat="47.31053" lon="-2.33946">
        <ele>34</ele>
        <time>2021-04-11T09:52:28.000Z</time>
      </trkpt>
      <trkpt lat="47.31034" lon="-2.33953">
        <ele>34</ele>
        <time>2021-04-11T09:52:32.000Z</time>
      </trkpt>
      <trkpt lat="47.31029" lon="-2.33954">
        <ele>34</ele>
        <time>2021-04-11T09:52:33.000Z</time>
      </trkpt>
      <trkpt lat="47.30992" lon="-2.33955">
        <ele>34</ele>
        <time>2021-04-11T09:52:40.000Z</time>
      </trkpt>
      <trkpt lat="47.30958" lon="-2.33951">
        <ele>34</ele>
        <time>2021-04-11T09:52:47.000Z</time>
      </trkpt>
      <trkpt lat="47.30949" lon="-2.33949">
        <ele>34</ele>
        <time>2021-04-11T09:52:49.000Z</time>
      </trkpt>
      <trkpt lat="47.30927" lon="-2.33944">
        <ele>34</ele>
        <time>2021-04-11T09:52:54.000Z</time>
      </trkpt>
      <trkpt lat="47.30897" lon="-2.33944">
        <ele>34</ele>
        <time>2021-04-11T09:53:00.000Z</time>
      </trkpt>
      <trkpt lat="47.30863" lon="-2.33949">
        <ele>34</ele>
        <time>2021-04-11T09:53:07.000Z</time>
      </trkpt>
      <trkpt lat="47.30828" lon="-2.33956">
        <ele>34</ele>
        <time>2021-04-11T09:53:14.000Z</time>
      </trkpt>
      <trkpt lat="47.30804" lon="-2.33961">
        <ele>34</ele>
        <time>2021-04-11T09:53:19.000Z</time>
      </trkpt>
      <trkpt lat="47.30799" lon="-2.33963">
        <ele>34</ele>
        <time>2021-04-11T09:53:20.000Z</time>
      </trkpt>
      <trkpt lat="47.30791" lon="-2.33965">
        <ele>34</ele>
        <time>2021-04-11T09:53:22.000Z</time>
      </trkpt>
      <trkpt lat="47.30781" lon="-2.33974">
        <ele>34</ele>
        <time>2021-04-11T09:53:25.000Z</time>
      </trkpt>
      <trkpt lat="47.30779" lon="-2.33992">
        <ele>34</ele>
        <time>2021-04-11T09:53:28.000Z</time>
      </trkpt>
      <trkpt lat="47.30776" lon="-2.34027">
        <ele>34</ele>
        <time>2021-04-11T09:53:34.000Z</time>
      </trkpt>
      <trkpt lat="47.30776" lon="-2.34045">
        <ele>34</ele>
        <time>2021-04-11T09:53:38.000Z</time>
      </trkpt>
      <trkpt lat="47.30775" lon="-2.34068">
        <ele>34</ele>
        <time>2021-04-11T09:53:43.000Z</time>
      </trkpt>
      <trkpt lat="47.30773" lon="-2.34083">
        <ele>34.400001525879</ele>
        <time>2021-04-11T09:53:46.000Z</time>
      </trkpt>
      <trkpt lat="47.30772" lon="-2.34089">
        <ele>34.799999237061</ele>
        <time>2021-04-11T09:53:47.000Z</time>
      </trkpt>
      <trkpt lat="47.30772" lon="-2.34095">
        <ele>35.200000762939</ele>
        <time>2021-04-11T09:53:48.000Z</time>
      </trkpt>
      <trkpt lat="47.30772" lon="-2.34101">
        <ele>35.599998474121</ele>
        <time>2021-04-11T09:53:49.000Z</time>
      </trkpt>
      <trkpt lat="47.30772" lon="-2.34107">
        <ele>36</ele>
        <time>2021-04-11T09:53:50.000Z</time>
      </trkpt>
      <trkpt lat="47.30772" lon="-2.34133">
        <ele>36</ele>
        <time>2021-04-11T09:53:54.000Z</time>
      </trkpt>
      <trkpt lat="47.30771" lon="-2.34162">
        <ele>36</ele>
        <time>2021-04-11T09:53:59.000Z</time>
      </trkpt>
      <trkpt lat="47.30771" lon="-2.34189">
        <ele>36</ele>
        <time>2021-04-11T09:54:04.000Z</time>
      </trkpt>
      <trkpt lat="47.3077" lon="-2.34194">
        <ele>36</ele>
        <time>2021-04-11T09:54:05.000Z</time>
      </trkpt>
      <trkpt lat="47.30765" lon="-2.34204">
        <ele>36</ele>
        <time>2021-04-11T09:54:07.000Z</time>
      </trkpt>
      <trkpt lat="47.30752" lon="-2.34213">
        <ele>36</ele>
        <time>2021-04-11T09:54:11.000Z</time>
      </trkpt>
      <trkpt lat="47.30749" lon="-2.34214">
        <ele>36</ele>
        <time>2021-04-11T09:54:12.000Z</time>
      </trkpt>
      <trkpt lat="47.30735" lon="-2.34221">
        <ele>36</ele>
        <time>2021-04-11T09:54:16.000Z</time>
      </trkpt>
      <trkpt lat="47.30734" lon="-2.34224">
        <ele>36</ele>
        <time>2021-04-11T09:54:17.000Z</time>
      </trkpt>
      <trkpt lat="47.30733" lon="-2.34233">
        <ele>36</ele>
        <time>2021-04-11T09:54:19.000Z</time>
      </trkpt>
      <trkpt lat="47.30729" lon="-2.34264">
        <ele>36</ele>
        <time>2021-04-11T09:54:24.000Z</time>
      </trkpt>
      <trkpt lat="47.3072" lon="-2.34288">
        <ele>36</ele>
        <time>2021-04-11T09:54:29.000Z</time>
      </trkpt>
      <trkpt lat="47.30716" lon="-2.34299">
        <ele>36</ele>
        <time>2021-04-11T09:54:31.000Z</time>
      </trkpt>
      <trkpt lat="47.30709" lon="-2.34315">
        <ele>36</ele>
        <time>2021-04-11T09:54:34.000Z</time>
      </trkpt>
      <trkpt lat="47.30703" lon="-2.34325">
        <ele>36</ele>
        <time>2021-04-11T09:54:36.000Z</time>
      </trkpt>
      <trkpt lat="47.30698" lon="-2.34336">
        <ele>36</ele>
        <time>2021-04-11T09:54:38.000Z</time>
      </trkpt>
      <trkpt lat="47.30695" lon="-2.34342">
        <ele>36.400001525879</ele>
        <time>2021-04-11T09:54:39.000Z</time>
      </trkpt>
      <trkpt lat="47.30693" lon="-2.34348">
        <ele>37</ele>
        <time>2021-04-11T09:54:40.000Z</time>
      </trkpt>
      <trkpt lat="47.3069" lon="-2.34354">
        <ele>37.400001525879</ele>
        <time>2021-04-11T09:54:41.000Z</time>
      </trkpt>
      <trkpt lat="47.30687" lon="-2.3436">
        <ele>37.799999237061</ele>
        <time>2021-04-11T09:54:42.000Z</time>
      </trkpt>
      <trkpt lat="47.30685" lon="-2.34365">
        <ele>38.200000762939</ele>
        <time>2021-04-11T09:54:43.000Z</time>
      </trkpt>
      <trkpt lat="47.3068" lon="-2.34373">
        <ele>38.200000762939</ele>
        <time>2021-04-11T09:54:45.000Z</time>
      </trkpt>
      <trkpt lat="47.30676" lon="-2.34384">
        <ele>38.200000762939</ele>
        <time>2021-04-11T09:54:47.000Z</time>
      </trkpt>
      <trkpt lat="47.30669" lon="-2.34394">
        <ele>38.200000762939</ele>
        <time>2021-04-11T09:54:49.000Z</time>
      </trkpt>
      <trkpt lat="47.30647" lon="-2.34424">
        <ele>38.200000762939</ele>
        <time>2021-04-11T09:54:55.000Z</time>
      </trkpt>
      <trkpt lat="47.30616" lon="-2.3446">
        <ele>38.200000762939</ele>
        <time>2021-04-11T09:55:01.000Z</time>
      </trkpt>
      <trkpt lat="47.30595" lon="-2.34493">
        <ele>38.200000762939</ele>
        <time>2021-04-11T09:55:07.000Z</time>
      </trkpt>
      <trkpt lat="47.30574" lon="-2.34535">
        <ele>38.200000762939</ele>
        <time>2021-04-11T09:55:14.000Z</time>
      </trkpt>
      <trkpt lat="47.30561" lon="-2.34557">
        <ele>38.200000762939</ele>
        <time>2021-04-11T09:55:18.000Z</time>
      </trkpt>
      <trkpt lat="47.3055" lon="-2.34578">
        <ele>38.200000762939</ele>
        <time>2021-04-11T09:55:22.000Z</time>
      </trkpt>
      <trkpt lat="47.30546" lon="-2.34582">
        <ele>37.799999237061</ele>
        <time>2021-04-11T09:55:23.000Z</time>
      </trkpt>
      <trkpt lat="47.30544" lon="-2.34586">
        <ele>37.200000762939</ele>
        <time>2021-04-11T09:55:24.000Z</time>
      </trkpt>
      <trkpt lat="47.30541" lon="-2.3459">
        <ele>36.799999237061</ele>
        <time>2021-04-11T09:55:25.000Z</time>
      </trkpt>
      <trkpt lat="47.30538" lon="-2.34594">
        <ele>36.400001525879</ele>
        <time>2021-04-11T09:55:26.000Z</time>
      </trkpt>
      <trkpt lat="47.30536" lon="-2.34597">
        <ele>36</ele>
        <time>2021-04-11T09:55:27.000Z</time>
      </trkpt>
      <trkpt lat="47.30524" lon="-2.34614">
        <ele>36</ele>
        <time>2021-04-11T09:55:31.000Z</time>
      </trkpt>
      <trkpt lat="47.30511" lon="-2.34637">
        <ele>36</ele>
        <time>2021-04-11T09:55:36.000Z</time>
      </trkpt>
      <trkpt lat="47.30504" lon="-2.34646">
        <ele>36</ele>
        <time>2021-04-11T09:55:38.000Z</time>
      </trkpt>
      <trkpt lat="47.30494" lon="-2.34656">
        <ele>36</ele>
        <time>2021-04-11T09:55:40.000Z</time>
      </trkpt>
      <trkpt lat="47.3048" lon="-2.34671">
        <ele>36</ele>
        <time>2021-04-11T09:55:43.000Z</time>
      </trkpt>
      <trkpt lat="47.30465" lon="-2.34686">
        <ele>36</ele>
        <time>2021-04-11T09:55:46.000Z</time>
      </trkpt>
      <trkpt lat="47.30452" lon="-2.347">
        <ele>36</ele>
        <time>2021-04-11T09:55:49.000Z</time>
      </trkpt>
      <trkpt lat="47.30439" lon="-2.34716">
        <ele>36</ele>
        <time>2021-04-11T09:55:52.000Z</time>
      </trkpt>
      <trkpt lat="47.3043" lon="-2.34723">
        <ele>36</ele>
        <time>2021-04-11T09:55:54.000Z</time>
      </trkpt>
      <trkpt lat="47.30419" lon="-2.34728">
        <ele>36</ele>
        <time>2021-04-11T09:55:56.000Z</time>
      </trkpt>
      <trkpt lat="47.30414" lon="-2.34732">
        <ele>36</ele>
        <time>2021-04-11T09:55:57.000Z</time>
      </trkpt>
      <trkpt lat="47.30401" lon="-2.34743">
        <ele>36</ele>
        <time>2021-04-11T09:56:00.000Z</time>
      </trkpt>
      <trkpt lat="47.30392" lon="-2.3475">
        <ele>36</ele>
        <time>2021-04-11T09:56:02.000Z</time>
      </trkpt>
      <trkpt lat="47.30378" lon="-2.34759">
        <ele>36</ele>
        <time>2021-04-11T09:56:05.000Z</time>
      </trkpt>
      <trkpt lat="47.30373" lon="-2.34762">
        <ele>36</ele>
        <time>2021-04-11T09:56:06.000Z</time>
      </trkpt>
      <trkpt lat="47.30349" lon="-2.34778">
        <ele>36</ele>
        <time>2021-04-11T09:56:11.000Z</time>
      </trkpt>
      <trkpt lat="47.30334" lon="-2.34802">
        <ele>36</ele>
        <time>2021-04-11T09:56:15.000Z</time>
      </trkpt>
      <trkpt lat="47.30331" lon="-2.34807">
        <ele>36</ele>
        <time>2021-04-11T09:56:16.000Z</time>
      </trkpt>
      <trkpt lat="47.30318" lon="-2.34825">
        <ele>36</ele>
        <time>2021-04-11T09:56:20.000Z</time>
      </trkpt>
      <trkpt lat="47.30305" lon="-2.34843">
        <ele>36</ele>
        <time>2021-04-11T09:56:24.000Z</time>
      </trkpt>
      <trkpt lat="47.30296" lon="-2.34848">
        <ele>36</ele>
        <time>2021-04-11T09:56:26.000Z</time>
      </trkpt>
      <trkpt lat="47.30286" lon="-2.34854">
        <ele>36</ele>
        <time>2021-04-11T09:56:28.000Z</time>
      </trkpt>
      <trkpt lat="47.30274" lon="-2.34863">
        <ele>36</ele>
        <time>2021-04-11T09:56:31.000Z</time>
      </trkpt>
      <trkpt lat="47.30268" lon="-2.34866">
        <ele>36</ele>
        <time>2021-04-11T09:56:32.000Z</time>
      </trkpt>
      <trkpt lat="47.30263" lon="-2.34868">
        <ele>36</ele>
        <time>2021-04-11T09:56:33.000Z</time>
      </trkpt>
      <trkpt lat="47.30253" lon="-2.34873">
        <ele>36</ele>
        <time>2021-04-11T09:56:35.000Z</time>
      </trkpt>
      <trkpt lat="47.30249" lon="-2.34875">
        <ele>36</ele>
        <time>2021-04-11T09:56:36.000Z</time>
      </trkpt>
      <trkpt lat="47.30229" lon="-2.34892">
        <ele>36</ele>
        <time>2021-04-11T09:56:41.000Z</time>
      </trkpt>
      <trkpt lat="47.30222" lon="-2.349">
        <ele>36</ele>
        <time>2021-04-11T09:56:43.000Z</time>
      </trkpt>
      <trkpt lat="47.30218" lon="-2.34912">
        <ele>36</ele>
        <time>2021-04-11T09:56:45.000Z</time>
      </trkpt>
      <trkpt lat="47.30216" lon="-2.34925">
        <ele>36</ele>
        <time>2021-04-11T09:56:47.000Z</time>
      </trkpt>
      <trkpt lat="47.30214" lon="-2.34942">
        <ele>36</ele>
        <time>2021-04-11T09:56:50.000Z</time>
      </trkpt>
      <trkpt lat="47.30214" lon="-2.34969">
        <ele>36</ele>
        <time>2021-04-11T09:56:54.000Z</time>
      </trkpt>
      <trkpt lat="47.30213" lon="-2.34977">
        <ele>36</ele>
        <time>2021-04-11T09:56:55.000Z</time>
      </trkpt>
      <trkpt lat="47.30212" lon="-2.35022">
        <ele>36</ele>
        <time>2021-04-11T09:57:00.000Z</time>
      </trkpt>
      <trkpt lat="47.30212" lon="-2.35041">
        <ele>35.599998474121</ele>
        <time>2021-04-11T09:57:02.000Z</time>
      </trkpt>
      <trkpt lat="47.30212" lon="-2.35049">
        <ele>35.200000762939</ele>
        <time>2021-04-11T09:57:03.000Z</time>
      </trkpt>
      <trkpt lat="47.30212" lon="-2.35058">
        <ele>34.799999237061</ele>
        <time>2021-04-11T09:57:04.000Z</time>
      </trkpt>
      <trkpt lat="47.30212" lon="-2.35066">
        <ele>34.400001525879</ele>
        <time>2021-04-11T09:57:05.000Z</time>
      </trkpt>
      <trkpt lat="47.30211" lon="-2.35075">
        <ele>33.799999237061</ele>
        <time>2021-04-11T09:57:06.000Z</time>
      </trkpt>
      <trkpt lat="47.30212" lon="-2.35083">
        <ele>33.799999237061</ele>
        <time>2021-04-11T09:57:07.000Z</time>
      </trkpt>
      <trkpt lat="47.30211" lon="-2.35105">
        <ele>33.799999237061</ele>
        <time>2021-04-11T09:57:10.000Z</time>
      </trkpt>
      <trkpt lat="47.30211" lon="-2.35112">
        <ele>33.799999237061</ele>
        <time>2021-04-11T09:57:11.000Z</time>
      </trkpt>
      <trkpt lat="47.3021" lon="-2.35134">
        <ele>33.400001525879</ele>
        <time>2021-04-11T09:57:14.000Z</time>
      </trkpt>
      <trkpt lat="47.3021" lon="-2.35142">
        <ele>33</ele>
        <time>2021-04-11T09:57:15.000Z</time>
      </trkpt>
      <trkpt lat="47.3021" lon="-2.3515">
        <ele>32.599998474121</ele>
        <time>2021-04-11T09:57:16.000Z</time>
      </trkpt>
      <trkpt lat="47.30209" lon="-2.35156">
        <ele>32.200000762939</ele>
        <time>2021-04-11T09:57:17.000Z</time>
      </trkpt>
      <trkpt lat="47.30206" lon="-2.35161">
        <ele>31.799999237061</ele>
        <time>2021-04-11T09:57:18.000Z</time>
      </trkpt>
      <trkpt lat="47.30199" lon="-2.35166">
        <ele>31.799999237061</ele>
        <time>2021-04-11T09:57:20.000Z</time>
      </trkpt>
      <trkpt lat="47.30188" lon="-2.35171">
        <ele>31.799999237061</ele>
        <time>2021-04-11T09:57:24.000Z</time>
      </trkpt>
      <trkpt lat="47.30179" lon="-2.35174">
        <ele>31.799999237061</ele>
        <time>2021-04-11T09:57:30.000Z</time>
      </trkpt>
      <trkpt lat="47.3017" lon="-2.3518">
        <ele>31.799999237061</ele>
        <time>2021-04-11T09:57:35.000Z</time>
      </trkpt>
      <trkpt lat="47.30166" lon="-2.35182">
        <ele>31.39999961853</ele>
        <time>2021-04-11T09:57:38.000Z</time>
      </trkpt>
      <trkpt lat="47.30165" lon="-2.35184">
        <ele>31</ele>
        <time>2021-04-11T09:57:39.000Z</time>
      </trkpt>
      <trkpt lat="47.30164" lon="-2.35185">
        <ele>30.60000038147</ele>
        <time>2021-04-11T09:57:40.000Z</time>
      </trkpt>
      <trkpt lat="47.30163" lon="-2.35186">
        <ele>30.200000762939</ele>
        <time>2021-04-11T09:57:41.000Z</time>
      </trkpt>
      <trkpt lat="47.30162" lon="-2.35187">
        <ele>29.799999237061</ele>
        <time>2021-04-11T09:57:42.000Z</time>
      </trkpt>
      <trkpt lat="47.30162" lon="-2.35188">
        <ele>29.799999237061</ele>
        <time>2021-04-11T09:57:44.000Z</time>
      </trkpt>
      <trkpt lat="47.30151" lon="-2.35191">
        <ele>29.799999237061</ele>
        <time>2021-04-11T09:58:17.000Z</time>
      </trkpt>
      <trkpt lat="47.30139" lon="-2.35192">
        <ele>29.799999237061</ele>
        <time>2021-04-11T09:58:23.000Z</time>
      </trkpt>
      <trkpt lat="47.30128" lon="-2.35197">
        <ele>29.799999237061</ele>
        <time>2021-04-11T09:58:26.000Z</time>
      </trkpt>
      <trkpt lat="47.30119" lon="-2.35202">
        <ele>29.799999237061</ele>
        <time>2021-04-11T09:58:28.000Z</time>
      </trkpt>
      <trkpt lat="47.30105" lon="-2.35208">
        <ele>29.799999237061</ele>
        <time>2021-04-11T09:58:31.000Z</time>
      </trkpt>
      <trkpt lat="47.301" lon="-2.3521">
        <ele>29.799999237061</ele>
        <time>2021-04-11T09:58:32.000Z</time>
      </trkpt>
      <trkpt lat="47.30084" lon="-2.35214">
        <ele>29.799999237061</ele>
        <time>2021-04-11T09:58:35.000Z</time>
      </trkpt>
      <trkpt lat="47.30078" lon="-2.35217">
        <ele>29.799999237061</ele>
        <time>2021-04-11T09:58:36.000Z</time>
      </trkpt>
      <trkpt lat="47.30046" lon="-2.35234">
        <ele>29.799999237061</ele>
        <time>2021-04-11T09:58:43.000Z</time>
      </trkpt>
      <trkpt lat="47.30029" lon="-2.35243">
        <ele>29.799999237061</ele>
        <time>2021-04-11T09:58:48.000Z</time>
      </trkpt>
      <trkpt lat="47.30026" lon="-2.35242">
        <ele>29.799999237061</ele>
        <time>2021-04-11T09:58:50.000Z</time>
      </trkpt>
      <trkpt lat="47.30023" lon="-2.35244">
        <ele>29.799999237061</ele>
        <time>2021-04-11T09:58:52.000Z</time>
      </trkpt>
      <trkpt lat="47.30014" lon="-2.3525">
        <ele>29.799999237061</ele>
        <time>2021-04-11T09:58:57.000Z</time>
      </trkpt>
      <trkpt lat="47.30013" lon="-2.35251">
        <ele>29.799999237061</ele>
        <time>2021-04-11T09:58:59.000Z</time>
      </trkpt>
      <trkpt lat="47.30008" lon="-2.35252">
        <ele>29.799999237061</ele>
        <time>2021-04-11T09:59:04.000Z</time>
      </trkpt>
      <trkpt lat="47.30006" lon="-2.35252">
        <ele>29.799999237061</ele>
        <time>2021-04-11T09:59:05.000Z</time>
      </trkpt>
      <trkpt lat="47.30001" lon="-2.35253">
        <ele>29.799999237061</ele>
        <time>2021-04-11T09:59:09.000Z</time>
      </trkpt>
      <trkpt lat="47.3" lon="-2.35253">
        <ele>29.799999237061</ele>
        <time>2021-04-11T09:59:10.000Z</time>
      </trkpt>
      <trkpt lat="47.29997" lon="-2.35256">
        <ele>29.799999237061</ele>
        <time>2021-04-11T09:59:31.000Z</time>
      </trkpt>
      <trkpt lat="47.29985" lon="-2.35271">
        <ele>29.799999237061</ele>
        <time>2021-04-11T09:59:36.000Z</time>
      </trkpt>
      <trkpt lat="47.29966" lon="-2.35293">
        <ele>29.799999237061</ele>
        <time>2021-04-11T09:59:43.000Z</time>
      </trkpt>
      <trkpt lat="47.29947" lon="-2.35321">
        <ele>29.799999237061</ele>
        <time>2021-04-11T09:59:52.000Z</time>
      </trkpt>
      <trkpt lat="47.29935" lon="-2.35337">
        <ele>29.799999237061</ele>
        <time>2021-04-11T09:59:59.000Z</time>
      </trkpt>
      <trkpt lat="47.29917" lon="-2.35359">
        <ele>29.799999237061</ele>
        <time>2021-04-11T10:00:08.000Z</time>
      </trkpt>
      <trkpt lat="47.29894" lon="-2.35386">
        <ele>29.799999237061</ele>
        <time>2021-04-11T10:00:18.000Z</time>
      </trkpt>
      <trkpt lat="47.29869" lon="-2.35412">
        <ele>29.799999237061</ele>
        <time>2021-04-11T10:00:28.000Z</time>
      </trkpt>
      <trkpt lat="47.29853" lon="-2.35429">
        <ele>29.799999237061</ele>
        <time>2021-04-11T10:00:33.000Z</time>
      </trkpt>
      <trkpt lat="47.29842" lon="-2.35439">
        <ele>29.799999237061</ele>
        <time>2021-04-11T10:00:36.000Z</time>
      </trkpt>
      <trkpt lat="47.29834" lon="-2.35445">
        <ele>30.200000762939</ele>
        <time>2021-04-11T10:00:38.000Z</time>
      </trkpt>
      <trkpt lat="47.29831" lon="-2.3545">
        <ele>30.60000038147</ele>
        <time>2021-04-11T10:00:39.000Z</time>
      </trkpt>
      <trkpt lat="47.29828" lon="-2.35455">
        <ele>31</ele>
        <time>2021-04-11T10:00:40.000Z</time>
      </trkpt>
      <trkpt lat="47.29826" lon="-2.3546">
        <ele>31.39999961853</ele>
        <time>2021-04-11T10:00:41.000Z</time>
      </trkpt>
      <trkpt lat="47.29826" lon="-2.35467">
        <ele>31.799999237061</ele>
        <time>2021-04-11T10:00:42.000Z</time>
      </trkpt>
      <trkpt lat="47.29826" lon="-2.35473">
        <ele>31.799999237061</ele>
        <time>2021-04-11T10:00:43.000Z</time>
      </trkpt>
      <trkpt lat="47.29833" lon="-2.35497">
        <ele>31.799999237061</ele>
        <time>2021-04-11T10:00:47.000Z</time>
      </trkpt>
      <trkpt lat="47.29843" lon="-2.35531">
        <ele>31.799999237061</ele>
        <time>2021-04-11T10:00:53.000Z</time>
      </trkpt>
      <trkpt lat="47.29855" lon="-2.35571">
        <ele>31.799999237061</ele>
        <time>2021-04-11T10:01:00.000Z</time>
      </trkpt>
      <trkpt lat="47.29856" lon="-2.35577">
        <ele>32.200000762939</ele>
        <time>2021-04-11T10:01:01.000Z</time>
      </trkpt>
      <trkpt lat="47.29858" lon="-2.35583">
        <ele>32.599998474121</ele>
        <time>2021-04-11T10:01:02.000Z</time>
      </trkpt>
      <trkpt lat="47.29859" lon="-2.3559">
        <ele>33.200000762939</ele>
        <time>2021-04-11T10:01:03.000Z</time>
      </trkpt>
      <trkpt lat="47.29861" lon="-2.35596">
        <ele>33.599998474121</ele>
        <time>2021-04-11T10:01:04.000Z</time>
      </trkpt>
      <trkpt lat="47.29863" lon="-2.35602">
        <ele>34</ele>
        <time>2021-04-11T10:01:05.000Z</time>
      </trkpt>
      <trkpt lat="47.29868" lon="-2.35621">
        <ele>34</ele>
        <time>2021-04-11T10:01:08.000Z</time>
      </trkpt>
      <trkpt lat="47.29874" lon="-2.35646">
        <ele>34</ele>
        <time>2021-04-11T10:01:12.000Z</time>
      </trkpt>
      <trkpt lat="47.29875" lon="-2.35659">
        <ele>34</ele>
        <time>2021-04-11T10:01:14.000Z</time>
      </trkpt>
      <trkpt lat="47.29879" lon="-2.35679">
        <ele>34.400001525879</ele>
        <time>2021-04-11T10:01:17.000Z</time>
      </trkpt>
      <trkpt lat="47.2988" lon="-2.35687">
        <ele>34.799999237061</ele>
        <time>2021-04-11T10:01:18.000Z</time>
      </trkpt>
      <trkpt lat="47.29881" lon="-2.35693">
        <ele>35.799999237061</ele>
        <time>2021-04-11T10:01:19.000Z</time>
      </trkpt>
      <trkpt lat="47.29883" lon="-2.35698">
        <ele>36.200000762939</ele>
        <time>2021-04-11T10:01:20.000Z</time>
      </trkpt>
      <trkpt lat="47.29885" lon="-2.3571">
        <ele>36.200000762939</ele>
        <time>2021-04-11T10:01:22.000Z</time>
      </trkpt>
      <trkpt lat="47.29896" lon="-2.35741">
        <ele>36.200000762939</ele>
        <time>2021-04-11T10:01:28.000Z</time>
      </trkpt>
      <trkpt lat="47.29898" lon="-2.35749">
        <ele>36.200000762939</ele>
        <time>2021-04-11T10:01:32.000Z</time>
      </trkpt>
      <trkpt lat="47.29899" lon="-2.35753">
        <ele>36.200000762939</ele>
        <time>2021-04-11T10:01:34.000Z</time>
      </trkpt>
      <trkpt lat="47.29895" lon="-2.35761">
        <ele>36.200000762939</ele>
        <time>2021-04-11T10:01:36.000Z</time>
      </trkpt>
      <trkpt lat="47.29881" lon="-2.35767">
        <ele>36.200000762939</ele>
        <time>2021-04-11T10:01:39.000Z</time>
      </trkpt>
      <trkpt lat="47.29851" lon="-2.35779">
        <ele>36.200000762939</ele>
        <time>2021-04-11T10:01:45.000Z</time>
      </trkpt>
      <trkpt lat="47.29838" lon="-2.35785">
        <ele>36.200000762939</ele>
        <time>2021-04-11T10:01:48.000Z</time>
      </trkpt>
      <trkpt lat="47.29824" lon="-2.35789">
        <ele>36.200000762939</ele>
        <time>2021-04-11T10:01:51.000Z</time>
      </trkpt>
      <trkpt lat="47.29791" lon="-2.358">
        <ele>36.200000762939</ele>
        <time>2021-04-11T10:01:59.000Z</time>
      </trkpt>
      <trkpt lat="47.29748" lon="-2.35814">
        <ele>36.200000762939</ele>
        <time>2021-04-11T10:02:08.000Z</time>
      </trkpt>
      <trkpt lat="47.29736" lon="-2.35819">
        <ele>36.200000762939</ele>
        <time>2021-04-11T10:02:10.000Z</time>
      </trkpt>
      <trkpt lat="47.29717" lon="-2.35831">
        <ele>36.200000762939</ele>
        <time>2021-04-11T10:02:13.000Z</time>
      </trkpt>
      <trkpt lat="47.29682" lon="-2.35845">
        <ele>36.200000762939</ele>
        <time>2021-04-11T10:02:18.000Z</time>
      </trkpt>
      <trkpt lat="47.2967" lon="-2.35852">
        <ele>36.200000762939</ele>
        <time>2021-04-11T10:02:20.000Z</time>
      </trkpt>
      <trkpt lat="47.29659" lon="-2.35861">
        <ele>36.200000762939</ele>
        <time>2021-04-11T10:02:22.000Z</time>
      </trkpt>
      <trkpt lat="47.29653" lon="-2.35865">
        <ele>36.200000762939</ele>
        <time>2021-04-11T10:02:23.000Z</time>
      </trkpt>
      <trkpt lat="47.29629" lon="-2.35879">
        <ele>36.200000762939</ele>
        <time>2021-04-11T10:02:27.000Z</time>
      </trkpt>
      <trkpt lat="47.29591" lon="-2.35902">
        <ele>36.200000762939</ele>
        <time>2021-04-11T10:02:34.000Z</time>
      </trkpt>
      <trkpt lat="47.29565" lon="-2.35916">
        <ele>35.799999237061</ele>
        <time>2021-04-11T10:02:39.000Z</time>
      </trkpt>
      <trkpt lat="47.2956" lon="-2.35919">
        <ele>35.400001525879</ele>
        <time>2021-04-11T10:02:40.000Z</time>
      </trkpt>
      <trkpt lat="47.29555" lon="-2.35921">
        <ele>35</ele>
        <time>2021-04-11T10:02:41.000Z</time>
      </trkpt>
      <trkpt lat="47.2955" lon="-2.35924">
        <ele>34.599998474121</ele>
        <time>2021-04-11T10:02:42.000Z</time>
      </trkpt>
      <trkpt lat="47.29545" lon="-2.35927">
        <ele>34.200000762939</ele>
        <time>2021-04-11T10:02:43.000Z</time>
      </trkpt>
      <trkpt lat="47.29522" lon="-2.35941">
        <ele>34.200000762939</ele>
        <time>2021-04-11T10:02:48.000Z</time>
      </trkpt>
      <trkpt lat="47.29496" lon="-2.3596">
        <ele>34.200000762939</ele>
        <time>2021-04-11T10:02:55.000Z</time>
      </trkpt>
      <trkpt lat="47.29478" lon="-2.35976">
        <ele>34.200000762939</ele>
        <time>2021-04-11T10:03:00.000Z</time>
      </trkpt>
      <trkpt lat="47.29474" lon="-2.35987">
        <ele>34.200000762939</ele>
        <time>2021-04-11T10:03:02.000Z</time>
      </trkpt>
      <trkpt lat="47.29469" lon="-2.35996">
        <ele>34.200000762939</ele>
        <time>2021-04-11T10:03:04.000Z</time>
      </trkpt>
      <trkpt lat="47.29462" lon="-2.35992">
        <ele>34.200000762939</ele>
        <time>2021-04-11T10:03:06.000Z</time>
      </trkpt>
      <trkpt lat="47.29456" lon="-2.35971">
        <ele>34.200000762939</ele>
        <time>2021-04-11T10:03:09.000Z</time>
      </trkpt>
      <trkpt lat="47.29455" lon="-2.35964">
        <ele>34.200000762939</ele>
        <time>2021-04-11T10:03:10.000Z</time>
      </trkpt>
      <trkpt lat="47.29442" lon="-2.35922">
        <ele>34.200000762939</ele>
        <time>2021-04-11T10:03:16.000Z</time>
      </trkpt>
      <trkpt lat="47.29439" lon="-2.35915">
        <ele>34.200000762939</ele>
        <time>2021-04-11T10:03:17.000Z</time>
      </trkpt>
      <trkpt lat="47.29425" lon="-2.35888">
        <ele>34.200000762939</ele>
        <time>2021-04-11T10:03:21.000Z</time>
      </trkpt>
      <trkpt lat="47.29421" lon="-2.35883">
        <ele>34.200000762939</ele>
        <time>2021-04-11T10:03:22.000Z</time>
      </trkpt>
      <trkpt lat="47.29414" lon="-2.35873">
        <ele>34.200000762939</ele>
        <time>2021-04-11T10:03:24.000Z</time>
      </trkpt>
      <trkpt lat="47.29405" lon="-2.35864">
        <ele>34.200000762939</ele>
        <time>2021-04-11T10:03:26.000Z</time>
      </trkpt>
      <trkpt lat="47.29374" lon="-2.35831">
        <ele>34.200000762939</ele>
        <time>2021-04-11T10:03:33.000Z</time>
      </trkpt>
      <trkpt lat="47.2935" lon="-2.3581">
        <ele>34.200000762939</ele>
        <time>2021-04-11T10:03:38.000Z</time>
      </trkpt>
      <trkpt lat="47.29345" lon="-2.35805">
        <ele>34.200000762939</ele>
        <time>2021-04-11T10:03:39.000Z</time>
      </trkpt>
      <trkpt lat="47.29312" lon="-2.35774">
        <ele>34.200000762939</ele>
        <time>2021-04-11T10:03:46.000Z</time>
      </trkpt>
      <trkpt lat="47.2929" lon="-2.35754">
        <ele>34.200000762939</ele>
        <time>2021-04-11T10:03:51.000Z</time>
      </trkpt>
      <trkpt lat="47.29282" lon="-2.35746">
        <ele>34.200000762939</ele>
        <time>2021-04-11T10:03:53.000Z</time>
      </trkpt>
      <trkpt lat="47.29257" lon="-2.35724">
        <ele>34.200000762939</ele>
        <time>2021-04-11T10:03:59.000Z</time>
      </trkpt>
      <trkpt lat="47.29253" lon="-2.35725">
        <ele>34.200000762939</ele>
        <time>2021-04-11T10:04:00.000Z</time>
      </trkpt>
      <trkpt lat="47.29244" lon="-2.35748">
        <ele>34.200000762939</ele>
        <time>2021-04-11T10:04:03.000Z</time>
      </trkpt>
      <trkpt lat="47.29239" lon="-2.35756">
        <ele>34.200000762939</ele>
        <time>2021-04-11T10:04:04.000Z</time>
      </trkpt>
      <trkpt lat="47.29226" lon="-2.35774">
        <ele>34.200000762939</ele>
        <time>2021-04-11T10:04:07.000Z</time>
      </trkpt>
      <trkpt lat="47.29196" lon="-2.35801">
        <ele>34.200000762939</ele>
        <time>2021-04-11T10:04:13.000Z</time>
      </trkpt>
      <trkpt lat="47.29168" lon="-2.35819">
        <ele>34.200000762939</ele>
        <time>2021-04-11T10:04:19.000Z</time>
      </trkpt>
      <trkpt lat="47.2914" lon="-2.35843">
        <ele>34.200000762939</ele>
        <time>2021-04-11T10:04:26.000Z</time>
      </trkpt>
      <trkpt lat="47.29113" lon="-2.35873">
        <ele>34.200000762939</ele>
        <time>2021-04-11T10:04:33.000Z</time>
      </trkpt>
      <trkpt lat="47.29081" lon="-2.35912">
        <ele>34.200000762939</ele>
        <time>2021-04-11T10:04:41.000Z</time>
      </trkpt>
      <trkpt lat="47.29042" lon="-2.35958">
        <ele>34.200000762939</ele>
        <time>2021-04-11T10:04:51.000Z</time>
      </trkpt>
      <trkpt lat="47.29014" lon="-2.35986">
        <ele>34.200000762939</ele>
        <time>2021-04-11T10:04:58.000Z</time>
      </trkpt>
      <trkpt lat="47.28986" lon="-2.36015">
        <ele>34.200000762939</ele>
        <time>2021-04-11T10:05:05.000Z</time>
      </trkpt>
      <trkpt lat="47.28954" lon="-2.36046">
        <ele>34.200000762939</ele>
        <time>2021-04-11T10:05:13.000Z</time>
      </trkpt>
      <trkpt lat="47.28918" lon="-2.36069">
        <ele>34.200000762939</ele>
        <time>2021-04-11T10:05:21.000Z</time>
      </trkpt>
      <trkpt lat="47.2889" lon="-2.36094">
        <ele>34.200000762939</ele>
        <time>2021-04-11T10:05:27.000Z</time>
      </trkpt>
      <trkpt lat="47.28861" lon="-2.36124">
        <ele>34.200000762939</ele>
        <time>2021-04-11T10:05:34.000Z</time>
      </trkpt>
      <trkpt lat="47.28833" lon="-2.3616">
        <ele>34.200000762939</ele>
        <time>2021-04-11T10:05:42.000Z</time>
      </trkpt>
      <trkpt lat="47.28822" lon="-2.36174">
        <ele>34.200000762939</ele>
        <time>2021-04-11T10:05:45.000Z</time>
      </trkpt>
      <trkpt lat="47.2881" lon="-2.36186">
        <ele>34.200000762939</ele>
        <time>2021-04-11T10:05:48.000Z</time>
      </trkpt>
      <trkpt lat="47.28806" lon="-2.36189">
        <ele>34.200000762939</ele>
        <time>2021-04-11T10:05:49.000Z</time>
      </trkpt>
      <trkpt lat="47.28798" lon="-2.36194">
        <ele>34.200000762939</ele>
        <time>2021-04-11T10:05:51.000Z</time>
      </trkpt>
      <trkpt lat="47.2879" lon="-2.36199">
        <ele>34.200000762939</ele>
        <time>2021-04-11T10:05:53.000Z</time>
      </trkpt>
      <trkpt lat="47.28775" lon="-2.3621">
        <ele>34.200000762939</ele>
        <time>2021-04-11T10:05:58.000Z</time>
      </trkpt>
      <trkpt lat="47.28752" lon="-2.36227">
        <ele>34.200000762939</ele>
        <time>2021-04-11T10:06:04.000Z</time>
      </trkpt>
      <trkpt lat="47.28736" lon="-2.36239">
        <ele>34.200000762939</ele>
        <time>2021-04-11T10:06:09.000Z</time>
      </trkpt>
      <trkpt lat="47.28725" lon="-2.3625">
        <ele>34.200000762939</ele>
        <time>2021-04-11T10:06:15.000Z</time>
      </trkpt>
      <trkpt lat="47.28718" lon="-2.36262">
        <ele>34.599998474121</ele>
        <time>2021-04-11T10:06:22.000Z</time>
      </trkpt>
      <trkpt lat="47.28717" lon="-2.36265">
        <ele>35</ele>
        <time>2021-04-11T10:06:23.000Z</time>
      </trkpt>
      <trkpt lat="47.28715" lon="-2.36267">
        <ele>35.400001525879</ele>
        <time>2021-04-11T10:06:24.000Z</time>
      </trkpt>
      <trkpt lat="47.28713" lon="-2.3627">
        <ele>35.799999237061</ele>
        <time>2021-04-11T10:06:25.000Z</time>
      </trkpt>
      <trkpt lat="47.2871" lon="-2.36272">
        <ele>36.200000762939</ele>
        <time>2021-04-11T10:06:26.000Z</time>
      </trkpt>
      <trkpt lat="47.28702" lon="-2.36276">
        <ele>36.200000762939</ele>
        <time>2021-04-11T10:06:29.000Z</time>
      </trkpt>
      <trkpt lat="47.28688" lon="-2.36277">
        <ele>36.599998474121</ele>
        <time>2021-04-11T10:06:32.000Z</time>
      </trkpt>
      <trkpt lat="47.28685" lon="-2.36278">
        <ele>37</ele>
        <time>2021-04-11T10:06:33.000Z</time>
      </trkpt>
      <trkpt lat="47.28682" lon="-2.36278">
        <ele>37.400001525879</ele>
        <time>2021-04-11T10:06:34.000Z</time>
      </trkpt>
      <trkpt lat="47.2868" lon="-2.36277">
        <ele>37.799999237061</ele>
        <time>2021-04-11T10:06:35.000Z</time>
      </trkpt>
      <trkpt lat="47.28677" lon="-2.36275">
        <ele>38.200000762939</ele>
        <time>2021-04-11T10:06:36.000Z</time>
      </trkpt>
      <trkpt lat="47.28674" lon="-2.36265">
        <ele>38.200000762939</ele>
        <time>2021-04-11T10:06:40.000Z</time>
      </trkpt>
      <trkpt lat="47.28673" lon="-2.36254">
        <ele>38.200000762939</ele>
        <time>2021-04-11T10:06:43.000Z</time>
      </trkpt>
      <trkpt lat="47.28671" lon="-2.36238">
        <ele>38.799999237061</ele>
        <time>2021-04-11T10:06:47.000Z</time>
      </trkpt>
      <trkpt lat="47.2867" lon="-2.36234">
        <ele>39.200000762939</ele>
        <time>2021-04-11T10:06:48.000Z</time>
      </trkpt>
      <trkpt lat="47.28669" lon="-2.3623">
        <ele>39.599998474121</ele>
        <time>2021-04-11T10:06:49.000Z</time>
      </trkpt>
      <trkpt lat="47.28668" lon="-2.36226">
        <ele>40</ele>
        <time>2021-04-11T10:06:50.000Z</time>
      </trkpt>
      <trkpt lat="47.28667" lon="-2.36222">
        <ele>40.400001525879</ele>
        <time>2021-04-11T10:06:51.000Z</time>
      </trkpt>
      <trkpt lat="47.28664" lon="-2.36203">
        <ele>40.400001525879</ele>
        <time>2021-04-11T10:06:54.000Z</time>
      </trkpt>
      <trkpt lat="47.28657" lon="-2.36181">
        <ele>40.799999237061</ele>
        <time>2021-04-11T10:06:59.000Z</time>
      </trkpt>
      <trkpt lat="47.28652" lon="-2.36176">
        <ele>41.200000762939</ele>
        <time>2021-04-11T10:07:00.000Z</time>
      </trkpt>
      <trkpt lat="47.28649" lon="-2.36172">
        <ele>41.599998474121</ele>
        <time>2021-04-11T10:07:01.000Z</time>
      </trkpt>
      <trkpt lat="47.28647" lon="-2.36168">
        <ele>42</ele>
        <time>2021-04-11T10:07:02.000Z</time>
      </trkpt>
      <trkpt lat="47.28645" lon="-2.36163">
        <ele>42.400001525879</ele>
        <time>2021-04-11T10:07:03.000Z</time>
      </trkpt>
      <trkpt lat="47.28638" lon="-2.36151">
        <ele>42.400001525879</ele>
        <time>2021-04-11T10:07:06.000Z</time>
      </trkpt>
      <trkpt lat="47.28633" lon="-2.36145">
        <ele>43</ele>
        <time>2021-04-11T10:07:08.000Z</time>
      </trkpt>
      <trkpt lat="47.2863" lon="-2.36144">
        <ele>43.400001525879</ele>
        <time>2021-04-11T10:07:09.000Z</time>
      </trkpt>
      <trkpt lat="47.28626" lon="-2.36145">
        <ele>43.799999237061</ele>
        <time>2021-04-11T10:07:10.000Z</time>
      </trkpt>
      <trkpt lat="47.28623" lon="-2.36146">
        <ele>44.200000762939</ele>
        <time>2021-04-11T10:07:11.000Z</time>
      </trkpt>
      <trkpt lat="47.28619" lon="-2.36148">
        <ele>44.599998474121</ele>
        <time>2021-04-11T10:07:12.000Z</time>
      </trkpt>
      <trkpt lat="47.28603" lon="-2.36155">
        <ele>44.599998474121</ele>
        <time>2021-04-11T10:07:17.000Z</time>
      </trkpt>
      <trkpt lat="47.28585" lon="-2.36149">
        <ele>44.599998474121</ele>
        <time>2021-04-11T10:07:23.000Z</time>
      </trkpt>
      <trkpt lat="47.28565" lon="-2.36145">
        <ele>44.599998474121</ele>
        <time>2021-04-11T10:07:28.000Z</time>
      </trkpt>
      <trkpt lat="47.28561" lon="-2.36145">
        <ele>44</ele>
        <time>2021-04-11T10:07:29.000Z</time>
      </trkpt>
      <trkpt lat="47.28558" lon="-2.36142">
        <ele>43</ele>
        <time>2021-04-11T10:07:30.000Z</time>
      </trkpt>
      <trkpt lat="47.28555" lon="-2.36137">
        <ele>42.599998474121</ele>
        <time>2021-04-11T10:07:31.000Z</time>
      </trkpt>
      <trkpt lat="47.28552" lon="-2.3613">
        <ele>42</ele>
        <time>2021-04-11T10:07:32.000Z</time>
      </trkpt>
      <trkpt lat="47.28541" lon="-2.36094">
        <ele>42</ele>
        <time>2021-04-11T10:07:38.000Z</time>
      </trkpt>
      <trkpt lat="47.28532" lon="-2.36071">
        <ele>42</ele>
        <time>2021-04-11T10:07:43.000Z</time>
      </trkpt>
      <trkpt lat="47.28515" lon="-2.36051">
        <ele>42</ele>
        <time>2021-04-11T10:07:48.000Z</time>
      </trkpt>
      <trkpt lat="47.28505" lon="-2.36043">
        <ele>42</ele>
        <time>2021-04-11T10:07:50.000Z</time>
      </trkpt>
      <trkpt lat="47.28489" lon="-2.36035">
        <ele>42</ele>
        <time>2021-04-11T10:07:53.000Z</time>
      </trkpt>
      <trkpt lat="47.28482" lon="-2.36031">
        <ele>42</ele>
        <time>2021-04-11T10:07:54.000Z</time>
      </trkpt>
      <trkpt lat="47.28465" lon="-2.36015">
        <ele>42</ele>
        <time>2021-04-11T10:07:58.000Z</time>
      </trkpt>
      <trkpt lat="47.28452" lon="-2.35994">
        <ele>42</ele>
        <time>2021-04-11T10:08:03.000Z</time>
      </trkpt>
      <trkpt lat="47.28446" lon="-2.35992">
        <ele>42</ele>
        <time>2021-04-11T10:08:05.000Z</time>
      </trkpt>
      <trkpt lat="47.28439" lon="-2.35993">
        <ele>42</ele>
        <time>2021-04-11T10:08:07.000Z</time>
      </trkpt>
      <trkpt lat="47.28428" lon="-2.36004">
        <ele>42</ele>
        <time>2021-04-11T10:08:10.000Z</time>
      </trkpt>
      <trkpt lat="47.28424" lon="-2.36008">
        <ele>42</ele>
        <time>2021-04-11T10:08:11.000Z</time>
      </trkpt>
      <trkpt lat="47.28408" lon="-2.36023">
        <ele>42</ele>
        <time>2021-04-11T10:08:16.000Z</time>
      </trkpt>
      <trkpt lat="47.28399" lon="-2.36022">
        <ele>41.599998474121</ele>
        <time>2021-04-11T10:08:18.000Z</time>
      </trkpt>
      <trkpt lat="47.28394" lon="-2.36021">
        <ele>40.799999237061</ele>
        <time>2021-04-11T10:08:19.000Z</time>
      </trkpt>
      <trkpt lat="47.28389" lon="-2.36022">
        <ele>40.400001525879</ele>
        <time>2021-04-11T10:08:20.000Z</time>
      </trkpt>
      <trkpt lat="47.28383" lon="-2.36023">
        <ele>40</ele>
        <time>2021-04-11T10:08:21.000Z</time>
      </trkpt>
      <trkpt lat="47.28373" lon="-2.36024">
        <ele>39.599998474121</ele>
        <time>2021-04-11T10:08:22.000Z</time>
      </trkpt>
      <trkpt lat="47.28365" lon="-2.36025">
        <ele>39.200000762939</ele>
        <time>2021-04-11T10:08:23.000Z</time>
      </trkpt>
      <trkpt lat="47.28358" lon="-2.36027">
        <ele>38.599998474121</ele>
        <time>2021-04-11T10:08:24.000Z</time>
      </trkpt>
      <trkpt lat="47.28351" lon="-2.36031">
        <ele>37.799999237061</ele>
        <time>2021-04-11T10:08:25.000Z</time>
      </trkpt>
      <trkpt lat="47.28344" lon="-2.36036">
        <ele>37.200000762939</ele>
        <time>2021-04-11T10:08:26.000Z</time>
      </trkpt>
      <trkpt lat="47.28338" lon="-2.3604">
        <ele>36.599998474121</ele>
        <time>2021-04-11T10:08:27.000Z</time>
      </trkpt>
      <trkpt lat="47.28333" lon="-2.36045">
        <ele>35.799999237061</ele>
        <time>2021-04-11T10:08:28.000Z</time>
      </trkpt>
      <trkpt lat="47.28328" lon="-2.36049">
        <ele>35.400001525879</ele>
        <time>2021-04-11T10:08:29.000Z</time>
      </trkpt>
      <trkpt lat="47.28324" lon="-2.36052">
        <ele>34.799999237061</ele>
        <time>2021-04-11T10:08:30.000Z</time>
      </trkpt>
      <trkpt lat="47.28321" lon="-2.36054">
        <ele>34.400001525879</ele>
        <time>2021-04-11T10:08:31.000Z</time>
      </trkpt>
      <trkpt lat="47.28317" lon="-2.36054">
        <ele>34</ele>
        <time>2021-04-11T10:08:32.000Z</time>
      </trkpt>
      <trkpt lat="47.28313" lon="-2.36054">
        <ele>33.400001525879</ele>
        <time>2021-04-11T10:08:33.000Z</time>
      </trkpt>
      <trkpt lat="47.28309" lon="-2.36055">
        <ele>33.400001525879</ele>
        <time>2021-04-11T10:08:34.000Z</time>
      </trkpt>
      <trkpt lat="47.28297" lon="-2.3605">
        <ele>33</ele>
        <time>2021-04-11T10:08:37.000Z</time>
      </trkpt>
      <trkpt lat="47.28291" lon="-2.36045">
        <ele>32.599998474121</ele>
        <time>2021-04-11T10:08:38.000Z</time>
      </trkpt>
      <trkpt lat="47.28287" lon="-2.36041">
        <ele>32.200000762939</ele>
        <time>2021-04-11T10:08:39.000Z</time>
      </trkpt>
      <trkpt lat="47.28283" lon="-2.36035">
        <ele>31.39999961853</ele>
        <time>2021-04-11T10:08:40.000Z</time>
      </trkpt>
      <trkpt lat="47.28279" lon="-2.3603">
        <ele>30.60000038147</ele>
        <time>2021-04-11T10:08:41.000Z</time>
      </trkpt>
      <trkpt lat="47.28277" lon="-2.36025">
        <ele>30</ele>
        <time>2021-04-11T10:08:42.000Z</time>
      </trkpt>
      <trkpt lat="47.28276" lon="-2.36019">
        <ele>29</ele>
        <time>2021-04-11T10:08:43.000Z</time>
      </trkpt>
      <trkpt lat="47.28276" lon="-2.36013">
        <ele>27.200000762939</ele>
        <time>2021-04-11T10:08:44.000Z</time>
      </trkpt>
      <trkpt lat="47.28278" lon="-2.36006">
        <ele>26.60000038147</ele>
        <time>2021-04-11T10:08:45.000Z</time>
      </trkpt>
      <trkpt lat="47.28279" lon="-2.36">
        <ele>25.799999237061</ele>
        <time>2021-04-11T10:08:46.000Z</time>
      </trkpt>
      <trkpt lat="47.2828" lon="-2.35996">
        <ele>25</ele>
        <time>2021-04-11T10:08:47.000Z</time>
      </trkpt>
      <trkpt lat="47.28279" lon="-2.35987">
        <ele>24.200000762939</ele>
        <time>2021-04-11T10:08:48.000Z</time>
      </trkpt>
      <trkpt lat="47.28277" lon="-2.35981">
        <ele>23.39999961853</ele>
        <time>2021-04-11T10:08:49.000Z</time>
      </trkpt>
      <trkpt lat="47.28272" lon="-2.35966">
        <ele>23.39999961853</ele>
        <time>2021-04-11T10:08:52.000Z</time>
      </trkpt>
      <trkpt lat="47.28259" lon="-2.35945">
        <ele>23.39999961853</ele>
        <time>2021-04-11T10:08:58.000Z</time>
      </trkpt>
      <trkpt lat="47.28256" lon="-2.35941">
        <ele>24</ele>
        <time>2021-04-11T10:08:59.000Z</time>
      </trkpt>
      <trkpt lat="47.28254" lon="-2.35938">
        <ele>24.39999961853</ele>
        <time>2021-04-11T10:09:00.000Z</time>
      </trkpt>
      <trkpt lat="47.28251" lon="-2.35935">
        <ele>24.799999237061</ele>
        <time>2021-04-11T10:09:01.000Z</time>
      </trkpt>
      <trkpt lat="47.28247" lon="-2.35932">
        <ele>25.39999961853</ele>
        <time>2021-04-11T10:09:02.000Z</time>
      </trkpt>
      <trkpt lat="47.28243" lon="-2.35929">
        <ele>25.799999237061</ele>
        <time>2021-04-11T10:09:03.000Z</time>
      </trkpt>
      <trkpt lat="47.28239" lon="-2.35927">
        <ele>25.799999237061</ele>
        <time>2021-04-11T10:09:04.000Z</time>
      </trkpt>
      <trkpt lat="47.28235" lon="-2.35925">
        <ele>25.799999237061</ele>
        <time>2021-04-11T10:09:05.000Z</time>
      </trkpt>
      <trkpt lat="47.28227" lon="-2.35921">
        <ele>25.799999237061</ele>
        <time>2021-04-11T10:09:07.000Z</time>
      </trkpt>
      <trkpt lat="47.28222" lon="-2.35917">
        <ele>25.799999237061</ele>
        <time>2021-04-11T10:09:08.000Z</time>
      </trkpt>
      <trkpt lat="47.28207" lon="-2.35909">
        <ele>25.799999237061</ele>
        <time>2021-04-11T10:09:11.000Z</time>
      </trkpt>
      <trkpt lat="47.28185" lon="-2.35903">
        <ele>25.39999961853</ele>
        <time>2021-04-11T10:09:16.000Z</time>
      </trkpt>
      <trkpt lat="47.28181" lon="-2.35901">
        <ele>25</ele>
        <time>2021-04-11T10:09:17.000Z</time>
      </trkpt>
      <trkpt lat="47.28176" lon="-2.35899">
        <ele>24.60000038147</ele>
        <time>2021-04-11T10:09:18.000Z</time>
      </trkpt>
      <trkpt lat="47.28172" lon="-2.35898">
        <ele>24</ele>
        <time>2021-04-11T10:09:19.000Z</time>
      </trkpt>
      <trkpt lat="47.28169" lon="-2.35897">
        <ele>23.60000038147</ele>
        <time>2021-04-11T10:09:20.000Z</time>
      </trkpt>
      <trkpt lat="47.2814" lon="-2.35886">
        <ele>23.60000038147</ele>
        <time>2021-04-11T10:09:27.000Z</time>
      </trkpt>
      <trkpt lat="47.28135" lon="-2.3588">
        <ele>23.60000038147</ele>
        <time>2021-04-11T10:09:29.000Z</time>
      </trkpt>
      <trkpt lat="47.28133" lon="-2.35876">
        <ele>23.60000038147</ele>
        <time>2021-04-11T10:09:30.000Z</time>
      </trkpt>
      <trkpt lat="47.28127" lon="-2.35859">
        <ele>23.60000038147</ele>
        <time>2021-04-11T10:09:33.000Z</time>
      </trkpt>
      <trkpt lat="47.28126" lon="-2.35851">
        <ele>23.60000038147</ele>
        <time>2021-04-11T10:09:35.000Z</time>
      </trkpt>
      <trkpt lat="47.28124" lon="-2.3585">
        <ele>23.60000038147</ele>
        <time>2021-04-11T10:09:36.000Z</time>
      </trkpt>
      <trkpt lat="47.28116" lon="-2.35844">
        <ele>23.60000038147</ele>
        <time>2021-04-11T10:09:40.000Z</time>
      </trkpt>
      <trkpt lat="47.28107" lon="-2.35832">
        <ele>23.60000038147</ele>
        <time>2021-04-11T10:09:47.000Z</time>
      </trkpt>
      <trkpt lat="47.281" lon="-2.35819">
        <ele>23.60000038147</ele>
        <time>2021-04-11T10:09:53.000Z</time>
      </trkpt>
      <trkpt lat="47.281" lon="-2.35818">
        <ele>23.200000762939</ele>
        <time>2021-04-11T10:09:54.000Z</time>
      </trkpt>
      <trkpt lat="47.28098" lon="-2.35816">
        <ele>22.799999237061</ele>
        <time>2021-04-11T10:09:55.000Z</time>
      </trkpt>
      <trkpt lat="47.28096" lon="-2.35815">
        <ele>22.39999961853</ele>
        <time>2021-04-11T10:09:56.000Z</time>
      </trkpt>
      <trkpt lat="47.28095" lon="-2.35814">
        <ele>22</ele>
        <time>2021-04-11T10:09:57.000Z</time>
      </trkpt>
      <trkpt lat="47.28094" lon="-2.35812">
        <ele>21.60000038147</ele>
        <time>2021-04-11T10:09:58.000Z</time>
      </trkpt>
      <trkpt lat="47.28085" lon="-2.35806">
        <ele>21.60000038147</ele>
        <time>2021-04-11T10:10:03.000Z</time>
      </trkpt>
      <trkpt lat="47.28082" lon="-2.35805">
        <ele>21.60000038147</ele>
        <time>2021-04-11T10:10:04.000Z</time>
      </trkpt>
      <trkpt lat="47.28082" lon="-2.35802">
        <ele>22</ele>
        <time>2021-04-11T10:10:05.000Z</time>
      </trkpt>
      <trkpt lat="47.28082" lon="-2.35799">
        <ele>22.39999961853</ele>
        <time>2021-04-11T10:10:06.000Z</time>
      </trkpt>
      <trkpt lat="47.28082" lon="-2.35794">
        <ele>22.799999237061</ele>
        <time>2021-04-11T10:10:07.000Z</time>
      </trkpt>
      <trkpt lat="47.28082" lon="-2.35788">
        <ele>23.200000762939</ele>
        <time>2021-04-11T10:10:08.000Z</time>
      </trkpt>
      <trkpt lat="47.28082" lon="-2.35782">
        <ele>23.60000038147</ele>
        <time>2021-04-11T10:10:09.000Z</time>
      </trkpt>
      <trkpt lat="47.28084" lon="-2.35761">
        <ele>23.60000038147</ele>
        <time>2021-04-11T10:10:13.000Z</time>
      </trkpt>
      <trkpt lat="47.28084" lon="-2.35751">
        <ele>24</ele>
        <time>2021-04-11T10:10:15.000Z</time>
      </trkpt>
      <trkpt lat="47.28085" lon="-2.35746">
        <ele>24.39999961853</ele>
        <time>2021-04-11T10:10:16.000Z</time>
      </trkpt>
      <trkpt lat="47.28085" lon="-2.35741">
        <ele>24.799999237061</ele>
        <time>2021-04-11T10:10:17.000Z</time>
      </trkpt>
      <trkpt lat="47.28086" lon="-2.35736">
        <ele>25.200000762939</ele>
        <time>2021-04-11T10:10:18.000Z</time>
      </trkpt>
      <trkpt lat="47.28086" lon="-2.35731">
        <ele>25.60000038147</ele>
        <time>2021-04-11T10:10:19.000Z</time>
      </trkpt>
      <trkpt lat="47.28091" lon="-2.35712">
        <ele>26</ele>
        <time>2021-04-11T10:10:23.000Z</time>
      </trkpt>
      <trkpt lat="47.28092" lon="-2.35708">
        <ele>26.39999961853</ele>
        <time>2021-04-11T10:10:24.000Z</time>
      </trkpt>
      <trkpt lat="47.28091" lon="-2.35705">
        <ele>27</ele>
        <time>2021-04-11T10:10:25.000Z</time>
      </trkpt>
      <trkpt lat="47.2809" lon="-2.35699">
        <ele>27.39999961853</ele>
        <time>2021-04-11T10:10:26.000Z</time>
      </trkpt>
      <trkpt lat="47.2809" lon="-2.35694">
        <ele>27.799999237061</ele>
        <time>2021-04-11T10:10:27.000Z</time>
      </trkpt>
      <trkpt lat="47.28087" lon="-2.35679">
        <ele>27.799999237061</ele>
        <time>2021-04-11T10:10:29.000Z</time>
      </trkpt>
      <trkpt lat="47.28083" lon="-2.35655">
        <ele>27.799999237061</ele>
        <time>2021-04-11T10:10:32.000Z</time>
      </trkpt>
      <trkpt lat="47.28079" lon="-2.35643">
        <ele>27.200000762939</ele>
        <time>2021-04-11T10:10:34.000Z</time>
      </trkpt>
      <trkpt lat="47.28077" lon="-2.35637">
        <ele>26.799999237061</ele>
        <time>2021-04-11T10:10:35.000Z</time>
      </trkpt>
      <trkpt lat="47.28075" lon="-2.35631">
        <ele>26.200000762939</ele>
        <time>2021-04-11T10:10:36.000Z</time>
      </trkpt>
      <trkpt lat="47.28073" lon="-2.35626">
        <ele>25.799999237061</ele>
        <time>2021-04-11T10:10:37.000Z</time>
      </trkpt>
      <trkpt lat="47.28072" lon="-2.3562">
        <ele>25.200000762939</ele>
        <time>2021-04-11T10:10:38.000Z</time>
      </trkpt>
      <trkpt lat="47.28072" lon="-2.35616">
        <ele>24.799999237061</ele>
        <time>2021-04-11T10:10:39.000Z</time>
      </trkpt>
      <trkpt lat="47.28072" lon="-2.35612">
        <ele>24.200000762939</ele>
        <time>2021-04-11T10:10:40.000Z</time>
      </trkpt>
      <trkpt lat="47.28073" lon="-2.35609">
        <ele>23.60000038147</ele>
        <time>2021-04-11T10:10:41.000Z</time>
      </trkpt>
      <trkpt lat="47.28073" lon="-2.35609">
        <ele>23.200000762939</ele>
        <time>2021-04-11T10:10:42.000Z</time>
      </trkpt>
      <trkpt lat="47.28075" lon="-2.3561">
        <ele>23.200000762939</ele>
        <time>2021-04-11T10:10:43.000Z</time>
      </trkpt>
      <trkpt lat="47.28081" lon="-2.35618">
        <ele>23.200000762939</ele>
        <time>2021-04-11T10:10:48.000Z</time>
      </trkpt>
      <trkpt lat="47.2808" lon="-2.3561">
        <ele>21.200000762939</ele>
        <time>2021-04-11T10:21:52.000Z</time>
      </trkpt>
      <trkpt lat="47.28075" lon="-2.35603">
        <ele>21.200000762939</ele>
        <time>2021-04-11T10:21:56.000Z</time>
      </trkpt>
      <trkpt lat="47.28073" lon="-2.356">
        <ele>21.200000762939</ele>
        <time>2021-04-11T10:21:58.000Z</time>
      </trkpt>
      <trkpt lat="47.28063" lon="-2.35584">
        <ele>21.200000762939</ele>
        <time>2021-04-11T10:22:03.000Z</time>
      </trkpt>
      <trkpt lat="47.2805" lon="-2.35575">
        <ele>21.200000762939</ele>
        <time>2021-04-11T10:22:06.000Z</time>
      </trkpt>
      <trkpt lat="47.28046" lon="-2.35573">
        <ele>21.200000762939</ele>
        <time>2021-04-11T10:22:07.000Z</time>
      </trkpt>
      <trkpt lat="47.28036" lon="-2.35572">
        <ele>21.200000762939</ele>
        <time>2021-04-11T10:22:09.000Z</time>
      </trkpt>
      <trkpt lat="47.28024" lon="-2.35573">
        <ele>21.200000762939</ele>
        <time>2021-04-11T10:22:12.000Z</time>
      </trkpt>
      <trkpt lat="47.28003" lon="-2.35578">
        <ele>21.200000762939</ele>
        <time>2021-04-11T10:22:17.000Z</time>
      </trkpt>
      <trkpt lat="47.27994" lon="-2.35583">
        <ele>21.200000762939</ele>
        <time>2021-04-11T10:22:19.000Z</time>
      </trkpt>
      <trkpt lat="47.27989" lon="-2.35584">
        <ele>21.200000762939</ele>
        <time>2021-04-11T10:22:20.000Z</time>
      </trkpt>
      <trkpt lat="47.27974" lon="-2.35584">
        <ele>21.200000762939</ele>
        <time>2021-04-11T10:22:23.000Z</time>
      </trkpt>
      <trkpt lat="47.27964" lon="-2.3558">
        <ele>21.200000762939</ele>
        <time>2021-04-11T10:22:25.000Z</time>
      </trkpt>
      <trkpt lat="47.27953" lon="-2.35578">
        <ele>21.200000762939</ele>
        <time>2021-04-11T10:22:27.000Z</time>
      </trkpt>
      <trkpt lat="47.27947" lon="-2.35579">
        <ele>21.200000762939</ele>
        <time>2021-04-11T10:22:28.000Z</time>
      </trkpt>
      <trkpt lat="47.27913" lon="-2.35589">
        <ele>21.200000762939</ele>
        <time>2021-04-11T10:22:34.000Z</time>
      </trkpt>
      <trkpt lat="47.2789" lon="-2.35594">
        <ele>20.799999237061</ele>
        <time>2021-04-11T10:22:38.000Z</time>
      </trkpt>
      <trkpt lat="47.27884" lon="-2.35596">
        <ele>20.39999961853</ele>
        <time>2021-04-11T10:22:39.000Z</time>
      </trkpt>
      <trkpt lat="47.27878" lon="-2.35597">
        <ele>20</ele>
        <time>2021-04-11T10:22:40.000Z</time>
      </trkpt>
      <trkpt lat="47.27871" lon="-2.35599">
        <ele>19.39999961853</ele>
        <time>2021-04-11T10:22:41.000Z</time>
      </trkpt>
      <trkpt lat="47.27865" lon="-2.35601">
        <ele>19</ele>
        <time>2021-04-11T10:22:42.000Z</time>
      </trkpt>
      <trkpt lat="47.27839" lon="-2.35608">
        <ele>19</ele>
        <time>2021-04-11T10:22:46.000Z</time>
      </trkpt>
      <trkpt lat="47.27832" lon="-2.3561">
        <ele>18.60000038147</ele>
        <time>2021-04-11T10:22:47.000Z</time>
      </trkpt>
      <trkpt lat="47.27825" lon="-2.35612">
        <ele>18.200000762939</ele>
        <time>2021-04-11T10:22:48.000Z</time>
      </trkpt>
      <trkpt lat="47.27819" lon="-2.35613">
        <ele>17.799999237061</ele>
        <time>2021-04-11T10:22:49.000Z</time>
      </trkpt>
      <trkpt lat="47.27812" lon="-2.35615">
        <ele>17.39999961853</ele>
        <time>2021-04-11T10:22:50.000Z</time>
      </trkpt>
      <trkpt lat="47.27805" lon="-2.35617">
        <ele>17</ele>
        <time>2021-04-11T10:22:51.000Z</time>
      </trkpt>
      <trkpt lat="47.27791" lon="-2.35622">
        <ele>17</ele>
        <time>2021-04-11T10:22:53.000Z</time>
      </trkpt>
      <trkpt lat="47.27784" lon="-2.35625">
        <ele>17</ele>
        <time>2021-04-11T10:22:54.000Z</time>
      </trkpt>
      <trkpt lat="47.27767" lon="-2.35641">
        <ele>17</ele>
        <time>2021-04-11T10:22:57.000Z</time>
      </trkpt>
      <trkpt lat="47.27762" lon="-2.35648">
        <ele>17</ele>
        <time>2021-04-11T10:22:58.000Z</time>
      </trkpt>
      <trkpt lat="47.27744" lon="-2.35676">
        <ele>17</ele>
        <time>2021-04-11T10:23:02.000Z</time>
      </trkpt>
      <trkpt lat="47.2774" lon="-2.35682">
        <ele>17</ele>
        <time>2021-04-11T10:23:03.000Z</time>
      </trkpt>
      <trkpt lat="47.27736" lon="-2.35688">
        <ele>16.60000038147</ele>
        <time>2021-04-11T10:23:04.000Z</time>
      </trkpt>
      <trkpt lat="47.27731" lon="-2.35695">
        <ele>16</ele>
        <time>2021-04-11T10:23:05.000Z</time>
      </trkpt>
      <trkpt lat="47.27727" lon="-2.35702">
        <ele>15.60000038147</ele>
        <time>2021-04-11T10:23:06.000Z</time>
      </trkpt>
      <trkpt lat="47.27722" lon="-2.35709">
        <ele>15.199999809265</ele>
        <time>2021-04-11T10:23:07.000Z</time>
      </trkpt>
      <trkpt lat="47.27716" lon="-2.35715">
        <ele>14.60000038147</ele>
        <time>2021-04-11T10:23:08.000Z</time>
      </trkpt>
      <trkpt lat="47.2771" lon="-2.35721">
        <ele>14.60000038147</ele>
        <time>2021-04-11T10:23:09.000Z</time>
      </trkpt>
      <trkpt lat="47.27699" lon="-2.35731">
        <ele>14.199999809265</ele>
        <time>2021-04-11T10:23:11.000Z</time>
      </trkpt>
      <trkpt lat="47.27695" lon="-2.35734">
        <ele>13.800000190735</ele>
        <time>2021-04-11T10:23:12.000Z</time>
      </trkpt>
      <trkpt lat="47.27691" lon="-2.35737">
        <ele>13.199999809265</ele>
        <time>2021-04-11T10:23:13.000Z</time>
      </trkpt>
      <trkpt lat="47.27688" lon="-2.35741">
        <ele>12.800000190735</ele>
        <time>2021-04-11T10:23:14.000Z</time>
      </trkpt>
      <trkpt lat="47.27685" lon="-2.35746">
        <ele>12.199999809265</ele>
        <time>2021-04-11T10:23:15.000Z</time>
      </trkpt>
      <trkpt lat="47.27682" lon="-2.3575">
        <ele>12.199999809265</ele>
        <time>2021-04-11T10:23:16.000Z</time>
      </trkpt>
      <trkpt lat="47.2767" lon="-2.35744">
        <ele>12.199999809265</ele>
        <time>2021-04-11T10:23:19.000Z</time>
      </trkpt>
      <trkpt lat="47.27648" lon="-2.35724">
        <ele>12.199999809265</ele>
        <time>2021-04-11T10:23:23.000Z</time>
      </trkpt>
      <trkpt lat="47.27632" lon="-2.3572">
        <ele>12.199999809265</ele>
        <time>2021-04-11T10:23:25.000Z</time>
      </trkpt>
      <trkpt lat="47.27608" lon="-2.35714">
        <ele>12.199999809265</ele>
        <time>2021-04-11T10:23:28.000Z</time>
      </trkpt>
      <trkpt lat="47.27593" lon="-2.3571">
        <ele>11.800000190735</ele>
        <time>2021-04-11T10:23:30.000Z</time>
      </trkpt>
      <trkpt lat="47.27586" lon="-2.35709">
        <ele>11.39999961853</ele>
        <time>2021-04-11T10:23:31.000Z</time>
      </trkpt>
      <trkpt lat="47.2758" lon="-2.35707">
        <ele>11</ele>
        <time>2021-04-11T10:23:32.000Z</time>
      </trkpt>
      <trkpt lat="47.27573" lon="-2.35705">
        <ele>10.199999809265</ele>
        <time>2021-04-11T10:23:33.000Z</time>
      </trkpt>
      <trkpt lat="47.27524" lon="-2.35691">
        <ele>10.199999809265</ele>
        <time>2021-04-11T10:23:40.000Z</time>
      </trkpt>
      <trkpt lat="47.2751" lon="-2.35687">
        <ele>9.8000001907349</ele>
        <time>2021-04-11T10:23:42.000Z</time>
      </trkpt>
      <trkpt lat="47.27502" lon="-2.35685">
        <ele>9.3999996185303</ele>
        <time>2021-04-11T10:23:43.000Z</time>
      </trkpt>
      <trkpt lat="47.27495" lon="-2.35684">
        <ele>9</ele>
        <time>2021-04-11T10:23:44.000Z</time>
      </trkpt>
      <trkpt lat="47.27487" lon="-2.35682">
        <ele>8.6000003814697</ele>
        <time>2021-04-11T10:23:45.000Z</time>
      </trkpt>
      <trkpt lat="47.2748" lon="-2.35679">
        <ele>8.1999998092651</ele>
        <time>2021-04-11T10:23:46.000Z</time>
      </trkpt>
      <trkpt lat="47.27453" lon="-2.35673">
        <ele>8.1999998092651</ele>
        <time>2021-04-11T10:23:50.000Z</time>
      </trkpt>
      <trkpt lat="47.27419" lon="-2.35664">
        <ele>7.8000001907349</ele>
        <time>2021-04-11T10:23:56.000Z</time>
      </trkpt>
      <trkpt lat="47.27413" lon="-2.35665">
        <ele>7.4000000953674</ele>
        <time>2021-04-11T10:23:57.000Z</time>
      </trkpt>
      <trkpt lat="47.27407" lon="-2.35666">
        <ele>6.5999999046326</ele>
        <time>2021-04-11T10:23:58.000Z</time>
      </trkpt>
      <trkpt lat="47.274" lon="-2.35668">
        <ele>6.1999998092651</ele>
        <time>2021-04-11T10:23:59.000Z</time>
      </trkpt>
      <trkpt lat="47.27394" lon="-2.35671">
        <ele>6.1999998092651</ele>
        <time>2021-04-11T10:24:00.000Z</time>
      </trkpt>
      <trkpt lat="47.27352" lon="-2.35702">
        <ele>6.1999998092651</ele>
        <time>2021-04-11T10:24:07.000Z</time>
      </trkpt>
      <trkpt lat="47.27333" lon="-2.35718">
        <ele>6.1999998092651</ele>
        <time>2021-04-11T10:24:11.000Z</time>
      </trkpt>
      <trkpt lat="47.27331" lon="-2.3572">
        <ele>6.1999998092651</ele>
        <time>2021-04-11T10:24:12.000Z</time>
      </trkpt>
      <trkpt lat="47.27328" lon="-2.35724">
        <ele>6.1999998092651</ele>
        <time>2021-04-11T10:24:16.000Z</time>
      </trkpt>
      <trkpt lat="47.27325" lon="-2.35726">
        <ele>6.1999998092651</ele>
        <time>2021-04-11T10:24:21.000Z</time>
      </trkpt>
      <trkpt lat="47.27325" lon="-2.35727">
        <ele>6.1999998092651</ele>
        <time>2021-04-11T10:24:24.000Z</time>
      </trkpt>
      <trkpt lat="47.27317" lon="-2.3574">
        <ele>6.1999998092651</ele>
        <time>2021-04-11T10:24:28.000Z</time>
      </trkpt>
      <trkpt lat="47.27306" lon="-2.3573">
        <ele>6.1999998092651</ele>
        <time>2021-04-11T10:24:31.000Z</time>
      </trkpt>
      <trkpt lat="47.27299" lon="-2.3571">
        <ele>6.1999998092651</ele>
        <time>2021-04-11T10:24:34.000Z</time>
      </trkpt>
      <trkpt lat="47.27296" lon="-2.35704">
        <ele>6.1999998092651</ele>
        <time>2021-04-11T10:24:35.000Z</time>
      </trkpt>
      <trkpt lat="47.27293" lon="-2.35698">
        <ele>6.1999998092651</ele>
        <time>2021-04-11T10:24:36.000Z</time>
      </trkpt>
      <trkpt lat="47.27273" lon="-2.35657">
        <ele>6.1999998092651</ele>
        <time>2021-04-11T10:24:42.000Z</time>
      </trkpt>
      <trkpt lat="47.27247" lon="-2.35598">
        <ele>6.1999998092651</ele>
        <time>2021-04-11T10:24:50.000Z</time>
      </trkpt>
      <trkpt lat="47.27223" lon="-2.35545">
        <ele>6.1999998092651</ele>
        <time>2021-04-11T10:24:57.000Z</time>
      </trkpt>
      <trkpt lat="47.27213" lon="-2.35522">
        <ele>6.5999999046326</ele>
        <time>2021-04-11T10:25:00.000Z</time>
      </trkpt>
      <trkpt lat="47.27209" lon="-2.35515">
        <ele>7</ele>
        <time>2021-04-11T10:25:01.000Z</time>
      </trkpt>
      <trkpt lat="47.27206" lon="-2.35507">
        <ele>7.4000000953674</ele>
        <time>2021-04-11T10:25:02.000Z</time>
      </trkpt>
      <trkpt lat="47.27203" lon="-2.35499">
        <ele>7.8000001907349</ele>
        <time>2021-04-11T10:25:03.000Z</time>
      </trkpt>
      <trkpt lat="47.27199" lon="-2.35491">
        <ele>8.1999998092651</ele>
        <time>2021-04-11T10:25:04.000Z</time>
      </trkpt>
      <trkpt lat="47.27195" lon="-2.35483">
        <ele>8.1999998092651</ele>
        <time>2021-04-11T10:25:05.000Z</time>
      </trkpt>
      <trkpt lat="47.27164" lon="-2.35423">
        <ele>8.1999998092651</ele>
        <time>2021-04-11T10:25:13.000Z</time>
      </trkpt>
      <trkpt lat="47.27136" lon="-2.35372">
        <ele>8.1999998092651</ele>
        <time>2021-04-11T10:25:20.000Z</time>
      </trkpt>
      <trkpt lat="47.27131" lon="-2.35365">
        <ele>8.1999998092651</ele>
        <time>2021-04-11T10:25:21.000Z</time>
      </trkpt>
      <trkpt lat="47.27111" lon="-2.35331">
        <ele>8.1999998092651</ele>
        <time>2021-04-11T10:25:26.000Z</time>
      </trkpt>
      <trkpt lat="47.27078" lon="-2.3528">
        <ele>8.1999998092651</ele>
        <time>2021-04-11T10:25:34.000Z</time>
      </trkpt>
      <trkpt lat="47.27038" lon="-2.35216">
        <ele>8.1999998092651</ele>
        <time>2021-04-11T10:25:44.000Z</time>
      </trkpt>
      <trkpt lat="47.27" lon="-2.35158">
        <ele>8.1999998092651</ele>
        <time>2021-04-11T10:25:53.000Z</time>
      </trkpt>
      <trkpt lat="47.26996" lon="-2.35151">
        <ele>8.1999998092651</ele>
        <time>2021-04-11T10:25:54.000Z</time>
      </trkpt>
      <trkpt lat="47.26958" lon="-2.35094">
        <ele>8.1999998092651</ele>
        <time>2021-04-11T10:26:03.000Z</time>
      </trkpt>
      <trkpt lat="47.26919" lon="-2.35034">
        <ele>8.1999998092651</ele>
        <time>2021-04-11T10:26:12.000Z</time>
      </trkpt>
      <trkpt lat="47.26879" lon="-2.34975">
        <ele>8.1999998092651</ele>
        <time>2021-04-11T10:26:21.000Z</time>
      </trkpt>
      <trkpt lat="47.26844" lon="-2.34923">
        <ele>8.1999998092651</ele>
        <time>2021-04-11T10:26:29.000Z</time>
      </trkpt>
      <trkpt lat="47.26814" lon="-2.34878">
        <ele>8.1999998092651</ele>
        <time>2021-04-11T10:26:36.000Z</time>
      </trkpt>
      <trkpt lat="47.26778" lon="-2.34828">
        <ele>8.1999998092651</ele>
        <time>2021-04-11T10:26:44.000Z</time>
      </trkpt>
      <trkpt lat="47.26741" lon="-2.3478">
        <ele>8.1999998092651</ele>
        <time>2021-04-11T10:26:52.000Z</time>
      </trkpt>
      <trkpt lat="47.26699" lon="-2.34726">
        <ele>8.1999998092651</ele>
        <time>2021-04-11T10:27:01.000Z</time>
      </trkpt>
      <trkpt lat="47.26657" lon="-2.34673">
        <ele>8.1999998092651</ele>
        <time>2021-04-11T10:27:10.000Z</time>
      </trkpt>
      <trkpt lat="47.26653" lon="-2.34668">
        <ele>8.1999998092651</ele>
        <time>2021-04-11T10:27:11.000Z</time>
      </trkpt>
      <trkpt lat="47.26611" lon="-2.34616">
        <ele>8.1999998092651</ele>
        <time>2021-04-11T10:27:20.000Z</time>
      </trkpt>
      <trkpt lat="47.26573" lon="-2.34574">
        <ele>8.1999998092651</ele>
        <time>2021-04-11T10:27:28.000Z</time>
      </trkpt>
      <trkpt lat="47.26536" lon="-2.34536">
        <ele>8.1999998092651</ele>
        <time>2021-04-11T10:27:36.000Z</time>
      </trkpt>
      <trkpt lat="47.26499" lon="-2.34506">
        <ele>8.1999998092651</ele>
        <time>2021-04-11T10:27:43.000Z</time>
      </trkpt>
      <trkpt lat="47.26456" lon="-2.34475">
        <ele>8.1999998092651</ele>
        <time>2021-04-11T10:27:51.000Z</time>
      </trkpt>
      <trkpt lat="47.2645" lon="-2.34471">
        <ele>7.8000001907349</ele>
        <time>2021-04-11T10:27:52.000Z</time>
      </trkpt>
      <trkpt lat="47.26445" lon="-2.34467">
        <ele>7.4000000953674</ele>
        <time>2021-04-11T10:27:53.000Z</time>
      </trkpt>
      <trkpt lat="47.26439" lon="-2.34464">
        <ele>7</ele>
        <time>2021-04-11T10:27:54.000Z</time>
      </trkpt>
      <trkpt lat="47.26434" lon="-2.3446">
        <ele>6.5999999046326</ele>
        <time>2021-04-11T10:27:55.000Z</time>
      </trkpt>
      <trkpt lat="47.26429" lon="-2.34456">
        <ele>6.1999998092651</ele>
        <time>2021-04-11T10:27:56.000Z</time>
      </trkpt>
      <trkpt lat="47.264" lon="-2.34433">
        <ele>6.1999998092651</ele>
        <time>2021-04-11T10:28:01.000Z</time>
      </trkpt>
      <trkpt lat="47.26361" lon="-2.34399">
        <ele>6.1999998092651</ele>
        <time>2021-04-11T10:28:08.000Z</time>
      </trkpt>
      <trkpt lat="47.26341" lon="-2.34384">
        <ele>6.1999998092651</ele>
        <time>2021-04-11T10:28:12.000Z</time>
      </trkpt>
      <trkpt lat="47.26337" lon="-2.34382">
        <ele>6.1999998092651</ele>
        <time>2021-04-11T10:28:13.000Z</time>
      </trkpt>
      <trkpt lat="47.26325" lon="-2.34382">
        <ele>6.1999998092651</ele>
        <time>2021-04-11T10:28:16.000Z</time>
      </trkpt>
      <trkpt lat="47.26321" lon="-2.34379">
        <ele>6.1999998092651</ele>
        <time>2021-04-11T10:28:17.000Z</time>
      </trkpt>
      <trkpt lat="47.26313" lon="-2.34361">
        <ele>6.1999998092651</ele>
        <time>2021-04-11T10:28:20.000Z</time>
      </trkpt>
      <trkpt lat="47.2631" lon="-2.34355">
        <ele>6.1999998092651</ele>
        <time>2021-04-11T10:28:21.000Z</time>
      </trkpt>
      <trkpt lat="47.263" lon="-2.34346">
        <ele>6.1999998092651</ele>
        <time>2021-04-11T10:28:23.000Z</time>
      </trkpt>
      <trkpt lat="47.26261" lon="-2.34304">
        <ele>6.1999998092651</ele>
        <time>2021-04-11T10:28:31.000Z</time>
      </trkpt>
      <trkpt lat="47.26222" lon="-2.34262">
        <ele>6.1999998092651</ele>
        <time>2021-04-11T10:28:39.000Z</time>
      </trkpt>
      <trkpt lat="47.26197" lon="-2.34236">
        <ele>6.1999998092651</ele>
        <time>2021-04-11T10:28:44.000Z</time>
      </trkpt>
      <trkpt lat="47.26178" lon="-2.34217">
        <ele>6.1999998092651</ele>
        <time>2021-04-11T10:28:48.000Z</time>
      </trkpt>
      <trkpt lat="47.26145" lon="-2.34185">
        <ele>6.1999998092651</ele>
        <time>2021-04-11T10:28:55.000Z</time>
      </trkpt>
      <trkpt lat="47.2614" lon="-2.34183">
        <ele>6.1999998092651</ele>
        <time>2021-04-11T10:28:56.000Z</time>
      </trkpt>
      <trkpt lat="47.26129" lon="-2.34177">
        <ele>6.1999998092651</ele>
        <time>2021-04-11T10:28:58.000Z</time>
      </trkpt>
      <trkpt lat="47.26115" lon="-2.34163">
        <ele>6.1999998092651</ele>
        <time>2021-04-11T10:29:01.000Z</time>
      </trkpt>
      <trkpt lat="47.26087" lon="-2.34147">
        <ele>6.1999998092651</ele>
        <time>2021-04-11T10:29:06.000Z</time>
      </trkpt>
      <trkpt lat="47.26053" lon="-2.34131">
        <ele>6.1999998092651</ele>
        <time>2021-04-11T10:29:12.000Z</time>
      </trkpt>
      <trkpt lat="47.26014" lon="-2.3411">
        <ele>6.1999998092651</ele>
        <time>2021-04-11T10:29:19.000Z</time>
      </trkpt>
      <trkpt lat="47.25964" lon="-2.34087">
        <ele>6.1999998092651</ele>
        <time>2021-04-11T10:29:28.000Z</time>
      </trkpt>
      <trkpt lat="47.25922" lon="-2.34072">
        <ele>6.1999998092651</ele>
        <time>2021-04-11T10:29:36.000Z</time>
      </trkpt>
      <trkpt lat="47.25917" lon="-2.34072">
        <ele>6.1999998092651</ele>
        <time>2021-04-11T10:29:37.000Z</time>
      </trkpt>
      <trkpt lat="47.25907" lon="-2.34069">
        <ele>5.8000001907349</ele>
        <time>2021-04-11T10:29:39.000Z</time>
      </trkpt>
      <trkpt lat="47.25902" lon="-2.34065">
        <ele>5.4000000953674</ele>
        <time>2021-04-11T10:29:40.000Z</time>
      </trkpt>
      <trkpt lat="47.25899" lon="-2.34059">
        <ele>5</ele>
        <time>2021-04-11T10:29:41.000Z</time>
      </trkpt>
      <trkpt lat="47.25897" lon="-2.34053">
        <ele>4.4000000953674</ele>
        <time>2021-04-11T10:29:42.000Z</time>
      </trkpt>
      <trkpt lat="47.25896" lon="-2.34046">
        <ele>4</ele>
        <time>2021-04-11T10:29:43.000Z</time>
      </trkpt>
      <trkpt lat="47.25896" lon="-2.34039">
        <ele>4</ele>
        <time>2021-04-11T10:29:44.000Z</time>
      </trkpt>
      <trkpt lat="47.25904" lon="-2.34011">
        <ele>4</ele>
        <time>2021-04-11T10:29:48.000Z</time>
      </trkpt>
      <trkpt lat="47.25908" lon="-2.33995">
        <ele>4</ele>
        <time>2021-04-11T10:29:50.000Z</time>
      </trkpt>
      <trkpt lat="47.25915" lon="-2.33973">
        <ele>4</ele>
        <time>2021-04-11T10:29:53.000Z</time>
      </trkpt>
      <trkpt lat="47.25918" lon="-2.33966">
        <ele>4</ele>
        <time>2021-04-11T10:29:54.000Z</time>
      </trkpt>
      <trkpt lat="47.25935" lon="-2.33931">
        <ele>4</ele>
        <time>2021-04-11T10:30:00.000Z</time>
      </trkpt>
      <trkpt lat="47.25944" lon="-2.33916">
        <ele>4</ele>
        <time>2021-04-11T10:30:05.000Z</time>
      </trkpt>
      <trkpt lat="47.25946" lon="-2.33899">
        <ele>4</ele>
        <time>2021-04-11T10:30:09.000Z</time>
      </trkpt>
      <trkpt lat="47.25948" lon="-2.33895">
        <ele>4</ele>
        <time>2021-04-11T10:30:10.000Z</time>
      </trkpt>
      <trkpt lat="47.25954" lon="-2.33885">
        <ele>4</ele>
        <time>2021-04-11T10:30:14.000Z</time>
      </trkpt>
      <trkpt lat="47.25958" lon="-2.33872">
        <ele>4</ele>
        <time>2021-04-11T10:30:17.000Z</time>
      </trkpt>
      <trkpt lat="47.2596" lon="-2.33866">
        <ele>4</ele>
        <time>2021-04-11T10:30:18.000Z</time>
      </trkpt>
      <trkpt lat="47.25971" lon="-2.33826">
        <ele>4</ele>
        <time>2021-04-11T10:30:24.000Z</time>
      </trkpt>
      <trkpt lat="47.25993" lon="-2.33769">
        <ele>4</ele>
        <time>2021-04-11T10:30:31.000Z</time>
      </trkpt>
      <trkpt lat="47.26013" lon="-2.33706">
        <ele>4</ele>
        <time>2021-04-11T10:30:39.000Z</time>
      </trkpt>
      <trkpt lat="47.2602" lon="-2.33686">
        <ele>4</ele>
        <time>2021-04-11T10:30:43.000Z</time>
      </trkpt>
      <trkpt lat="47.26026" lon="-2.33667">
        <ele>4</ele>
        <time>2021-04-11T10:30:47.000Z</time>
      </trkpt>
      <trkpt lat="47.26038" lon="-2.33668">
        <ele>4</ele>
        <time>2021-04-11T10:30:50.000Z</time>
      </trkpt>
      <trkpt lat="47.26052" lon="-2.33664">
        <ele>4</ele>
        <time>2021-04-11T10:30:53.000Z</time>
      </trkpt>
      <trkpt lat="47.26055" lon="-2.33659">
        <ele>4</ele>
        <time>2021-04-11T10:30:54.000Z</time>
      </trkpt>
      <trkpt lat="47.26066" lon="-2.33629">
        <ele>4</ele>
        <time>2021-04-11T10:30:58.000Z</time>
      </trkpt>
      <trkpt lat="47.26068" lon="-2.33622">
        <ele>4</ele>
        <time>2021-04-11T10:30:59.000Z</time>
      </trkpt>
      <trkpt lat="47.26086" lon="-2.3357">
        <ele>4</ele>
        <time>2021-04-11T10:31:06.000Z</time>
      </trkpt>
      <trkpt lat="47.26109" lon="-2.33509">
        <ele>4</ele>
        <time>2021-04-11T10:31:14.000Z</time>
      </trkpt>
      <trkpt lat="47.26128" lon="-2.33458">
        <ele>4</ele>
        <time>2021-04-11T10:31:21.000Z</time>
      </trkpt>
      <trkpt lat="47.26135" lon="-2.33438">
        <ele>4</ele>
        <time>2021-04-11T10:31:24.000Z</time>
      </trkpt>
      <trkpt lat="47.26133" lon="-2.33424">
        <ele>4</ele>
        <time>2021-04-11T10:31:26.000Z</time>
      </trkpt>
      <trkpt lat="47.26123" lon="-2.33409">
        <ele>4</ele>
        <time>2021-04-11T10:31:29.000Z</time>
      </trkpt>
      <trkpt lat="47.26118" lon="-2.33404">
        <ele>4</ele>
        <time>2021-04-11T10:31:30.000Z</time>
      </trkpt>
      <trkpt lat="47.26098" lon="-2.33379">
        <ele>4</ele>
        <time>2021-04-11T10:31:34.000Z</time>
      </trkpt>
      <trkpt lat="47.26093" lon="-2.33374">
        <ele>4</ele>
        <time>2021-04-11T10:31:35.000Z</time>
      </trkpt>
      <trkpt lat="47.26082" lon="-2.33364">
        <ele>4</ele>
        <time>2021-04-11T10:31:37.000Z</time>
      </trkpt>
      <trkpt lat="47.26078" lon="-2.33357">
        <ele>4</ele>
        <time>2021-04-11T10:31:38.000Z</time>
      </trkpt>
      <trkpt lat="47.26068" lon="-2.33332">
        <ele>4</ele>
        <time>2021-04-11T10:31:41.000Z</time>
      </trkpt>
      <trkpt lat="47.26066" lon="-2.33323">
        <ele>4</ele>
        <time>2021-04-11T10:31:42.000Z</time>
      </trkpt>
      <trkpt lat="47.26048" lon="-2.33272">
        <ele>4</ele>
        <time>2021-04-11T10:31:48.000Z</time>
      </trkpt>
      <trkpt lat="47.26026" lon="-2.33213">
        <ele>4</ele>
        <time>2021-04-11T10:31:55.000Z</time>
      </trkpt>
      <trkpt lat="47.26004" lon="-2.33147">
        <ele>4</ele>
        <time>2021-04-11T10:32:03.000Z</time>
      </trkpt>
      <trkpt lat="47.25984" lon="-2.33081">
        <ele>4</ele>
        <time>2021-04-11T10:32:11.000Z</time>
      </trkpt>
      <trkpt lat="47.25967" lon="-2.3304">
        <ele>4</ele>
        <time>2021-04-11T10:32:16.000Z</time>
      </trkpt>
      <trkpt lat="47.25948" lon="-2.32984">
        <ele>4</ele>
        <time>2021-04-11T10:32:23.000Z</time>
      </trkpt>
      <trkpt lat="47.25928" lon="-2.32924">
        <ele>4</ele>
        <time>2021-04-11T10:32:30.000Z</time>
      </trkpt>
      <trkpt lat="47.25905" lon="-2.32865">
        <ele>4</ele>
        <time>2021-04-11T10:32:37.000Z</time>
      </trkpt>
      <trkpt lat="47.25879" lon="-2.3279">
        <ele>4</ele>
        <time>2021-04-11T10:32:46.000Z</time>
      </trkpt>
      <trkpt lat="47.25865" lon="-2.32733">
        <ele>4</ele>
        <time>2021-04-11T10:32:53.000Z</time>
      </trkpt>
      <trkpt lat="47.2586" lon="-2.32706">
        <ele>4</ele>
        <time>2021-04-11T10:32:57.000Z</time>
      </trkpt>
      <trkpt lat="47.2585" lon="-2.32689">
        <ele>4</ele>
        <time>2021-04-11T10:33:00.000Z</time>
      </trkpt>
      <trkpt lat="47.25845" lon="-2.32673">
        <ele>4</ele>
        <time>2021-04-11T10:33:02.000Z</time>
      </trkpt>
      <trkpt lat="47.25839" lon="-2.32647">
        <ele>4</ele>
        <time>2021-04-11T10:33:05.000Z</time>
      </trkpt>
      <trkpt lat="47.25826" lon="-2.32589">
        <ele>4</ele>
        <time>2021-04-11T10:33:12.000Z</time>
      </trkpt>
      <trkpt lat="47.25811" lon="-2.3253">
        <ele>4</ele>
        <time>2021-04-11T10:33:19.000Z</time>
      </trkpt>
      <trkpt lat="47.25799" lon="-2.32472">
        <ele>4</ele>
        <time>2021-04-11T10:33:26.000Z</time>
      </trkpt>
      <trkpt lat="47.25807" lon="-2.32456">
        <ele>4</ele>
        <time>2021-04-11T10:33:29.000Z</time>
      </trkpt>
      <trkpt lat="47.25821" lon="-2.32457">
        <ele>4</ele>
        <time>2021-04-11T10:33:32.000Z</time>
      </trkpt>
      <trkpt lat="47.25832" lon="-2.32465">
        <ele>4</ele>
        <time>2021-04-11T10:33:34.000Z</time>
      </trkpt>
      <trkpt lat="47.25842" lon="-2.32469">
        <ele>4</ele>
        <time>2021-04-11T10:33:36.000Z</time>
      </trkpt>
      <trkpt lat="47.25848" lon="-2.3247">
        <ele>4</ele>
        <time>2021-04-11T10:33:37.000Z</time>
      </trkpt>
      <trkpt lat="47.25864" lon="-2.3247">
        <ele>4</ele>
        <time>2021-04-11T10:33:40.000Z</time>
      </trkpt>
      <trkpt lat="47.25875" lon="-2.32468">
        <ele>4</ele>
        <time>2021-04-11T10:33:42.000Z</time>
      </trkpt>
      <trkpt lat="47.25891" lon="-2.32465">
        <ele>4</ele>
        <time>2021-04-11T10:33:45.000Z</time>
      </trkpt>
      <trkpt lat="47.259" lon="-2.32456">
        <ele>4</ele>
        <time>2021-04-11T10:33:47.000Z</time>
      </trkpt>
      <trkpt lat="47.25909" lon="-2.32445">
        <ele>4</ele>
        <time>2021-04-11T10:33:49.000Z</time>
      </trkpt>
      <trkpt lat="47.25921" lon="-2.32429">
        <ele>4</ele>
        <time>2021-04-11T10:33:52.000Z</time>
      </trkpt>
      <trkpt lat="47.25958" lon="-2.32381">
        <ele>4</ele>
        <time>2021-04-11T10:34:01.000Z</time>
      </trkpt>
      <trkpt lat="47.25993" lon="-2.32338">
        <ele>4</ele>
        <time>2021-04-11T10:34:09.000Z</time>
      </trkpt>
      <trkpt lat="47.26022" lon="-2.323">
        <ele>4</ele>
        <time>2021-04-11T10:34:16.000Z</time>
      </trkpt>
      <trkpt lat="47.26053" lon="-2.32267">
        <ele>4</ele>
        <time>2021-04-11T10:34:23.000Z</time>
      </trkpt>
      <trkpt lat="47.26057" lon="-2.32262">
        <ele>4</ele>
        <time>2021-04-11T10:34:24.000Z</time>
      </trkpt>
      <trkpt lat="47.26074" lon="-2.32241">
        <ele>4</ele>
        <time>2021-04-11T10:34:28.000Z</time>
      </trkpt>
      <trkpt lat="47.26098" lon="-2.32208">
        <ele>4</ele>
        <time>2021-04-11T10:34:34.000Z</time>
      </trkpt>
      <trkpt lat="47.26115" lon="-2.32167">
        <ele>4</ele>
        <time>2021-04-11T10:34:40.000Z</time>
      </trkpt>
      <trkpt lat="47.26131" lon="-2.32124">
        <ele>4</ele>
        <time>2021-04-11T10:34:46.000Z</time>
      </trkpt>
      <trkpt lat="47.26133" lon="-2.32116">
        <ele>4</ele>
        <time>2021-04-11T10:34:47.000Z</time>
      </trkpt>
      <trkpt lat="47.26147" lon="-2.32067">
        <ele>4</ele>
        <time>2021-04-11T10:34:54.000Z</time>
      </trkpt>
      <trkpt lat="47.26151" lon="-2.32054">
        <ele>4</ele>
        <time>2021-04-11T10:34:56.000Z</time>
      </trkpt>
      <trkpt lat="47.2616" lon="-2.3203">
        <ele>4</ele>
        <time>2021-04-11T10:35:00.000Z</time>
      </trkpt>
      <trkpt lat="47.26167" lon="-2.3202">
        <ele>4</ele>
        <time>2021-04-11T10:35:03.000Z</time>
      </trkpt>
      <trkpt lat="47.2617" lon="-2.3202">
        <ele>4</ele>
        <time>2021-04-11T10:35:04.000Z</time>
      </trkpt>
      <trkpt lat="47.26185" lon="-2.32022">
        <ele>4</ele>
        <time>2021-04-11T10:35:09.000Z</time>
      </trkpt>
      <trkpt lat="47.26194" lon="-2.32024">
        <ele>4</ele>
        <time>2021-04-11T10:35:13.000Z</time>
      </trkpt>
      <trkpt lat="47.26196" lon="-2.32013">
        <ele>4</ele>
        <time>2021-04-11T10:35:16.000Z</time>
      </trkpt>
      <trkpt lat="47.26201" lon="-2.32002">
        <ele>4</ele>
        <time>2021-04-11T10:35:20.000Z</time>
      </trkpt>
      <trkpt lat="47.26217" lon="-2.31983">
        <ele>4</ele>
        <time>2021-04-11T10:35:26.000Z</time>
      </trkpt>
      <trkpt lat="47.26222" lon="-2.31979">
        <ele>4</ele>
        <time>2021-04-11T10:35:28.000Z</time>
      </trkpt>
      <trkpt lat="47.26228" lon="-2.31976">
        <ele>4</ele>
        <time>2021-04-11T10:35:30.000Z</time>
      </trkpt>
      <trkpt lat="47.26235" lon="-2.31966">
        <ele>4</ele>
        <time>2021-04-11T10:35:33.000Z</time>
      </trkpt>
      <trkpt lat="47.26237" lon="-2.31961">
        <ele>4</ele>
        <time>2021-04-11T10:35:34.000Z</time>
      </trkpt>
      <trkpt lat="47.26252" lon="-2.31936">
        <ele>4</ele>
        <time>2021-04-11T10:35:40.000Z</time>
      </trkpt>
      <trkpt lat="47.26265" lon="-2.31916">
        <ele>4</ele>
        <time>2021-04-11T10:35:46.000Z</time>
      </trkpt>
      <trkpt lat="47.26283" lon="-2.31901">
        <ele>4</ele>
        <time>2021-04-11T10:35:51.000Z</time>
      </trkpt>
      <trkpt lat="47.26295" lon="-2.31876">
        <ele>4</ele>
        <time>2021-04-11T10:35:56.000Z</time>
      </trkpt>
      <trkpt lat="47.263" lon="-2.31851">
        <ele>4</ele>
        <time>2021-04-11T10:36:00.000Z</time>
      </trkpt>
      <trkpt lat="47.26302" lon="-2.31821">
        <ele>4</ele>
        <time>2021-04-11T10:36:05.000Z</time>
      </trkpt>
      <trkpt lat="47.26302" lon="-2.31784">
        <ele>4</ele>
        <time>2021-04-11T10:36:11.000Z</time>
      </trkpt>
      <trkpt lat="47.263" lon="-2.31747">
        <ele>4</ele>
        <time>2021-04-11T10:36:17.000Z</time>
      </trkpt>
      <trkpt lat="47.26299" lon="-2.31734">
        <ele>4</ele>
        <time>2021-04-11T10:36:19.000Z</time>
      </trkpt>
      <trkpt lat="47.263" lon="-2.31717">
        <ele>4</ele>
        <time>2021-04-11T10:36:22.000Z</time>
      </trkpt>
      <trkpt lat="47.26305" lon="-2.31714">
        <ele>4</ele>
        <time>2021-04-11T10:36:23.000Z</time>
      </trkpt>
      <trkpt lat="47.26313" lon="-2.3171">
        <ele>4</ele>
        <time>2021-04-11T10:36:25.000Z</time>
      </trkpt>
      <trkpt lat="47.26329" lon="-2.31699">
        <ele>4</ele>
        <time>2021-04-11T10:36:30.000Z</time>
      </trkpt>
      <trkpt lat="47.2634" lon="-2.31684">
        <ele>4</ele>
        <time>2021-04-11T10:36:35.000Z</time>
      </trkpt>
      <trkpt lat="47.26344" lon="-2.31682">
        <ele>4</ele>
        <time>2021-04-11T10:36:36.000Z</time>
      </trkpt>
      <trkpt lat="47.26347" lon="-2.3168">
        <ele>4.5999999046326</ele>
        <time>2021-04-11T10:36:37.000Z</time>
      </trkpt>
      <trkpt lat="47.2635" lon="-2.31678">
        <ele>5</ele>
        <time>2021-04-11T10:36:38.000Z</time>
      </trkpt>
      <trkpt lat="47.26354" lon="-2.31676">
        <ele>5.4000000953674</ele>
        <time>2021-04-11T10:36:39.000Z</time>
      </trkpt>
      <trkpt lat="47.26357" lon="-2.31675">
        <ele>5.8000001907349</ele>
        <time>2021-04-11T10:36:40.000Z</time>
      </trkpt>
      <trkpt lat="47.26361" lon="-2.31673">
        <ele>6.4000000953674</ele>
        <time>2021-04-11T10:36:41.000Z</time>
      </trkpt>
      <trkpt lat="47.26382" lon="-2.31663">
        <ele>6.4000000953674</ele>
        <time>2021-04-11T10:36:47.000Z</time>
      </trkpt>
      <trkpt lat="47.26393" lon="-2.31658">
        <ele>6.8000001907349</ele>
        <time>2021-04-11T10:36:50.000Z</time>
      </trkpt>
      <trkpt lat="47.26396" lon="-2.31657">
        <ele>7.1999998092651</ele>
        <time>2021-04-11T10:36:51.000Z</time>
      </trkpt>
      <trkpt lat="47.26398" lon="-2.31656">
        <ele>7.5999999046326</ele>
        <time>2021-04-11T10:36:52.000Z</time>
      </trkpt>
      <trkpt lat="47.26401" lon="-2.31654">
        <ele>8</ele>
        <time>2021-04-11T10:36:53.000Z</time>
      </trkpt>
      <trkpt lat="47.26405" lon="-2.31652">
        <ele>8.3999996185303</ele>
        <time>2021-04-11T10:36:54.000Z</time>
      </trkpt>
      <trkpt lat="47.26413" lon="-2.31642">
        <ele>8.3999996185303</ele>
        <time>2021-04-11T10:36:57.000Z</time>
      </trkpt>
      <trkpt lat="47.26413" lon="-2.31638">
        <ele>8.3999996185303</ele>
        <time>2021-04-11T10:36:58.000Z</time>
      </trkpt>
      <trkpt lat="47.26413" lon="-2.31628">
        <ele>8.3999996185303</ele>
        <time>2021-04-11T10:37:00.000Z</time>
      </trkpt>
      <trkpt lat="47.26411" lon="-2.31608">
        <ele>8.3999996185303</ele>
        <time>2021-04-11T10:37:04.000Z</time>
      </trkpt>
      <trkpt lat="47.2641" lon="-2.31603">
        <ele>8.3999996185303</ele>
        <time>2021-04-11T10:37:05.000Z</time>
      </trkpt>
      <trkpt lat="47.26409" lon="-2.31574">
        <ele>8.3999996185303</ele>
        <time>2021-04-11T10:37:11.000Z</time>
      </trkpt>
      <trkpt lat="47.26409" lon="-2.31551">
        <ele>8.3999996185303</ele>
        <time>2021-04-11T10:37:17.000Z</time>
      </trkpt>
      <trkpt lat="47.26411" lon="-2.31551">
        <ele>8.3999996185303</ele>
        <time>2021-04-11T10:37:18.000Z</time>
      </trkpt>
      <trkpt lat="47.26414" lon="-2.31551">
        <ele>8.3999996185303</ele>
        <time>2021-04-11T10:37:20.000Z</time>
      </trkpt>
      <trkpt lat="47.26414" lon="-2.31551">
        <ele>8.3999996185303</ele>
        <time>2021-04-11T10:37:21.000Z</time>
      </trkpt>
    </trkseg>
  </trk>
</gpx>